<?xml version="1.0" encoding="UTF-8" standalone="no" ?>
<gpx xmlns="http://www.topografix.com/GPX/1/1" xmlns:xsi="http://www.w3.org/2001/XMLSchema-instance" xsi:schemaLocation="http://www.topografix.com/GPX/1/1 http://www.topografix.com/GPX/1/1/gpx.xsd" version="1.1" creator="VisuGPX - https://www.visugpx.com">
  <metadata>
    <name>2016-05-19 Walk from Affoux</name>
    <desc><![CDATA[2016-05-19 Walk from Affoux]]></desc>
  </metadata>
  <wpt lat="45.84457" lon="4.40447">
    <ele>785</ele>
    <name><![CDATA[19/05/2016 09:14 (Start)]]></name>
  </wpt>
  <wpt lat="45.84458" lon="4.40442">
    <ele>786</ele>
    <name><![CDATA[19/05/2016 09:14 (End)]]></name>
    <desc><![CDATA[Created by Google My Tracks on Android  Name: 19/05/2016 09:14 Activity type: walking Description: - Total distance: 22.86 km (14.2 mi) Total time: 6:45:03 Moving time: 6:28:00 Average speed: 3.39 km/h (2.1 mi/h) Average moving speed: 3.54 km/h (2.2 mi/h) Max speed: 7.20 km/h (4.5 mi/h) Average pace: 17:43 min/km (28:31 min/mi) Average moving pace: 16:58 min/km (27:19 min/mi) Fastest pace: 8:20 min/km (13:25 min/mi) Max elevation: 1055 m (3460 ft) Min elevation: 134 m (440 ft) Elevation gain: 1763 m (5785 ft) Max grade: 3565 % Min grade: -31 % Recorded: 19/05/2016 09:14]]></desc>
  </wpt>
  <trk>
    <name><![CDATA[19/05/2016 09:14]]></name>
    <trkseg>
      <trkpt lat="45.84452" lon="4.40436">
        <ele>785</ele>
        <time>2016-05-19T07:18:24.222Z</time>
      </trkpt>
      <trkpt lat="45.84451" lon="4.40436">
        <ele>785</ele>
        <time>2016-05-19T07:18:25.225Z</time>
      </trkpt>
      <trkpt lat="45.84451" lon="4.40448">
        <ele>785</ele>
        <time>2016-05-19T07:18:44.222Z</time>
      </trkpt>
      <trkpt lat="45.84451" lon="4.40449">
        <ele>785</ele>
        <time>2016-05-19T07:18:45.325Z</time>
      </trkpt>
      <trkpt lat="45.8445" lon="4.40462">
        <ele>784</ele>
        <time>2016-05-19T07:18:54.217Z</time>
      </trkpt>
      <trkpt lat="45.8445" lon="4.40463">
        <ele>784</ele>
        <time>2016-05-19T07:18:55.309Z</time>
      </trkpt>
      <trkpt lat="45.84451" lon="4.40475">
        <ele>784</ele>
        <time>2016-05-19T07:19:03.216Z</time>
      </trkpt>
      <trkpt lat="45.84451" lon="4.40476">
        <ele>784</ele>
        <time>2016-05-19T07:19:04.228Z</time>
      </trkpt>
      <trkpt lat="45.84448" lon="4.40488">
        <ele>783</ele>
        <time>2016-05-19T07:19:12.221Z</time>
      </trkpt>
      <trkpt lat="45.84447" lon="4.40491">
        <ele>783</ele>
        <time>2016-05-19T07:19:13.217Z</time>
      </trkpt>
      <trkpt lat="45.84443" lon="4.40502">
        <ele>780</ele>
        <time>2016-05-19T07:19:20.215Z</time>
      </trkpt>
      <trkpt lat="45.84443" lon="4.40503">
        <ele>780</ele>
        <time>2016-05-19T07:19:21.219Z</time>
      </trkpt>
      <trkpt lat="45.84441" lon="4.40515">
        <ele>780</ele>
        <time>2016-05-19T07:19:29.235Z</time>
      </trkpt>
      <trkpt lat="45.84441" lon="4.40517">
        <ele>781</ele>
        <time>2016-05-19T07:19:30.217Z</time>
      </trkpt>
      <trkpt lat="45.84438" lon="4.40528">
        <ele>781</ele>
        <time>2016-05-19T07:19:37.223Z</time>
      </trkpt>
      <trkpt lat="45.84437" lon="4.40529">
        <ele>780</ele>
        <time>2016-05-19T07:19:38.22Z</time>
      </trkpt>
      <trkpt lat="45.84432" lon="4.40539">
        <ele>780</ele>
        <time>2016-05-19T07:19:46.212Z</time>
      </trkpt>
      <trkpt lat="45.84431" lon="4.40541">
        <ele>780</ele>
        <time>2016-05-19T07:19:47.212Z</time>
      </trkpt>
      <trkpt lat="45.84426" lon="4.4055">
        <ele>780</ele>
        <time>2016-05-19T07:19:53.221Z</time>
      </trkpt>
      <trkpt lat="45.84425" lon="4.40551">
        <ele>780</ele>
        <time>2016-05-19T07:19:54.223Z</time>
      </trkpt>
      <trkpt lat="45.84418" lon="4.40559">
        <ele>779</ele>
        <time>2016-05-19T07:20:01.217Z</time>
      </trkpt>
      <trkpt lat="45.84417" lon="4.4056">
        <ele>779</ele>
        <time>2016-05-19T07:20:02.215Z</time>
      </trkpt>
      <trkpt lat="45.8441" lon="4.40567">
        <ele>771</ele>
        <time>2016-05-19T07:20:08.216Z</time>
      </trkpt>
      <trkpt lat="45.84409" lon="4.40568">
        <ele>771</ele>
        <time>2016-05-19T07:20:09.217Z</time>
      </trkpt>
      <trkpt lat="45.84401" lon="4.40573">
        <ele>771</ele>
        <time>2016-05-19T07:20:15.216Z</time>
      </trkpt>
      <trkpt lat="45.844" lon="4.40574">
        <ele>771</ele>
        <time>2016-05-19T07:20:16.219Z</time>
      </trkpt>
      <trkpt lat="45.84393" lon="4.4058">
        <ele>770</ele>
        <time>2016-05-19T07:20:22.225Z</time>
      </trkpt>
      <trkpt lat="45.84391" lon="4.40582">
        <ele>770</ele>
        <time>2016-05-19T07:20:23.221Z</time>
      </trkpt>
      <trkpt lat="45.84386" lon="4.4059">
        <ele>772</ele>
        <time>2016-05-19T07:20:29.228Z</time>
      </trkpt>
      <trkpt lat="45.84385" lon="4.4059">
        <ele>772</ele>
        <time>2016-05-19T07:20:30.223Z</time>
      </trkpt>
      <trkpt lat="45.84378" lon="4.40596">
        <ele>771</ele>
        <time>2016-05-19T07:20:37.218Z</time>
      </trkpt>
      <trkpt lat="45.84376" lon="4.40597">
        <ele>771</ele>
        <time>2016-05-19T07:20:38.216Z</time>
      </trkpt>
      <trkpt lat="45.8437" lon="4.40604">
        <ele>771</ele>
        <time>2016-05-19T07:20:45.226Z</time>
      </trkpt>
      <trkpt lat="45.84369" lon="4.40605">
        <ele>771</ele>
        <time>2016-05-19T07:20:46.225Z</time>
      </trkpt>
      <trkpt lat="45.84362" lon="4.40611">
        <ele>770</ele>
        <time>2016-05-19T07:20:52.22Z</time>
      </trkpt>
      <trkpt lat="45.84361" lon="4.40612">
        <ele>770</ele>
        <time>2016-05-19T07:20:53.308Z</time>
      </trkpt>
      <trkpt lat="45.84354" lon="4.40606">
        <ele>769</ele>
        <time>2016-05-19T07:21:02.213Z</time>
      </trkpt>
      <trkpt lat="45.84353" lon="4.40605">
        <ele>769</ele>
        <time>2016-05-19T07:21:03.229Z</time>
      </trkpt>
      <trkpt lat="45.84357" lon="4.40594">
        <ele>769</ele>
        <time>2016-05-19T07:24:38.22Z</time>
      </trkpt>
      <trkpt lat="45.84358" lon="4.40592">
        <ele>769</ele>
        <time>2016-05-19T07:24:39.226Z</time>
      </trkpt>
      <trkpt lat="45.84363" lon="4.40584">
        <ele>769</ele>
        <time>2016-05-19T07:24:45.209Z</time>
      </trkpt>
      <trkpt lat="45.84364" lon="4.40583">
        <ele>767</ele>
        <time>2016-05-19T07:24:46.215Z</time>
      </trkpt>
      <trkpt lat="45.84368" lon="4.40572">
        <ele>767</ele>
        <time>2016-05-19T07:24:53.218Z</time>
      </trkpt>
      <trkpt lat="45.84369" lon="4.40571">
        <ele>767</ele>
        <time>2016-05-19T07:24:54.22Z</time>
      </trkpt>
      <trkpt lat="45.84374" lon="4.4056">
        <ele>768</ele>
        <time>2016-05-19T07:25:02.224Z</time>
      </trkpt>
      <trkpt lat="45.84374" lon="4.40558">
        <ele>768</ele>
        <time>2016-05-19T07:25:03.216Z</time>
      </trkpt>
      <trkpt lat="45.84379" lon="4.4055">
        <ele>768</ele>
        <time>2016-05-19T07:25:08.218Z</time>
      </trkpt>
      <trkpt lat="45.8438" lon="4.40548">
        <ele>768</ele>
        <time>2016-05-19T07:25:09.225Z</time>
      </trkpt>
      <trkpt lat="45.84385" lon="4.40539">
        <ele>768</ele>
        <time>2016-05-19T07:25:15.225Z</time>
      </trkpt>
      <trkpt lat="45.84385" lon="4.40537">
        <ele>768</ele>
        <time>2016-05-19T07:25:16.223Z</time>
      </trkpt>
      <trkpt lat="45.8439" lon="4.40527">
        <ele>769</ele>
        <time>2016-05-19T07:25:22.218Z</time>
      </trkpt>
      <trkpt lat="45.8439" lon="4.40525">
        <ele>769</ele>
        <time>2016-05-19T07:25:23.221Z</time>
      </trkpt>
      <trkpt lat="45.84394" lon="4.40515">
        <ele>769</ele>
        <time>2016-05-19T07:25:34.222Z</time>
      </trkpt>
      <trkpt lat="45.84394" lon="4.40513">
        <ele>769</ele>
        <time>2016-05-19T07:25:35.215Z</time>
      </trkpt>
      <trkpt lat="45.84396" lon="4.40502">
        <ele>770</ele>
        <time>2016-05-19T07:25:39.335Z</time>
      </trkpt>
      <trkpt lat="45.84396" lon="4.405">
        <ele>770</ele>
        <time>2016-05-19T07:25:40.216Z</time>
      </trkpt>
      <trkpt lat="45.84399" lon="4.40488">
        <ele>770</ele>
        <time>2016-05-19T07:25:45.226Z</time>
      </trkpt>
      <trkpt lat="45.84399" lon="4.40486">
        <ele>770</ele>
        <time>2016-05-19T07:25:46.214Z</time>
      </trkpt>
      <trkpt lat="45.84398" lon="4.40474">
        <ele>769</ele>
        <time>2016-05-19T07:25:51.212Z</time>
      </trkpt>
      <trkpt lat="45.84397" lon="4.40472">
        <ele>769</ele>
        <time>2016-05-19T07:25:52.21Z</time>
      </trkpt>
      <trkpt lat="45.84396" lon="4.4046">
        <ele>769</ele>
        <time>2016-05-19T07:25:57.209Z</time>
      </trkpt>
      <trkpt lat="45.84395" lon="4.40457">
        <ele>769</ele>
        <time>2016-05-19T07:25:58.211Z</time>
      </trkpt>
      <trkpt lat="45.84393" lon="4.40447">
        <ele>769</ele>
        <time>2016-05-19T07:26:03.226Z</time>
      </trkpt>
      <trkpt lat="45.84392" lon="4.40445">
        <ele>769</ele>
        <time>2016-05-19T07:26:04.226Z</time>
      </trkpt>
      <trkpt lat="45.84391" lon="4.40433">
        <ele>770</ele>
        <time>2016-05-19T07:26:10.225Z</time>
      </trkpt>
      <trkpt lat="45.84391" lon="4.40431">
        <ele>770</ele>
        <time>2016-05-19T07:26:11.217Z</time>
      </trkpt>
      <trkpt lat="45.84389" lon="4.40419">
        <ele>770</ele>
        <time>2016-05-19T07:26:18.223Z</time>
      </trkpt>
      <trkpt lat="45.84388" lon="4.40418">
        <ele>770</ele>
        <time>2016-05-19T07:26:19.222Z</time>
      </trkpt>
      <trkpt lat="45.84383" lon="4.40407">
        <ele>770</ele>
        <time>2016-05-19T07:26:26.226Z</time>
      </trkpt>
      <trkpt lat="45.84383" lon="4.40405">
        <ele>770</ele>
        <time>2016-05-19T07:26:27.229Z</time>
      </trkpt>
      <trkpt lat="45.84382" lon="4.40393">
        <ele>770</ele>
        <time>2016-05-19T07:26:33.22Z</time>
      </trkpt>
      <trkpt lat="45.84382" lon="4.40391">
        <ele>770</ele>
        <time>2016-05-19T07:26:34.214Z</time>
      </trkpt>
      <trkpt lat="45.84379" lon="4.40381">
        <ele>770</ele>
        <time>2016-05-19T07:26:40.225Z</time>
      </trkpt>
      <trkpt lat="45.84379" lon="4.40379">
        <ele>770</ele>
        <time>2016-05-19T07:26:41.213Z</time>
      </trkpt>
      <trkpt lat="45.84379" lon="4.40367">
        <ele>770</ele>
        <time>2016-05-19T07:26:47.216Z</time>
      </trkpt>
      <trkpt lat="45.84379" lon="4.40365">
        <ele>770</ele>
        <time>2016-05-19T07:26:48.216Z</time>
      </trkpt>
      <trkpt lat="45.84385" lon="4.40375">
        <ele>771</ele>
        <time>2016-05-19T07:27:17.222Z</time>
      </trkpt>
      <trkpt lat="45.84386" lon="4.40375">
        <ele>771</ele>
        <time>2016-05-19T07:27:18.223Z</time>
      </trkpt>
      <trkpt lat="45.84395" lon="4.40374">
        <ele>772</ele>
        <time>2016-05-19T07:27:26.226Z</time>
      </trkpt>
      <trkpt lat="45.84395" lon="4.40374">
        <ele>772</ele>
        <time>2016-05-19T07:27:27.218Z</time>
      </trkpt>
      <trkpt lat="45.84403" lon="4.40369">
        <ele>773</ele>
        <time>2016-05-19T07:27:38.227Z</time>
      </trkpt>
      <trkpt lat="45.84404" lon="4.40368">
        <ele>773</ele>
        <time>2016-05-19T07:27:39.225Z</time>
      </trkpt>
      <trkpt lat="45.8441" lon="4.40362">
        <ele>774</ele>
        <time>2016-05-19T07:27:50.221Z</time>
      </trkpt>
      <trkpt lat="45.84411" lon="4.40362">
        <ele>774</ele>
        <time>2016-05-19T07:27:51.225Z</time>
      </trkpt>
      <trkpt lat="45.84419" lon="4.40355">
        <ele>785</ele>
        <time>2016-05-19T07:28:01.224Z</time>
      </trkpt>
      <trkpt lat="45.8442" lon="4.40355">
        <ele>785</ele>
        <time>2016-05-19T07:28:02.222Z</time>
      </trkpt>
      <trkpt lat="45.84428" lon="4.40353">
        <ele>785</ele>
        <time>2016-05-19T07:28:11.21Z</time>
      </trkpt>
      <trkpt lat="45.84429" lon="4.40353">
        <ele>786</ele>
        <time>2016-05-19T07:28:12.218Z</time>
      </trkpt>
      <trkpt lat="45.84437" lon="4.40353">
        <ele>786</ele>
        <time>2016-05-19T07:28:21.225Z</time>
      </trkpt>
      <trkpt lat="45.84438" lon="4.40353">
        <ele>786</ele>
        <time>2016-05-19T07:28:22.221Z</time>
      </trkpt>
      <trkpt lat="45.84442" lon="4.40342">
        <ele>787</ele>
        <time>2016-05-19T07:28:31.216Z</time>
      </trkpt>
      <trkpt lat="45.84443" lon="4.4034">
        <ele>787</ele>
        <time>2016-05-19T07:28:32.219Z</time>
      </trkpt>
      <trkpt lat="45.84447" lon="4.40329">
        <ele>788</ele>
        <time>2016-05-19T07:28:41.229Z</time>
      </trkpt>
      <trkpt lat="45.84447" lon="4.40328">
        <ele>788</ele>
        <time>2016-05-19T07:28:42.218Z</time>
      </trkpt>
      <trkpt lat="45.84451" lon="4.40319">
        <ele>789</ele>
        <time>2016-05-19T07:28:52.223Z</time>
      </trkpt>
      <trkpt lat="45.84451" lon="4.40317">
        <ele>789</ele>
        <time>2016-05-19T07:28:53.224Z</time>
      </trkpt>
      <trkpt lat="45.84456" lon="4.40307">
        <ele>789</ele>
        <time>2016-05-19T07:28:58.228Z</time>
      </trkpt>
      <trkpt lat="45.84457" lon="4.40305">
        <ele>790</ele>
        <time>2016-05-19T07:28:59.228Z</time>
      </trkpt>
      <trkpt lat="45.84461" lon="4.40294">
        <ele>790</ele>
        <time>2016-05-19T07:29:06.22Z</time>
      </trkpt>
      <trkpt lat="45.84462" lon="4.40292">
        <ele>790</ele>
        <time>2016-05-19T07:29:07.225Z</time>
      </trkpt>
      <trkpt lat="45.84464" lon="4.40282">
        <ele>790</ele>
        <time>2016-05-19T07:29:14.218Z</time>
      </trkpt>
      <trkpt lat="45.84464" lon="4.4028">
        <ele>790</ele>
        <time>2016-05-19T07:29:15.217Z</time>
      </trkpt>
      <trkpt lat="45.84462" lon="4.40268">
        <ele>790</ele>
        <time>2016-05-19T07:29:22.229Z</time>
      </trkpt>
      <trkpt lat="45.84462" lon="4.40266">
        <ele>790</ele>
        <time>2016-05-19T07:29:23.218Z</time>
      </trkpt>
      <trkpt lat="45.8446" lon="4.40255">
        <ele>790</ele>
        <time>2016-05-19T07:29:29.221Z</time>
      </trkpt>
      <trkpt lat="45.8446" lon="4.40253">
        <ele>790</ele>
        <time>2016-05-19T07:29:30.227Z</time>
      </trkpt>
      <trkpt lat="45.84459" lon="4.40241">
        <ele>788</ele>
        <time>2016-05-19T07:29:38.227Z</time>
      </trkpt>
      <trkpt lat="45.84459" lon="4.4024">
        <ele>788</ele>
        <time>2016-05-19T07:29:39.229Z</time>
      </trkpt>
      <trkpt lat="45.8446" lon="4.40227">
        <ele>788</ele>
        <time>2016-05-19T07:29:47.231Z</time>
      </trkpt>
      <trkpt lat="45.84461" lon="4.40226">
        <ele>788</ele>
        <time>2016-05-19T07:29:48.23Z</time>
      </trkpt>
      <trkpt lat="45.84464" lon="4.40215">
        <ele>788</ele>
        <time>2016-05-19T07:29:55.213Z</time>
      </trkpt>
      <trkpt lat="45.84464" lon="4.40213">
        <ele>788</ele>
        <time>2016-05-19T07:29:56.229Z</time>
      </trkpt>
      <trkpt lat="45.84468" lon="4.40202">
        <ele>788</ele>
        <time>2016-05-19T07:30:04.218Z</time>
      </trkpt>
      <trkpt lat="45.84468" lon="4.402">
        <ele>788</ele>
        <time>2016-05-19T07:30:05.217Z</time>
      </trkpt>
      <trkpt lat="45.84471" lon="4.40189">
        <ele>789</ele>
        <time>2016-05-19T07:30:13.217Z</time>
      </trkpt>
      <trkpt lat="45.84472" lon="4.40187">
        <ele>789</ele>
        <time>2016-05-19T07:30:14.23Z</time>
      </trkpt>
      <trkpt lat="45.84475" lon="4.40176">
        <ele>789</ele>
        <time>2016-05-19T07:30:21.235Z</time>
      </trkpt>
      <trkpt lat="45.84476" lon="4.40174">
        <ele>790</ele>
        <time>2016-05-19T07:30:22.227Z</time>
      </trkpt>
      <trkpt lat="45.84478" lon="4.40163">
        <ele>787</ele>
        <time>2016-05-19T07:30:28.218Z</time>
      </trkpt>
      <trkpt lat="45.84478" lon="4.4016">
        <ele>786</ele>
        <time>2016-05-19T07:30:29.226Z</time>
      </trkpt>
      <trkpt lat="45.84479" lon="4.40148">
        <ele>785</ele>
        <time>2016-05-19T07:30:35.208Z</time>
      </trkpt>
      <trkpt lat="45.84479" lon="4.40146">
        <ele>785</ele>
        <time>2016-05-19T07:30:36.216Z</time>
      </trkpt>
      <trkpt lat="45.84478" lon="4.40133">
        <ele>784</ele>
        <time>2016-05-19T07:30:42.229Z</time>
      </trkpt>
      <trkpt lat="45.84478" lon="4.40131">
        <ele>784</ele>
        <time>2016-05-19T07:30:43.23Z</time>
      </trkpt>
      <trkpt lat="45.84478" lon="4.40118">
        <ele>783</ele>
        <time>2016-05-19T07:30:49.227Z</time>
      </trkpt>
      <trkpt lat="45.84477" lon="4.40116">
        <ele>783</ele>
        <time>2016-05-19T07:30:50.218Z</time>
      </trkpt>
      <trkpt lat="45.84478" lon="4.40105">
        <ele>783</ele>
        <time>2016-05-19T07:30:56.216Z</time>
      </trkpt>
      <trkpt lat="45.84478" lon="4.40102">
        <ele>783</ele>
        <time>2016-05-19T07:30:57.219Z</time>
      </trkpt>
      <trkpt lat="45.84477" lon="4.40091">
        <ele>783</ele>
        <time>2016-05-19T07:31:04.215Z</time>
      </trkpt>
      <trkpt lat="45.84477" lon="4.40089">
        <ele>783</ele>
        <time>2016-05-19T07:31:05.219Z</time>
      </trkpt>
      <trkpt lat="45.84478" lon="4.40077">
        <ele>780</ele>
        <time>2016-05-19T07:31:11.219Z</time>
      </trkpt>
      <trkpt lat="45.84478" lon="4.40075">
        <ele>780</ele>
        <time>2016-05-19T07:31:12.219Z</time>
      </trkpt>
      <trkpt lat="45.84479" lon="4.40064">
        <ele>779</ele>
        <time>2016-05-19T07:31:17.215Z</time>
      </trkpt>
      <trkpt lat="45.84479" lon="4.40062">
        <ele>779</ele>
        <time>2016-05-19T07:31:18.223Z</time>
      </trkpt>
      <trkpt lat="45.84478" lon="4.4005">
        <ele>778</ele>
        <time>2016-05-19T07:31:24.223Z</time>
      </trkpt>
      <trkpt lat="45.84478" lon="4.40048">
        <ele>778</ele>
        <time>2016-05-19T07:31:25.225Z</time>
      </trkpt>
      <trkpt lat="45.84479" lon="4.40036">
        <ele>778</ele>
        <time>2016-05-19T07:31:31.215Z</time>
      </trkpt>
      <trkpt lat="45.84478" lon="4.40034">
        <ele>777</ele>
        <time>2016-05-19T07:31:32.228Z</time>
      </trkpt>
      <trkpt lat="45.84479" lon="4.40022">
        <ele>778</ele>
        <time>2016-05-19T07:31:38.215Z</time>
      </trkpt>
      <trkpt lat="45.84479" lon="4.4002">
        <ele>778</ele>
        <time>2016-05-19T07:31:39.216Z</time>
      </trkpt>
      <trkpt lat="45.84479" lon="4.40008">
        <ele>778</ele>
        <time>2016-05-19T07:31:45.215Z</time>
      </trkpt>
      <trkpt lat="45.84478" lon="4.40006">
        <ele>778</ele>
        <time>2016-05-19T07:31:46.224Z</time>
      </trkpt>
      <trkpt lat="45.84478" lon="4.39994">
        <ele>776</ele>
        <time>2016-05-19T07:31:52.219Z</time>
      </trkpt>
      <trkpt lat="45.84478" lon="4.39992">
        <ele>776</ele>
        <time>2016-05-19T07:31:53.217Z</time>
      </trkpt>
      <trkpt lat="45.84478" lon="4.3998">
        <ele>775</ele>
        <time>2016-05-19T07:31:59.229Z</time>
      </trkpt>
      <trkpt lat="45.84478" lon="4.39978">
        <ele>775</ele>
        <time>2016-05-19T07:32:00.232Z</time>
      </trkpt>
      <trkpt lat="45.84476" lon="4.39967">
        <ele>774</ele>
        <time>2016-05-19T07:32:06.209Z</time>
      </trkpt>
      <trkpt lat="45.84475" lon="4.39965">
        <ele>774</ele>
        <time>2016-05-19T07:32:07.205Z</time>
      </trkpt>
      <trkpt lat="45.84475" lon="4.39952">
        <ele>774</ele>
        <time>2016-05-19T07:32:14.213Z</time>
      </trkpt>
      <trkpt lat="45.84475" lon="4.39951">
        <ele>774</ele>
        <time>2016-05-19T07:32:15.22Z</time>
      </trkpt>
      <trkpt lat="45.84474" lon="4.39939">
        <ele>773</ele>
        <time>2016-05-19T07:32:21.215Z</time>
      </trkpt>
      <trkpt lat="45.84474" lon="4.39937">
        <ele>773</ele>
        <time>2016-05-19T07:32:22.221Z</time>
      </trkpt>
      <trkpt lat="45.84476" lon="4.39926">
        <ele>774</ele>
        <time>2016-05-19T07:32:28.223Z</time>
      </trkpt>
      <trkpt lat="45.84476" lon="4.39924">
        <ele>774</ele>
        <time>2016-05-19T07:32:29.214Z</time>
      </trkpt>
      <trkpt lat="45.84477" lon="4.39912">
        <ele>776</ele>
        <time>2016-05-19T07:32:35.215Z</time>
      </trkpt>
      <trkpt lat="45.84477" lon="4.3991">
        <ele>776</ele>
        <time>2016-05-19T07:32:36.227Z</time>
      </trkpt>
      <trkpt lat="45.84475" lon="4.39899">
        <ele>776</ele>
        <time>2016-05-19T07:32:42.217Z</time>
      </trkpt>
      <trkpt lat="45.84475" lon="4.39897">
        <ele>776</ele>
        <time>2016-05-19T07:32:43.215Z</time>
      </trkpt>
      <trkpt lat="45.84473" lon="4.39885">
        <ele>776</ele>
        <time>2016-05-19T07:32:50.229Z</time>
      </trkpt>
      <trkpt lat="45.84473" lon="4.39883">
        <ele>776</ele>
        <time>2016-05-19T07:32:51.22Z</time>
      </trkpt>
      <trkpt lat="45.84467" lon="4.39874">
        <ele>776</ele>
        <time>2016-05-19T07:32:58.215Z</time>
      </trkpt>
      <trkpt lat="45.84465" lon="4.39873">
        <ele>776</ele>
        <time>2016-05-19T07:32:59.215Z</time>
      </trkpt>
      <trkpt lat="45.84458" lon="4.39867">
        <ele>776</ele>
        <time>2016-05-19T07:33:05.22Z</time>
      </trkpt>
      <trkpt lat="45.84457" lon="4.39866">
        <ele>776</ele>
        <time>2016-05-19T07:33:06.219Z</time>
      </trkpt>
      <trkpt lat="45.84449" lon="4.39861">
        <ele>776</ele>
        <time>2016-05-19T07:33:13.216Z</time>
      </trkpt>
      <trkpt lat="45.84448" lon="4.3986">
        <ele>776</ele>
        <time>2016-05-19T07:33:14.219Z</time>
      </trkpt>
      <trkpt lat="45.84441" lon="4.39854">
        <ele>775</ele>
        <time>2016-05-19T07:33:22.22Z</time>
      </trkpt>
      <trkpt lat="45.8444" lon="4.39853">
        <ele>775</ele>
        <time>2016-05-19T07:33:23.213Z</time>
      </trkpt>
      <trkpt lat="45.84433" lon="4.39849">
        <ele>775</ele>
        <time>2016-05-19T07:33:29.218Z</time>
      </trkpt>
      <trkpt lat="45.84432" lon="4.39848">
        <ele>775</ele>
        <time>2016-05-19T07:33:30.215Z</time>
      </trkpt>
      <trkpt lat="45.84425" lon="4.39842">
        <ele>775</ele>
        <time>2016-05-19T07:33:35.215Z</time>
      </trkpt>
      <trkpt lat="45.84424" lon="4.39842">
        <ele>775</ele>
        <time>2016-05-19T07:33:36.219Z</time>
      </trkpt>
      <trkpt lat="45.84415" lon="4.39838">
        <ele>773</ele>
        <time>2016-05-19T07:33:42.221Z</time>
      </trkpt>
      <trkpt lat="45.84414" lon="4.39837">
        <ele>773</ele>
        <time>2016-05-19T07:33:43.226Z</time>
      </trkpt>
      <trkpt lat="45.84405" lon="4.39833">
        <ele>777</ele>
        <time>2016-05-19T07:33:51.221Z</time>
      </trkpt>
      <trkpt lat="45.84404" lon="4.39833">
        <ele>777</ele>
        <time>2016-05-19T07:33:52.215Z</time>
      </trkpt>
      <trkpt lat="45.84396" lon="4.3983">
        <ele>777</ele>
        <time>2016-05-19T07:33:59.213Z</time>
      </trkpt>
      <trkpt lat="45.84395" lon="4.3983">
        <ele>777</ele>
        <time>2016-05-19T07:34:00.217Z</time>
      </trkpt>
      <trkpt lat="45.84387" lon="4.39828">
        <ele>778</ele>
        <time>2016-05-19T07:34:06.23Z</time>
      </trkpt>
      <trkpt lat="45.84386" lon="4.39828">
        <ele>778</ele>
        <time>2016-05-19T07:34:07.225Z</time>
      </trkpt>
      <trkpt lat="45.84378" lon="4.39824">
        <ele>778</ele>
        <time>2016-05-19T07:34:13.217Z</time>
      </trkpt>
      <trkpt lat="45.84376" lon="4.39824">
        <ele>778</ele>
        <time>2016-05-19T07:34:14.226Z</time>
      </trkpt>
      <trkpt lat="45.84368" lon="4.39821">
        <ele>777</ele>
        <time>2016-05-19T07:34:19.21Z</time>
      </trkpt>
      <trkpt lat="45.84366" lon="4.39821">
        <ele>777</ele>
        <time>2016-05-19T07:34:20.218Z</time>
      </trkpt>
      <trkpt lat="45.84358" lon="4.39818">
        <ele>777</ele>
        <time>2016-05-19T07:34:26.223Z</time>
      </trkpt>
      <trkpt lat="45.84356" lon="4.39818">
        <ele>777</ele>
        <time>2016-05-19T07:34:27.215Z</time>
      </trkpt>
      <trkpt lat="45.84348" lon="4.39815">
        <ele>776</ele>
        <time>2016-05-19T07:34:32.224Z</time>
      </trkpt>
      <trkpt lat="45.84347" lon="4.39814">
        <ele>776</ele>
        <time>2016-05-19T07:34:33.213Z</time>
      </trkpt>
      <trkpt lat="45.84339" lon="4.39811">
        <ele>776</ele>
        <time>2016-05-19T07:34:40.225Z</time>
      </trkpt>
      <trkpt lat="45.84337" lon="4.39811">
        <ele>776</ele>
        <time>2016-05-19T07:34:41.222Z</time>
      </trkpt>
      <trkpt lat="45.84329" lon="4.39809">
        <ele>771</ele>
        <time>2016-05-19T07:34:46.215Z</time>
      </trkpt>
      <trkpt lat="45.84327" lon="4.39808">
        <ele>771</ele>
        <time>2016-05-19T07:34:47.226Z</time>
      </trkpt>
      <trkpt lat="45.8432" lon="4.39805">
        <ele>771</ele>
        <time>2016-05-19T07:34:52.231Z</time>
      </trkpt>
      <trkpt lat="45.84318" lon="4.39804">
        <ele>771</ele>
        <time>2016-05-19T07:34:53.221Z</time>
      </trkpt>
      <trkpt lat="45.84311" lon="4.39797">
        <ele>771</ele>
        <time>2016-05-19T07:35:01.217Z</time>
      </trkpt>
      <trkpt lat="45.8431" lon="4.39796">
        <ele>771</ele>
        <time>2016-05-19T07:35:02.209Z</time>
      </trkpt>
      <trkpt lat="45.84303" lon="4.3979">
        <ele>771</ele>
        <time>2016-05-19T07:35:08.224Z</time>
      </trkpt>
      <trkpt lat="45.84302" lon="4.39789">
        <ele>771</ele>
        <time>2016-05-19T07:35:09.215Z</time>
      </trkpt>
      <trkpt lat="45.84295" lon="4.39782">
        <ele>771</ele>
        <time>2016-05-19T07:35:16.232Z</time>
      </trkpt>
      <trkpt lat="45.84293" lon="4.39781">
        <ele>771</ele>
        <time>2016-05-19T07:35:17.225Z</time>
      </trkpt>
      <trkpt lat="45.84287" lon="4.39775">
        <ele>771</ele>
        <time>2016-05-19T07:35:23.224Z</time>
      </trkpt>
      <trkpt lat="45.84286" lon="4.39774">
        <ele>771</ele>
        <time>2016-05-19T07:35:24.219Z</time>
      </trkpt>
      <trkpt lat="45.8428" lon="4.39767">
        <ele>771</ele>
        <time>2016-05-19T07:35:30.217Z</time>
      </trkpt>
      <trkpt lat="45.84279" lon="4.39765">
        <ele>771</ele>
        <time>2016-05-19T07:35:31.227Z</time>
      </trkpt>
      <trkpt lat="45.84271" lon="4.3976">
        <ele>770</ele>
        <time>2016-05-19T07:35:37.215Z</time>
      </trkpt>
      <trkpt lat="45.8427" lon="4.39759">
        <ele>770</ele>
        <time>2016-05-19T07:35:38.227Z</time>
      </trkpt>
      <trkpt lat="45.84265" lon="4.3975">
        <ele>774</ele>
        <time>2016-05-19T07:35:47.222Z</time>
      </trkpt>
      <trkpt lat="45.84264" lon="4.39749">
        <ele>774</ele>
        <time>2016-05-19T07:35:48.211Z</time>
      </trkpt>
      <trkpt lat="45.84255" lon="4.39745">
        <ele>772</ele>
        <time>2016-05-19T07:35:54.225Z</time>
      </trkpt>
      <trkpt lat="45.84254" lon="4.39745">
        <ele>772</ele>
        <time>2016-05-19T07:35:55.215Z</time>
      </trkpt>
      <trkpt lat="45.84246" lon="4.3974">
        <ele>773</ele>
        <time>2016-05-19T07:36:00.208Z</time>
      </trkpt>
      <trkpt lat="45.84244" lon="4.39739">
        <ele>773</ele>
        <time>2016-05-19T07:36:01.205Z</time>
      </trkpt>
      <trkpt lat="45.84237" lon="4.39735">
        <ele>775</ele>
        <time>2016-05-19T07:36:06.216Z</time>
      </trkpt>
      <trkpt lat="45.84235" lon="4.39734">
        <ele>775</ele>
        <time>2016-05-19T07:36:07.225Z</time>
      </trkpt>
      <trkpt lat="45.84227" lon="4.39727">
        <ele>777</ele>
        <time>2016-05-19T07:36:13.214Z</time>
      </trkpt>
      <trkpt lat="45.84226" lon="4.39726">
        <ele>777</ele>
        <time>2016-05-19T07:36:14.222Z</time>
      </trkpt>
      <trkpt lat="45.84219" lon="4.39721">
        <ele>778</ele>
        <time>2016-05-19T07:36:20.204Z</time>
      </trkpt>
      <trkpt lat="45.84218" lon="4.3972">
        <ele>778</ele>
        <time>2016-05-19T07:36:21.214Z</time>
      </trkpt>
      <trkpt lat="45.8421" lon="4.39715">
        <ele>779</ele>
        <time>2016-05-19T07:36:27.216Z</time>
      </trkpt>
      <trkpt lat="45.84209" lon="4.39715">
        <ele>779</ele>
        <time>2016-05-19T07:36:28.222Z</time>
      </trkpt>
      <trkpt lat="45.84201" lon="4.39711">
        <ele>779</ele>
        <time>2016-05-19T07:36:34.222Z</time>
      </trkpt>
      <trkpt lat="45.842" lon="4.3971">
        <ele>779</ele>
        <time>2016-05-19T07:36:35.213Z</time>
      </trkpt>
      <trkpt lat="45.84192" lon="4.39705">
        <ele>780</ele>
        <time>2016-05-19T07:36:43.209Z</time>
      </trkpt>
      <trkpt lat="45.84191" lon="4.39705">
        <ele>780</ele>
        <time>2016-05-19T07:36:44.208Z</time>
      </trkpt>
      <trkpt lat="45.84183" lon="4.39708">
        <ele>780</ele>
        <time>2016-05-19T07:36:59.213Z</time>
      </trkpt>
      <trkpt lat="45.84181" lon="4.39709">
        <ele>780</ele>
        <time>2016-05-19T07:37:00.214Z</time>
      </trkpt>
      <trkpt lat="45.84177" lon="4.3972">
        <ele>780</ele>
        <time>2016-05-19T07:37:14.22Z</time>
      </trkpt>
      <trkpt lat="45.84176" lon="4.39721">
        <ele>780</ele>
        <time>2016-05-19T07:37:15.211Z</time>
      </trkpt>
      <trkpt lat="45.84168" lon="4.39723">
        <ele>780</ele>
        <time>2016-05-19T07:37:20.224Z</time>
      </trkpt>
      <trkpt lat="45.84167" lon="4.39723">
        <ele>780</ele>
        <time>2016-05-19T07:37:21.227Z</time>
      </trkpt>
      <trkpt lat="45.84159" lon="4.39727">
        <ele>786</ele>
        <time>2016-05-19T07:37:33.22Z</time>
      </trkpt>
      <trkpt lat="45.84158" lon="4.39727">
        <ele>786</ele>
        <time>2016-05-19T07:37:34.219Z</time>
      </trkpt>
      <trkpt lat="45.84151" lon="4.39735">
        <ele>786</ele>
        <time>2016-05-19T07:37:49.219Z</time>
      </trkpt>
      <trkpt lat="45.8415" lon="4.39736">
        <ele>786</ele>
        <time>2016-05-19T07:37:50.221Z</time>
      </trkpt>
      <trkpt lat="45.84143" lon="4.39743">
        <ele>787</ele>
        <time>2016-05-19T07:38:01.221Z</time>
      </trkpt>
      <trkpt lat="45.84143" lon="4.39744">
        <ele>787</ele>
        <time>2016-05-19T07:38:02.219Z</time>
      </trkpt>
      <trkpt lat="45.84135" lon="4.3975">
        <ele>788</ele>
        <time>2016-05-19T07:38:08.22Z</time>
      </trkpt>
      <trkpt lat="45.84134" lon="4.3975">
        <ele>785</ele>
        <time>2016-05-19T07:38:09.218Z</time>
      </trkpt>
      <trkpt lat="45.84127" lon="4.39756">
        <ele>786</ele>
        <time>2016-05-19T07:38:24.219Z</time>
      </trkpt>
      <trkpt lat="45.84125" lon="4.39756">
        <ele>786</ele>
        <time>2016-05-19T07:38:25.219Z</time>
      </trkpt>
      <trkpt lat="45.84117" lon="4.39761">
        <ele>787</ele>
        <time>2016-05-19T07:38:31.221Z</time>
      </trkpt>
      <trkpt lat="45.84116" lon="4.39762">
        <ele>787</ele>
        <time>2016-05-19T07:38:32.221Z</time>
      </trkpt>
      <trkpt lat="45.84108" lon="4.39766">
        <ele>788</ele>
        <time>2016-05-19T07:38:38.221Z</time>
      </trkpt>
      <trkpt lat="45.84107" lon="4.39766">
        <ele>788</ele>
        <time>2016-05-19T07:38:39.221Z</time>
      </trkpt>
      <trkpt lat="45.84098" lon="4.39769">
        <ele>789</ele>
        <time>2016-05-19T07:38:46.218Z</time>
      </trkpt>
      <trkpt lat="45.84098" lon="4.3977">
        <ele>789</ele>
        <time>2016-05-19T07:38:47.22Z</time>
      </trkpt>
      <trkpt lat="45.8409" lon="4.39774">
        <ele>789</ele>
        <time>2016-05-19T07:38:55.225Z</time>
      </trkpt>
      <trkpt lat="45.84088" lon="4.39774">
        <ele>789</ele>
        <time>2016-05-19T07:38:56.219Z</time>
      </trkpt>
      <trkpt lat="45.8408" lon="4.39773">
        <ele>794</ele>
        <time>2016-05-19T07:39:01.222Z</time>
      </trkpt>
      <trkpt lat="45.84078" lon="4.39773">
        <ele>794</ele>
        <time>2016-05-19T07:39:02.216Z</time>
      </trkpt>
      <trkpt lat="45.8407" lon="4.39773">
        <ele>794</ele>
        <time>2016-05-19T07:39:07.212Z</time>
      </trkpt>
      <trkpt lat="45.84068" lon="4.39772">
        <ele>794</ele>
        <time>2016-05-19T07:39:08.216Z</time>
      </trkpt>
      <trkpt lat="45.8406" lon="4.39773">
        <ele>793</ele>
        <time>2016-05-19T07:39:14.226Z</time>
      </trkpt>
      <trkpt lat="45.84059" lon="4.39773">
        <ele>793</ele>
        <time>2016-05-19T07:39:15.216Z</time>
      </trkpt>
      <trkpt lat="45.84051" lon="4.39774">
        <ele>793</ele>
        <time>2016-05-19T07:39:27.225Z</time>
      </trkpt>
      <trkpt lat="45.84049" lon="4.39774">
        <ele>793</ele>
        <time>2016-05-19T07:39:28.222Z</time>
      </trkpt>
      <trkpt lat="45.84041" lon="4.39775">
        <ele>794</ele>
        <time>2016-05-19T07:39:33.231Z</time>
      </trkpt>
      <trkpt lat="45.84039" lon="4.39775">
        <ele>794</ele>
        <time>2016-05-19T07:39:34.226Z</time>
      </trkpt>
      <trkpt lat="45.8403" lon="4.39773">
        <ele>794</ele>
        <time>2016-05-19T07:39:39.222Z</time>
      </trkpt>
      <trkpt lat="45.84029" lon="4.39773">
        <ele>794</ele>
        <time>2016-05-19T07:39:40.211Z</time>
      </trkpt>
      <trkpt lat="45.8402" lon="4.39771">
        <ele>795</ele>
        <time>2016-05-19T07:39:46.225Z</time>
      </trkpt>
      <trkpt lat="45.84019" lon="4.3977">
        <ele>795</ele>
        <time>2016-05-19T07:39:47.219Z</time>
      </trkpt>
      <trkpt lat="45.84011" lon="4.39768">
        <ele>796</ele>
        <time>2016-05-19T07:39:54.228Z</time>
      </trkpt>
      <trkpt lat="45.8401" lon="4.39768">
        <ele>796</ele>
        <time>2016-05-19T07:39:55.225Z</time>
      </trkpt>
      <trkpt lat="45.84002" lon="4.39767">
        <ele>796</ele>
        <time>2016-05-19T07:40:01.23Z</time>
      </trkpt>
      <trkpt lat="45.84" lon="4.39766">
        <ele>796</ele>
        <time>2016-05-19T07:40:02.217Z</time>
      </trkpt>
      <trkpt lat="45.83993" lon="4.39769">
        <ele>799</ele>
        <time>2016-05-19T07:40:08.212Z</time>
      </trkpt>
      <trkpt lat="45.83991" lon="4.3977">
        <ele>799</ele>
        <time>2016-05-19T07:40:09.212Z</time>
      </trkpt>
      <trkpt lat="45.83983" lon="4.39772">
        <ele>799</ele>
        <time>2016-05-19T07:40:15.226Z</time>
      </trkpt>
      <trkpt lat="45.83982" lon="4.39772">
        <ele>799</ele>
        <time>2016-05-19T07:40:16.218Z</time>
      </trkpt>
      <trkpt lat="45.83974" lon="4.39772">
        <ele>799</ele>
        <time>2016-05-19T07:40:23.225Z</time>
      </trkpt>
      <trkpt lat="45.83972" lon="4.39773">
        <ele>799</ele>
        <time>2016-05-19T07:40:24.211Z</time>
      </trkpt>
      <trkpt lat="45.83964" lon="4.39773">
        <ele>799</ele>
        <time>2016-05-19T07:40:29.216Z</time>
      </trkpt>
      <trkpt lat="45.83963" lon="4.39773">
        <ele>800</ele>
        <time>2016-05-19T07:40:30.22Z</time>
      </trkpt>
      <trkpt lat="45.83955" lon="4.39771">
        <ele>800</ele>
        <time>2016-05-19T07:40:35.217Z</time>
      </trkpt>
      <trkpt lat="45.83953" lon="4.39771">
        <ele>800</ele>
        <time>2016-05-19T07:40:36.214Z</time>
      </trkpt>
      <trkpt lat="45.83945" lon="4.3977">
        <ele>801</ele>
        <time>2016-05-19T07:40:42.222Z</time>
      </trkpt>
      <trkpt lat="45.83944" lon="4.3977">
        <ele>802</ele>
        <time>2016-05-19T07:40:43.218Z</time>
      </trkpt>
      <trkpt lat="45.83935" lon="4.39766">
        <ele>803</ele>
        <time>2016-05-19T07:40:50.224Z</time>
      </trkpt>
      <trkpt lat="45.83934" lon="4.39765">
        <ele>804</ele>
        <time>2016-05-19T07:40:51.274Z</time>
      </trkpt>
      <trkpt lat="45.83926" lon="4.39761">
        <ele>806</ele>
        <time>2016-05-19T07:41:00.224Z</time>
      </trkpt>
      <trkpt lat="45.83925" lon="4.39762">
        <ele>806</ele>
        <time>2016-05-19T07:41:01.227Z</time>
      </trkpt>
      <trkpt lat="45.83917" lon="4.3976">
        <ele>808</ele>
        <time>2016-05-19T07:41:07.212Z</time>
      </trkpt>
      <trkpt lat="45.83916" lon="4.3976">
        <ele>809</ele>
        <time>2016-05-19T07:41:08.212Z</time>
      </trkpt>
      <trkpt lat="45.83907" lon="4.39758">
        <ele>808</ele>
        <time>2016-05-19T07:41:14.225Z</time>
      </trkpt>
      <trkpt lat="45.83905" lon="4.39758">
        <ele>808</ele>
        <time>2016-05-19T07:41:15.227Z</time>
      </trkpt>
      <trkpt lat="45.83897" lon="4.39754">
        <ele>806</ele>
        <time>2016-05-19T07:41:23.216Z</time>
      </trkpt>
      <trkpt lat="45.83896" lon="4.39754">
        <ele>806</ele>
        <time>2016-05-19T07:41:24.227Z</time>
      </trkpt>
      <trkpt lat="45.83887" lon="4.39752">
        <ele>805</ele>
        <time>2016-05-19T07:41:31.227Z</time>
      </trkpt>
      <trkpt lat="45.83885" lon="4.39752">
        <ele>805</ele>
        <time>2016-05-19T07:41:32.226Z</time>
      </trkpt>
      <trkpt lat="45.83877" lon="4.3975">
        <ele>805</ele>
        <time>2016-05-19T07:41:38.231Z</time>
      </trkpt>
      <trkpt lat="45.83876" lon="4.39749">
        <ele>819</ele>
        <time>2016-05-19T07:41:39.225Z</time>
      </trkpt>
      <trkpt lat="45.83868" lon="4.39745">
        <ele>819</ele>
        <time>2016-05-19T07:41:46.227Z</time>
      </trkpt>
      <trkpt lat="45.83867" lon="4.39744">
        <ele>819</ele>
        <time>2016-05-19T07:41:47.23Z</time>
      </trkpt>
      <trkpt lat="45.8386" lon="4.39737">
        <ele>819</ele>
        <time>2016-05-19T07:41:55.214Z</time>
      </trkpt>
      <trkpt lat="45.83859" lon="4.39737">
        <ele>819</ele>
        <time>2016-05-19T07:41:56.214Z</time>
      </trkpt>
      <trkpt lat="45.8385" lon="4.39733">
        <ele>818</ele>
        <time>2016-05-19T07:42:02.214Z</time>
      </trkpt>
      <trkpt lat="45.83849" lon="4.39733">
        <ele>818</ele>
        <time>2016-05-19T07:42:03.214Z</time>
      </trkpt>
      <trkpt lat="45.83841" lon="4.39731">
        <ele>818</ele>
        <time>2016-05-19T07:42:08.227Z</time>
      </trkpt>
      <trkpt lat="45.8384" lon="4.39731">
        <ele>818</ele>
        <time>2016-05-19T07:42:09.229Z</time>
      </trkpt>
      <trkpt lat="45.83832" lon="4.39728">
        <ele>818</ele>
        <time>2016-05-19T07:42:15.228Z</time>
      </trkpt>
      <trkpt lat="45.8383" lon="4.39728">
        <ele>818</ele>
        <time>2016-05-19T07:42:16.228Z</time>
      </trkpt>
      <trkpt lat="45.83822" lon="4.39726">
        <ele>819</ele>
        <time>2016-05-19T07:42:22.223Z</time>
      </trkpt>
      <trkpt lat="45.83821" lon="4.39726">
        <ele>819</ele>
        <time>2016-05-19T07:42:23.223Z</time>
      </trkpt>
      <trkpt lat="45.83812" lon="4.39727">
        <ele>819</ele>
        <time>2016-05-19T07:42:32.214Z</time>
      </trkpt>
      <trkpt lat="45.83811" lon="4.39727">
        <ele>819</ele>
        <time>2016-05-19T07:42:33.216Z</time>
      </trkpt>
      <trkpt lat="45.83802" lon="4.39729">
        <ele>820</ele>
        <time>2016-05-19T07:42:40.229Z</time>
      </trkpt>
      <trkpt lat="45.83801" lon="4.3973">
        <ele>820</ele>
        <time>2016-05-19T07:42:41.228Z</time>
      </trkpt>
      <trkpt lat="45.83792" lon="4.3973">
        <ele>820</ele>
        <time>2016-05-19T07:42:48.227Z</time>
      </trkpt>
      <trkpt lat="45.83791" lon="4.3973">
        <ele>820</ele>
        <time>2016-05-19T07:42:49.231Z</time>
      </trkpt>
      <trkpt lat="45.83783" lon="4.39729">
        <ele>820</ele>
        <time>2016-05-19T07:42:56.214Z</time>
      </trkpt>
      <trkpt lat="45.83781" lon="4.39729">
        <ele>820</ele>
        <time>2016-05-19T07:42:57.214Z</time>
      </trkpt>
      <trkpt lat="45.83773" lon="4.39729">
        <ele>820</ele>
        <time>2016-05-19T07:43:04.226Z</time>
      </trkpt>
      <trkpt lat="45.83772" lon="4.39728">
        <ele>820</ele>
        <time>2016-05-19T07:43:05.228Z</time>
      </trkpt>
      <trkpt lat="45.83764" lon="4.39727">
        <ele>820</ele>
        <time>2016-05-19T07:43:12.217Z</time>
      </trkpt>
      <trkpt lat="45.83763" lon="4.39727">
        <ele>820</ele>
        <time>2016-05-19T07:43:13.214Z</time>
      </trkpt>
      <trkpt lat="45.83755" lon="4.39727">
        <ele>820</ele>
        <time>2016-05-19T07:43:20.228Z</time>
      </trkpt>
      <trkpt lat="45.83754" lon="4.39727">
        <ele>820</ele>
        <time>2016-05-19T07:43:21.229Z</time>
      </trkpt>
      <trkpt lat="45.83745" lon="4.39727">
        <ele>823</ele>
        <time>2016-05-19T07:43:29.225Z</time>
      </trkpt>
      <trkpt lat="45.83743" lon="4.39727">
        <ele>823</ele>
        <time>2016-05-19T07:43:30.227Z</time>
      </trkpt>
      <trkpt lat="45.83735" lon="4.39726">
        <ele>824</ele>
        <time>2016-05-19T07:43:37.231Z</time>
      </trkpt>
      <trkpt lat="45.83734" lon="4.39726">
        <ele>824</ele>
        <time>2016-05-19T07:43:38.226Z</time>
      </trkpt>
      <trkpt lat="45.83726" lon="4.39725">
        <ele>825</ele>
        <time>2016-05-19T07:43:46.235Z</time>
      </trkpt>
      <trkpt lat="45.83725" lon="4.39725">
        <ele>826</ele>
        <time>2016-05-19T07:43:47.228Z</time>
      </trkpt>
      <trkpt lat="45.83717" lon="4.39724">
        <ele>827</ele>
        <time>2016-05-19T07:43:55.226Z</time>
      </trkpt>
      <trkpt lat="45.83716" lon="4.39723">
        <ele>827</ele>
        <time>2016-05-19T07:43:56.222Z</time>
      </trkpt>
      <trkpt lat="45.83708" lon="4.39722">
        <ele>827</ele>
        <time>2016-05-19T07:44:03.214Z</time>
      </trkpt>
      <trkpt lat="45.83707" lon="4.39721">
        <ele>828</ele>
        <time>2016-05-19T07:44:04.215Z</time>
      </trkpt>
      <trkpt lat="45.83699" lon="4.39719">
        <ele>828</ele>
        <time>2016-05-19T07:44:11.213Z</time>
      </trkpt>
      <trkpt lat="45.83697" lon="4.39718">
        <ele>828</ele>
        <time>2016-05-19T07:44:12.215Z</time>
      </trkpt>
      <trkpt lat="45.83689" lon="4.39715">
        <ele>829</ele>
        <time>2016-05-19T07:44:20.228Z</time>
      </trkpt>
      <trkpt lat="45.83688" lon="4.39714">
        <ele>829</ele>
        <time>2016-05-19T07:44:21.226Z</time>
      </trkpt>
      <trkpt lat="45.83679" lon="4.39714">
        <ele>830</ele>
        <time>2016-05-19T07:44:29.23Z</time>
      </trkpt>
      <trkpt lat="45.83678" lon="4.39714">
        <ele>830</ele>
        <time>2016-05-19T07:44:30.23Z</time>
      </trkpt>
      <trkpt lat="45.8367" lon="4.39715">
        <ele>830</ele>
        <time>2016-05-19T07:44:38.225Z</time>
      </trkpt>
      <trkpt lat="45.83669" lon="4.39715">
        <ele>830</ele>
        <time>2016-05-19T07:44:39.222Z</time>
      </trkpt>
      <trkpt lat="45.83661" lon="4.39713">
        <ele>835</ele>
        <time>2016-05-19T07:44:49.225Z</time>
      </trkpt>
      <trkpt lat="45.8366" lon="4.39713">
        <ele>835</ele>
        <time>2016-05-19T07:44:50.224Z</time>
      </trkpt>
      <trkpt lat="45.83651" lon="4.39712">
        <ele>835</ele>
        <time>2016-05-19T07:45:03.219Z</time>
      </trkpt>
      <trkpt lat="45.83651" lon="4.39711">
        <ele>835</ele>
        <time>2016-05-19T07:45:04.22Z</time>
      </trkpt>
      <trkpt lat="45.83643" lon="4.39705">
        <ele>836</ele>
        <time>2016-05-19T07:45:13.224Z</time>
      </trkpt>
      <trkpt lat="45.83642" lon="4.39704">
        <ele>836</ele>
        <time>2016-05-19T07:45:14.214Z</time>
      </trkpt>
      <trkpt lat="45.83634" lon="4.39702">
        <ele>836</ele>
        <time>2016-05-19T07:45:21.234Z</time>
      </trkpt>
      <trkpt lat="45.83633" lon="4.39702">
        <ele>836</ele>
        <time>2016-05-19T07:45:22.215Z</time>
      </trkpt>
      <trkpt lat="45.83625" lon="4.39702">
        <ele>836</ele>
        <time>2016-05-19T07:45:28.222Z</time>
      </trkpt>
      <trkpt lat="45.83624" lon="4.39702">
        <ele>836</ele>
        <time>2016-05-19T07:45:29.224Z</time>
      </trkpt>
      <trkpt lat="45.83615" lon="4.39703">
        <ele>837</ele>
        <time>2016-05-19T07:45:35.233Z</time>
      </trkpt>
      <trkpt lat="45.83614" lon="4.39704">
        <ele>837</ele>
        <time>2016-05-19T07:45:36.22Z</time>
      </trkpt>
      <trkpt lat="45.83606" lon="4.39708">
        <ele>837</ele>
        <time>2016-05-19T07:45:47.227Z</time>
      </trkpt>
      <trkpt lat="45.83605" lon="4.39708">
        <ele>837</ele>
        <time>2016-05-19T07:45:48.238Z</time>
      </trkpt>
      <trkpt lat="45.83599" lon="4.39718">
        <ele>837</ele>
        <time>2016-05-19T07:46:05.223Z</time>
      </trkpt>
      <trkpt lat="45.83599" lon="4.3972">
        <ele>837</ele>
        <time>2016-05-19T07:46:06.227Z</time>
      </trkpt>
      <trkpt lat="45.8359" lon="4.3972">
        <ele>837</ele>
        <time>2016-05-19T07:47:45.224Z</time>
      </trkpt>
      <trkpt lat="45.83589" lon="4.39718">
        <ele>837</ele>
        <time>2016-05-19T07:47:46.229Z</time>
      </trkpt>
      <trkpt lat="45.83585" lon="4.39708">
        <ele>837</ele>
        <time>2016-05-19T07:47:53.228Z</time>
      </trkpt>
      <trkpt lat="45.83584" lon="4.39707">
        <ele>837</ele>
        <time>2016-05-19T07:47:54.231Z</time>
      </trkpt>
      <trkpt lat="45.83578" lon="4.39698">
        <ele>835</ele>
        <time>2016-05-19T07:48:08.226Z</time>
      </trkpt>
      <trkpt lat="45.83577" lon="4.39697">
        <ele>835</ele>
        <time>2016-05-19T07:48:09.211Z</time>
      </trkpt>
      <trkpt lat="45.8357" lon="4.3969">
        <ele>835</ele>
        <time>2016-05-19T07:48:19.218Z</time>
      </trkpt>
      <trkpt lat="45.83569" lon="4.39689">
        <ele>835</ele>
        <time>2016-05-19T07:48:20.223Z</time>
      </trkpt>
      <trkpt lat="45.83562" lon="4.39683">
        <ele>835</ele>
        <time>2016-05-19T07:48:27.221Z</time>
      </trkpt>
      <trkpt lat="45.83561" lon="4.39682">
        <ele>835</ele>
        <time>2016-05-19T07:48:28.221Z</time>
      </trkpt>
      <trkpt lat="45.83554" lon="4.39676">
        <ele>834</ele>
        <time>2016-05-19T07:48:37.237Z</time>
      </trkpt>
      <trkpt lat="45.83553" lon="4.39676">
        <ele>834</ele>
        <time>2016-05-19T07:48:38.206Z</time>
      </trkpt>
      <trkpt lat="45.83545" lon="4.3967">
        <ele>834</ele>
        <time>2016-05-19T07:48:46.226Z</time>
      </trkpt>
      <trkpt lat="45.83544" lon="4.3967">
        <ele>833</ele>
        <time>2016-05-19T07:48:47.228Z</time>
      </trkpt>
      <trkpt lat="45.83536" lon="4.39665">
        <ele>833</ele>
        <time>2016-05-19T07:48:56.227Z</time>
      </trkpt>
      <trkpt lat="45.83535" lon="4.39664">
        <ele>833</ele>
        <time>2016-05-19T07:48:57.227Z</time>
      </trkpt>
      <trkpt lat="45.83529" lon="4.39656">
        <ele>832</ele>
        <time>2016-05-19T07:49:06.21Z</time>
      </trkpt>
      <trkpt lat="45.83529" lon="4.39655">
        <ele>832</ele>
        <time>2016-05-19T07:49:07.22Z</time>
      </trkpt>
      <trkpt lat="45.8352" lon="4.39651">
        <ele>831</ele>
        <time>2016-05-19T07:49:45.227Z</time>
      </trkpt>
      <trkpt lat="45.8352" lon="4.3965">
        <ele>831</ele>
        <time>2016-05-19T07:49:46.226Z</time>
      </trkpt>
      <trkpt lat="45.83512" lon="4.39645">
        <ele>831</ele>
        <time>2016-05-19T07:49:56.229Z</time>
      </trkpt>
      <trkpt lat="45.83511" lon="4.39645">
        <ele>831</ele>
        <time>2016-05-19T07:49:57.228Z</time>
      </trkpt>
      <trkpt lat="45.83504" lon="4.39638">
        <ele>831</ele>
        <time>2016-05-19T07:50:05.222Z</time>
      </trkpt>
      <trkpt lat="45.83503" lon="4.39637">
        <ele>831</ele>
        <time>2016-05-19T07:50:06.221Z</time>
      </trkpt>
      <trkpt lat="45.83495" lon="4.39631">
        <ele>823</ele>
        <time>2016-05-19T07:50:13.229Z</time>
      </trkpt>
      <trkpt lat="45.83494" lon="4.3963">
        <ele>823</ele>
        <time>2016-05-19T07:50:14.219Z</time>
      </trkpt>
      <trkpt lat="45.83485" lon="4.39626">
        <ele>822</ele>
        <time>2016-05-19T07:50:23.225Z</time>
      </trkpt>
      <trkpt lat="45.83484" lon="4.39626">
        <ele>822</ele>
        <time>2016-05-19T07:50:24.232Z</time>
      </trkpt>
      <trkpt lat="45.83476" lon="4.39622">
        <ele>822</ele>
        <time>2016-05-19T07:50:37.213Z</time>
      </trkpt>
      <trkpt lat="45.83475" lon="4.39621">
        <ele>821</ele>
        <time>2016-05-19T07:50:38.227Z</time>
      </trkpt>
      <trkpt lat="45.83466" lon="4.39621">
        <ele>821</ele>
        <time>2016-05-19T07:50:46.224Z</time>
      </trkpt>
      <trkpt lat="45.83465" lon="4.39621">
        <ele>821</ele>
        <time>2016-05-19T07:50:47.219Z</time>
      </trkpt>
      <trkpt lat="45.83456" lon="4.39621">
        <ele>820</ele>
        <time>2016-05-19T07:50:55.228Z</time>
      </trkpt>
      <trkpt lat="45.83455" lon="4.39621">
        <ele>820</ele>
        <time>2016-05-19T07:50:56.228Z</time>
      </trkpt>
      <trkpt lat="45.83447" lon="4.3962">
        <ele>819</ele>
        <time>2016-05-19T07:51:04.225Z</time>
      </trkpt>
      <trkpt lat="45.83446" lon="4.3962">
        <ele>819</ele>
        <time>2016-05-19T07:51:05.224Z</time>
      </trkpt>
      <trkpt lat="45.83438" lon="4.39621">
        <ele>818</ele>
        <time>2016-05-19T07:51:11.236Z</time>
      </trkpt>
      <trkpt lat="45.83436" lon="4.39621">
        <ele>818</ele>
        <time>2016-05-19T07:51:12.218Z</time>
      </trkpt>
      <trkpt lat="45.83428" lon="4.3962">
        <ele>818</ele>
        <time>2016-05-19T07:51:22.223Z</time>
      </trkpt>
      <trkpt lat="45.83427" lon="4.3962">
        <ele>818</ele>
        <time>2016-05-19T07:51:23.224Z</time>
      </trkpt>
      <trkpt lat="45.83419" lon="4.39617">
        <ele>817</ele>
        <time>2016-05-19T07:51:31.222Z</time>
      </trkpt>
      <trkpt lat="45.83418" lon="4.39616">
        <ele>817</ele>
        <time>2016-05-19T07:51:32.219Z</time>
      </trkpt>
      <trkpt lat="45.83412" lon="4.39608">
        <ele>817</ele>
        <time>2016-05-19T07:51:41.229Z</time>
      </trkpt>
      <trkpt lat="45.83412" lon="4.39606">
        <ele>817</ele>
        <time>2016-05-19T07:51:42.222Z</time>
      </trkpt>
      <trkpt lat="45.83408" lon="4.39595">
        <ele>816</ele>
        <time>2016-05-19T07:52:08.219Z</time>
      </trkpt>
      <trkpt lat="45.83407" lon="4.39594">
        <ele>816</ele>
        <time>2016-05-19T07:52:09.214Z</time>
      </trkpt>
      <trkpt lat="45.83399" lon="4.39591">
        <ele>817</ele>
        <time>2016-05-19T07:52:16.227Z</time>
      </trkpt>
      <trkpt lat="45.83398" lon="4.39591">
        <ele>817</ele>
        <time>2016-05-19T07:52:17.226Z</time>
      </trkpt>
      <trkpt lat="45.83391" lon="4.39596">
        <ele>818</ele>
        <time>2016-05-19T07:52:27.225Z</time>
      </trkpt>
      <trkpt lat="45.8339" lon="4.39597">
        <ele>818</ele>
        <time>2016-05-19T07:52:28.225Z</time>
      </trkpt>
      <trkpt lat="45.83382" lon="4.39604">
        <ele>819</ele>
        <time>2016-05-19T07:52:37.225Z</time>
      </trkpt>
      <trkpt lat="45.83382" lon="4.39604">
        <ele>819</ele>
        <time>2016-05-19T07:52:38.225Z</time>
      </trkpt>
      <trkpt lat="45.83376" lon="4.39613">
        <ele>820</ele>
        <time>2016-05-19T07:52:49.228Z</time>
      </trkpt>
      <trkpt lat="45.83375" lon="4.39614">
        <ele>820</ele>
        <time>2016-05-19T07:52:50.238Z</time>
      </trkpt>
      <trkpt lat="45.83368" lon="4.39621">
        <ele>821</ele>
        <time>2016-05-19T07:52:57.225Z</time>
      </trkpt>
      <trkpt lat="45.83367" lon="4.39622">
        <ele>821</ele>
        <time>2016-05-19T07:52:58.224Z</time>
      </trkpt>
      <trkpt lat="45.83359" lon="4.39628">
        <ele>821</ele>
        <time>2016-05-19T07:53:04.225Z</time>
      </trkpt>
      <trkpt lat="45.83358" lon="4.39629">
        <ele>821</ele>
        <time>2016-05-19T07:53:05.219Z</time>
      </trkpt>
      <trkpt lat="45.83352" lon="4.39637">
        <ele>821</ele>
        <time>2016-05-19T07:53:12.226Z</time>
      </trkpt>
      <trkpt lat="45.83351" lon="4.3964">
        <ele>821</ele>
        <time>2016-05-19T07:53:13.228Z</time>
      </trkpt>
      <trkpt lat="45.83346" lon="4.39649">
        <ele>821</ele>
        <time>2016-05-19T07:53:17.246Z</time>
      </trkpt>
      <trkpt lat="45.83345" lon="4.39651">
        <ele>821</ele>
        <time>2016-05-19T07:53:18.225Z</time>
      </trkpt>
      <trkpt lat="45.83342" lon="4.39661">
        <ele>822</ele>
        <time>2016-05-19T07:53:24.221Z</time>
      </trkpt>
      <trkpt lat="45.83341" lon="4.39663">
        <ele>822</ele>
        <time>2016-05-19T07:53:25.224Z</time>
      </trkpt>
      <trkpt lat="45.83333" lon="4.39668">
        <ele>823</ele>
        <time>2016-05-19T07:53:32.225Z</time>
      </trkpt>
      <trkpt lat="45.83333" lon="4.39669">
        <ele>823</ele>
        <time>2016-05-19T07:53:33.227Z</time>
      </trkpt>
      <trkpt lat="45.8333" lon="4.3968">
        <ele>823</ele>
        <time>2016-05-19T07:53:40.234Z</time>
      </trkpt>
      <trkpt lat="45.8333" lon="4.39682">
        <ele>823</ele>
        <time>2016-05-19T07:53:41.213Z</time>
      </trkpt>
      <trkpt lat="45.83325" lon="4.39691">
        <ele>823</ele>
        <time>2016-05-19T07:53:51.226Z</time>
      </trkpt>
      <trkpt lat="45.83324" lon="4.39692">
        <ele>823</ele>
        <time>2016-05-19T07:53:52.224Z</time>
      </trkpt>
      <trkpt lat="45.83317" lon="4.397">
        <ele>823</ele>
        <time>2016-05-19T07:54:03.214Z</time>
      </trkpt>
      <trkpt lat="45.83317" lon="4.397">
        <ele>823</ele>
        <time>2016-05-19T07:54:04.222Z</time>
      </trkpt>
      <trkpt lat="45.83311" lon="4.39709">
        <ele>823</ele>
        <time>2016-05-19T07:54:14.225Z</time>
      </trkpt>
      <trkpt lat="45.8331" lon="4.3971">
        <ele>823</ele>
        <time>2016-05-19T07:54:15.227Z</time>
      </trkpt>
      <trkpt lat="45.83305" lon="4.39719">
        <ele>822</ele>
        <time>2016-05-19T07:54:21.225Z</time>
      </trkpt>
      <trkpt lat="45.83304" lon="4.3972">
        <ele>822</ele>
        <time>2016-05-19T07:54:22.224Z</time>
      </trkpt>
      <trkpt lat="45.83298" lon="4.3973">
        <ele>822</ele>
        <time>2016-05-19T07:54:35.226Z</time>
      </trkpt>
      <trkpt lat="45.83297" lon="4.39731">
        <ele>822</ele>
        <time>2016-05-19T07:54:36.225Z</time>
      </trkpt>
      <trkpt lat="45.83289" lon="4.39737">
        <ele>823</ele>
        <time>2016-05-19T07:54:43.22Z</time>
      </trkpt>
      <trkpt lat="45.83289" lon="4.39738">
        <ele>823</ele>
        <time>2016-05-19T07:54:44.216Z</time>
      </trkpt>
      <trkpt lat="45.83283" lon="4.39748">
        <ele>824</ele>
        <time>2016-05-19T07:54:50.218Z</time>
      </trkpt>
      <trkpt lat="45.83282" lon="4.39749">
        <ele>824</ele>
        <time>2016-05-19T07:54:51.227Z</time>
      </trkpt>
      <trkpt lat="45.83275" lon="4.39755">
        <ele>815</ele>
        <time>2016-05-19T07:54:57.222Z</time>
      </trkpt>
      <trkpt lat="45.83274" lon="4.39756">
        <ele>816</ele>
        <time>2016-05-19T07:54:58.226Z</time>
      </trkpt>
      <trkpt lat="45.83267" lon="4.39762">
        <ele>817</ele>
        <time>2016-05-19T07:55:03.225Z</time>
      </trkpt>
      <trkpt lat="45.83266" lon="4.39763">
        <ele>817</ele>
        <time>2016-05-19T07:55:04.222Z</time>
      </trkpt>
      <trkpt lat="45.8326" lon="4.39772">
        <ele>816</ele>
        <time>2016-05-19T07:55:14.213Z</time>
      </trkpt>
      <trkpt lat="45.83259" lon="4.39773">
        <ele>816</ele>
        <time>2016-05-19T07:55:15.211Z</time>
      </trkpt>
      <trkpt lat="45.83251" lon="4.3978">
        <ele>814</ele>
        <time>2016-05-19T07:55:21.226Z</time>
      </trkpt>
      <trkpt lat="45.8325" lon="4.39781">
        <ele>814</ele>
        <time>2016-05-19T07:55:22.225Z</time>
      </trkpt>
      <trkpt lat="45.83243" lon="4.39787">
        <ele>825</ele>
        <time>2016-05-19T07:55:28.224Z</time>
      </trkpt>
      <trkpt lat="45.83243" lon="4.39789">
        <ele>825</ele>
        <time>2016-05-19T07:55:29.225Z</time>
      </trkpt>
      <trkpt lat="45.83237" lon="4.39797">
        <ele>824</ele>
        <time>2016-05-19T07:55:36.225Z</time>
      </trkpt>
      <trkpt lat="45.83235" lon="4.39798">
        <ele>824</ele>
        <time>2016-05-19T07:55:37.227Z</time>
      </trkpt>
      <trkpt lat="45.83228" lon="4.39803">
        <ele>824</ele>
        <time>2016-05-19T07:55:41.225Z</time>
      </trkpt>
      <trkpt lat="45.83227" lon="4.39805">
        <ele>824</ele>
        <time>2016-05-19T07:55:42.228Z</time>
      </trkpt>
      <trkpt lat="45.8322" lon="4.39812">
        <ele>824</ele>
        <time>2016-05-19T07:55:47.221Z</time>
      </trkpt>
      <trkpt lat="45.83219" lon="4.39814">
        <ele>824</ele>
        <time>2016-05-19T07:55:48.225Z</time>
      </trkpt>
      <trkpt lat="45.83214" lon="4.39823">
        <ele>824</ele>
        <time>2016-05-19T07:55:55.223Z</time>
      </trkpt>
      <trkpt lat="45.83213" lon="4.39824">
        <ele>824</ele>
        <time>2016-05-19T07:55:56.228Z</time>
      </trkpt>
      <trkpt lat="45.83207" lon="4.39833">
        <ele>824</ele>
        <time>2016-05-19T07:56:04.226Z</time>
      </trkpt>
      <trkpt lat="45.83207" lon="4.39834">
        <ele>813</ele>
        <time>2016-05-19T07:56:05.228Z</time>
      </trkpt>
      <trkpt lat="45.83203" lon="4.39845">
        <ele>813</ele>
        <time>2016-05-19T07:56:15.223Z</time>
      </trkpt>
      <trkpt lat="45.83203" lon="4.39847">
        <ele>813</ele>
        <time>2016-05-19T07:56:16.222Z</time>
      </trkpt>
      <trkpt lat="45.83198" lon="4.39856">
        <ele>812</ele>
        <time>2016-05-19T07:56:23.221Z</time>
      </trkpt>
      <trkpt lat="45.83198" lon="4.39858">
        <ele>812</ele>
        <time>2016-05-19T07:56:24.226Z</time>
      </trkpt>
      <trkpt lat="45.83194" lon="4.39869">
        <ele>811</ele>
        <time>2016-05-19T07:56:32.225Z</time>
      </trkpt>
      <trkpt lat="45.83194" lon="4.3987">
        <ele>811</ele>
        <time>2016-05-19T07:56:33.225Z</time>
      </trkpt>
      <trkpt lat="45.83189" lon="4.3988">
        <ele>810</ele>
        <time>2016-05-19T07:56:40.221Z</time>
      </trkpt>
      <trkpt lat="45.83189" lon="4.39882">
        <ele>810</ele>
        <time>2016-05-19T07:56:41.226Z</time>
      </trkpt>
      <trkpt lat="45.83183" lon="4.39889">
        <ele>809</ele>
        <time>2016-05-19T07:56:48.223Z</time>
      </trkpt>
      <trkpt lat="45.83182" lon="4.3989">
        <ele>809</ele>
        <time>2016-05-19T07:56:49.215Z</time>
      </trkpt>
      <trkpt lat="45.83175" lon="4.39897">
        <ele>809</ele>
        <time>2016-05-19T07:56:57.228Z</time>
      </trkpt>
      <trkpt lat="45.83174" lon="4.39898">
        <ele>809</ele>
        <time>2016-05-19T07:56:58.229Z</time>
      </trkpt>
      <trkpt lat="45.83168" lon="4.39906">
        <ele>808</ele>
        <time>2016-05-19T07:57:07.226Z</time>
      </trkpt>
      <trkpt lat="45.83167" lon="4.39907">
        <ele>808</ele>
        <time>2016-05-19T07:57:08.22Z</time>
      </trkpt>
      <trkpt lat="45.8316" lon="4.39912">
        <ele>813</ele>
        <time>2016-05-19T07:57:16.226Z</time>
      </trkpt>
      <trkpt lat="45.83158" lon="4.39913">
        <ele>814</ele>
        <time>2016-05-19T07:57:17.229Z</time>
      </trkpt>
      <trkpt lat="45.8315" lon="4.39915">
        <ele>817</ele>
        <time>2016-05-19T07:57:20.225Z</time>
      </trkpt>
      <trkpt lat="45.83148" lon="4.39916">
        <ele>818</ele>
        <time>2016-05-19T07:57:21.231Z</time>
      </trkpt>
      <trkpt lat="45.83141" lon="4.39922">
        <ele>812</ele>
        <time>2016-05-19T07:57:26.226Z</time>
      </trkpt>
      <trkpt lat="45.8314" lon="4.39923">
        <ele>812</ele>
        <time>2016-05-19T07:57:27.221Z</time>
      </trkpt>
      <trkpt lat="45.83135" lon="4.39933">
        <ele>812</ele>
        <time>2016-05-19T07:57:40.225Z</time>
      </trkpt>
      <trkpt lat="45.83134" lon="4.39934">
        <ele>812</ele>
        <time>2016-05-19T07:57:41.215Z</time>
      </trkpt>
      <trkpt lat="45.83126" lon="4.39936">
        <ele>814</ele>
        <time>2016-05-19T07:57:49.226Z</time>
      </trkpt>
      <trkpt lat="45.83125" lon="4.39937">
        <ele>814</ele>
        <time>2016-05-19T07:57:50.222Z</time>
      </trkpt>
      <trkpt lat="45.83118" lon="4.39943">
        <ele>815</ele>
        <time>2016-05-19T07:57:58.225Z</time>
      </trkpt>
      <trkpt lat="45.83117" lon="4.39944">
        <ele>815</ele>
        <time>2016-05-19T07:57:59.227Z</time>
      </trkpt>
      <trkpt lat="45.8311" lon="4.39948">
        <ele>815</ele>
        <time>2016-05-19T07:58:03.226Z</time>
      </trkpt>
      <trkpt lat="45.83108" lon="4.39949">
        <ele>816</ele>
        <time>2016-05-19T07:58:04.225Z</time>
      </trkpt>
      <trkpt lat="45.83102" lon="4.39956">
        <ele>816</ele>
        <time>2016-05-19T07:58:10.227Z</time>
      </trkpt>
      <trkpt lat="45.83101" lon="4.39957">
        <ele>816</ele>
        <time>2016-05-19T07:58:11.213Z</time>
      </trkpt>
      <trkpt lat="45.83098" lon="4.39968">
        <ele>815</ele>
        <time>2016-05-19T07:58:18.216Z</time>
      </trkpt>
      <trkpt lat="45.83098" lon="4.3997">
        <ele>815</ele>
        <time>2016-05-19T07:58:19.212Z</time>
      </trkpt>
      <trkpt lat="45.83091" lon="4.39977">
        <ele>815</ele>
        <time>2016-05-19T07:58:27.22Z</time>
      </trkpt>
      <trkpt lat="45.8309" lon="4.39978">
        <ele>815</ele>
        <time>2016-05-19T07:58:28.226Z</time>
      </trkpt>
      <trkpt lat="45.83085" lon="4.39987">
        <ele>816</ele>
        <time>2016-05-19T07:58:34.228Z</time>
      </trkpt>
      <trkpt lat="45.83084" lon="4.39989">
        <ele>816</ele>
        <time>2016-05-19T07:58:35.226Z</time>
      </trkpt>
      <trkpt lat="45.83081" lon="4.39999">
        <ele>819</ele>
        <time>2016-05-19T07:58:40.222Z</time>
      </trkpt>
      <trkpt lat="45.8308" lon="4.40002">
        <ele>818</ele>
        <time>2016-05-19T07:58:41.227Z</time>
      </trkpt>
      <trkpt lat="45.83077" lon="4.40012">
        <ele>819</ele>
        <time>2016-05-19T07:58:46.227Z</time>
      </trkpt>
      <trkpt lat="45.83077" lon="4.40014">
        <ele>819</ele>
        <time>2016-05-19T07:58:47.227Z</time>
      </trkpt>
      <trkpt lat="45.83072" lon="4.40025">
        <ele>820</ele>
        <time>2016-05-19T07:58:55.216Z</time>
      </trkpt>
      <trkpt lat="45.83071" lon="4.40026">
        <ele>820</ele>
        <time>2016-05-19T07:58:56.216Z</time>
      </trkpt>
      <trkpt lat="45.83066" lon="4.40035">
        <ele>820</ele>
        <time>2016-05-19T07:59:04.219Z</time>
      </trkpt>
      <trkpt lat="45.83065" lon="4.40036">
        <ele>820</ele>
        <time>2016-05-19T07:59:05.224Z</time>
      </trkpt>
      <trkpt lat="45.8306" lon="4.40044">
        <ele>819</ele>
        <time>2016-05-19T07:59:09.229Z</time>
      </trkpt>
      <trkpt lat="45.83059" lon="4.40047">
        <ele>819</ele>
        <time>2016-05-19T07:59:10.238Z</time>
      </trkpt>
      <trkpt lat="45.83054" lon="4.40055">
        <ele>819</ele>
        <time>2016-05-19T07:59:14.229Z</time>
      </trkpt>
      <trkpt lat="45.83053" lon="4.40056">
        <ele>819</ele>
        <time>2016-05-19T07:59:15.22Z</time>
      </trkpt>
      <trkpt lat="45.83046" lon="4.40063">
        <ele>820</ele>
        <time>2016-05-19T07:59:21.227Z</time>
      </trkpt>
      <trkpt lat="45.83045" lon="4.40065">
        <ele>820</ele>
        <time>2016-05-19T07:59:22.227Z</time>
      </trkpt>
      <trkpt lat="45.83041" lon="4.40075">
        <ele>820</ele>
        <time>2016-05-19T07:59:32.227Z</time>
      </trkpt>
      <trkpt lat="45.8304" lon="4.40076">
        <ele>820</ele>
        <time>2016-05-19T07:59:33.214Z</time>
      </trkpt>
      <trkpt lat="45.83038" lon="4.40087">
        <ele>814</ele>
        <time>2016-05-19T07:59:39.22Z</time>
      </trkpt>
      <trkpt lat="45.83037" lon="4.40089">
        <ele>814</ele>
        <time>2016-05-19T07:59:40.226Z</time>
      </trkpt>
      <trkpt lat="45.83032" lon="4.40099">
        <ele>815</ele>
        <time>2016-05-19T07:59:49.238Z</time>
      </trkpt>
      <trkpt lat="45.83032" lon="4.401">
        <ele>815</ele>
        <time>2016-05-19T07:59:50.225Z</time>
      </trkpt>
      <trkpt lat="45.83027" lon="4.4011">
        <ele>815</ele>
        <time>2016-05-19T07:59:56.225Z</time>
      </trkpt>
      <trkpt lat="45.83026" lon="4.4011">
        <ele>815</ele>
        <time>2016-05-19T07:59:57.223Z</time>
      </trkpt>
      <trkpt lat="45.83019" lon="4.40119">
        <ele>815</ele>
        <time>2016-05-19T08:00:05.225Z</time>
      </trkpt>
      <trkpt lat="45.83018" lon="4.4012">
        <ele>815</ele>
        <time>2016-05-19T08:00:06.226Z</time>
      </trkpt>
      <trkpt lat="45.83012" lon="4.40126">
        <ele>815</ele>
        <time>2016-05-19T08:00:12.228Z</time>
      </trkpt>
      <trkpt lat="45.83011" lon="4.40127">
        <ele>815</ele>
        <time>2016-05-19T08:00:13.218Z</time>
      </trkpt>
      <trkpt lat="45.83003" lon="4.40132">
        <ele>815</ele>
        <time>2016-05-19T08:00:20.224Z</time>
      </trkpt>
      <trkpt lat="45.83002" lon="4.40133">
        <ele>815</ele>
        <time>2016-05-19T08:00:21.226Z</time>
      </trkpt>
      <trkpt lat="45.82994" lon="4.40139">
        <ele>821</ele>
        <time>2016-05-19T08:00:27.223Z</time>
      </trkpt>
      <trkpt lat="45.82993" lon="4.4014">
        <ele>821</ele>
        <time>2016-05-19T08:00:28.223Z</time>
      </trkpt>
      <trkpt lat="45.82985" lon="4.40145">
        <ele>821</ele>
        <time>2016-05-19T08:00:35.238Z</time>
      </trkpt>
      <trkpt lat="45.82984" lon="4.40146">
        <ele>821</ele>
        <time>2016-05-19T08:00:36.229Z</time>
      </trkpt>
      <trkpt lat="45.82977" lon="4.40152">
        <ele>821</ele>
        <time>2016-05-19T08:00:43.227Z</time>
      </trkpt>
      <trkpt lat="45.82976" lon="4.40153">
        <ele>821</ele>
        <time>2016-05-19T08:00:44.227Z</time>
      </trkpt>
      <trkpt lat="45.82971" lon="4.40162">
        <ele>821</ele>
        <time>2016-05-19T08:01:02.226Z</time>
      </trkpt>
      <trkpt lat="45.8297" lon="4.40164">
        <ele>821</ele>
        <time>2016-05-19T08:01:03.23Z</time>
      </trkpt>
      <trkpt lat="45.82976" lon="4.40155">
        <ele>820</ele>
        <time>2016-05-19T08:01:45.229Z</time>
      </trkpt>
      <trkpt lat="45.82977" lon="4.40154">
        <ele>820</ele>
        <time>2016-05-19T08:01:46.226Z</time>
      </trkpt>
      <trkpt lat="45.8298" lon="4.40142">
        <ele>821</ele>
        <time>2016-05-19T08:02:51.225Z</time>
      </trkpt>
      <trkpt lat="45.8298" lon="4.40141">
        <ele>821</ele>
        <time>2016-05-19T08:02:52.223Z</time>
      </trkpt>
      <trkpt lat="45.82984" lon="4.40129">
        <ele>822</ele>
        <time>2016-05-19T08:03:34.225Z</time>
      </trkpt>
      <trkpt lat="45.82984" lon="4.40129">
        <ele>822</ele>
        <time>2016-05-19T08:03:35.224Z</time>
      </trkpt>
      <trkpt lat="45.8299" lon="4.4012">
        <ele>823</ele>
        <time>2016-05-19T08:04:29.215Z</time>
      </trkpt>
      <trkpt lat="45.8299" lon="4.40119">
        <ele>823</ele>
        <time>2016-05-19T08:04:30.212Z</time>
      </trkpt>
      <trkpt lat="45.82993" lon="4.40107">
        <ele>824</ele>
        <time>2016-05-19T08:05:34.228Z</time>
      </trkpt>
      <trkpt lat="45.82993" lon="4.40106">
        <ele>824</ele>
        <time>2016-05-19T08:05:35.223Z</time>
      </trkpt>
      <trkpt lat="45.82994" lon="4.40094">
        <ele>824</ele>
        <time>2016-05-19T08:05:46.217Z</time>
      </trkpt>
      <trkpt lat="45.82994" lon="4.40093">
        <ele>824</ele>
        <time>2016-05-19T08:05:47.222Z</time>
      </trkpt>
      <trkpt lat="45.82996" lon="4.40081">
        <ele>827</ele>
        <time>2016-05-19T08:06:03.214Z</time>
      </trkpt>
      <trkpt lat="45.82997" lon="4.4008">
        <ele>827</ele>
        <time>2016-05-19T08:06:04.224Z</time>
      </trkpt>
      <trkpt lat="45.82998" lon="4.40067">
        <ele>830</ele>
        <time>2016-05-19T08:06:15.225Z</time>
      </trkpt>
      <trkpt lat="45.82998" lon="4.40066">
        <ele>830</ele>
        <time>2016-05-19T08:06:16.226Z</time>
      </trkpt>
      <trkpt lat="45.83003" lon="4.40056">
        <ele>824</ele>
        <time>2016-05-19T08:06:24.226Z</time>
      </trkpt>
      <trkpt lat="45.83003" lon="4.40055">
        <ele>824</ele>
        <time>2016-05-19T08:06:25.227Z</time>
      </trkpt>
      <trkpt lat="45.83008" lon="4.40044">
        <ele>824</ele>
        <time>2016-05-19T08:06:39.217Z</time>
      </trkpt>
      <trkpt lat="45.83008" lon="4.40043">
        <ele>824</ele>
        <time>2016-05-19T08:06:40.221Z</time>
      </trkpt>
      <trkpt lat="45.83013" lon="4.40035">
        <ele>825</ele>
        <time>2016-05-19T08:06:49.225Z</time>
      </trkpt>
      <trkpt lat="45.83014" lon="4.40033">
        <ele>825</ele>
        <time>2016-05-19T08:06:50.224Z</time>
      </trkpt>
      <trkpt lat="45.83018" lon="4.40022">
        <ele>826</ele>
        <time>2016-05-19T08:06:55.225Z</time>
      </trkpt>
      <trkpt lat="45.83019" lon="4.40021">
        <ele>826</ele>
        <time>2016-05-19T08:06:56.222Z</time>
      </trkpt>
      <trkpt lat="45.83023" lon="4.4001">
        <ele>827</ele>
        <time>2016-05-19T08:07:03.219Z</time>
      </trkpt>
      <trkpt lat="45.83024" lon="4.40008">
        <ele>827</ele>
        <time>2016-05-19T08:07:04.225Z</time>
      </trkpt>
      <trkpt lat="45.83027" lon="4.39997">
        <ele>833</ele>
        <time>2016-05-19T08:07:09.226Z</time>
      </trkpt>
      <trkpt lat="45.83028" lon="4.39996">
        <ele>833</ele>
        <time>2016-05-19T08:07:10.228Z</time>
      </trkpt>
      <trkpt lat="45.83033" lon="4.39986">
        <ele>832</ele>
        <time>2016-05-19T08:07:15.228Z</time>
      </trkpt>
      <trkpt lat="45.83033" lon="4.39985">
        <ele>832</ele>
        <time>2016-05-19T08:07:16.224Z</time>
      </trkpt>
      <trkpt lat="45.83036" lon="4.39973">
        <ele>833</ele>
        <time>2016-05-19T08:07:33.237Z</time>
      </trkpt>
      <trkpt lat="45.83036" lon="4.39972">
        <ele>833</ele>
        <time>2016-05-19T08:07:34.216Z</time>
      </trkpt>
      <trkpt lat="45.83042" lon="4.39963">
        <ele>833</ele>
        <time>2016-05-19T08:07:46.22Z</time>
      </trkpt>
      <trkpt lat="45.83043" lon="4.39962">
        <ele>833</ele>
        <time>2016-05-19T08:07:47.221Z</time>
      </trkpt>
      <trkpt lat="45.83048" lon="4.39954">
        <ele>833</ele>
        <time>2016-05-19T08:07:52.225Z</time>
      </trkpt>
      <trkpt lat="45.83049" lon="4.39952">
        <ele>833</ele>
        <time>2016-05-19T08:07:53.219Z</time>
      </trkpt>
      <trkpt lat="45.83054" lon="4.39941">
        <ele>833</ele>
        <time>2016-05-19T08:08:11.226Z</time>
      </trkpt>
      <trkpt lat="45.83055" lon="4.3994">
        <ele>833</ele>
        <time>2016-05-19T08:08:12.225Z</time>
      </trkpt>
      <trkpt lat="45.83058" lon="4.39929">
        <ele>833</ele>
        <time>2016-05-19T08:08:20.226Z</time>
      </trkpt>
      <trkpt lat="45.83058" lon="4.39928">
        <ele>833</ele>
        <time>2016-05-19T08:08:21.224Z</time>
      </trkpt>
      <trkpt lat="45.83062" lon="4.39919">
        <ele>833</ele>
        <time>2016-05-19T08:08:34.225Z</time>
      </trkpt>
      <trkpt lat="45.83064" lon="4.39917">
        <ele>840</ele>
        <time>2016-05-19T08:08:35.225Z</time>
      </trkpt>
      <trkpt lat="45.83069" lon="4.39907">
        <ele>840</ele>
        <time>2016-05-19T08:08:38.221Z</time>
      </trkpt>
      <trkpt lat="45.83071" lon="4.39905">
        <ele>840</ele>
        <time>2016-05-19T08:08:39.223Z</time>
      </trkpt>
      <trkpt lat="45.83076" lon="4.39896">
        <ele>841</ele>
        <time>2016-05-19T08:08:48.216Z</time>
      </trkpt>
      <trkpt lat="45.83077" lon="4.39894">
        <ele>842</ele>
        <time>2016-05-19T08:08:49.22Z</time>
      </trkpt>
      <trkpt lat="45.83082" lon="4.39884">
        <ele>844</ele>
        <time>2016-05-19T08:09:00.223Z</time>
      </trkpt>
      <trkpt lat="45.83082" lon="4.39882">
        <ele>844</ele>
        <time>2016-05-19T08:09:01.208Z</time>
      </trkpt>
      <trkpt lat="45.83088" lon="4.39872">
        <ele>833</ele>
        <time>2016-05-19T08:09:06.218Z</time>
      </trkpt>
      <trkpt lat="45.83089" lon="4.3987">
        <ele>834</ele>
        <time>2016-05-19T08:09:07.205Z</time>
      </trkpt>
      <trkpt lat="45.83094" lon="4.3986">
        <ele>835</ele>
        <time>2016-05-19T08:09:11.223Z</time>
      </trkpt>
      <trkpt lat="45.83095" lon="4.39858">
        <ele>836</ele>
        <time>2016-05-19T08:09:12.222Z</time>
      </trkpt>
      <trkpt lat="45.831" lon="4.3985">
        <ele>837</ele>
        <time>2016-05-19T08:09:22.228Z</time>
      </trkpt>
      <trkpt lat="45.83102" lon="4.39848">
        <ele>837</ele>
        <time>2016-05-19T08:09:23.22Z</time>
      </trkpt>
      <trkpt lat="45.83107" lon="4.39838">
        <ele>837</ele>
        <time>2016-05-19T08:09:29.224Z</time>
      </trkpt>
      <trkpt lat="45.83108" lon="4.39836">
        <ele>837</ele>
        <time>2016-05-19T08:09:30.221Z</time>
      </trkpt>
      <trkpt lat="45.83113" lon="4.39826">
        <ele>846</ele>
        <time>2016-05-19T08:09:35.224Z</time>
      </trkpt>
      <trkpt lat="45.83114" lon="4.39823">
        <ele>846</ele>
        <time>2016-05-19T08:09:36.224Z</time>
      </trkpt>
      <trkpt lat="45.83118" lon="4.39811">
        <ele>846</ele>
        <time>2016-05-19T08:09:48.22Z</time>
      </trkpt>
      <trkpt lat="45.83117" lon="4.3981">
        <ele>846</ele>
        <time>2016-05-19T08:09:49.217Z</time>
      </trkpt>
      <trkpt lat="45.83121" lon="4.39799">
        <ele>847</ele>
        <time>2016-05-19T08:09:57.222Z</time>
      </trkpt>
      <trkpt lat="45.83122" lon="4.39797">
        <ele>847</ele>
        <time>2016-05-19T08:09:58.219Z</time>
      </trkpt>
      <trkpt lat="45.83124" lon="4.39785">
        <ele>848</ele>
        <time>2016-05-19T08:10:04.232Z</time>
      </trkpt>
      <trkpt lat="45.83124" lon="4.39783">
        <ele>848</ele>
        <time>2016-05-19T08:10:05.214Z</time>
      </trkpt>
      <trkpt lat="45.83127" lon="4.39772">
        <ele>849</ele>
        <time>2016-05-19T08:10:12.23Z</time>
      </trkpt>
      <trkpt lat="45.83127" lon="4.39771">
        <ele>849</ele>
        <time>2016-05-19T08:10:13.226Z</time>
      </trkpt>
      <trkpt lat="45.83131" lon="4.39759">
        <ele>849</ele>
        <time>2016-05-19T08:10:21.223Z</time>
      </trkpt>
      <trkpt lat="45.83131" lon="4.39759">
        <ele>849</ele>
        <time>2016-05-19T08:10:22.23Z</time>
      </trkpt>
      <trkpt lat="45.83132" lon="4.39747">
        <ele>856</ele>
        <time>2016-05-19T08:10:36.227Z</time>
      </trkpt>
      <trkpt lat="45.83132" lon="4.39745">
        <ele>856</ele>
        <time>2016-05-19T08:10:37.229Z</time>
      </trkpt>
      <trkpt lat="45.83134" lon="4.39734">
        <ele>856</ele>
        <time>2016-05-19T08:10:43.225Z</time>
      </trkpt>
      <trkpt lat="45.83134" lon="4.39733">
        <ele>857</ele>
        <time>2016-05-19T08:10:44.224Z</time>
      </trkpt>
      <trkpt lat="45.83135" lon="4.39722">
        <ele>857</ele>
        <time>2016-05-19T08:10:51.218Z</time>
      </trkpt>
      <trkpt lat="45.83136" lon="4.3972">
        <ele>857</ele>
        <time>2016-05-19T08:10:52.212Z</time>
      </trkpt>
      <trkpt lat="45.83139" lon="4.39709">
        <ele>857</ele>
        <time>2016-05-19T08:10:57.217Z</time>
      </trkpt>
      <trkpt lat="45.83139" lon="4.39707">
        <ele>857</ele>
        <time>2016-05-19T08:10:58.226Z</time>
      </trkpt>
      <trkpt lat="45.83141" lon="4.39696">
        <ele>857</ele>
        <time>2016-05-19T08:11:02.223Z</time>
      </trkpt>
      <trkpt lat="45.83142" lon="4.39693">
        <ele>857</ele>
        <time>2016-05-19T08:11:03.229Z</time>
      </trkpt>
      <trkpt lat="45.83147" lon="4.39683">
        <ele>857</ele>
        <time>2016-05-19T08:11:07.217Z</time>
      </trkpt>
      <trkpt lat="45.83147" lon="4.39681">
        <ele>857</ele>
        <time>2016-05-19T08:11:08.23Z</time>
      </trkpt>
      <trkpt lat="45.83149" lon="4.3967">
        <ele>856</ele>
        <time>2016-05-19T08:11:14.227Z</time>
      </trkpt>
      <trkpt lat="45.83149" lon="4.39668">
        <ele>856</ele>
        <time>2016-05-19T08:11:15.24Z</time>
      </trkpt>
      <trkpt lat="45.83152" lon="4.39656">
        <ele>858</ele>
        <time>2016-05-19T08:11:21.222Z</time>
      </trkpt>
      <trkpt lat="45.83153" lon="4.39655">
        <ele>858</ele>
        <time>2016-05-19T08:11:22.225Z</time>
      </trkpt>
      <trkpt lat="45.83153" lon="4.39643">
        <ele>859</ele>
        <time>2016-05-19T08:11:28.216Z</time>
      </trkpt>
      <trkpt lat="45.83153" lon="4.39641">
        <ele>859</ele>
        <time>2016-05-19T08:11:29.221Z</time>
      </trkpt>
      <trkpt lat="45.83154" lon="4.39629">
        <ele>860</ele>
        <time>2016-05-19T08:11:34.226Z</time>
      </trkpt>
      <trkpt lat="45.83155" lon="4.39627">
        <ele>860</ele>
        <time>2016-05-19T08:11:35.226Z</time>
      </trkpt>
      <trkpt lat="45.83158" lon="4.39616">
        <ele>860</ele>
        <time>2016-05-19T08:11:40.226Z</time>
      </trkpt>
      <trkpt lat="45.83159" lon="4.39613">
        <ele>860</ele>
        <time>2016-05-19T08:11:41.226Z</time>
      </trkpt>
      <trkpt lat="45.83163" lon="4.39603">
        <ele>860</ele>
        <time>2016-05-19T08:11:45.225Z</time>
      </trkpt>
      <trkpt lat="45.83164" lon="4.39601">
        <ele>860</ele>
        <time>2016-05-19T08:11:46.226Z</time>
      </trkpt>
      <trkpt lat="45.83169" lon="4.39593">
        <ele>856</ele>
        <time>2016-05-19T08:11:50.223Z</time>
      </trkpt>
      <trkpt lat="45.8317" lon="4.39591">
        <ele>856</ele>
        <time>2016-05-19T08:11:51.218Z</time>
      </trkpt>
      <trkpt lat="45.83173" lon="4.39579">
        <ele>857</ele>
        <time>2016-05-19T08:12:00.223Z</time>
      </trkpt>
      <trkpt lat="45.83173" lon="4.39578">
        <ele>857</ele>
        <time>2016-05-19T08:12:01.223Z</time>
      </trkpt>
      <trkpt lat="45.83169" lon="4.39568">
        <ele>857</ele>
        <time>2016-05-19T08:12:08.221Z</time>
      </trkpt>
      <trkpt lat="45.83169" lon="4.39566">
        <ele>856</ele>
        <time>2016-05-19T08:12:09.226Z</time>
      </trkpt>
      <trkpt lat="45.83172" lon="4.39555">
        <ele>856</ele>
        <time>2016-05-19T08:12:17.226Z</time>
      </trkpt>
      <trkpt lat="45.83172" lon="4.39554">
        <ele>856</ele>
        <time>2016-05-19T08:12:18.225Z</time>
      </trkpt>
      <trkpt lat="45.83175" lon="4.39542">
        <ele>856</ele>
        <time>2016-05-19T08:12:26.225Z</time>
      </trkpt>
      <trkpt lat="45.83175" lon="4.39541">
        <ele>856</ele>
        <time>2016-05-19T08:12:27.225Z</time>
      </trkpt>
      <trkpt lat="45.83179" lon="4.3953">
        <ele>856</ele>
        <time>2016-05-19T08:12:37.225Z</time>
      </trkpt>
      <trkpt lat="45.83179" lon="4.39529">
        <ele>856</ele>
        <time>2016-05-19T08:12:38.227Z</time>
      </trkpt>
      <trkpt lat="45.8318" lon="4.39517">
        <ele>857</ele>
        <time>2016-05-19T08:12:59.224Z</time>
      </trkpt>
      <trkpt lat="45.8318" lon="4.39515">
        <ele>857</ele>
        <time>2016-05-19T08:13:00.225Z</time>
      </trkpt>
      <trkpt lat="45.8318" lon="4.39503">
        <ele>857</ele>
        <time>2016-05-19T08:13:06.227Z</time>
      </trkpt>
      <trkpt lat="45.8318" lon="4.39501">
        <ele>857</ele>
        <time>2016-05-19T08:13:07.227Z</time>
      </trkpt>
      <trkpt lat="45.83177" lon="4.39488">
        <ele>859</ele>
        <time>2016-05-19T08:13:18.225Z</time>
      </trkpt>
      <trkpt lat="45.83179" lon="4.39486">
        <ele>859</ele>
        <time>2016-05-19T08:13:19.229Z</time>
      </trkpt>
      <trkpt lat="45.83171" lon="4.39482">
        <ele>859</ele>
        <time>2016-05-19T08:13:32.224Z</time>
      </trkpt>
      <trkpt lat="45.83169" lon="4.39482">
        <ele>859</ele>
        <time>2016-05-19T08:13:33.225Z</time>
      </trkpt>
      <trkpt lat="45.83161" lon="4.39483">
        <ele>859</ele>
        <time>2016-05-19T08:13:38.22Z</time>
      </trkpt>
      <trkpt lat="45.8316" lon="4.39483">
        <ele>859</ele>
        <time>2016-05-19T08:13:39.225Z</time>
      </trkpt>
      <trkpt lat="45.83151" lon="4.39484">
        <ele>859</ele>
        <time>2016-05-19T08:13:56.226Z</time>
      </trkpt>
      <trkpt lat="45.8315" lon="4.39484">
        <ele>859</ele>
        <time>2016-05-19T08:13:57.222Z</time>
      </trkpt>
      <trkpt lat="45.83153" lon="4.39473">
        <ele>860</ele>
        <time>2016-05-19T08:14:21.227Z</time>
      </trkpt>
      <trkpt lat="45.83154" lon="4.39472">
        <ele>860</ele>
        <time>2016-05-19T08:14:22.224Z</time>
      </trkpt>
      <trkpt lat="45.83158" lon="4.39461">
        <ele>860</ele>
        <time>2016-05-19T08:14:36.223Z</time>
      </trkpt>
      <trkpt lat="45.83159" lon="4.39461">
        <ele>860</ele>
        <time>2016-05-19T08:14:37.225Z</time>
      </trkpt>
      <trkpt lat="45.83163" lon="4.39451">
        <ele>860</ele>
        <time>2016-05-19T08:14:55.212Z</time>
      </trkpt>
      <trkpt lat="45.83164" lon="4.3945">
        <ele>860</ele>
        <time>2016-05-19T08:14:56.217Z</time>
      </trkpt>
      <trkpt lat="45.83169" lon="4.39439">
        <ele>862</ele>
        <time>2016-05-19T08:15:13.22Z</time>
      </trkpt>
      <trkpt lat="45.8317" lon="4.39439">
        <ele>862</ele>
        <time>2016-05-19T08:15:14.217Z</time>
      </trkpt>
      <trkpt lat="45.83176" lon="4.3943">
        <ele>862</ele>
        <time>2016-05-19T08:15:21.226Z</time>
      </trkpt>
      <trkpt lat="45.83176" lon="4.39428">
        <ele>862</ele>
        <time>2016-05-19T08:15:22.225Z</time>
      </trkpt>
      <trkpt lat="45.83182" lon="4.39419">
        <ele>862</ele>
        <time>2016-05-19T08:15:28.228Z</time>
      </trkpt>
      <trkpt lat="45.83182" lon="4.39418">
        <ele>862</ele>
        <time>2016-05-19T08:15:29.216Z</time>
      </trkpt>
      <trkpt lat="45.83188" lon="4.39409">
        <ele>864</ele>
        <time>2016-05-19T08:15:37.225Z</time>
      </trkpt>
      <trkpt lat="45.83188" lon="4.39408">
        <ele>864</ele>
        <time>2016-05-19T08:15:38.221Z</time>
      </trkpt>
      <trkpt lat="45.83193" lon="4.39397">
        <ele>864</ele>
        <time>2016-05-19T08:15:45.219Z</time>
      </trkpt>
      <trkpt lat="45.83194" lon="4.39395">
        <ele>864</ele>
        <time>2016-05-19T08:15:46.225Z</time>
      </trkpt>
      <trkpt lat="45.83199" lon="4.39386">
        <ele>864</ele>
        <time>2016-05-19T08:15:51.225Z</time>
      </trkpt>
      <trkpt lat="45.832" lon="4.39384">
        <ele>864</ele>
        <time>2016-05-19T08:15:52.224Z</time>
      </trkpt>
      <trkpt lat="45.83206" lon="4.39375">
        <ele>864</ele>
        <time>2016-05-19T08:15:58.222Z</time>
      </trkpt>
      <trkpt lat="45.83206" lon="4.39373">
        <ele>864</ele>
        <time>2016-05-19T08:15:59.217Z</time>
      </trkpt>
      <trkpt lat="45.83208" lon="4.39361">
        <ele>864</ele>
        <time>2016-05-19T08:16:10.221Z</time>
      </trkpt>
      <trkpt lat="45.83208" lon="4.3936">
        <ele>864</ele>
        <time>2016-05-19T08:16:11.224Z</time>
      </trkpt>
      <trkpt lat="45.83213" lon="4.3935">
        <ele>865</ele>
        <time>2016-05-19T08:16:17.219Z</time>
      </trkpt>
      <trkpt lat="45.83214" lon="4.39348">
        <ele>865</ele>
        <time>2016-05-19T08:16:18.225Z</time>
      </trkpt>
      <trkpt lat="45.83218" lon="4.39339">
        <ele>865</ele>
        <time>2016-05-19T08:16:23.223Z</time>
      </trkpt>
      <trkpt lat="45.83219" lon="4.39337">
        <ele>865</ele>
        <time>2016-05-19T08:16:24.228Z</time>
      </trkpt>
      <trkpt lat="45.83223" lon="4.39327">
        <ele>866</ele>
        <time>2016-05-19T08:16:30.221Z</time>
      </trkpt>
      <trkpt lat="45.83224" lon="4.39325">
        <ele>866</ele>
        <time>2016-05-19T08:16:31.225Z</time>
      </trkpt>
      <trkpt lat="45.83229" lon="4.39316">
        <ele>866</ele>
        <time>2016-05-19T08:16:36.225Z</time>
      </trkpt>
      <trkpt lat="45.83229" lon="4.39314">
        <ele>866</ele>
        <time>2016-05-19T08:16:37.221Z</time>
      </trkpt>
      <trkpt lat="45.83234" lon="4.39304">
        <ele>867</ele>
        <time>2016-05-19T08:16:43.221Z</time>
      </trkpt>
      <trkpt lat="45.83235" lon="4.39303">
        <ele>867</ele>
        <time>2016-05-19T08:16:44.225Z</time>
      </trkpt>
      <trkpt lat="45.8324" lon="4.39294">
        <ele>867</ele>
        <time>2016-05-19T08:16:57.227Z</time>
      </trkpt>
      <trkpt lat="45.83241" lon="4.39293">
        <ele>867</ele>
        <time>2016-05-19T08:16:58.217Z</time>
      </trkpt>
      <trkpt lat="45.83246" lon="4.39282">
        <ele>868</ele>
        <time>2016-05-19T08:17:08.227Z</time>
      </trkpt>
      <trkpt lat="45.83247" lon="4.39281">
        <ele>868</ele>
        <time>2016-05-19T08:17:09.225Z</time>
      </trkpt>
      <trkpt lat="45.8325" lon="4.3927">
        <ele>871</ele>
        <time>2016-05-19T08:17:15.227Z</time>
      </trkpt>
      <trkpt lat="45.83251" lon="4.39268">
        <ele>871</ele>
        <time>2016-05-19T08:17:16.226Z</time>
      </trkpt>
      <trkpt lat="45.83257" lon="4.39259">
        <ele>872</ele>
        <time>2016-05-19T08:17:21.224Z</time>
      </trkpt>
      <trkpt lat="45.83258" lon="4.39257">
        <ele>872</ele>
        <time>2016-05-19T08:17:22.224Z</time>
      </trkpt>
      <trkpt lat="45.83262" lon="4.39247">
        <ele>873</ele>
        <time>2016-05-19T08:17:27.225Z</time>
      </trkpt>
      <trkpt lat="45.83263" lon="4.39245">
        <ele>873</ele>
        <time>2016-05-19T08:17:28.224Z</time>
      </trkpt>
      <trkpt lat="45.83266" lon="4.39233">
        <ele>873</ele>
        <time>2016-05-19T08:17:33.226Z</time>
      </trkpt>
      <trkpt lat="45.83267" lon="4.39231">
        <ele>873</ele>
        <time>2016-05-19T08:17:34.222Z</time>
      </trkpt>
      <trkpt lat="45.8327" lon="4.3922">
        <ele>872</ele>
        <time>2016-05-19T08:17:43.226Z</time>
      </trkpt>
      <trkpt lat="45.83271" lon="4.39219">
        <ele>872</ele>
        <time>2016-05-19T08:17:44.228Z</time>
      </trkpt>
      <trkpt lat="45.83273" lon="4.39207">
        <ele>872</ele>
        <time>2016-05-19T08:17:52.22Z</time>
      </trkpt>
      <trkpt lat="45.83274" lon="4.39206">
        <ele>872</ele>
        <time>2016-05-19T08:17:53.225Z</time>
      </trkpt>
      <trkpt lat="45.8328" lon="4.39198">
        <ele>872</ele>
        <time>2016-05-19T08:18:00.224Z</time>
      </trkpt>
      <trkpt lat="45.83281" lon="4.39197">
        <ele>872</ele>
        <time>2016-05-19T08:18:01.211Z</time>
      </trkpt>
      <trkpt lat="45.83287" lon="4.39189">
        <ele>872</ele>
        <time>2016-05-19T08:18:09.216Z</time>
      </trkpt>
      <trkpt lat="45.83288" lon="4.39187">
        <ele>872</ele>
        <time>2016-05-19T08:18:10.223Z</time>
      </trkpt>
      <trkpt lat="45.83293" lon="4.39176">
        <ele>872</ele>
        <time>2016-05-19T08:18:19.212Z</time>
      </trkpt>
      <trkpt lat="45.83294" lon="4.39174">
        <ele>872</ele>
        <time>2016-05-19T08:18:20.216Z</time>
      </trkpt>
      <trkpt lat="45.83297" lon="4.39165">
        <ele>872</ele>
        <time>2016-05-19T08:18:25.206Z</time>
      </trkpt>
      <trkpt lat="45.83298" lon="4.39162">
        <ele>872</ele>
        <time>2016-05-19T08:18:26.218Z</time>
      </trkpt>
      <trkpt lat="45.83301" lon="4.39152">
        <ele>872</ele>
        <time>2016-05-19T08:18:30.226Z</time>
      </trkpt>
      <trkpt lat="45.83302" lon="4.3915">
        <ele>872</ele>
        <time>2016-05-19T08:18:31.221Z</time>
      </trkpt>
      <trkpt lat="45.83306" lon="4.39139">
        <ele>872</ele>
        <time>2016-05-19T08:18:36.228Z</time>
      </trkpt>
      <trkpt lat="45.83307" lon="4.39138">
        <ele>872</ele>
        <time>2016-05-19T08:18:37.223Z</time>
      </trkpt>
      <trkpt lat="45.83313" lon="4.3913">
        <ele>872</ele>
        <time>2016-05-19T08:18:42.221Z</time>
      </trkpt>
      <trkpt lat="45.83314" lon="4.39129">
        <ele>873</ele>
        <time>2016-05-19T08:18:43.224Z</time>
      </trkpt>
      <trkpt lat="45.83319" lon="4.39121">
        <ele>873</ele>
        <time>2016-05-19T08:18:47.227Z</time>
      </trkpt>
      <trkpt lat="45.83321" lon="4.39119">
        <ele>873</ele>
        <time>2016-05-19T08:18:48.224Z</time>
      </trkpt>
      <trkpt lat="45.83328" lon="4.39112">
        <ele>873</ele>
        <time>2016-05-19T08:18:53.226Z</time>
      </trkpt>
      <trkpt lat="45.83329" lon="4.39111">
        <ele>873</ele>
        <time>2016-05-19T08:18:54.22Z</time>
      </trkpt>
      <trkpt lat="45.83336" lon="4.39102">
        <ele>872</ele>
        <time>2016-05-19T08:18:59.211Z</time>
      </trkpt>
      <trkpt lat="45.83338" lon="4.39099">
        <ele>873</ele>
        <time>2016-05-19T08:19:00.211Z</time>
      </trkpt>
      <trkpt lat="45.83343" lon="4.39091">
        <ele>873</ele>
        <time>2016-05-19T08:19:05.227Z</time>
      </trkpt>
      <trkpt lat="45.83344" lon="4.3909">
        <ele>873</ele>
        <time>2016-05-19T08:19:06.227Z</time>
      </trkpt>
      <trkpt lat="45.83351" lon="4.39083">
        <ele>872</ele>
        <time>2016-05-19T08:19:13.222Z</time>
      </trkpt>
      <trkpt lat="45.83352" lon="4.39081">
        <ele>872</ele>
        <time>2016-05-19T08:19:14.227Z</time>
      </trkpt>
      <trkpt lat="45.83359" lon="4.39074">
        <ele>871</ele>
        <time>2016-05-19T08:19:19.223Z</time>
      </trkpt>
      <trkpt lat="45.8336" lon="4.39073">
        <ele>871</ele>
        <time>2016-05-19T08:19:20.22Z</time>
      </trkpt>
      <trkpt lat="45.83366" lon="4.39065">
        <ele>870</ele>
        <time>2016-05-19T08:19:25.222Z</time>
      </trkpt>
      <trkpt lat="45.83367" lon="4.39064">
        <ele>870</ele>
        <time>2016-05-19T08:19:26.225Z</time>
      </trkpt>
      <trkpt lat="45.83371" lon="4.39054">
        <ele>869</ele>
        <time>2016-05-19T08:19:31.221Z</time>
      </trkpt>
      <trkpt lat="45.83372" lon="4.39052">
        <ele>869</ele>
        <time>2016-05-19T08:19:32.226Z</time>
      </trkpt>
      <trkpt lat="45.83376" lon="4.39042">
        <ele>869</ele>
        <time>2016-05-19T08:19:41.228Z</time>
      </trkpt>
      <trkpt lat="45.83377" lon="4.39041">
        <ele>869</ele>
        <time>2016-05-19T08:19:42.222Z</time>
      </trkpt>
      <trkpt lat="45.83382" lon="4.39031">
        <ele>869</ele>
        <time>2016-05-19T08:19:48.221Z</time>
      </trkpt>
      <trkpt lat="45.83383" lon="4.3903">
        <ele>868</ele>
        <time>2016-05-19T08:19:49.218Z</time>
      </trkpt>
      <trkpt lat="45.83385" lon="4.39018">
        <ele>868</ele>
        <time>2016-05-19T08:19:55.208Z</time>
      </trkpt>
      <trkpt lat="45.83386" lon="4.39016">
        <ele>868</ele>
        <time>2016-05-19T08:19:56.203Z</time>
      </trkpt>
      <trkpt lat="45.83391" lon="4.39006">
        <ele>868</ele>
        <time>2016-05-19T08:20:03.215Z</time>
      </trkpt>
      <trkpt lat="45.83392" lon="4.39005">
        <ele>868</ele>
        <time>2016-05-19T08:20:04.211Z</time>
      </trkpt>
      <trkpt lat="45.83395" lon="4.38994">
        <ele>864</ele>
        <time>2016-05-19T08:20:11.224Z</time>
      </trkpt>
      <trkpt lat="45.83396" lon="4.38993">
        <ele>864</ele>
        <time>2016-05-19T08:20:12.231Z</time>
      </trkpt>
      <trkpt lat="45.83399" lon="4.38981">
        <ele>864</ele>
        <time>2016-05-19T08:20:19.228Z</time>
      </trkpt>
      <trkpt lat="45.83399" lon="4.38979">
        <ele>863</ele>
        <time>2016-05-19T08:20:20.229Z</time>
      </trkpt>
      <trkpt lat="45.83398" lon="4.38968">
        <ele>863</ele>
        <time>2016-05-19T08:20:28.227Z</time>
      </trkpt>
      <trkpt lat="45.83398" lon="4.38966">
        <ele>863</ele>
        <time>2016-05-19T08:20:29.229Z</time>
      </trkpt>
      <trkpt lat="45.83398" lon="4.38954">
        <ele>862</ele>
        <time>2016-05-19T08:20:35.22Z</time>
      </trkpt>
      <trkpt lat="45.83399" lon="4.38953">
        <ele>862</ele>
        <time>2016-05-19T08:20:36.221Z</time>
      </trkpt>
      <trkpt lat="45.83399" lon="4.38941">
        <ele>861</ele>
        <time>2016-05-19T08:20:43.226Z</time>
      </trkpt>
      <trkpt lat="45.83399" lon="4.38939">
        <ele>861</ele>
        <time>2016-05-19T08:20:44.224Z</time>
      </trkpt>
      <trkpt lat="45.83399" lon="4.38927">
        <ele>860</ele>
        <time>2016-05-19T08:20:52.224Z</time>
      </trkpt>
      <trkpt lat="45.83399" lon="4.38925">
        <ele>860</ele>
        <time>2016-05-19T08:20:53.221Z</time>
      </trkpt>
      <trkpt lat="45.83397" lon="4.38914">
        <ele>854</ele>
        <time>2016-05-19T08:21:01.217Z</time>
      </trkpt>
      <trkpt lat="45.83397" lon="4.38912">
        <ele>854</ele>
        <time>2016-05-19T08:21:02.21Z</time>
      </trkpt>
      <trkpt lat="45.83396" lon="4.38901">
        <ele>854</ele>
        <time>2016-05-19T08:21:11.228Z</time>
      </trkpt>
      <trkpt lat="45.83395" lon="4.38899">
        <ele>853</ele>
        <time>2016-05-19T08:21:12.229Z</time>
      </trkpt>
      <trkpt lat="45.83397" lon="4.38888">
        <ele>853</ele>
        <time>2016-05-19T08:21:18.219Z</time>
      </trkpt>
      <trkpt lat="45.83396" lon="4.38886">
        <ele>852</ele>
        <time>2016-05-19T08:21:19.229Z</time>
      </trkpt>
      <trkpt lat="45.83395" lon="4.38875">
        <ele>851</ele>
        <time>2016-05-19T08:21:26.226Z</time>
      </trkpt>
      <trkpt lat="45.83394" lon="4.38873">
        <ele>851</ele>
        <time>2016-05-19T08:21:27.209Z</time>
      </trkpt>
      <trkpt lat="45.83393" lon="4.3886">
        <ele>850</ele>
        <time>2016-05-19T08:21:36.219Z</time>
      </trkpt>
      <trkpt lat="45.83394" lon="4.38859">
        <ele>850</ele>
        <time>2016-05-19T08:21:37.22Z</time>
      </trkpt>
      <trkpt lat="45.83395" lon="4.38847">
        <ele>849</ele>
        <time>2016-05-19T08:21:46.219Z</time>
      </trkpt>
      <trkpt lat="45.83395" lon="4.38846">
        <ele>849</ele>
        <time>2016-05-19T08:21:47.225Z</time>
      </trkpt>
      <trkpt lat="45.83393" lon="4.38835">
        <ele>848</ele>
        <time>2016-05-19T08:21:54.22Z</time>
      </trkpt>
      <trkpt lat="45.83393" lon="4.38833">
        <ele>840</ele>
        <time>2016-05-19T08:21:55.226Z</time>
      </trkpt>
      <trkpt lat="45.83393" lon="4.38822">
        <ele>840</ele>
        <time>2016-05-19T08:22:02.213Z</time>
      </trkpt>
      <trkpt lat="45.83393" lon="4.3882">
        <ele>839</ele>
        <time>2016-05-19T08:22:03.208Z</time>
      </trkpt>
      <trkpt lat="45.83392" lon="4.38808">
        <ele>838</ele>
        <time>2016-05-19T08:22:10.226Z</time>
      </trkpt>
      <trkpt lat="45.83392" lon="4.38806">
        <ele>838</ele>
        <time>2016-05-19T08:22:11.223Z</time>
      </trkpt>
      <trkpt lat="45.83394" lon="4.38794">
        <ele>836</ele>
        <time>2016-05-19T08:22:19.216Z</time>
      </trkpt>
      <trkpt lat="45.83393" lon="4.38792">
        <ele>836</ele>
        <time>2016-05-19T08:22:20.217Z</time>
      </trkpt>
      <trkpt lat="45.83387" lon="4.38783">
        <ele>835</ele>
        <time>2016-05-19T08:22:31.223Z</time>
      </trkpt>
      <trkpt lat="45.83387" lon="4.38783">
        <ele>835</ele>
        <time>2016-05-19T08:22:32.225Z</time>
      </trkpt>
      <trkpt lat="45.83378" lon="4.3878">
        <ele>835</ele>
        <time>2016-05-19T08:22:47.225Z</time>
      </trkpt>
      <trkpt lat="45.83378" lon="4.3878">
        <ele>835</ele>
        <time>2016-05-19T08:22:48.218Z</time>
      </trkpt>
      <trkpt lat="45.83379" lon="4.38768">
        <ele>834</ele>
        <time>2016-05-19T08:23:17.22Z</time>
      </trkpt>
      <trkpt lat="45.8338" lon="4.38767">
        <ele>834</ele>
        <time>2016-05-19T08:23:18.222Z</time>
      </trkpt>
      <trkpt lat="45.83388" lon="4.38771">
        <ele>834</ele>
        <time>2016-05-19T08:23:33.223Z</time>
      </trkpt>
      <trkpt lat="45.83389" lon="4.38771">
        <ele>834</ele>
        <time>2016-05-19T08:23:34.226Z</time>
      </trkpt>
      <trkpt lat="45.83397" lon="4.38774">
        <ele>834</ele>
        <time>2016-05-19T08:23:44.211Z</time>
      </trkpt>
      <trkpt lat="45.83398" lon="4.38774">
        <ele>833</ele>
        <time>2016-05-19T08:23:45.218Z</time>
      </trkpt>
      <trkpt lat="45.83406" lon="4.38776">
        <ele>833</ele>
        <time>2016-05-19T08:23:53.22Z</time>
      </trkpt>
      <trkpt lat="45.83407" lon="4.38777">
        <ele>834</ele>
        <time>2016-05-19T08:23:54.221Z</time>
      </trkpt>
      <trkpt lat="45.83414" lon="4.38782">
        <ele>834</ele>
        <time>2016-05-19T08:24:02.225Z</time>
      </trkpt>
      <trkpt lat="45.83415" lon="4.38783">
        <ele>835</ele>
        <time>2016-05-19T08:24:03.227Z</time>
      </trkpt>
      <trkpt lat="45.83423" lon="4.38787">
        <ele>832</ele>
        <time>2016-05-19T08:24:18.224Z</time>
      </trkpt>
      <trkpt lat="45.83424" lon="4.38788">
        <ele>832</ele>
        <time>2016-05-19T08:24:19.237Z</time>
      </trkpt>
      <trkpt lat="45.83431" lon="4.38796">
        <ele>833</ele>
        <time>2016-05-19T08:24:26.214Z</time>
      </trkpt>
      <trkpt lat="45.83432" lon="4.38797">
        <ele>833</ele>
        <time>2016-05-19T08:24:27.222Z</time>
      </trkpt>
      <trkpt lat="45.83436" lon="4.38806">
        <ele>834</ele>
        <time>2016-05-19T08:24:33.202Z</time>
      </trkpt>
      <trkpt lat="45.83437" lon="4.38808">
        <ele>834</ele>
        <time>2016-05-19T08:24:34.209Z</time>
      </trkpt>
      <trkpt lat="45.83443" lon="4.38815">
        <ele>834</ele>
        <time>2016-05-19T08:24:38.214Z</time>
      </trkpt>
      <trkpt lat="45.83444" lon="4.38817">
        <ele>834</ele>
        <time>2016-05-19T08:24:39.22Z</time>
      </trkpt>
      <trkpt lat="45.8345" lon="4.38826">
        <ele>834</ele>
        <time>2016-05-19T08:24:45.21Z</time>
      </trkpt>
      <trkpt lat="45.83451" lon="4.38827">
        <ele>834</ele>
        <time>2016-05-19T08:24:46.22Z</time>
      </trkpt>
      <trkpt lat="45.83458" lon="4.38833">
        <ele>843</ele>
        <time>2016-05-19T08:24:53.226Z</time>
      </trkpt>
      <trkpt lat="45.83459" lon="4.38834">
        <ele>843</ele>
        <time>2016-05-19T08:24:54.227Z</time>
      </trkpt>
      <trkpt lat="45.83467" lon="4.38835">
        <ele>842</ele>
        <time>2016-05-19T08:25:03.226Z</time>
      </trkpt>
      <trkpt lat="45.83469" lon="4.38836">
        <ele>841</ele>
        <time>2016-05-19T08:25:04.225Z</time>
      </trkpt>
      <trkpt lat="45.83474" lon="4.38844">
        <ele>841</ele>
        <time>2016-05-19T08:25:10.215Z</time>
      </trkpt>
      <trkpt lat="45.83475" lon="4.38846">
        <ele>841</ele>
        <time>2016-05-19T08:25:11.219Z</time>
      </trkpt>
      <trkpt lat="45.83482" lon="4.38851">
        <ele>840</ele>
        <time>2016-05-19T08:25:17.222Z</time>
      </trkpt>
      <trkpt lat="45.83484" lon="4.38852">
        <ele>840</ele>
        <time>2016-05-19T08:25:18.221Z</time>
      </trkpt>
      <trkpt lat="45.83491" lon="4.38854">
        <ele>840</ele>
        <time>2016-05-19T08:25:23.21Z</time>
      </trkpt>
      <trkpt lat="45.83492" lon="4.38855">
        <ele>840</ele>
        <time>2016-05-19T08:25:24.212Z</time>
      </trkpt>
      <trkpt lat="45.83498" lon="4.38859">
        <ele>840</ele>
        <time>2016-05-19T08:25:28.226Z</time>
      </trkpt>
      <trkpt lat="45.83501" lon="4.3886">
        <ele>837</ele>
        <time>2016-05-19T08:25:29.222Z</time>
      </trkpt>
      <trkpt lat="45.83509" lon="4.38865">
        <ele>838</ele>
        <time>2016-05-19T08:25:36.22Z</time>
      </trkpt>
      <trkpt lat="45.83511" lon="4.38865">
        <ele>838</ele>
        <time>2016-05-19T08:25:37.223Z</time>
      </trkpt>
      <trkpt lat="45.83519" lon="4.38868">
        <ele>838</ele>
        <time>2016-05-19T08:25:42.223Z</time>
      </trkpt>
      <trkpt lat="45.8352" lon="4.38868">
        <ele>838</ele>
        <time>2016-05-19T08:25:43.226Z</time>
      </trkpt>
      <trkpt lat="45.83529" lon="4.38871">
        <ele>839</ele>
        <time>2016-05-19T08:25:48.225Z</time>
      </trkpt>
      <trkpt lat="45.83531" lon="4.38872">
        <ele>839</ele>
        <time>2016-05-19T08:25:49.22Z</time>
      </trkpt>
      <trkpt lat="45.83539" lon="4.38875">
        <ele>839</ele>
        <time>2016-05-19T08:25:53.216Z</time>
      </trkpt>
      <trkpt lat="45.83539" lon="4.38876">
        <ele>839</ele>
        <time>2016-05-19T08:25:54.216Z</time>
      </trkpt>
      <trkpt lat="45.83547" lon="4.38879">
        <ele>839</ele>
        <time>2016-05-19T08:25:58.219Z</time>
      </trkpt>
      <trkpt lat="45.83549" lon="4.38881">
        <ele>839</ele>
        <time>2016-05-19T08:25:59.215Z</time>
      </trkpt>
      <trkpt lat="45.83556" lon="4.38887">
        <ele>840</ele>
        <time>2016-05-19T08:26:04.21Z</time>
      </trkpt>
      <trkpt lat="45.83557" lon="4.38887">
        <ele>840</ele>
        <time>2016-05-19T08:26:05.208Z</time>
      </trkpt>
      <trkpt lat="45.83565" lon="4.3889">
        <ele>840</ele>
        <time>2016-05-19T08:26:11.21Z</time>
      </trkpt>
      <trkpt lat="45.83566" lon="4.38891">
        <ele>840</ele>
        <time>2016-05-19T08:26:12.199Z</time>
      </trkpt>
      <trkpt lat="45.83573" lon="4.38894">
        <ele>841</ele>
        <time>2016-05-19T08:26:17.22Z</time>
      </trkpt>
      <trkpt lat="45.83575" lon="4.38895">
        <ele>841</ele>
        <time>2016-05-19T08:26:18.215Z</time>
      </trkpt>
      <trkpt lat="45.83582" lon="4.38902">
        <ele>842</ele>
        <time>2016-05-19T08:26:25.214Z</time>
      </trkpt>
      <trkpt lat="45.83584" lon="4.38902">
        <ele>842</ele>
        <time>2016-05-19T08:26:26.218Z</time>
      </trkpt>
      <trkpt lat="45.83591" lon="4.38909">
        <ele>843</ele>
        <time>2016-05-19T08:26:32.217Z</time>
      </trkpt>
      <trkpt lat="45.83592" lon="4.3891">
        <ele>843</ele>
        <time>2016-05-19T08:26:33.222Z</time>
      </trkpt>
      <trkpt lat="45.83599" lon="4.38913">
        <ele>843</ele>
        <time>2016-05-19T08:26:39.219Z</time>
      </trkpt>
      <trkpt lat="45.836" lon="4.38914">
        <ele>843</ele>
        <time>2016-05-19T08:26:40.216Z</time>
      </trkpt>
      <trkpt lat="45.83608" lon="4.3892">
        <ele>846</ele>
        <time>2016-05-19T08:26:46.227Z</time>
      </trkpt>
      <trkpt lat="45.83609" lon="4.3892">
        <ele>846</ele>
        <time>2016-05-19T08:26:47.216Z</time>
      </trkpt>
      <trkpt lat="45.83616" lon="4.38925">
        <ele>846</ele>
        <time>2016-05-19T08:26:54.226Z</time>
      </trkpt>
      <trkpt lat="45.83617" lon="4.38926">
        <ele>846</ele>
        <time>2016-05-19T08:26:55.216Z</time>
      </trkpt>
      <trkpt lat="45.83623" lon="4.38933">
        <ele>846</ele>
        <time>2016-05-19T08:27:00.218Z</time>
      </trkpt>
      <trkpt lat="45.83624" lon="4.38934">
        <ele>846</ele>
        <time>2016-05-19T08:27:01.214Z</time>
      </trkpt>
      <trkpt lat="45.83631" lon="4.38941">
        <ele>847</ele>
        <time>2016-05-19T08:27:07.218Z</time>
      </trkpt>
      <trkpt lat="45.83632" lon="4.38942">
        <ele>847</ele>
        <time>2016-05-19T08:27:08.219Z</time>
      </trkpt>
      <trkpt lat="45.83638" lon="4.38949">
        <ele>847</ele>
        <time>2016-05-19T08:27:13.207Z</time>
      </trkpt>
      <trkpt lat="45.83639" lon="4.3895">
        <ele>847</ele>
        <time>2016-05-19T08:27:14.225Z</time>
      </trkpt>
      <trkpt lat="45.83646" lon="4.38956">
        <ele>847</ele>
        <time>2016-05-19T08:27:20.228Z</time>
      </trkpt>
      <trkpt lat="45.83647" lon="4.38957">
        <ele>847</ele>
        <time>2016-05-19T08:27:21.216Z</time>
      </trkpt>
      <trkpt lat="45.83654" lon="4.38962">
        <ele>847</ele>
        <time>2016-05-19T08:27:27.218Z</time>
      </trkpt>
      <trkpt lat="45.83655" lon="4.38963">
        <ele>847</ele>
        <time>2016-05-19T08:27:28.216Z</time>
      </trkpt>
      <trkpt lat="45.83663" lon="4.38968">
        <ele>847</ele>
        <time>2016-05-19T08:27:34.225Z</time>
      </trkpt>
      <trkpt lat="45.83664" lon="4.38969">
        <ele>847</ele>
        <time>2016-05-19T08:27:35.216Z</time>
      </trkpt>
      <trkpt lat="45.8367" lon="4.38975">
        <ele>847</ele>
        <time>2016-05-19T08:27:41.226Z</time>
      </trkpt>
      <trkpt lat="45.83671" lon="4.38975">
        <ele>847</ele>
        <time>2016-05-19T08:27:42.214Z</time>
      </trkpt>
      <trkpt lat="45.83678" lon="4.38983">
        <ele>847</ele>
        <time>2016-05-19T08:27:50.214Z</time>
      </trkpt>
      <trkpt lat="45.83679" lon="4.38984">
        <ele>847</ele>
        <time>2016-05-19T08:27:51.217Z</time>
      </trkpt>
      <trkpt lat="45.83687" lon="4.38988">
        <ele>847</ele>
        <time>2016-05-19T08:27:59.215Z</time>
      </trkpt>
      <trkpt lat="45.83688" lon="4.38988">
        <ele>847</ele>
        <time>2016-05-19T08:28:00.215Z</time>
      </trkpt>
      <trkpt lat="45.83694" lon="4.3898">
        <ele>848</ele>
        <time>2016-05-19T08:28:13.213Z</time>
      </trkpt>
      <trkpt lat="45.83695" lon="4.38979">
        <ele>848</ele>
        <time>2016-05-19T08:28:14.216Z</time>
      </trkpt>
      <trkpt lat="45.83699" lon="4.38968">
        <ele>848</ele>
        <time>2016-05-19T08:28:22.214Z</time>
      </trkpt>
      <trkpt lat="45.83701" lon="4.38966">
        <ele>848</ele>
        <time>2016-05-19T08:28:23.218Z</time>
      </trkpt>
      <trkpt lat="45.83703" lon="4.38955">
        <ele>848</ele>
        <time>2016-05-19T08:28:31.215Z</time>
      </trkpt>
      <trkpt lat="45.83703" lon="4.38953">
        <ele>848</ele>
        <time>2016-05-19T08:28:32.218Z</time>
      </trkpt>
      <trkpt lat="45.83707" lon="4.38942">
        <ele>849</ele>
        <time>2016-05-19T08:28:39.223Z</time>
      </trkpt>
      <trkpt lat="45.83707" lon="4.3894">
        <ele>849</ele>
        <time>2016-05-19T08:28:40.218Z</time>
      </trkpt>
      <trkpt lat="45.8371" lon="4.38929">
        <ele>849</ele>
        <time>2016-05-19T08:28:46.22Z</time>
      </trkpt>
      <trkpt lat="45.8371" lon="4.38927">
        <ele>849</ele>
        <time>2016-05-19T08:28:47.222Z</time>
      </trkpt>
      <trkpt lat="45.8371" lon="4.38915">
        <ele>851</ele>
        <time>2016-05-19T08:28:58.218Z</time>
      </trkpt>
      <trkpt lat="45.8371" lon="4.38913">
        <ele>851</ele>
        <time>2016-05-19T08:28:59.216Z</time>
      </trkpt>
      <trkpt lat="45.83712" lon="4.38901">
        <ele>851</ele>
        <time>2016-05-19T08:29:08.267Z</time>
      </trkpt>
      <trkpt lat="45.83712" lon="4.389">
        <ele>851</ele>
        <time>2016-05-19T08:29:09.264Z</time>
      </trkpt>
      <trkpt lat="45.83712" lon="4.3889">
        <ele>851</ele>
        <time>2016-05-19T08:29:18.216Z</time>
      </trkpt>
      <trkpt lat="45.83712" lon="4.38887">
        <ele>851</ele>
        <time>2016-05-19T08:29:19.217Z</time>
      </trkpt>
      <trkpt lat="45.83712" lon="4.38877">
        <ele>851</ele>
        <time>2016-05-19T08:29:24.216Z</time>
      </trkpt>
      <trkpt lat="45.83712" lon="4.38874">
        <ele>851</ele>
        <time>2016-05-19T08:29:25.208Z</time>
      </trkpt>
      <trkpt lat="45.83713" lon="4.38861">
        <ele>851</ele>
        <time>2016-05-19T08:29:32.216Z</time>
      </trkpt>
      <trkpt lat="45.83713" lon="4.3886">
        <ele>851</ele>
        <time>2016-05-19T08:29:33.215Z</time>
      </trkpt>
      <trkpt lat="45.83717" lon="4.38849">
        <ele>851</ele>
        <time>2016-05-19T08:29:40.22Z</time>
      </trkpt>
      <trkpt lat="45.83717" lon="4.38848">
        <ele>852</ele>
        <time>2016-05-19T08:29:41.212Z</time>
      </trkpt>
      <trkpt lat="45.8372" lon="4.38838">
        <ele>852</ele>
        <time>2016-05-19T08:29:45.212Z</time>
      </trkpt>
      <trkpt lat="45.83721" lon="4.38835">
        <ele>852</ele>
        <time>2016-05-19T08:29:46.218Z</time>
      </trkpt>
      <trkpt lat="45.83726" lon="4.38826">
        <ele>851</ele>
        <time>2016-05-19T08:29:51.22Z</time>
      </trkpt>
      <trkpt lat="45.83727" lon="4.38825">
        <ele>851</ele>
        <time>2016-05-19T08:29:52.215Z</time>
      </trkpt>
      <trkpt lat="45.83731" lon="4.38815">
        <ele>851</ele>
        <time>2016-05-19T08:29:57.225Z</time>
      </trkpt>
      <trkpt lat="45.83731" lon="4.38813">
        <ele>850</ele>
        <time>2016-05-19T08:29:58.21Z</time>
      </trkpt>
      <trkpt lat="45.83735" lon="4.38803">
        <ele>850</ele>
        <time>2016-05-19T08:30:04.218Z</time>
      </trkpt>
      <trkpt lat="45.83736" lon="4.38802">
        <ele>850</ele>
        <time>2016-05-19T08:30:05.221Z</time>
      </trkpt>
      <trkpt lat="45.83742" lon="4.38792">
        <ele>849</ele>
        <time>2016-05-19T08:30:13.227Z</time>
      </trkpt>
      <trkpt lat="45.83743" lon="4.38792">
        <ele>849</ele>
        <time>2016-05-19T08:30:14.219Z</time>
      </trkpt>
      <trkpt lat="45.83746" lon="4.38781">
        <ele>849</ele>
        <time>2016-05-19T08:30:21.214Z</time>
      </trkpt>
      <trkpt lat="45.83747" lon="4.3878">
        <ele>849</ele>
        <time>2016-05-19T08:30:22.22Z</time>
      </trkpt>
      <trkpt lat="45.83754" lon="4.38772">
        <ele>855</ele>
        <time>2016-05-19T08:30:30.212Z</time>
      </trkpt>
      <trkpt lat="45.83754" lon="4.3877">
        <ele>855</ele>
        <time>2016-05-19T08:30:31.215Z</time>
      </trkpt>
      <trkpt lat="45.83758" lon="4.3876">
        <ele>854</ele>
        <time>2016-05-19T08:30:38.216Z</time>
      </trkpt>
      <trkpt lat="45.83759" lon="4.38759">
        <ele>854</ele>
        <time>2016-05-19T08:30:39.218Z</time>
      </trkpt>
      <trkpt lat="45.83766" lon="4.38752">
        <ele>855</ele>
        <time>2016-05-19T08:30:46.217Z</time>
      </trkpt>
      <trkpt lat="45.83767" lon="4.38751">
        <ele>855</ele>
        <time>2016-05-19T08:30:47.227Z</time>
      </trkpt>
      <trkpt lat="45.83775" lon="4.38745">
        <ele>853</ele>
        <time>2016-05-19T08:30:55.218Z</time>
      </trkpt>
      <trkpt lat="45.83776" lon="4.38744">
        <ele>853</ele>
        <time>2016-05-19T08:30:56.218Z</time>
      </trkpt>
      <trkpt lat="45.83784" lon="4.3874">
        <ele>854</ele>
        <time>2016-05-19T08:31:04.219Z</time>
      </trkpt>
      <trkpt lat="45.83785" lon="4.38739">
        <ele>854</ele>
        <time>2016-05-19T08:31:05.219Z</time>
      </trkpt>
      <trkpt lat="45.83791" lon="4.38733">
        <ele>854</ele>
        <time>2016-05-19T08:31:14.221Z</time>
      </trkpt>
      <trkpt lat="45.83792" lon="4.38732">
        <ele>855</ele>
        <time>2016-05-19T08:31:15.225Z</time>
      </trkpt>
      <trkpt lat="45.83797" lon="4.38723">
        <ele>855</ele>
        <time>2016-05-19T08:31:22.21Z</time>
      </trkpt>
      <trkpt lat="45.83798" lon="4.38722">
        <ele>855</ele>
        <time>2016-05-19T08:31:23.213Z</time>
      </trkpt>
      <trkpt lat="45.83804" lon="4.38712">
        <ele>855</ele>
        <time>2016-05-19T08:31:30.22Z</time>
      </trkpt>
      <trkpt lat="45.83805" lon="4.38711">
        <ele>855</ele>
        <time>2016-05-19T08:31:31.219Z</time>
      </trkpt>
      <trkpt lat="45.8381" lon="4.38703">
        <ele>855</ele>
        <time>2016-05-19T08:31:38.225Z</time>
      </trkpt>
      <trkpt lat="45.83811" lon="4.38701">
        <ele>855</ele>
        <time>2016-05-19T08:31:39.226Z</time>
      </trkpt>
      <trkpt lat="45.83817" lon="4.38692">
        <ele>855</ele>
        <time>2016-05-19T08:31:44.219Z</time>
      </trkpt>
      <trkpt lat="45.83817" lon="4.38691">
        <ele>855</ele>
        <time>2016-05-19T08:31:45.22Z</time>
      </trkpt>
      <trkpt lat="45.83822" lon="4.38681">
        <ele>856</ele>
        <time>2016-05-19T08:31:54.218Z</time>
      </trkpt>
      <trkpt lat="45.83824" lon="4.38679">
        <ele>856</ele>
        <time>2016-05-19T08:31:55.223Z</time>
      </trkpt>
      <trkpt lat="45.83829" lon="4.3867">
        <ele>857</ele>
        <time>2016-05-19T08:32:01.226Z</time>
      </trkpt>
      <trkpt lat="45.8383" lon="4.38669">
        <ele>857</ele>
        <time>2016-05-19T08:32:02.222Z</time>
      </trkpt>
      <trkpt lat="45.83835" lon="4.3866">
        <ele>857</ele>
        <time>2016-05-19T08:32:09.223Z</time>
      </trkpt>
      <trkpt lat="45.83836" lon="4.38658">
        <ele>857</ele>
        <time>2016-05-19T08:32:10.222Z</time>
      </trkpt>
      <trkpt lat="45.8384" lon="4.38649">
        <ele>856</ele>
        <time>2016-05-19T08:32:16.204Z</time>
      </trkpt>
      <trkpt lat="45.83841" lon="4.38647">
        <ele>856</ele>
        <time>2016-05-19T08:32:17.209Z</time>
      </trkpt>
      <trkpt lat="45.83846" lon="4.38637">
        <ele>856</ele>
        <time>2016-05-19T08:32:22.226Z</time>
      </trkpt>
      <trkpt lat="45.83848" lon="4.38635">
        <ele>856</ele>
        <time>2016-05-19T08:32:23.227Z</time>
      </trkpt>
      <trkpt lat="45.83853" lon="4.38626">
        <ele>855</ele>
        <time>2016-05-19T08:32:28.221Z</time>
      </trkpt>
      <trkpt lat="45.83854" lon="4.38624">
        <ele>855</ele>
        <time>2016-05-19T08:32:29.221Z</time>
      </trkpt>
      <trkpt lat="45.8386" lon="4.38616">
        <ele>855</ele>
        <time>2016-05-19T08:32:35.225Z</time>
      </trkpt>
      <trkpt lat="45.83861" lon="4.38615">
        <ele>855</ele>
        <time>2016-05-19T08:32:36.225Z</time>
      </trkpt>
      <trkpt lat="45.83868" lon="4.38607">
        <ele>855</ele>
        <time>2016-05-19T08:32:42.225Z</time>
      </trkpt>
      <trkpt lat="45.83869" lon="4.38606">
        <ele>855</ele>
        <time>2016-05-19T08:32:43.222Z</time>
      </trkpt>
      <trkpt lat="45.83875" lon="4.38598">
        <ele>855</ele>
        <time>2016-05-19T08:32:52.224Z</time>
      </trkpt>
      <trkpt lat="45.83876" lon="4.38597">
        <ele>855</ele>
        <time>2016-05-19T08:32:53.227Z</time>
      </trkpt>
      <trkpt lat="45.83881" lon="4.38587">
        <ele>855</ele>
        <time>2016-05-19T08:32:58.22Z</time>
      </trkpt>
      <trkpt lat="45.83882" lon="4.38586">
        <ele>855</ele>
        <time>2016-05-19T08:32:59.225Z</time>
      </trkpt>
      <trkpt lat="45.83887" lon="4.38576">
        <ele>855</ele>
        <time>2016-05-19T08:33:05.227Z</time>
      </trkpt>
      <trkpt lat="45.83888" lon="4.38574">
        <ele>855</ele>
        <time>2016-05-19T08:33:06.221Z</time>
      </trkpt>
      <trkpt lat="45.83893" lon="4.38567">
        <ele>855</ele>
        <time>2016-05-19T08:33:14.22Z</time>
      </trkpt>
      <trkpt lat="45.83894" lon="4.38565">
        <ele>855</ele>
        <time>2016-05-19T08:33:15.222Z</time>
      </trkpt>
      <trkpt lat="45.83899" lon="4.38557">
        <ele>855</ele>
        <time>2016-05-19T08:33:21.211Z</time>
      </trkpt>
      <trkpt lat="45.839" lon="4.38555">
        <ele>855</ele>
        <time>2016-05-19T08:33:22.21Z</time>
      </trkpt>
      <trkpt lat="45.83905" lon="4.38545">
        <ele>856</ele>
        <time>2016-05-19T08:33:30.226Z</time>
      </trkpt>
      <trkpt lat="45.83906" lon="4.38543">
        <ele>856</ele>
        <time>2016-05-19T08:33:31.228Z</time>
      </trkpt>
      <trkpt lat="45.83912" lon="4.38535">
        <ele>856</ele>
        <time>2016-05-19T08:33:37.22Z</time>
      </trkpt>
      <trkpt lat="45.83913" lon="4.38534">
        <ele>856</ele>
        <time>2016-05-19T08:33:38.207Z</time>
      </trkpt>
      <trkpt lat="45.83918" lon="4.38526">
        <ele>861</ele>
        <time>2016-05-19T08:33:43.214Z</time>
      </trkpt>
      <trkpt lat="45.8392" lon="4.38524">
        <ele>861</ele>
        <time>2016-05-19T08:33:44.217Z</time>
      </trkpt>
      <trkpt lat="45.83926" lon="4.38516">
        <ele>861</ele>
        <time>2016-05-19T08:33:51.29Z</time>
      </trkpt>
      <trkpt lat="45.83927" lon="4.38515">
        <ele>861</ele>
        <time>2016-05-19T08:33:52.268Z</time>
      </trkpt>
      <trkpt lat="45.83933" lon="4.38509">
        <ele>861</ele>
        <time>2016-05-19T08:33:56.216Z</time>
      </trkpt>
      <trkpt lat="45.83935" lon="4.38507">
        <ele>861</ele>
        <time>2016-05-19T08:33:57.224Z</time>
      </trkpt>
      <trkpt lat="45.83943" lon="4.38501">
        <ele>861</ele>
        <time>2016-05-19T08:34:03.21Z</time>
      </trkpt>
      <trkpt lat="45.83944" lon="4.385">
        <ele>861</ele>
        <time>2016-05-19T08:34:04.222Z</time>
      </trkpt>
      <trkpt lat="45.83951" lon="4.38496">
        <ele>865</ele>
        <time>2016-05-19T08:34:10.212Z</time>
      </trkpt>
      <trkpt lat="45.83953" lon="4.38495">
        <ele>865</ele>
        <time>2016-05-19T08:34:11.218Z</time>
      </trkpt>
      <trkpt lat="45.8396" lon="4.38491">
        <ele>865</ele>
        <time>2016-05-19T08:34:16.229Z</time>
      </trkpt>
      <trkpt lat="45.83961" lon="4.38491">
        <ele>866</ele>
        <time>2016-05-19T08:34:17.219Z</time>
      </trkpt>
      <trkpt lat="45.83969" lon="4.38487">
        <ele>866</ele>
        <time>2016-05-19T08:34:24.227Z</time>
      </trkpt>
      <trkpt lat="45.8397" lon="4.38486">
        <ele>866</ele>
        <time>2016-05-19T08:34:25.218Z</time>
      </trkpt>
      <trkpt lat="45.83979" lon="4.38486">
        <ele>867</ele>
        <time>2016-05-19T08:34:34.218Z</time>
      </trkpt>
      <trkpt lat="45.8398" lon="4.38485">
        <ele>867</ele>
        <time>2016-05-19T08:34:35.221Z</time>
      </trkpt>
      <trkpt lat="45.83988" lon="4.38483">
        <ele>867</ele>
        <time>2016-05-19T08:34:43.224Z</time>
      </trkpt>
      <trkpt lat="45.83989" lon="4.38482">
        <ele>867</ele>
        <time>2016-05-19T08:34:44.218Z</time>
      </trkpt>
      <trkpt lat="45.83996" lon="4.38478">
        <ele>867</ele>
        <time>2016-05-19T08:34:50.212Z</time>
      </trkpt>
      <trkpt lat="45.83997" lon="4.38475">
        <ele>867</ele>
        <time>2016-05-19T08:34:51.231Z</time>
      </trkpt>
      <trkpt lat="45.84004" lon="4.38468">
        <ele>871</ele>
        <time>2016-05-19T08:34:57.225Z</time>
      </trkpt>
      <trkpt lat="45.84006" lon="4.38467">
        <ele>871</ele>
        <time>2016-05-19T08:34:58.23Z</time>
      </trkpt>
      <trkpt lat="45.84012" lon="4.3846">
        <ele>872</ele>
        <time>2016-05-19T08:35:05.206Z</time>
      </trkpt>
      <trkpt lat="45.84013" lon="4.38459">
        <ele>872</ele>
        <time>2016-05-19T08:35:06.207Z</time>
      </trkpt>
      <trkpt lat="45.84017" lon="4.38448">
        <ele>873</ele>
        <time>2016-05-19T08:35:14.226Z</time>
      </trkpt>
      <trkpt lat="45.84018" lon="4.38447">
        <ele>873</ele>
        <time>2016-05-19T08:35:15.216Z</time>
      </trkpt>
      <trkpt lat="45.84022" lon="4.38436">
        <ele>873</ele>
        <time>2016-05-19T08:35:23.22Z</time>
      </trkpt>
      <trkpt lat="45.84022" lon="4.38434">
        <ele>873</ele>
        <time>2016-05-19T08:35:24.213Z</time>
      </trkpt>
      <trkpt lat="45.84025" lon="4.38423">
        <ele>874</ele>
        <time>2016-05-19T08:35:31.216Z</time>
      </trkpt>
      <trkpt lat="45.84026" lon="4.38422">
        <ele>874</ele>
        <time>2016-05-19T08:35:32.208Z</time>
      </trkpt>
      <trkpt lat="45.84027" lon="4.3841">
        <ele>877</ele>
        <time>2016-05-19T08:35:40.206Z</time>
      </trkpt>
      <trkpt lat="45.84027" lon="4.38409">
        <ele>877</ele>
        <time>2016-05-19T08:35:41.197Z</time>
      </trkpt>
      <trkpt lat="45.84028" lon="4.38397">
        <ele>878</ele>
        <time>2016-05-19T08:35:50.22Z</time>
      </trkpt>
      <trkpt lat="45.84027" lon="4.38396">
        <ele>878</ele>
        <time>2016-05-19T08:35:51.216Z</time>
      </trkpt>
      <trkpt lat="45.84024" lon="4.38385">
        <ele>878</ele>
        <time>2016-05-19T08:35:59.225Z</time>
      </trkpt>
      <trkpt lat="45.84024" lon="4.38383">
        <ele>878</ele>
        <time>2016-05-19T08:36:00.215Z</time>
      </trkpt>
      <trkpt lat="45.8402" lon="4.38373">
        <ele>878</ele>
        <time>2016-05-19T08:36:07.214Z</time>
      </trkpt>
      <trkpt lat="45.8402" lon="4.38371">
        <ele>878</ele>
        <time>2016-05-19T08:36:08.221Z</time>
      </trkpt>
      <trkpt lat="45.84016" lon="4.3836">
        <ele>878</ele>
        <time>2016-05-19T08:36:14.23Z</time>
      </trkpt>
      <trkpt lat="45.84016" lon="4.38358">
        <ele>878</ele>
        <time>2016-05-19T08:36:15.235Z</time>
      </trkpt>
      <trkpt lat="45.84011" lon="4.38348">
        <ele>877</ele>
        <time>2016-05-19T08:36:21.217Z</time>
      </trkpt>
      <trkpt lat="45.8401" lon="4.38347">
        <ele>877</ele>
        <time>2016-05-19T08:36:22.218Z</time>
      </trkpt>
      <trkpt lat="45.84006" lon="4.38337">
        <ele>875</ele>
        <time>2016-05-19T08:36:28.225Z</time>
      </trkpt>
      <trkpt lat="45.84005" lon="4.38335">
        <ele>875</ele>
        <time>2016-05-19T08:36:29.217Z</time>
      </trkpt>
      <trkpt lat="45.84" lon="4.38326">
        <ele>873</ele>
        <time>2016-05-19T08:36:35.223Z</time>
      </trkpt>
      <trkpt lat="45.83999" lon="4.38324">
        <ele>872</ele>
        <time>2016-05-19T08:36:36.218Z</time>
      </trkpt>
      <trkpt lat="45.83994" lon="4.38315">
        <ele>871</ele>
        <time>2016-05-19T08:36:42.216Z</time>
      </trkpt>
      <trkpt lat="45.83994" lon="4.38313">
        <ele>871</ele>
        <time>2016-05-19T08:36:43.221Z</time>
      </trkpt>
      <trkpt lat="45.8399" lon="4.38302">
        <ele>871</ele>
        <time>2016-05-19T08:36:49.216Z</time>
      </trkpt>
      <trkpt lat="45.8399" lon="4.383">
        <ele>871</ele>
        <time>2016-05-19T08:36:50.209Z</time>
      </trkpt>
      <trkpt lat="45.83986" lon="4.38289">
        <ele>871</ele>
        <time>2016-05-19T08:36:56.22Z</time>
      </trkpt>
      <trkpt lat="45.83986" lon="4.38287">
        <ele>871</ele>
        <time>2016-05-19T08:36:57.213Z</time>
      </trkpt>
      <trkpt lat="45.83983" lon="4.38276">
        <ele>871</ele>
        <time>2016-05-19T08:37:03.214Z</time>
      </trkpt>
      <trkpt lat="45.83982" lon="4.38274">
        <ele>871</ele>
        <time>2016-05-19T08:37:04.221Z</time>
      </trkpt>
      <trkpt lat="45.83978" lon="4.38264">
        <ele>872</ele>
        <time>2016-05-19T08:37:11.231Z</time>
      </trkpt>
      <trkpt lat="45.83977" lon="4.38262">
        <ele>872</ele>
        <time>2016-05-19T08:37:12.214Z</time>
      </trkpt>
      <trkpt lat="45.83973" lon="4.38252">
        <ele>871</ele>
        <time>2016-05-19T08:37:18.211Z</time>
      </trkpt>
      <trkpt lat="45.83972" lon="4.3825">
        <ele>873</ele>
        <time>2016-05-19T08:37:19.229Z</time>
      </trkpt>
      <trkpt lat="45.83967" lon="4.3824">
        <ele>872</ele>
        <time>2016-05-19T08:37:25.205Z</time>
      </trkpt>
      <trkpt lat="45.83967" lon="4.38238">
        <ele>872</ele>
        <time>2016-05-19T08:37:26.226Z</time>
      </trkpt>
      <trkpt lat="45.83963" lon="4.38227">
        <ele>872</ele>
        <time>2016-05-19T08:37:33.226Z</time>
      </trkpt>
      <trkpt lat="45.83962" lon="4.38225">
        <ele>872</ele>
        <time>2016-05-19T08:37:34.216Z</time>
      </trkpt>
      <trkpt lat="45.83958" lon="4.38213">
        <ele>871</ele>
        <time>2016-05-19T08:37:39.231Z</time>
      </trkpt>
      <trkpt lat="45.83957" lon="4.38211">
        <ele>871</ele>
        <time>2016-05-19T08:37:40.226Z</time>
      </trkpt>
      <trkpt lat="45.83954" lon="4.38201">
        <ele>871</ele>
        <time>2016-05-19T08:37:45.219Z</time>
      </trkpt>
      <trkpt lat="45.83953" lon="4.382">
        <ele>871</ele>
        <time>2016-05-19T08:37:46.225Z</time>
      </trkpt>
      <trkpt lat="45.83948" lon="4.38189">
        <ele>871</ele>
        <time>2016-05-19T08:37:53.227Z</time>
      </trkpt>
      <trkpt lat="45.83948" lon="4.38188">
        <ele>871</ele>
        <time>2016-05-19T08:37:54.222Z</time>
      </trkpt>
      <trkpt lat="45.83942" lon="4.38179">
        <ele>870</ele>
        <time>2016-05-19T08:38:01.227Z</time>
      </trkpt>
      <trkpt lat="45.83941" lon="4.38178">
        <ele>869</ele>
        <time>2016-05-19T08:38:02.211Z</time>
      </trkpt>
      <trkpt lat="45.83936" lon="4.3817">
        <ele>868</ele>
        <time>2016-05-19T08:38:08.228Z</time>
      </trkpt>
      <trkpt lat="45.83935" lon="4.38168">
        <ele>868</ele>
        <time>2016-05-19T08:38:09.225Z</time>
      </trkpt>
      <trkpt lat="45.8393" lon="4.38158">
        <ele>869</ele>
        <time>2016-05-19T08:38:16.221Z</time>
      </trkpt>
      <trkpt lat="45.8393" lon="4.38156">
        <ele>869</ele>
        <time>2016-05-19T08:38:17.213Z</time>
      </trkpt>
      <trkpt lat="45.83925" lon="4.38146">
        <ele>870</ele>
        <time>2016-05-19T08:38:24.208Z</time>
      </trkpt>
      <trkpt lat="45.83924" lon="4.38144">
        <ele>870</ele>
        <time>2016-05-19T08:38:25.203Z</time>
      </trkpt>
      <trkpt lat="45.8392" lon="4.38134">
        <ele>871</ele>
        <time>2016-05-19T08:38:32.215Z</time>
      </trkpt>
      <trkpt lat="45.83919" lon="4.38132">
        <ele>871</ele>
        <time>2016-05-19T08:38:33.222Z</time>
      </trkpt>
      <trkpt lat="45.83916" lon="4.38122">
        <ele>858</ele>
        <time>2016-05-19T08:38:39.214Z</time>
      </trkpt>
      <trkpt lat="45.83916" lon="4.3812">
        <ele>858</ele>
        <time>2016-05-19T08:38:40.218Z</time>
      </trkpt>
      <trkpt lat="45.83913" lon="4.3811">
        <ele>858</ele>
        <time>2016-05-19T08:38:45.227Z</time>
      </trkpt>
      <trkpt lat="45.83912" lon="4.38108">
        <ele>859</ele>
        <time>2016-05-19T08:38:46.226Z</time>
      </trkpt>
      <trkpt lat="45.83908" lon="4.38098">
        <ele>860</ele>
        <time>2016-05-19T08:38:52.211Z</time>
      </trkpt>
      <trkpt lat="45.83908" lon="4.38096">
        <ele>860</ele>
        <time>2016-05-19T08:38:53.218Z</time>
      </trkpt>
      <trkpt lat="45.83904" lon="4.38085">
        <ele>861</ele>
        <time>2016-05-19T08:39:00.225Z</time>
      </trkpt>
      <trkpt lat="45.83904" lon="4.38083">
        <ele>862</ele>
        <time>2016-05-19T08:39:01.227Z</time>
      </trkpt>
      <trkpt lat="45.83899" lon="4.38074">
        <ele>860</ele>
        <time>2016-05-19T08:39:07.227Z</time>
      </trkpt>
      <trkpt lat="45.83899" lon="4.38072">
        <ele>860</ele>
        <time>2016-05-19T08:39:08.222Z</time>
      </trkpt>
      <trkpt lat="45.83894" lon="4.38061">
        <ele>859</ele>
        <time>2016-05-19T08:39:15.22Z</time>
      </trkpt>
      <trkpt lat="45.83894" lon="4.3806">
        <ele>858</ele>
        <time>2016-05-19T08:39:16.217Z</time>
      </trkpt>
      <trkpt lat="45.83893" lon="4.38048">
        <ele>858</ele>
        <time>2016-05-19T08:39:24.224Z</time>
      </trkpt>
      <trkpt lat="45.83892" lon="4.38046">
        <ele>858</ele>
        <time>2016-05-19T08:39:25.205Z</time>
      </trkpt>
      <trkpt lat="45.83889" lon="4.38036">
        <ele>858</ele>
        <time>2016-05-19T08:39:31.219Z</time>
      </trkpt>
      <trkpt lat="45.83889" lon="4.38034">
        <ele>858</ele>
        <time>2016-05-19T08:39:32.215Z</time>
      </trkpt>
      <trkpt lat="45.83888" lon="4.38023">
        <ele>858</ele>
        <time>2016-05-19T08:39:37.221Z</time>
      </trkpt>
      <trkpt lat="45.83887" lon="4.38021">
        <ele>858</ele>
        <time>2016-05-19T08:39:38.216Z</time>
      </trkpt>
      <trkpt lat="45.83885" lon="4.38009">
        <ele>859</ele>
        <time>2016-05-19T08:39:45.219Z</time>
      </trkpt>
      <trkpt lat="45.83885" lon="4.38007">
        <ele>859</ele>
        <time>2016-05-19T08:39:46.217Z</time>
      </trkpt>
      <trkpt lat="45.8388" lon="4.37997">
        <ele>861</ele>
        <time>2016-05-19T08:39:52.213Z</time>
      </trkpt>
      <trkpt lat="45.83879" lon="4.37995">
        <ele>861</ele>
        <time>2016-05-19T08:39:53.208Z</time>
      </trkpt>
      <trkpt lat="45.83873" lon="4.37987">
        <ele>860</ele>
        <time>2016-05-19T08:39:58.198Z</time>
      </trkpt>
      <trkpt lat="45.83872" lon="4.37986">
        <ele>860</ele>
        <time>2016-05-19T08:39:59.199Z</time>
      </trkpt>
      <trkpt lat="45.83866" lon="4.37976">
        <ele>859</ele>
        <time>2016-05-19T08:40:04.224Z</time>
      </trkpt>
      <trkpt lat="45.83865" lon="4.37975">
        <ele>859</ele>
        <time>2016-05-19T08:40:05.217Z</time>
      </trkpt>
      <trkpt lat="45.83861" lon="4.37965">
        <ele>859</ele>
        <time>2016-05-19T08:40:11.225Z</time>
      </trkpt>
      <trkpt lat="45.83861" lon="4.37963">
        <ele>859</ele>
        <time>2016-05-19T08:40:12.221Z</time>
      </trkpt>
      <trkpt lat="45.83856" lon="4.37953">
        <ele>859</ele>
        <time>2016-05-19T08:40:19.23Z</time>
      </trkpt>
      <trkpt lat="45.83855" lon="4.37952">
        <ele>859</ele>
        <time>2016-05-19T08:40:20.219Z</time>
      </trkpt>
      <trkpt lat="45.83849" lon="4.37944">
        <ele>859</ele>
        <time>2016-05-19T08:40:25.221Z</time>
      </trkpt>
      <trkpt lat="45.83848" lon="4.37943">
        <ele>859</ele>
        <time>2016-05-19T08:40:26.218Z</time>
      </trkpt>
      <trkpt lat="45.83842" lon="4.37936">
        <ele>858</ele>
        <time>2016-05-19T08:40:32.222Z</time>
      </trkpt>
      <trkpt lat="45.83841" lon="4.37935">
        <ele>858</ele>
        <time>2016-05-19T08:40:33.231Z</time>
      </trkpt>
      <trkpt lat="45.83835" lon="4.37927">
        <ele>857</ele>
        <time>2016-05-19T08:40:39.215Z</time>
      </trkpt>
      <trkpt lat="45.83835" lon="4.37925">
        <ele>857</ele>
        <time>2016-05-19T08:40:40.229Z</time>
      </trkpt>
      <trkpt lat="45.83828" lon="4.37917">
        <ele>855</ele>
        <time>2016-05-19T08:40:47.213Z</time>
      </trkpt>
      <trkpt lat="45.83827" lon="4.37915">
        <ele>854</ele>
        <time>2016-05-19T08:40:48.218Z</time>
      </trkpt>
      <trkpt lat="45.8382" lon="4.37909">
        <ele>853</ele>
        <time>2016-05-19T08:40:54.229Z</time>
      </trkpt>
      <trkpt lat="45.83819" lon="4.37908">
        <ele>853</ele>
        <time>2016-05-19T08:40:55.22Z</time>
      </trkpt>
      <trkpt lat="45.83812" lon="4.37903">
        <ele>851</ele>
        <time>2016-05-19T08:41:02.222Z</time>
      </trkpt>
      <trkpt lat="45.83811" lon="4.37902">
        <ele>851</ele>
        <time>2016-05-19T08:41:03.219Z</time>
      </trkpt>
      <trkpt lat="45.83802" lon="4.37898">
        <ele>850</ele>
        <time>2016-05-19T08:41:10.211Z</time>
      </trkpt>
      <trkpt lat="45.83801" lon="4.37897">
        <ele>850</ele>
        <time>2016-05-19T08:41:11.227Z</time>
      </trkpt>
      <trkpt lat="45.83794" lon="4.37893">
        <ele>849</ele>
        <time>2016-05-19T08:41:18.216Z</time>
      </trkpt>
      <trkpt lat="45.83792" lon="4.37892">
        <ele>849</ele>
        <time>2016-05-19T08:41:19.225Z</time>
      </trkpt>
      <trkpt lat="45.83786" lon="4.37885">
        <ele>848</ele>
        <time>2016-05-19T08:41:25.212Z</time>
      </trkpt>
      <trkpt lat="45.83785" lon="4.37884">
        <ele>848</ele>
        <time>2016-05-19T08:41:26.219Z</time>
      </trkpt>
      <trkpt lat="45.83779" lon="4.37875">
        <ele>848</ele>
        <time>2016-05-19T08:41:32.197Z</time>
      </trkpt>
      <trkpt lat="45.83778" lon="4.37874">
        <ele>848</ele>
        <time>2016-05-19T08:41:33.217Z</time>
      </trkpt>
      <trkpt lat="45.83773" lon="4.37865">
        <ele>847</ele>
        <time>2016-05-19T08:41:39.22Z</time>
      </trkpt>
      <trkpt lat="45.83772" lon="4.37864">
        <ele>847</ele>
        <time>2016-05-19T08:41:40.23Z</time>
      </trkpt>
      <trkpt lat="45.83765" lon="4.37857">
        <ele>846</ele>
        <time>2016-05-19T08:41:46.226Z</time>
      </trkpt>
      <trkpt lat="45.83764" lon="4.37856">
        <ele>846</ele>
        <time>2016-05-19T08:41:47.23Z</time>
      </trkpt>
      <trkpt lat="45.83757" lon="4.3785">
        <ele>845</ele>
        <time>2016-05-19T08:41:53.227Z</time>
      </trkpt>
      <trkpt lat="45.83756" lon="4.37849">
        <ele>845</ele>
        <time>2016-05-19T08:41:54.214Z</time>
      </trkpt>
      <trkpt lat="45.83748" lon="4.37843">
        <ele>839</ele>
        <time>2016-05-19T08:42:00.218Z</time>
      </trkpt>
      <trkpt lat="45.83747" lon="4.37842">
        <ele>840</ele>
        <time>2016-05-19T08:42:01.221Z</time>
      </trkpt>
      <trkpt lat="45.8374" lon="4.37836">
        <ele>839</ele>
        <time>2016-05-19T08:42:07.224Z</time>
      </trkpt>
      <trkpt lat="45.83739" lon="4.37835">
        <ele>839</ele>
        <time>2016-05-19T08:42:08.215Z</time>
      </trkpt>
      <trkpt lat="45.83731" lon="4.37829">
        <ele>838</ele>
        <time>2016-05-19T08:42:14.226Z</time>
      </trkpt>
      <trkpt lat="45.8373" lon="4.37827">
        <ele>838</ele>
        <time>2016-05-19T08:42:15.221Z</time>
      </trkpt>
      <trkpt lat="45.83724" lon="4.37819">
        <ele>837</ele>
        <time>2016-05-19T08:42:21.234Z</time>
      </trkpt>
      <trkpt lat="45.83723" lon="4.37818">
        <ele>837</ele>
        <time>2016-05-19T08:42:22.22Z</time>
      </trkpt>
      <trkpt lat="45.83716" lon="4.3781">
        <ele>836</ele>
        <time>2016-05-19T08:42:28.236Z</time>
      </trkpt>
      <trkpt lat="45.83715" lon="4.37809">
        <ele>836</ele>
        <time>2016-05-19T08:42:29.214Z</time>
      </trkpt>
      <trkpt lat="45.8371" lon="4.37799">
        <ele>835</ele>
        <time>2016-05-19T08:42:36.233Z</time>
      </trkpt>
      <trkpt lat="45.83709" lon="4.37798">
        <ele>835</ele>
        <time>2016-05-19T08:42:37.219Z</time>
      </trkpt>
      <trkpt lat="45.83703" lon="4.3779">
        <ele>835</ele>
        <time>2016-05-19T08:42:43.226Z</time>
      </trkpt>
      <trkpt lat="45.83702" lon="4.37788">
        <ele>835</ele>
        <time>2016-05-19T08:42:44.217Z</time>
      </trkpt>
      <trkpt lat="45.83696" lon="4.37781">
        <ele>834</ele>
        <time>2016-05-19T08:42:50.218Z</time>
      </trkpt>
      <trkpt lat="45.83695" lon="4.3778">
        <ele>834</ele>
        <time>2016-05-19T08:42:51.215Z</time>
      </trkpt>
      <trkpt lat="45.83688" lon="4.37773">
        <ele>834</ele>
        <time>2016-05-19T08:42:58.23Z</time>
      </trkpt>
      <trkpt lat="45.83687" lon="4.37771">
        <ele>834</ele>
        <time>2016-05-19T08:42:59.224Z</time>
      </trkpt>
      <trkpt lat="45.8368" lon="4.37765">
        <ele>833</ele>
        <time>2016-05-19T08:43:06.216Z</time>
      </trkpt>
      <trkpt lat="45.8368" lon="4.37764">
        <ele>833</ele>
        <time>2016-05-19T08:43:07.221Z</time>
      </trkpt>
      <trkpt lat="45.83675" lon="4.37754">
        <ele>832</ele>
        <time>2016-05-19T08:43:15.225Z</time>
      </trkpt>
      <trkpt lat="45.83674" lon="4.37753">
        <ele>831</ele>
        <time>2016-05-19T08:43:16.218Z</time>
      </trkpt>
      <trkpt lat="45.83669" lon="4.37744">
        <ele>831</ele>
        <time>2016-05-19T08:43:23.211Z</time>
      </trkpt>
      <trkpt lat="45.83668" lon="4.37742">
        <ele>831</ele>
        <time>2016-05-19T08:43:24.231Z</time>
      </trkpt>
      <trkpt lat="45.83662" lon="4.37735">
        <ele>827</ele>
        <time>2016-05-19T08:43:31.217Z</time>
      </trkpt>
      <trkpt lat="45.83661" lon="4.37734">
        <ele>827</ele>
        <time>2016-05-19T08:43:32.216Z</time>
      </trkpt>
      <trkpt lat="45.83655" lon="4.37728">
        <ele>826</ele>
        <time>2016-05-19T08:43:38.213Z</time>
      </trkpt>
      <trkpt lat="45.83653" lon="4.37727">
        <ele>826</ele>
        <time>2016-05-19T08:43:39.223Z</time>
      </trkpt>
      <trkpt lat="45.83647" lon="4.3772">
        <ele>826</ele>
        <time>2016-05-19T08:43:46.221Z</time>
      </trkpt>
      <trkpt lat="45.83646" lon="4.37719">
        <ele>825</ele>
        <time>2016-05-19T08:43:47.226Z</time>
      </trkpt>
      <trkpt lat="45.83638" lon="4.37713">
        <ele>825</ele>
        <time>2016-05-19T08:43:56.22Z</time>
      </trkpt>
      <trkpt lat="45.83638" lon="4.37712">
        <ele>825</ele>
        <time>2016-05-19T08:43:57.216Z</time>
      </trkpt>
      <trkpt lat="45.83632" lon="4.37705">
        <ele>825</ele>
        <time>2016-05-19T08:44:27.234Z</time>
      </trkpt>
      <trkpt lat="45.83631" lon="4.37704">
        <ele>824</ele>
        <time>2016-05-19T08:44:28.222Z</time>
      </trkpt>
      <trkpt lat="45.83624" lon="4.37697">
        <ele>824</ele>
        <time>2016-05-19T08:44:35.206Z</time>
      </trkpt>
      <trkpt lat="45.83623" lon="4.37696">
        <ele>824</ele>
        <time>2016-05-19T08:44:36.202Z</time>
      </trkpt>
      <trkpt lat="45.83614" lon="4.37692">
        <ele>823</ele>
        <time>2016-05-19T08:44:44.235Z</time>
      </trkpt>
      <trkpt lat="45.83613" lon="4.37692">
        <ele>823</ele>
        <time>2016-05-19T08:44:45.229Z</time>
      </trkpt>
      <trkpt lat="45.83606" lon="4.37684">
        <ele>823</ele>
        <time>2016-05-19T08:44:52.22Z</time>
      </trkpt>
      <trkpt lat="45.83605" lon="4.37683">
        <ele>823</ele>
        <time>2016-05-19T08:44:53.234Z</time>
      </trkpt>
      <trkpt lat="45.83598" lon="4.37677">
        <ele>822</ele>
        <time>2016-05-19T08:44:58.22Z</time>
      </trkpt>
      <trkpt lat="45.83597" lon="4.37676">
        <ele>822</ele>
        <time>2016-05-19T08:44:59.209Z</time>
      </trkpt>
      <trkpt lat="45.8359" lon="4.37669">
        <ele>821</ele>
        <time>2016-05-19T08:45:06.227Z</time>
      </trkpt>
      <trkpt lat="45.83589" lon="4.37668">
        <ele>821</ele>
        <time>2016-05-19T08:45:07.215Z</time>
      </trkpt>
      <trkpt lat="45.83583" lon="4.37659">
        <ele>819</ele>
        <time>2016-05-19T08:45:15.233Z</time>
      </trkpt>
      <trkpt lat="45.83582" lon="4.37658">
        <ele>819</ele>
        <time>2016-05-19T08:45:16.223Z</time>
      </trkpt>
      <trkpt lat="45.83577" lon="4.37648">
        <ele>817</ele>
        <time>2016-05-19T08:45:26.232Z</time>
      </trkpt>
      <trkpt lat="45.83576" lon="4.37647">
        <ele>817</ele>
        <time>2016-05-19T08:45:27.221Z</time>
      </trkpt>
      <trkpt lat="45.83569" lon="4.37642">
        <ele>817</ele>
        <time>2016-05-19T08:45:32.217Z</time>
      </trkpt>
      <trkpt lat="45.83568" lon="4.37641">
        <ele>817</ele>
        <time>2016-05-19T08:45:33.215Z</time>
      </trkpt>
      <trkpt lat="45.8356" lon="4.37637">
        <ele>816</ele>
        <time>2016-05-19T08:45:37.217Z</time>
      </trkpt>
      <trkpt lat="45.83559" lon="4.37636">
        <ele>816</ele>
        <time>2016-05-19T08:45:38.235Z</time>
      </trkpt>
      <trkpt lat="45.8355" lon="4.37632">
        <ele>815</ele>
        <time>2016-05-19T08:45:43.209Z</time>
      </trkpt>
      <trkpt lat="45.83549" lon="4.37631">
        <ele>815</ele>
        <time>2016-05-19T08:45:44.228Z</time>
      </trkpt>
      <trkpt lat="45.83541" lon="4.37629">
        <ele>815</ele>
        <time>2016-05-19T08:45:49.23Z</time>
      </trkpt>
      <trkpt lat="45.83539" lon="4.37628">
        <ele>815</ele>
        <time>2016-05-19T08:45:50.226Z</time>
      </trkpt>
      <trkpt lat="45.8353" lon="4.37628">
        <ele>814</ele>
        <time>2016-05-19T08:45:57.216Z</time>
      </trkpt>
      <trkpt lat="45.83529" lon="4.37628">
        <ele>814</ele>
        <time>2016-05-19T08:45:58.232Z</time>
      </trkpt>
      <trkpt lat="45.83521" lon="4.37626">
        <ele>813</ele>
        <time>2016-05-19T08:46:04.22Z</time>
      </trkpt>
      <trkpt lat="45.8352" lon="4.37625">
        <ele>813</ele>
        <time>2016-05-19T08:46:05.236Z</time>
      </trkpt>
      <trkpt lat="45.83512" lon="4.37624">
        <ele>813</ele>
        <time>2016-05-19T08:46:11.231Z</time>
      </trkpt>
      <trkpt lat="45.83511" lon="4.37624">
        <ele>813</ele>
        <time>2016-05-19T08:46:12.22Z</time>
      </trkpt>
      <trkpt lat="45.83502" lon="4.37625">
        <ele>812</ele>
        <time>2016-05-19T08:46:18.233Z</time>
      </trkpt>
      <trkpt lat="45.83501" lon="4.37625">
        <ele>812</ele>
        <time>2016-05-19T08:46:19.235Z</time>
      </trkpt>
      <trkpt lat="45.83493" lon="4.37622">
        <ele>804</ele>
        <time>2016-05-19T08:46:25.214Z</time>
      </trkpt>
      <trkpt lat="45.83492" lon="4.37621">
        <ele>804</ele>
        <time>2016-05-19T08:46:26.222Z</time>
      </trkpt>
      <trkpt lat="45.83484" lon="4.37619">
        <ele>804</ele>
        <time>2016-05-19T08:46:33.22Z</time>
      </trkpt>
      <trkpt lat="45.83483" lon="4.37618">
        <ele>804</ele>
        <time>2016-05-19T08:46:34.218Z</time>
      </trkpt>
      <trkpt lat="45.83474" lon="4.37615">
        <ele>803</ele>
        <time>2016-05-19T08:46:42.218Z</time>
      </trkpt>
      <trkpt lat="45.83473" lon="4.37615">
        <ele>803</ele>
        <time>2016-05-19T08:46:43.217Z</time>
      </trkpt>
      <trkpt lat="45.83464" lon="4.37614">
        <ele>803</ele>
        <time>2016-05-19T08:46:51.235Z</time>
      </trkpt>
      <trkpt lat="45.83464" lon="4.37613">
        <ele>802</ele>
        <time>2016-05-19T08:46:52.229Z</time>
      </trkpt>
      <trkpt lat="45.83455" lon="4.37611">
        <ele>802</ele>
        <time>2016-05-19T08:47:00.221Z</time>
      </trkpt>
      <trkpt lat="45.83454" lon="4.37611">
        <ele>802</ele>
        <time>2016-05-19T08:47:01.23Z</time>
      </trkpt>
      <trkpt lat="45.83446" lon="4.37607">
        <ele>801</ele>
        <time>2016-05-19T08:47:09.235Z</time>
      </trkpt>
      <trkpt lat="45.83445" lon="4.37606">
        <ele>801</ele>
        <time>2016-05-19T08:47:10.233Z</time>
      </trkpt>
      <trkpt lat="45.83437" lon="4.37602">
        <ele>800</ele>
        <time>2016-05-19T08:47:19.23Z</time>
      </trkpt>
      <trkpt lat="45.83436" lon="4.37602">
        <ele>800</ele>
        <time>2016-05-19T08:47:20.231Z</time>
      </trkpt>
      <trkpt lat="45.83427" lon="4.37598">
        <ele>799</ele>
        <time>2016-05-19T08:47:28.231Z</time>
      </trkpt>
      <trkpt lat="45.83426" lon="4.37597">
        <ele>798</ele>
        <time>2016-05-19T08:47:29.228Z</time>
      </trkpt>
      <trkpt lat="45.83419" lon="4.3759">
        <ele>797</ele>
        <time>2016-05-19T08:47:37.218Z</time>
      </trkpt>
      <trkpt lat="45.83418" lon="4.3759">
        <ele>797</ele>
        <time>2016-05-19T08:47:38.21Z</time>
      </trkpt>
      <trkpt lat="45.83411" lon="4.37583">
        <ele>793</ele>
        <time>2016-05-19T08:47:45.219Z</time>
      </trkpt>
      <trkpt lat="45.8341" lon="4.37582">
        <ele>793</ele>
        <time>2016-05-19T08:47:46.223Z</time>
      </trkpt>
      <trkpt lat="45.83404" lon="4.37574">
        <ele>790</ele>
        <time>2016-05-19T08:47:54.216Z</time>
      </trkpt>
      <trkpt lat="45.83403" lon="4.37573">
        <ele>790</ele>
        <time>2016-05-19T08:47:55.211Z</time>
      </trkpt>
      <trkpt lat="45.83397" lon="4.37564">
        <ele>789</ele>
        <time>2016-05-19T08:48:02.216Z</time>
      </trkpt>
      <trkpt lat="45.83397" lon="4.37562">
        <ele>788</ele>
        <time>2016-05-19T08:48:03.216Z</time>
      </trkpt>
      <trkpt lat="45.83394" lon="4.37552">
        <ele>787</ele>
        <time>2016-05-19T08:48:10.226Z</time>
      </trkpt>
      <trkpt lat="45.83394" lon="4.3755">
        <ele>787</ele>
        <time>2016-05-19T08:48:11.22Z</time>
      </trkpt>
      <trkpt lat="45.83391" lon="4.37539">
        <ele>786</ele>
        <time>2016-05-19T08:48:19.217Z</time>
      </trkpt>
      <trkpt lat="45.8339" lon="4.37538">
        <ele>786</ele>
        <time>2016-05-19T08:48:20.217Z</time>
      </trkpt>
      <trkpt lat="45.83388" lon="4.37526">
        <ele>786</ele>
        <time>2016-05-19T08:48:27.236Z</time>
      </trkpt>
      <trkpt lat="45.83387" lon="4.37525">
        <ele>785</ele>
        <time>2016-05-19T08:48:28.233Z</time>
      </trkpt>
      <trkpt lat="45.83386" lon="4.37513">
        <ele>785</ele>
        <time>2016-05-19T08:48:36.217Z</time>
      </trkpt>
      <trkpt lat="45.83386" lon="4.37511">
        <ele>785</ele>
        <time>2016-05-19T08:48:37.203Z</time>
      </trkpt>
      <trkpt lat="45.83384" lon="4.37499">
        <ele>780</ele>
        <time>2016-05-19T08:48:44.237Z</time>
      </trkpt>
      <trkpt lat="45.83384" lon="4.37497">
        <ele>780</ele>
        <time>2016-05-19T08:48:45.225Z</time>
      </trkpt>
      <trkpt lat="45.83381" lon="4.37486">
        <ele>779</ele>
        <time>2016-05-19T08:48:51.225Z</time>
      </trkpt>
      <trkpt lat="45.8338" lon="4.37485">
        <ele>779</ele>
        <time>2016-05-19T08:48:52.219Z</time>
      </trkpt>
      <trkpt lat="45.83379" lon="4.37473">
        <ele>778</ele>
        <time>2016-05-19T08:48:59.228Z</time>
      </trkpt>
      <trkpt lat="45.83378" lon="4.37471">
        <ele>778</ele>
        <time>2016-05-19T08:49:00.234Z</time>
      </trkpt>
      <trkpt lat="45.83376" lon="4.37459">
        <ele>777</ele>
        <time>2016-05-19T08:49:07.231Z</time>
      </trkpt>
      <trkpt lat="45.83376" lon="4.37457">
        <ele>777</ele>
        <time>2016-05-19T08:49:08.23Z</time>
      </trkpt>
      <trkpt lat="45.83374" lon="4.37446">
        <ele>776</ele>
        <time>2016-05-19T08:49:14.2Z</time>
      </trkpt>
      <trkpt lat="45.83373" lon="4.37444">
        <ele>776</ele>
        <time>2016-05-19T08:49:15.228Z</time>
      </trkpt>
      <trkpt lat="45.8337" lon="4.37433">
        <ele>775</ele>
        <time>2016-05-19T08:49:22.206Z</time>
      </trkpt>
      <trkpt lat="45.8337" lon="4.37431">
        <ele>775</ele>
        <time>2016-05-19T08:49:23.217Z</time>
      </trkpt>
      <trkpt lat="45.83368" lon="4.3742">
        <ele>774</ele>
        <time>2016-05-19T08:49:30.211Z</time>
      </trkpt>
      <trkpt lat="45.83368" lon="4.37418">
        <ele>774</ele>
        <time>2016-05-19T08:49:31.229Z</time>
      </trkpt>
      <trkpt lat="45.83368" lon="4.37406">
        <ele>769</ele>
        <time>2016-05-19T08:49:37.209Z</time>
      </trkpt>
      <trkpt lat="45.83367" lon="4.37404">
        <ele>769</ele>
        <time>2016-05-19T08:49:38.201Z</time>
      </trkpt>
      <trkpt lat="45.83365" lon="4.37393">
        <ele>769</ele>
        <time>2016-05-19T08:49:44.225Z</time>
      </trkpt>
      <trkpt lat="45.83364" lon="4.37392">
        <ele>769</ele>
        <time>2016-05-19T08:49:45.222Z</time>
      </trkpt>
      <trkpt lat="45.83363" lon="4.3738">
        <ele>768</ele>
        <time>2016-05-19T08:49:52.214Z</time>
      </trkpt>
      <trkpt lat="45.83363" lon="4.37378">
        <ele>768</ele>
        <time>2016-05-19T08:49:53.235Z</time>
      </trkpt>
      <trkpt lat="45.83362" lon="4.37367">
        <ele>767</ele>
        <time>2016-05-19T08:49:59.217Z</time>
      </trkpt>
      <trkpt lat="45.83362" lon="4.37365">
        <ele>767</ele>
        <time>2016-05-19T08:50:00.218Z</time>
      </trkpt>
      <trkpt lat="45.83362" lon="4.37352">
        <ele>766</ele>
        <time>2016-05-19T08:50:07.228Z</time>
      </trkpt>
      <trkpt lat="45.83362" lon="4.37351">
        <ele>766</ele>
        <time>2016-05-19T08:50:08.215Z</time>
      </trkpt>
      <trkpt lat="45.8336" lon="4.3734">
        <ele>765</ele>
        <time>2016-05-19T08:50:15.224Z</time>
      </trkpt>
      <trkpt lat="45.8336" lon="4.37338">
        <ele>765</ele>
        <time>2016-05-19T08:50:16.223Z</time>
      </trkpt>
      <trkpt lat="45.83359" lon="4.37327">
        <ele>760</ele>
        <time>2016-05-19T08:50:21.235Z</time>
      </trkpt>
      <trkpt lat="45.83359" lon="4.37325">
        <ele>760</ele>
        <time>2016-05-19T08:50:22.234Z</time>
      </trkpt>
      <trkpt lat="45.83358" lon="4.37313">
        <ele>759</ele>
        <time>2016-05-19T08:50:29.222Z</time>
      </trkpt>
      <trkpt lat="45.83358" lon="4.37311">
        <ele>759</ele>
        <time>2016-05-19T08:50:30.231Z</time>
      </trkpt>
      <trkpt lat="45.83356" lon="4.373">
        <ele>759</ele>
        <time>2016-05-19T08:50:40.212Z</time>
      </trkpt>
      <trkpt lat="45.83356" lon="4.37298">
        <ele>758</ele>
        <time>2016-05-19T08:50:41.216Z</time>
      </trkpt>
      <trkpt lat="45.83355" lon="4.37285">
        <ele>757</ele>
        <time>2016-05-19T08:50:47.205Z</time>
      </trkpt>
      <trkpt lat="45.83355" lon="4.37283">
        <ele>757</ele>
        <time>2016-05-19T08:50:48.207Z</time>
      </trkpt>
      <trkpt lat="45.83354" lon="4.37272">
        <ele>756</ele>
        <time>2016-05-19T08:50:54.217Z</time>
      </trkpt>
      <trkpt lat="45.83354" lon="4.3727">
        <ele>756</ele>
        <time>2016-05-19T08:50:55.233Z</time>
      </trkpt>
      <trkpt lat="45.83353" lon="4.37258">
        <ele>754</ele>
        <time>2016-05-19T08:51:01.234Z</time>
      </trkpt>
      <trkpt lat="45.83353" lon="4.37256">
        <ele>754</ele>
        <time>2016-05-19T08:51:02.225Z</time>
      </trkpt>
      <trkpt lat="45.83352" lon="4.37243">
        <ele>749</ele>
        <time>2016-05-19T08:51:09.205Z</time>
      </trkpt>
      <trkpt lat="45.83352" lon="4.37242">
        <ele>749</ele>
        <time>2016-05-19T08:51:10.207Z</time>
      </trkpt>
      <trkpt lat="45.83352" lon="4.37229">
        <ele>749</ele>
        <time>2016-05-19T08:51:17.221Z</time>
      </trkpt>
      <trkpt lat="45.83352" lon="4.37228">
        <ele>749</ele>
        <time>2016-05-19T08:51:18.224Z</time>
      </trkpt>
      <trkpt lat="45.83351" lon="4.37215">
        <ele>748</ele>
        <time>2016-05-19T08:51:26.214Z</time>
      </trkpt>
      <trkpt lat="45.8335" lon="4.37213">
        <ele>748</ele>
        <time>2016-05-19T08:51:27.217Z</time>
      </trkpt>
      <trkpt lat="45.83351" lon="4.37201">
        <ele>748</ele>
        <time>2016-05-19T08:51:33.217Z</time>
      </trkpt>
      <trkpt lat="45.8335" lon="4.372">
        <ele>747</ele>
        <time>2016-05-19T08:51:34.227Z</time>
      </trkpt>
      <trkpt lat="45.83349" lon="4.37188">
        <ele>746</ele>
        <time>2016-05-19T08:51:40.216Z</time>
      </trkpt>
      <trkpt lat="45.83349" lon="4.37187">
        <ele>746</ele>
        <time>2016-05-19T08:51:41.208Z</time>
      </trkpt>
      <trkpt lat="45.83348" lon="4.37175">
        <ele>744</ele>
        <time>2016-05-19T08:51:47.215Z</time>
      </trkpt>
      <trkpt lat="45.83348" lon="4.37173">
        <ele>744</ele>
        <time>2016-05-19T08:51:48.233Z</time>
      </trkpt>
      <trkpt lat="45.83348" lon="4.37162">
        <ele>739</ele>
        <time>2016-05-19T08:51:55.21Z</time>
      </trkpt>
      <trkpt lat="45.83348" lon="4.3716">
        <ele>739</ele>
        <time>2016-05-19T08:51:56.22Z</time>
      </trkpt>
      <trkpt lat="45.83348" lon="4.37148">
        <ele>739</ele>
        <time>2016-05-19T08:52:04.221Z</time>
      </trkpt>
      <trkpt lat="45.83348" lon="4.37147">
        <ele>739</ele>
        <time>2016-05-19T08:52:05.232Z</time>
      </trkpt>
      <trkpt lat="45.83347" lon="4.37134">
        <ele>738</ele>
        <time>2016-05-19T08:52:14.235Z</time>
      </trkpt>
      <trkpt lat="45.83347" lon="4.37132">
        <ele>738</ele>
        <time>2016-05-19T08:52:15.214Z</time>
      </trkpt>
      <trkpt lat="45.83345" lon="4.37121">
        <ele>737</ele>
        <time>2016-05-19T08:52:24.232Z</time>
      </trkpt>
      <trkpt lat="45.83345" lon="4.37119">
        <ele>737</ele>
        <time>2016-05-19T08:52:25.217Z</time>
      </trkpt>
      <trkpt lat="45.83339" lon="4.3711">
        <ele>735</ele>
        <time>2016-05-19T08:52:33.22Z</time>
      </trkpt>
      <trkpt lat="45.83338" lon="4.37108">
        <ele>735</ele>
        <time>2016-05-19T08:52:34.227Z</time>
      </trkpt>
      <trkpt lat="45.83338" lon="4.37096">
        <ele>733</ele>
        <time>2016-05-19T08:53:06.235Z</time>
      </trkpt>
      <trkpt lat="45.83339" lon="4.37095">
        <ele>732</ele>
        <time>2016-05-19T08:53:07.217Z</time>
      </trkpt>
      <trkpt lat="45.83345" lon="4.37087">
        <ele>732</ele>
        <time>2016-05-19T08:53:15.225Z</time>
      </trkpt>
      <trkpt lat="45.83346" lon="4.37086">
        <ele>732</ele>
        <time>2016-05-19T08:53:16.225Z</time>
      </trkpt>
      <trkpt lat="45.83353" lon="4.37078">
        <ele>728</ele>
        <time>2016-05-19T08:53:24.22Z</time>
      </trkpt>
      <trkpt lat="45.83354" lon="4.37077">
        <ele>728</ele>
        <time>2016-05-19T08:53:25.225Z</time>
      </trkpt>
      <trkpt lat="45.8336" lon="4.37068">
        <ele>727</ele>
        <time>2016-05-19T08:53:32.224Z</time>
      </trkpt>
      <trkpt lat="45.83361" lon="4.37066">
        <ele>727</ele>
        <time>2016-05-19T08:53:33.228Z</time>
      </trkpt>
      <trkpt lat="45.83367" lon="4.37058">
        <ele>727</ele>
        <time>2016-05-19T08:53:39.229Z</time>
      </trkpt>
      <trkpt lat="45.83369" lon="4.37057">
        <ele>727</ele>
        <time>2016-05-19T08:53:40.214Z</time>
      </trkpt>
      <trkpt lat="45.83375" lon="4.37051">
        <ele>727</ele>
        <time>2016-05-19T08:53:46.219Z</time>
      </trkpt>
      <trkpt lat="45.83376" lon="4.3705">
        <ele>727</ele>
        <time>2016-05-19T08:53:47.219Z</time>
      </trkpt>
      <trkpt lat="45.83384" lon="4.37045">
        <ele>727</ele>
        <time>2016-05-19T08:53:54.209Z</time>
      </trkpt>
      <trkpt lat="45.83385" lon="4.37044">
        <ele>727</ele>
        <time>2016-05-19T08:53:55.225Z</time>
      </trkpt>
      <trkpt lat="45.83393" lon="4.3704">
        <ele>727</ele>
        <time>2016-05-19T08:54:01.205Z</time>
      </trkpt>
      <trkpt lat="45.83394" lon="4.3704">
        <ele>727</ele>
        <time>2016-05-19T08:54:02.204Z</time>
      </trkpt>
      <trkpt lat="45.83402" lon="4.37035">
        <ele>726</ele>
        <time>2016-05-19T08:54:08.219Z</time>
      </trkpt>
      <trkpt lat="45.83403" lon="4.37034">
        <ele>726</ele>
        <time>2016-05-19T08:54:09.221Z</time>
      </trkpt>
      <trkpt lat="45.83409" lon="4.37027">
        <ele>725</ele>
        <time>2016-05-19T08:54:15.227Z</time>
      </trkpt>
      <trkpt lat="45.83411" lon="4.37027">
        <ele>725</ele>
        <time>2016-05-19T08:54:16.229Z</time>
      </trkpt>
      <trkpt lat="45.83418" lon="4.37026">
        <ele>728</ele>
        <time>2016-05-19T08:54:21.232Z</time>
      </trkpt>
      <trkpt lat="45.8342" lon="4.37026">
        <ele>728</ele>
        <time>2016-05-19T08:54:22.215Z</time>
      </trkpt>
      <trkpt lat="45.83427" lon="4.37026">
        <ele>728</ele>
        <time>2016-05-19T08:54:27.217Z</time>
      </trkpt>
      <trkpt lat="45.83429" lon="4.37025">
        <ele>728</ele>
        <time>2016-05-19T08:54:28.219Z</time>
      </trkpt>
      <trkpt lat="45.83436" lon="4.3702">
        <ele>728</ele>
        <time>2016-05-19T08:54:34.226Z</time>
      </trkpt>
      <trkpt lat="45.83438" lon="4.37019">
        <ele>728</ele>
        <time>2016-05-19T08:54:35.221Z</time>
      </trkpt>
      <trkpt lat="45.83445" lon="4.37011">
        <ele>728</ele>
        <time>2016-05-19T08:54:42.22Z</time>
      </trkpt>
      <trkpt lat="45.83445" lon="4.3701">
        <ele>728</ele>
        <time>2016-05-19T08:54:43.203Z</time>
      </trkpt>
      <trkpt lat="45.83453" lon="4.3701">
        <ele>728</ele>
        <time>2016-05-19T08:54:48.217Z</time>
      </trkpt>
      <trkpt lat="45.83455" lon="4.3701">
        <ele>728</ele>
        <time>2016-05-19T08:54:49.22Z</time>
      </trkpt>
      <trkpt lat="45.83462" lon="4.3701">
        <ele>729</ele>
        <time>2016-05-19T08:54:54.227Z</time>
      </trkpt>
      <trkpt lat="45.83464" lon="4.3701">
        <ele>729</ele>
        <time>2016-05-19T08:54:55.219Z</time>
      </trkpt>
      <trkpt lat="45.83472" lon="4.37008">
        <ele>729</ele>
        <time>2016-05-19T08:55:00.227Z</time>
      </trkpt>
      <trkpt lat="45.83473" lon="4.37007">
        <ele>729</ele>
        <time>2016-05-19T08:55:01.214Z</time>
      </trkpt>
      <trkpt lat="45.8348" lon="4.37004">
        <ele>728</ele>
        <time>2016-05-19T08:55:06.228Z</time>
      </trkpt>
      <trkpt lat="45.83482" lon="4.37003">
        <ele>728</ele>
        <time>2016-05-19T08:55:07.218Z</time>
      </trkpt>
      <trkpt lat="45.8349" lon="4.37">
        <ele>727</ele>
        <time>2016-05-19T08:55:12.216Z</time>
      </trkpt>
      <trkpt lat="45.83491" lon="4.37">
        <ele>722</ele>
        <time>2016-05-19T08:55:13.205Z</time>
      </trkpt>
      <trkpt lat="45.83499" lon="4.36993">
        <ele>722</ele>
        <time>2016-05-19T08:55:19.228Z</time>
      </trkpt>
      <trkpt lat="45.835" lon="4.36991">
        <ele>722</ele>
        <time>2016-05-19T08:55:20.226Z</time>
      </trkpt>
      <trkpt lat="45.83504" lon="4.36981">
        <ele>721</ele>
        <time>2016-05-19T08:55:26.218Z</time>
      </trkpt>
      <trkpt lat="45.83504" lon="4.36979">
        <ele>721</ele>
        <time>2016-05-19T08:55:27.219Z</time>
      </trkpt>
      <trkpt lat="45.8351" lon="4.3697">
        <ele>719</ele>
        <time>2016-05-19T08:55:34.235Z</time>
      </trkpt>
      <trkpt lat="45.83511" lon="4.36969">
        <ele>719</ele>
        <time>2016-05-19T08:55:35.233Z</time>
      </trkpt>
      <trkpt lat="45.83517" lon="4.36963">
        <ele>718</ele>
        <time>2016-05-19T08:55:41.215Z</time>
      </trkpt>
      <trkpt lat="45.83518" lon="4.36962">
        <ele>718</ele>
        <time>2016-05-19T08:55:42.21Z</time>
      </trkpt>
      <trkpt lat="45.83526" lon="4.36958">
        <ele>718</ele>
        <time>2016-05-19T08:55:48.202Z</time>
      </trkpt>
      <trkpt lat="45.83527" lon="4.36958">
        <ele>718</ele>
        <time>2016-05-19T08:55:49.222Z</time>
      </trkpt>
      <trkpt lat="45.83534" lon="4.3695">
        <ele>717</ele>
        <time>2016-05-19T08:55:56.207Z</time>
      </trkpt>
      <trkpt lat="45.83535" lon="4.3695">
        <ele>717</ele>
        <time>2016-05-19T08:55:57.23Z</time>
      </trkpt>
      <trkpt lat="45.83542" lon="4.36944">
        <ele>717</ele>
        <time>2016-05-19T08:56:03.219Z</time>
      </trkpt>
      <trkpt lat="45.83543" lon="4.36943">
        <ele>717</ele>
        <time>2016-05-19T08:56:04.206Z</time>
      </trkpt>
      <trkpt lat="45.83549" lon="4.36935">
        <ele>716</ele>
        <time>2016-05-19T08:56:10.211Z</time>
      </trkpt>
      <trkpt lat="45.8355" lon="4.36934">
        <ele>716</ele>
        <time>2016-05-19T08:56:11.218Z</time>
      </trkpt>
      <trkpt lat="45.83556" lon="4.36925">
        <ele>716</ele>
        <time>2016-05-19T08:56:18.22Z</time>
      </trkpt>
      <trkpt lat="45.83557" lon="4.36924">
        <ele>716</ele>
        <time>2016-05-19T08:56:19.22Z</time>
      </trkpt>
      <trkpt lat="45.83564" lon="4.36917">
        <ele>715</ele>
        <time>2016-05-19T08:56:25.215Z</time>
      </trkpt>
      <trkpt lat="45.83566" lon="4.36916">
        <ele>708</ele>
        <time>2016-05-19T08:56:26.214Z</time>
      </trkpt>
      <trkpt lat="45.83574" lon="4.36913">
        <ele>710</ele>
        <time>2016-05-19T08:56:31.225Z</time>
      </trkpt>
      <trkpt lat="45.83576" lon="4.36913">
        <ele>710</ele>
        <time>2016-05-19T08:56:32.209Z</time>
      </trkpt>
      <trkpt lat="45.83584" lon="4.36912">
        <ele>712</ele>
        <time>2016-05-19T08:56:37.231Z</time>
      </trkpt>
      <trkpt lat="45.83585" lon="4.36912">
        <ele>712</ele>
        <time>2016-05-19T08:56:38.23Z</time>
      </trkpt>
      <trkpt lat="45.83594" lon="4.36912">
        <ele>711</ele>
        <time>2016-05-19T08:56:47.204Z</time>
      </trkpt>
      <trkpt lat="45.83594" lon="4.36912">
        <ele>711</ele>
        <time>2016-05-19T08:56:48.218Z</time>
      </trkpt>
      <trkpt lat="45.83603" lon="4.36912">
        <ele>710</ele>
        <time>2016-05-19T08:56:56.199Z</time>
      </trkpt>
      <trkpt lat="45.83604" lon="4.36913">
        <ele>710</ele>
        <time>2016-05-19T08:56:57.211Z</time>
      </trkpt>
      <trkpt lat="45.83613" lon="4.36915">
        <ele>710</ele>
        <time>2016-05-19T08:57:06.222Z</time>
      </trkpt>
      <trkpt lat="45.83614" lon="4.36915">
        <ele>710</ele>
        <time>2016-05-19T08:57:07.214Z</time>
      </trkpt>
      <trkpt lat="45.83622" lon="4.36913">
        <ele>710</ele>
        <time>2016-05-19T08:57:16.205Z</time>
      </trkpt>
      <trkpt lat="45.83623" lon="4.36913">
        <ele>710</ele>
        <time>2016-05-19T08:57:17.232Z</time>
      </trkpt>
      <trkpt lat="45.83631" lon="4.36913">
        <ele>710</ele>
        <time>2016-05-19T08:57:26.222Z</time>
      </trkpt>
      <trkpt lat="45.83632" lon="4.36913">
        <ele>710</ele>
        <time>2016-05-19T08:57:27.221Z</time>
      </trkpt>
      <trkpt lat="45.8364" lon="4.36912">
        <ele>711</ele>
        <time>2016-05-19T08:57:32.219Z</time>
      </trkpt>
      <trkpt lat="45.83642" lon="4.36912">
        <ele>711</ele>
        <time>2016-05-19T08:57:33.217Z</time>
      </trkpt>
      <trkpt lat="45.83649" lon="4.36911">
        <ele>712</ele>
        <time>2016-05-19T08:57:38.218Z</time>
      </trkpt>
      <trkpt lat="45.83651" lon="4.36911">
        <ele>712</ele>
        <time>2016-05-19T08:57:39.227Z</time>
      </trkpt>
      <trkpt lat="45.83659" lon="4.36907">
        <ele>712</ele>
        <time>2016-05-19T08:57:44.229Z</time>
      </trkpt>
      <trkpt lat="45.83661" lon="4.36907">
        <ele>712</ele>
        <time>2016-05-19T08:57:45.217Z</time>
      </trkpt>
      <trkpt lat="45.8367" lon="4.36905">
        <ele>715</ele>
        <time>2016-05-19T08:57:51.226Z</time>
      </trkpt>
      <trkpt lat="45.83671" lon="4.36905">
        <ele>715</ele>
        <time>2016-05-19T08:57:52.206Z</time>
      </trkpt>
      <trkpt lat="45.8368" lon="4.36907">
        <ele>715</ele>
        <time>2016-05-19T08:57:58.227Z</time>
      </trkpt>
      <trkpt lat="45.83681" lon="4.36907">
        <ele>715</ele>
        <time>2016-05-19T08:57:59.235Z</time>
      </trkpt>
      <trkpt lat="45.8369" lon="4.36908">
        <ele>715</ele>
        <time>2016-05-19T08:58:05.228Z</time>
      </trkpt>
      <trkpt lat="45.83691" lon="4.36908">
        <ele>715</ele>
        <time>2016-05-19T08:58:06.221Z</time>
      </trkpt>
      <trkpt lat="45.83699" lon="4.36907">
        <ele>715</ele>
        <time>2016-05-19T08:58:12.217Z</time>
      </trkpt>
      <trkpt lat="45.83701" lon="4.36907">
        <ele>715</ele>
        <time>2016-05-19T08:58:13.223Z</time>
      </trkpt>
      <trkpt lat="45.83709" lon="4.36911">
        <ele>716</ele>
        <time>2016-05-19T08:58:20.216Z</time>
      </trkpt>
      <trkpt lat="45.8371" lon="4.36911">
        <ele>716</ele>
        <time>2016-05-19T08:58:21.219Z</time>
      </trkpt>
      <trkpt lat="45.83718" lon="4.36914">
        <ele>717</ele>
        <time>2016-05-19T08:58:27.215Z</time>
      </trkpt>
      <trkpt lat="45.83719" lon="4.36915">
        <ele>717</ele>
        <time>2016-05-19T08:58:28.209Z</time>
      </trkpt>
      <trkpt lat="45.83727" lon="4.36915">
        <ele>718</ele>
        <time>2016-05-19T08:58:35.218Z</time>
      </trkpt>
      <trkpt lat="45.83729" lon="4.36915">
        <ele>718</ele>
        <time>2016-05-19T08:58:36.218Z</time>
      </trkpt>
      <trkpt lat="45.83737" lon="4.36918">
        <ele>724</ele>
        <time>2016-05-19T08:58:44.216Z</time>
      </trkpt>
      <trkpt lat="45.83738" lon="4.36918">
        <ele>724</ele>
        <time>2016-05-19T08:58:45.225Z</time>
      </trkpt>
      <trkpt lat="45.83747" lon="4.3692">
        <ele>723</ele>
        <time>2016-05-19T08:58:53.198Z</time>
      </trkpt>
      <trkpt lat="45.83748" lon="4.3692">
        <ele>723</ele>
        <time>2016-05-19T08:58:54.211Z</time>
      </trkpt>
      <trkpt lat="45.83756" lon="4.36919">
        <ele>725</ele>
        <time>2016-05-19T08:59:01.223Z</time>
      </trkpt>
      <trkpt lat="45.83757" lon="4.36919">
        <ele>726</ele>
        <time>2016-05-19T08:59:02.222Z</time>
      </trkpt>
      <trkpt lat="45.83766" lon="4.36922">
        <ele>729</ele>
        <time>2016-05-19T08:59:10.212Z</time>
      </trkpt>
      <trkpt lat="45.83767" lon="4.36922">
        <ele>729</ele>
        <time>2016-05-19T08:59:11.217Z</time>
      </trkpt>
      <trkpt lat="45.83776" lon="4.36923">
        <ele>731</ele>
        <time>2016-05-19T08:59:19.221Z</time>
      </trkpt>
      <trkpt lat="45.83777" lon="4.36923">
        <ele>731</ele>
        <time>2016-05-19T08:59:20.219Z</time>
      </trkpt>
      <trkpt lat="45.83785" lon="4.36925">
        <ele>732</ele>
        <time>2016-05-19T08:59:27.223Z</time>
      </trkpt>
      <trkpt lat="45.83786" lon="4.36925">
        <ele>732</ele>
        <time>2016-05-19T08:59:28.227Z</time>
      </trkpt>
      <trkpt lat="45.83795" lon="4.36927">
        <ele>733</ele>
        <time>2016-05-19T08:59:36.219Z</time>
      </trkpt>
      <trkpt lat="45.83796" lon="4.36926">
        <ele>733</ele>
        <time>2016-05-19T08:59:37.216Z</time>
      </trkpt>
      <trkpt lat="45.83805" lon="4.36925">
        <ele>734</ele>
        <time>2016-05-19T08:59:45.218Z</time>
      </trkpt>
      <trkpt lat="45.83806" lon="4.36925">
        <ele>734</ele>
        <time>2016-05-19T08:59:46.215Z</time>
      </trkpt>
      <trkpt lat="45.83814" lon="4.36923">
        <ele>734</ele>
        <time>2016-05-19T08:59:54.206Z</time>
      </trkpt>
      <trkpt lat="45.83815" lon="4.36922">
        <ele>734</ele>
        <time>2016-05-19T08:59:55.227Z</time>
      </trkpt>
      <trkpt lat="45.83821" lon="4.36914">
        <ele>730</ele>
        <time>2016-05-19T09:00:03.227Z</time>
      </trkpt>
      <trkpt lat="45.83822" lon="4.36913">
        <ele>730</ele>
        <time>2016-05-19T09:00:04.233Z</time>
      </trkpt>
      <trkpt lat="45.83828" lon="4.36904">
        <ele>729</ele>
        <time>2016-05-19T09:00:11.211Z</time>
      </trkpt>
      <trkpt lat="45.83829" lon="4.36903">
        <ele>729</ele>
        <time>2016-05-19T09:00:12.217Z</time>
      </trkpt>
      <trkpt lat="45.83837" lon="4.36896">
        <ele>732</ele>
        <time>2016-05-19T09:00:19.22Z</time>
      </trkpt>
      <trkpt lat="45.83838" lon="4.36895">
        <ele>732</ele>
        <time>2016-05-19T09:00:20.217Z</time>
      </trkpt>
      <trkpt lat="45.83844" lon="4.36886">
        <ele>732</ele>
        <time>2016-05-19T09:00:26.215Z</time>
      </trkpt>
      <trkpt lat="45.83845" lon="4.36884">
        <ele>732</ele>
        <time>2016-05-19T09:00:27.208Z</time>
      </trkpt>
      <trkpt lat="45.83851" lon="4.36875">
        <ele>731</ele>
        <time>2016-05-19T09:00:33.228Z</time>
      </trkpt>
      <trkpt lat="45.83852" lon="4.36874">
        <ele>731</ele>
        <time>2016-05-19T09:00:34.224Z</time>
      </trkpt>
      <trkpt lat="45.83858" lon="4.36865">
        <ele>731</ele>
        <time>2016-05-19T09:00:41.22Z</time>
      </trkpt>
      <trkpt lat="45.83859" lon="4.36863">
        <ele>731</ele>
        <time>2016-05-19T09:00:42.217Z</time>
      </trkpt>
      <trkpt lat="45.83864" lon="4.36854">
        <ele>730</ele>
        <time>2016-05-19T09:00:48.216Z</time>
      </trkpt>
      <trkpt lat="45.83865" lon="4.36853">
        <ele>730</ele>
        <time>2016-05-19T09:00:49.215Z</time>
      </trkpt>
      <trkpt lat="45.83871" lon="4.36844">
        <ele>730</ele>
        <time>2016-05-19T09:00:56.235Z</time>
      </trkpt>
      <trkpt lat="45.83872" lon="4.36843">
        <ele>730</ele>
        <time>2016-05-19T09:00:57.235Z</time>
      </trkpt>
      <trkpt lat="45.8388" lon="4.36839">
        <ele>730</ele>
        <time>2016-05-19T09:01:04.224Z</time>
      </trkpt>
      <trkpt lat="45.83881" lon="4.36839">
        <ele>730</ele>
        <time>2016-05-19T09:01:05.223Z</time>
      </trkpt>
      <trkpt lat="45.83889" lon="4.36839">
        <ele>730</ele>
        <time>2016-05-19T09:01:12.219Z</time>
      </trkpt>
      <trkpt lat="45.8389" lon="4.36839">
        <ele>730</ele>
        <time>2016-05-19T09:01:13.218Z</time>
      </trkpt>
      <trkpt lat="45.83899" lon="4.36839">
        <ele>730</ele>
        <time>2016-05-19T09:01:21.223Z</time>
      </trkpt>
      <trkpt lat="45.839" lon="4.36839">
        <ele>729</ele>
        <time>2016-05-19T09:01:22.208Z</time>
      </trkpt>
      <trkpt lat="45.83909" lon="4.36842">
        <ele>729</ele>
        <time>2016-05-19T09:01:32.205Z</time>
      </trkpt>
      <trkpt lat="45.8391" lon="4.36843">
        <ele>729</ele>
        <time>2016-05-19T09:01:33.198Z</time>
      </trkpt>
      <trkpt lat="45.83918" lon="4.36846">
        <ele>731</ele>
        <time>2016-05-19T09:01:39.227Z</time>
      </trkpt>
      <trkpt lat="45.83919" lon="4.36847">
        <ele>731</ele>
        <time>2016-05-19T09:01:40.223Z</time>
      </trkpt>
      <trkpt lat="45.83927" lon="4.36849">
        <ele>732</ele>
        <time>2016-05-19T09:01:46.212Z</time>
      </trkpt>
      <trkpt lat="45.83928" lon="4.3685">
        <ele>732</ele>
        <time>2016-05-19T09:01:47.229Z</time>
      </trkpt>
      <trkpt lat="45.83936" lon="4.36853">
        <ele>733</ele>
        <time>2016-05-19T09:01:53.219Z</time>
      </trkpt>
      <trkpt lat="45.83937" lon="4.36854">
        <ele>733</ele>
        <time>2016-05-19T09:01:54.211Z</time>
      </trkpt>
      <trkpt lat="45.83944" lon="4.3686">
        <ele>734</ele>
        <time>2016-05-19T09:02:03.218Z</time>
      </trkpt>
      <trkpt lat="45.83945" lon="4.36861">
        <ele>734</ele>
        <time>2016-05-19T09:02:04.211Z</time>
      </trkpt>
      <trkpt lat="45.83951" lon="4.3687">
        <ele>735</ele>
        <time>2016-05-19T09:02:13.208Z</time>
      </trkpt>
      <trkpt lat="45.83952" lon="4.36871">
        <ele>736</ele>
        <time>2016-05-19T09:02:14.213Z</time>
      </trkpt>
      <trkpt lat="45.83958" lon="4.36879">
        <ele>736</ele>
        <time>2016-05-19T09:02:23.211Z</time>
      </trkpt>
      <trkpt lat="45.83959" lon="4.36879">
        <ele>736</ele>
        <time>2016-05-19T09:02:24.224Z</time>
      </trkpt>
      <trkpt lat="45.83967" lon="4.36885">
        <ele>737</ele>
        <time>2016-05-19T09:02:31.219Z</time>
      </trkpt>
      <trkpt lat="45.83968" lon="4.36886">
        <ele>737</ele>
        <time>2016-05-19T09:02:32.217Z</time>
      </trkpt>
      <trkpt lat="45.83976" lon="4.36889">
        <ele>738</ele>
        <time>2016-05-19T09:02:38.219Z</time>
      </trkpt>
      <trkpt lat="45.83977" lon="4.36891">
        <ele>738</ele>
        <time>2016-05-19T09:02:39.216Z</time>
      </trkpt>
      <trkpt lat="45.83983" lon="4.36896">
        <ele>739</ele>
        <time>2016-05-19T09:02:45.221Z</time>
      </trkpt>
      <trkpt lat="45.83985" lon="4.36897">
        <ele>739</ele>
        <time>2016-05-19T09:02:46.223Z</time>
      </trkpt>
      <trkpt lat="45.83992" lon="4.36901">
        <ele>740</ele>
        <time>2016-05-19T09:02:52.221Z</time>
      </trkpt>
      <trkpt lat="45.83994" lon="4.369">
        <ele>740</ele>
        <time>2016-05-19T09:02:53.205Z</time>
      </trkpt>
      <trkpt lat="45.84001" lon="4.36894">
        <ele>746</ele>
        <time>2016-05-19T09:03:00.235Z</time>
      </trkpt>
      <trkpt lat="45.84002" lon="4.36893">
        <ele>746</ele>
        <time>2016-05-19T09:03:01.224Z</time>
      </trkpt>
      <trkpt lat="45.84008" lon="4.36885">
        <ele>746</ele>
        <time>2016-05-19T09:03:08.226Z</time>
      </trkpt>
      <trkpt lat="45.84008" lon="4.36883">
        <ele>746</ele>
        <time>2016-05-19T09:03:09.225Z</time>
      </trkpt>
      <trkpt lat="45.84007" lon="4.36871">
        <ele>745</ele>
        <time>2016-05-19T09:03:21.218Z</time>
      </trkpt>
      <trkpt lat="45.84007" lon="4.3687">
        <ele>745</ele>
        <time>2016-05-19T09:03:22.217Z</time>
      </trkpt>
      <trkpt lat="45.8401" lon="4.36859">
        <ele>743</ele>
        <time>2016-05-19T09:03:33.212Z</time>
      </trkpt>
      <trkpt lat="45.84009" lon="4.36857">
        <ele>743</ele>
        <time>2016-05-19T09:03:34.21Z</time>
      </trkpt>
      <trkpt lat="45.84008" lon="4.36845">
        <ele>739</ele>
        <time>2016-05-19T09:03:44.222Z</time>
      </trkpt>
      <trkpt lat="45.84008" lon="4.36844">
        <ele>739</ele>
        <time>2016-05-19T09:03:45.225Z</time>
      </trkpt>
      <trkpt lat="45.8401" lon="4.36834">
        <ele>737</ele>
        <time>2016-05-19T09:03:52.226Z</time>
      </trkpt>
      <trkpt lat="45.84011" lon="4.36832">
        <ele>734</ele>
        <time>2016-05-19T09:03:53.216Z</time>
      </trkpt>
      <trkpt lat="45.84015" lon="4.36823">
        <ele>735</ele>
        <time>2016-05-19T09:03:58.213Z</time>
      </trkpt>
      <trkpt lat="45.84017" lon="4.36821">
        <ele>735</ele>
        <time>2016-05-19T09:03:59.206Z</time>
      </trkpt>
      <trkpt lat="45.8402" lon="4.36811">
        <ele>736</ele>
        <time>2016-05-19T09:04:04.231Z</time>
      </trkpt>
      <trkpt lat="45.84021" lon="4.36809">
        <ele>736</ele>
        <time>2016-05-19T09:04:05.231Z</time>
      </trkpt>
      <trkpt lat="45.84027" lon="4.368">
        <ele>737</ele>
        <time>2016-05-19T09:04:10.221Z</time>
      </trkpt>
      <trkpt lat="45.84028" lon="4.36798">
        <ele>737</ele>
        <time>2016-05-19T09:04:11.229Z</time>
      </trkpt>
      <trkpt lat="45.84033" lon="4.36789">
        <ele>737</ele>
        <time>2016-05-19T09:04:17.215Z</time>
      </trkpt>
      <trkpt lat="45.84034" lon="4.36787">
        <ele>737</ele>
        <time>2016-05-19T09:04:18.227Z</time>
      </trkpt>
      <trkpt lat="45.84041" lon="4.36781">
        <ele>737</ele>
        <time>2016-05-19T09:04:24.217Z</time>
      </trkpt>
      <trkpt lat="45.84042" lon="4.3678">
        <ele>738</ele>
        <time>2016-05-19T09:04:25.214Z</time>
      </trkpt>
      <trkpt lat="45.8405" lon="4.36773">
        <ele>738</ele>
        <time>2016-05-19T09:04:32.217Z</time>
      </trkpt>
      <trkpt lat="45.84051" lon="4.36772">
        <ele>738</ele>
        <time>2016-05-19T09:04:33.215Z</time>
      </trkpt>
      <trkpt lat="45.84058" lon="4.36767">
        <ele>739</ele>
        <time>2016-05-19T09:04:39.198Z</time>
      </trkpt>
      <trkpt lat="45.84059" lon="4.36766">
        <ele>739</ele>
        <time>2016-05-19T09:04:40.208Z</time>
      </trkpt>
      <trkpt lat="45.84067" lon="4.36761">
        <ele>740</ele>
        <time>2016-05-19T09:04:47.226Z</time>
      </trkpt>
      <trkpt lat="45.84068" lon="4.3676">
        <ele>740</ele>
        <time>2016-05-19T09:04:48.219Z</time>
      </trkpt>
      <trkpt lat="45.84076" lon="4.36754">
        <ele>741</ele>
        <time>2016-05-19T09:04:55.226Z</time>
      </trkpt>
      <trkpt lat="45.84077" lon="4.36753">
        <ele>741</ele>
        <time>2016-05-19T09:04:56.207Z</time>
      </trkpt>
      <trkpt lat="45.84084" lon="4.36746">
        <ele>744</ele>
        <time>2016-05-19T09:05:03.221Z</time>
      </trkpt>
      <trkpt lat="45.84084" lon="4.36744">
        <ele>744</ele>
        <time>2016-05-19T09:05:04.222Z</time>
      </trkpt>
      <trkpt lat="45.84089" lon="4.36734">
        <ele>747</ele>
        <time>2016-05-19T09:05:12.218Z</time>
      </trkpt>
      <trkpt lat="45.8409" lon="4.36733">
        <ele>747</ele>
        <time>2016-05-19T09:05:13.233Z</time>
      </trkpt>
      <trkpt lat="45.84092" lon="4.36722">
        <ele>748</ele>
        <time>2016-05-19T09:05:20.232Z</time>
      </trkpt>
      <trkpt lat="45.84093" lon="4.36721">
        <ele>748</ele>
        <time>2016-05-19T09:05:21.223Z</time>
      </trkpt>
      <trkpt lat="45.84094" lon="4.36708">
        <ele>749</ele>
        <time>2016-05-19T09:05:29.221Z</time>
      </trkpt>
      <trkpt lat="45.84093" lon="4.36707">
        <ele>749</ele>
        <time>2016-05-19T09:05:30.206Z</time>
      </trkpt>
      <trkpt lat="45.84096" lon="4.36695">
        <ele>748</ele>
        <time>2016-05-19T09:05:38.223Z</time>
      </trkpt>
      <trkpt lat="45.84096" lon="4.36694">
        <ele>748</ele>
        <time>2016-05-19T09:05:39.231Z</time>
      </trkpt>
      <trkpt lat="45.84099" lon="4.36684">
        <ele>748</ele>
        <time>2016-05-19T09:05:46.203Z</time>
      </trkpt>
      <trkpt lat="45.841" lon="4.36682">
        <ele>747</ele>
        <time>2016-05-19T09:05:47.232Z</time>
      </trkpt>
      <trkpt lat="45.84104" lon="4.36671">
        <ele>747</ele>
        <time>2016-05-19T09:05:54.223Z</time>
      </trkpt>
      <trkpt lat="45.84104" lon="4.3667">
        <ele>747</ele>
        <time>2016-05-19T09:05:55.22Z</time>
      </trkpt>
      <trkpt lat="45.84111" lon="4.36661">
        <ele>746</ele>
        <time>2016-05-19T09:06:02.197Z</time>
      </trkpt>
      <trkpt lat="45.84111" lon="4.3666">
        <ele>746</ele>
        <time>2016-05-19T09:06:03.21Z</time>
      </trkpt>
      <trkpt lat="45.84117" lon="4.36652">
        <ele>747</ele>
        <time>2016-05-19T09:06:09.219Z</time>
      </trkpt>
      <trkpt lat="45.84118" lon="4.36651">
        <ele>747</ele>
        <time>2016-05-19T09:06:10.21Z</time>
      </trkpt>
      <trkpt lat="45.84124" lon="4.36642">
        <ele>747</ele>
        <time>2016-05-19T09:06:17.215Z</time>
      </trkpt>
      <trkpt lat="45.84125" lon="4.36641">
        <ele>747</ele>
        <time>2016-05-19T09:06:18.234Z</time>
      </trkpt>
      <trkpt lat="45.84132" lon="4.36634">
        <ele>748</ele>
        <time>2016-05-19T09:06:25.226Z</time>
      </trkpt>
      <trkpt lat="45.84133" lon="4.36633">
        <ele>748</ele>
        <time>2016-05-19T09:06:26.219Z</time>
      </trkpt>
      <trkpt lat="45.84139" lon="4.36625">
        <ele>748</ele>
        <time>2016-05-19T09:06:32.222Z</time>
      </trkpt>
      <trkpt lat="45.8414" lon="4.36624">
        <ele>748</ele>
        <time>2016-05-19T09:06:33.211Z</time>
      </trkpt>
      <trkpt lat="45.84146" lon="4.36616">
        <ele>748</ele>
        <time>2016-05-19T09:06:39.197Z</time>
      </trkpt>
      <trkpt lat="45.84147" lon="4.36614">
        <ele>748</ele>
        <time>2016-05-19T09:06:40.196Z</time>
      </trkpt>
      <trkpt lat="45.84154" lon="4.36607">
        <ele>748</ele>
        <time>2016-05-19T09:06:46.231Z</time>
      </trkpt>
      <trkpt lat="45.84155" lon="4.36606">
        <ele>748</ele>
        <time>2016-05-19T09:06:47.232Z</time>
      </trkpt>
      <trkpt lat="45.84162" lon="4.36599">
        <ele>748</ele>
        <time>2016-05-19T09:06:53.229Z</time>
      </trkpt>
      <trkpt lat="45.84163" lon="4.36598">
        <ele>748</ele>
        <time>2016-05-19T09:06:54.211Z</time>
      </trkpt>
      <trkpt lat="45.8417" lon="4.36591">
        <ele>752</ele>
        <time>2016-05-19T09:07:01.2Z</time>
      </trkpt>
      <trkpt lat="45.8417" lon="4.3659">
        <ele>752</ele>
        <time>2016-05-19T09:07:02.222Z</time>
      </trkpt>
      <trkpt lat="45.84178" lon="4.36583">
        <ele>749</ele>
        <time>2016-05-19T09:07:18.214Z</time>
      </trkpt>
      <trkpt lat="45.84178" lon="4.36582">
        <ele>749</ele>
        <time>2016-05-19T09:07:19.206Z</time>
      </trkpt>
      <trkpt lat="45.84185" lon="4.36575">
        <ele>749</ele>
        <time>2016-05-19T09:07:31.222Z</time>
      </trkpt>
      <trkpt lat="45.84186" lon="4.36575">
        <ele>749</ele>
        <time>2016-05-19T09:07:32.219Z</time>
      </trkpt>
      <trkpt lat="45.84193" lon="4.36566">
        <ele>749</ele>
        <time>2016-05-19T09:07:43.209Z</time>
      </trkpt>
      <trkpt lat="45.84194" lon="4.36566">
        <ele>749</ele>
        <time>2016-05-19T09:07:44.207Z</time>
      </trkpt>
      <trkpt lat="45.84201" lon="4.36558">
        <ele>749</ele>
        <time>2016-05-19T09:07:55.217Z</time>
      </trkpt>
      <trkpt lat="45.84201" lon="4.36558">
        <ele>749</ele>
        <time>2016-05-19T09:07:56.23Z</time>
      </trkpt>
      <trkpt lat="45.84208" lon="4.36551">
        <ele>749</ele>
        <time>2016-05-19T09:09:40.219Z</time>
      </trkpt>
      <trkpt lat="45.84209" lon="4.3655">
        <ele>749</ele>
        <time>2016-05-19T09:09:41.221Z</time>
      </trkpt>
      <trkpt lat="45.84217" lon="4.36545">
        <ele>750</ele>
        <time>2016-05-19T09:09:49.232Z</time>
      </trkpt>
      <trkpt lat="45.84218" lon="4.36544">
        <ele>750</ele>
        <time>2016-05-19T09:09:50.227Z</time>
      </trkpt>
      <trkpt lat="45.84226" lon="4.36539">
        <ele>750</ele>
        <time>2016-05-19T09:09:57.228Z</time>
      </trkpt>
      <trkpt lat="45.84227" lon="4.36539">
        <ele>750</ele>
        <time>2016-05-19T09:09:58.219Z</time>
      </trkpt>
      <trkpt lat="45.84235" lon="4.36533">
        <ele>750</ele>
        <time>2016-05-19T09:10:05.214Z</time>
      </trkpt>
      <trkpt lat="45.84236" lon="4.36533">
        <ele>750</ele>
        <time>2016-05-19T09:10:06.213Z</time>
      </trkpt>
      <trkpt lat="45.84243" lon="4.36528">
        <ele>750</ele>
        <time>2016-05-19T09:10:13.207Z</time>
      </trkpt>
      <trkpt lat="45.84244" lon="4.36527">
        <ele>750</ele>
        <time>2016-05-19T09:10:14.224Z</time>
      </trkpt>
      <trkpt lat="45.8425" lon="4.36521">
        <ele>758</ele>
        <time>2016-05-19T09:10:20.215Z</time>
      </trkpt>
      <trkpt lat="45.84252" lon="4.3652">
        <ele>758</ele>
        <time>2016-05-19T09:10:21.222Z</time>
      </trkpt>
      <trkpt lat="45.84259" lon="4.36513">
        <ele>757</ele>
        <time>2016-05-19T09:10:27.214Z</time>
      </trkpt>
      <trkpt lat="45.84261" lon="4.36512">
        <ele>757</ele>
        <time>2016-05-19T09:10:28.227Z</time>
      </trkpt>
      <trkpt lat="45.84269" lon="4.36507">
        <ele>758</ele>
        <time>2016-05-19T09:10:35.226Z</time>
      </trkpt>
      <trkpt lat="45.8427" lon="4.36506">
        <ele>758</ele>
        <time>2016-05-19T09:10:36.224Z</time>
      </trkpt>
      <trkpt lat="45.84277" lon="4.36501">
        <ele>759</ele>
        <time>2016-05-19T09:10:43.202Z</time>
      </trkpt>
      <trkpt lat="45.84278" lon="4.365">
        <ele>752</ele>
        <time>2016-05-19T09:10:44.205Z</time>
      </trkpt>
      <trkpt lat="45.84285" lon="4.36498">
        <ele>753</ele>
        <time>2016-05-19T09:10:50.213Z</time>
      </trkpt>
      <trkpt lat="45.84287" lon="4.36498">
        <ele>753</ele>
        <time>2016-05-19T09:10:51.217Z</time>
      </trkpt>
      <trkpt lat="45.84294" lon="4.36494">
        <ele>754</ele>
        <time>2016-05-19T09:10:57.218Z</time>
      </trkpt>
      <trkpt lat="45.84295" lon="4.36494">
        <ele>754</ele>
        <time>2016-05-19T09:10:58.223Z</time>
      </trkpt>
      <trkpt lat="45.84303" lon="4.36488">
        <ele>755</ele>
        <time>2016-05-19T09:11:05.218Z</time>
      </trkpt>
      <trkpt lat="45.84304" lon="4.36487">
        <ele>755</ele>
        <time>2016-05-19T09:11:06.221Z</time>
      </trkpt>
      <trkpt lat="45.84312" lon="4.36483">
        <ele>756</ele>
        <time>2016-05-19T09:11:12.225Z</time>
      </trkpt>
      <trkpt lat="45.84313" lon="4.36482">
        <ele>756</ele>
        <time>2016-05-19T09:11:13.229Z</time>
      </trkpt>
      <trkpt lat="45.8432" lon="4.36478">
        <ele>756</ele>
        <time>2016-05-19T09:11:18.231Z</time>
      </trkpt>
      <trkpt lat="45.84321" lon="4.36477">
        <ele>756</ele>
        <time>2016-05-19T09:11:19.219Z</time>
      </trkpt>
      <trkpt lat="45.84328" lon="4.3647">
        <ele>755</ele>
        <time>2016-05-19T09:11:25.211Z</time>
      </trkpt>
      <trkpt lat="45.84329" lon="4.36468">
        <ele>755</ele>
        <time>2016-05-19T09:11:26.228Z</time>
      </trkpt>
      <trkpt lat="45.84332" lon="4.36458">
        <ele>754</ele>
        <time>2016-05-19T09:11:34.221Z</time>
      </trkpt>
      <trkpt lat="45.84333" lon="4.36456">
        <ele>754</ele>
        <time>2016-05-19T09:11:35.228Z</time>
      </trkpt>
      <trkpt lat="45.84338" lon="4.36447">
        <ele>762</ele>
        <time>2016-05-19T09:11:42.234Z</time>
      </trkpt>
      <trkpt lat="45.84339" lon="4.36445">
        <ele>762</ele>
        <time>2016-05-19T09:11:43.22Z</time>
      </trkpt>
      <trkpt lat="45.84344" lon="4.36435">
        <ele>760</ele>
        <time>2016-05-19T09:11:49.213Z</time>
      </trkpt>
      <trkpt lat="45.84344" lon="4.36434">
        <ele>760</ele>
        <time>2016-05-19T09:11:50.229Z</time>
      </trkpt>
      <trkpt lat="45.8435" lon="4.36425">
        <ele>759</ele>
        <time>2016-05-19T09:11:56.235Z</time>
      </trkpt>
      <trkpt lat="45.84351" lon="4.36423">
        <ele>759</ele>
        <time>2016-05-19T09:11:57.229Z</time>
      </trkpt>
      <trkpt lat="45.84357" lon="4.36416">
        <ele>752</ele>
        <time>2016-05-19T09:12:02.216Z</time>
      </trkpt>
      <trkpt lat="45.84358" lon="4.36415">
        <ele>752</ele>
        <time>2016-05-19T09:12:03.22Z</time>
      </trkpt>
      <trkpt lat="45.84365" lon="4.36408">
        <ele>753</ele>
        <time>2016-05-19T09:12:08.234Z</time>
      </trkpt>
      <trkpt lat="45.84366" lon="4.36407">
        <ele>753</ele>
        <time>2016-05-19T09:12:09.234Z</time>
      </trkpt>
      <trkpt lat="45.84372" lon="4.36398">
        <ele>753</ele>
        <time>2016-05-19T09:12:15.22Z</time>
      </trkpt>
      <trkpt lat="45.84373" lon="4.36396">
        <ele>753</ele>
        <time>2016-05-19T09:12:16.228Z</time>
      </trkpt>
      <trkpt lat="45.8438" lon="4.36388">
        <ele>753</ele>
        <time>2016-05-19T09:12:22.196Z</time>
      </trkpt>
      <trkpt lat="45.84381" lon="4.36387">
        <ele>753</ele>
        <time>2016-05-19T09:12:23.229Z</time>
      </trkpt>
      <trkpt lat="45.84388" lon="4.36381">
        <ele>753</ele>
        <time>2016-05-19T09:12:29.219Z</time>
      </trkpt>
      <trkpt lat="45.84389" lon="4.3638">
        <ele>753</ele>
        <time>2016-05-19T09:12:30.203Z</time>
      </trkpt>
      <trkpt lat="45.84397" lon="4.36374">
        <ele>753</ele>
        <time>2016-05-19T09:12:36.223Z</time>
      </trkpt>
      <trkpt lat="45.84398" lon="4.36373">
        <ele>753</ele>
        <time>2016-05-19T09:12:37.228Z</time>
      </trkpt>
      <trkpt lat="45.84405" lon="4.36367">
        <ele>753</ele>
        <time>2016-05-19T09:12:43.223Z</time>
      </trkpt>
      <trkpt lat="45.84406" lon="4.36365">
        <ele>753</ele>
        <time>2016-05-19T09:12:44.231Z</time>
      </trkpt>
      <trkpt lat="45.84412" lon="4.3636">
        <ele>753</ele>
        <time>2016-05-19T09:12:49.217Z</time>
      </trkpt>
      <trkpt lat="45.84414" lon="4.36359">
        <ele>753</ele>
        <time>2016-05-19T09:12:50.226Z</time>
      </trkpt>
      <trkpt lat="45.84422" lon="4.36354">
        <ele>760</ele>
        <time>2016-05-19T09:12:56.232Z</time>
      </trkpt>
      <trkpt lat="45.84423" lon="4.36354">
        <ele>760</ele>
        <time>2016-05-19T09:12:57.215Z</time>
      </trkpt>
      <trkpt lat="45.8443" lon="4.36349">
        <ele>759</ele>
        <time>2016-05-19T09:13:03.229Z</time>
      </trkpt>
      <trkpt lat="45.84432" lon="4.36347">
        <ele>759</ele>
        <time>2016-05-19T09:13:04.234Z</time>
      </trkpt>
      <trkpt lat="45.84438" lon="4.36342">
        <ele>760</ele>
        <time>2016-05-19T09:13:09.213Z</time>
      </trkpt>
      <trkpt lat="45.8444" lon="4.3634">
        <ele>760</ele>
        <time>2016-05-19T09:13:10.229Z</time>
      </trkpt>
      <trkpt lat="45.84446" lon="4.36335">
        <ele>761</ele>
        <time>2016-05-19T09:13:15.232Z</time>
      </trkpt>
      <trkpt lat="45.84448" lon="4.36334">
        <ele>761</ele>
        <time>2016-05-19T09:13:16.217Z</time>
      </trkpt>
      <trkpt lat="45.84456" lon="4.36331">
        <ele>754</ele>
        <time>2016-05-19T09:13:22.229Z</time>
      </trkpt>
      <trkpt lat="45.84457" lon="4.3633">
        <ele>754</ele>
        <time>2016-05-19T09:13:23.219Z</time>
      </trkpt>
      <trkpt lat="45.84465" lon="4.36326">
        <ele>755</ele>
        <time>2016-05-19T09:13:30.207Z</time>
      </trkpt>
      <trkpt lat="45.84466" lon="4.36325">
        <ele>755</ele>
        <time>2016-05-19T09:13:31.234Z</time>
      </trkpt>
      <trkpt lat="45.84474" lon="4.36321">
        <ele>756</ele>
        <time>2016-05-19T09:13:37.215Z</time>
      </trkpt>
      <trkpt lat="45.84475" lon="4.3632">
        <ele>756</ele>
        <time>2016-05-19T09:13:38.22Z</time>
      </trkpt>
      <trkpt lat="45.84482" lon="4.36316">
        <ele>756</ele>
        <time>2016-05-19T09:13:44.229Z</time>
      </trkpt>
      <trkpt lat="45.84484" lon="4.36315">
        <ele>756</ele>
        <time>2016-05-19T09:13:45.236Z</time>
      </trkpt>
      <trkpt lat="45.84492" lon="4.36313">
        <ele>757</ele>
        <time>2016-05-19T09:13:56.209Z</time>
      </trkpt>
      <trkpt lat="45.84492" lon="4.36313">
        <ele>757</ele>
        <time>2016-05-19T09:13:57.23Z</time>
      </trkpt>
      <trkpt lat="45.845" lon="4.36307">
        <ele>762</ele>
        <time>2016-05-19T09:14:16.217Z</time>
      </trkpt>
      <trkpt lat="45.84502" lon="4.36307">
        <ele>762</ele>
        <time>2016-05-19T09:14:17.231Z</time>
      </trkpt>
      <trkpt lat="45.8451" lon="4.36302">
        <ele>761</ele>
        <time>2016-05-19T09:14:24.216Z</time>
      </trkpt>
      <trkpt lat="45.84511" lon="4.36301">
        <ele>761</ele>
        <time>2016-05-19T09:14:25.221Z</time>
      </trkpt>
      <trkpt lat="45.84518" lon="4.36295">
        <ele>761</ele>
        <time>2016-05-19T09:14:32.221Z</time>
      </trkpt>
      <trkpt lat="45.84519" lon="4.36295">
        <ele>761</ele>
        <time>2016-05-19T09:14:33.214Z</time>
      </trkpt>
      <trkpt lat="45.84525" lon="4.36287">
        <ele>760</ele>
        <time>2016-05-19T09:14:41.218Z</time>
      </trkpt>
      <trkpt lat="45.84526" lon="4.36286">
        <ele>760</ele>
        <time>2016-05-19T09:14:42.211Z</time>
      </trkpt>
      <trkpt lat="45.84533" lon="4.36282">
        <ele>760</ele>
        <time>2016-05-19T09:14:48.215Z</time>
      </trkpt>
      <trkpt lat="45.84535" lon="4.36282">
        <ele>760</ele>
        <time>2016-05-19T09:14:49.231Z</time>
      </trkpt>
      <trkpt lat="45.84543" lon="4.36277">
        <ele>760</ele>
        <time>2016-05-19T09:14:55.23Z</time>
      </trkpt>
      <trkpt lat="45.84544" lon="4.36276">
        <ele>760</ele>
        <time>2016-05-19T09:14:56.22Z</time>
      </trkpt>
      <trkpt lat="45.8455" lon="4.36269">
        <ele>760</ele>
        <time>2016-05-19T09:15:02.218Z</time>
      </trkpt>
      <trkpt lat="45.84551" lon="4.36269">
        <ele>760</ele>
        <time>2016-05-19T09:15:03.218Z</time>
      </trkpt>
      <trkpt lat="45.84558" lon="4.36262">
        <ele>759</ele>
        <time>2016-05-19T09:15:09.23Z</time>
      </trkpt>
      <trkpt lat="45.8456" lon="4.36261">
        <ele>759</ele>
        <time>2016-05-19T09:15:10.235Z</time>
      </trkpt>
      <trkpt lat="45.84567" lon="4.36257">
        <ele>759</ele>
        <time>2016-05-19T09:15:16.219Z</time>
      </trkpt>
      <trkpt lat="45.84569" lon="4.36256">
        <ele>759</ele>
        <time>2016-05-19T09:15:17.219Z</time>
      </trkpt>
      <trkpt lat="45.84577" lon="4.36251">
        <ele>758</ele>
        <time>2016-05-19T09:15:23.209Z</time>
      </trkpt>
      <trkpt lat="45.84578" lon="4.3625">
        <ele>754</ele>
        <time>2016-05-19T09:15:24.214Z</time>
      </trkpt>
      <trkpt lat="45.84587" lon="4.36247">
        <ele>756</ele>
        <time>2016-05-19T09:15:30.219Z</time>
      </trkpt>
      <trkpt lat="45.84588" lon="4.36246">
        <ele>756</ele>
        <time>2016-05-19T09:15:31.216Z</time>
      </trkpt>
      <trkpt lat="45.84595" lon="4.3624">
        <ele>754</ele>
        <time>2016-05-19T09:15:41.229Z</time>
      </trkpt>
      <trkpt lat="45.84596" lon="4.36239">
        <ele>754</ele>
        <time>2016-05-19T09:15:42.219Z</time>
      </trkpt>
      <trkpt lat="45.84603" lon="4.36232">
        <ele>753</ele>
        <time>2016-05-19T09:15:50.23Z</time>
      </trkpt>
      <trkpt lat="45.84604" lon="4.36231">
        <ele>753</ele>
        <time>2016-05-19T09:15:51.225Z</time>
      </trkpt>
      <trkpt lat="45.84613" lon="4.36227">
        <ele>753</ele>
        <time>2016-05-19T09:15:58.231Z</time>
      </trkpt>
      <trkpt lat="45.84614" lon="4.36227">
        <ele>753</ele>
        <time>2016-05-19T09:15:59.23Z</time>
      </trkpt>
      <trkpt lat="45.84622" lon="4.36224">
        <ele>753</ele>
        <time>2016-05-19T09:16:05.227Z</time>
      </trkpt>
      <trkpt lat="45.84624" lon="4.36224">
        <ele>753</ele>
        <time>2016-05-19T09:16:06.217Z</time>
      </trkpt>
      <trkpt lat="45.84631" lon="4.36218">
        <ele>753</ele>
        <time>2016-05-19T09:16:12.211Z</time>
      </trkpt>
      <trkpt lat="45.84632" lon="4.36218">
        <ele>753</ele>
        <time>2016-05-19T09:16:13.215Z</time>
      </trkpt>
      <trkpt lat="45.84641" lon="4.36215">
        <ele>753</ele>
        <time>2016-05-19T09:16:19.216Z</time>
      </trkpt>
      <trkpt lat="45.84642" lon="4.36214">
        <ele>753</ele>
        <time>2016-05-19T09:16:20.211Z</time>
      </trkpt>
      <trkpt lat="45.84651" lon="4.36213">
        <ele>753</ele>
        <time>2016-05-19T09:16:26.212Z</time>
      </trkpt>
      <trkpt lat="45.84652" lon="4.36212">
        <ele>753</ele>
        <time>2016-05-19T09:16:27.221Z</time>
      </trkpt>
      <trkpt lat="45.8466" lon="4.36209">
        <ele>753</ele>
        <time>2016-05-19T09:16:33.218Z</time>
      </trkpt>
      <trkpt lat="45.84661" lon="4.36208">
        <ele>753</ele>
        <time>2016-05-19T09:16:34.219Z</time>
      </trkpt>
      <trkpt lat="45.8467" lon="4.36208">
        <ele>756</ele>
        <time>2016-05-19T09:16:42.221Z</time>
      </trkpt>
      <trkpt lat="45.84671" lon="4.36208">
        <ele>756</ele>
        <time>2016-05-19T09:16:43.218Z</time>
      </trkpt>
      <trkpt lat="45.84679" lon="4.36209">
        <ele>756</ele>
        <time>2016-05-19T09:16:51.217Z</time>
      </trkpt>
      <trkpt lat="45.84681" lon="4.36209">
        <ele>756</ele>
        <time>2016-05-19T09:16:52.211Z</time>
      </trkpt>
      <trkpt lat="45.84688" lon="4.36211">
        <ele>757</ele>
        <time>2016-05-19T09:16:58.205Z</time>
      </trkpt>
      <trkpt lat="45.8469" lon="4.36212">
        <ele>757</ele>
        <time>2016-05-19T09:16:59.203Z</time>
      </trkpt>
      <trkpt lat="45.84698" lon="4.3621">
        <ele>756</ele>
        <time>2016-05-19T09:17:08.215Z</time>
      </trkpt>
      <trkpt lat="45.84699" lon="4.3621">
        <ele>756</ele>
        <time>2016-05-19T09:17:09.215Z</time>
      </trkpt>
      <trkpt lat="45.84708" lon="4.3621">
        <ele>756</ele>
        <time>2016-05-19T09:17:18.215Z</time>
      </trkpt>
      <trkpt lat="45.84709" lon="4.3621">
        <ele>756</ele>
        <time>2016-05-19T09:17:19.212Z</time>
      </trkpt>
      <trkpt lat="45.84716" lon="4.36203">
        <ele>755</ele>
        <time>2016-05-19T09:17:25.211Z</time>
      </trkpt>
      <trkpt lat="45.84717" lon="4.36203">
        <ele>755</ele>
        <time>2016-05-19T09:17:26.216Z</time>
      </trkpt>
      <trkpt lat="45.84726" lon="4.36199">
        <ele>755</ele>
        <time>2016-05-19T09:17:40.212Z</time>
      </trkpt>
      <trkpt lat="45.84726" lon="4.36199">
        <ele>755</ele>
        <time>2016-05-19T09:17:41.215Z</time>
      </trkpt>
      <trkpt lat="45.84734" lon="4.36198">
        <ele>755</ele>
        <time>2016-05-19T09:18:56.217Z</time>
      </trkpt>
      <trkpt lat="45.84735" lon="4.36199">
        <ele>755</ele>
        <time>2016-05-19T09:18:57.215Z</time>
      </trkpt>
      <trkpt lat="45.84743" lon="4.36201">
        <ele>755</ele>
        <time>2016-05-19T09:19:02.214Z</time>
      </trkpt>
      <trkpt lat="45.84745" lon="4.36201">
        <ele>755</ele>
        <time>2016-05-19T09:19:03.215Z</time>
      </trkpt>
      <trkpt lat="45.84753" lon="4.36202">
        <ele>756</ele>
        <time>2016-05-19T09:19:12.215Z</time>
      </trkpt>
      <trkpt lat="45.84754" lon="4.36202">
        <ele>756</ele>
        <time>2016-05-19T09:19:13.208Z</time>
      </trkpt>
      <trkpt lat="45.8476" lon="4.36205">
        <ele>757</ele>
        <time>2016-05-19T09:19:19.216Z</time>
      </trkpt>
      <trkpt lat="45.84762" lon="4.36206">
        <ele>757</ele>
        <time>2016-05-19T09:19:20.211Z</time>
      </trkpt>
      <trkpt lat="45.8477" lon="4.3621">
        <ele>757</ele>
        <time>2016-05-19T09:19:23.225Z</time>
      </trkpt>
      <trkpt lat="45.84773" lon="4.36212">
        <ele>757</ele>
        <time>2016-05-19T09:19:24.216Z</time>
      </trkpt>
      <trkpt lat="45.84781" lon="4.36216">
        <ele>758</ele>
        <time>2016-05-19T09:19:27.236Z</time>
      </trkpt>
      <trkpt lat="45.84783" lon="4.36216">
        <ele>758</ele>
        <time>2016-05-19T09:19:28.223Z</time>
      </trkpt>
      <trkpt lat="45.84791" lon="4.3621">
        <ele>758</ele>
        <time>2016-05-19T09:19:34.212Z</time>
      </trkpt>
      <trkpt lat="45.84791" lon="4.36208">
        <ele>757</ele>
        <time>2016-05-19T09:19:35.211Z</time>
      </trkpt>
      <trkpt lat="45.84798" lon="4.36202">
        <ele>757</ele>
        <time>2016-05-19T09:19:41.216Z</time>
      </trkpt>
      <trkpt lat="45.848" lon="4.36201">
        <ele>758</ele>
        <time>2016-05-19T09:19:42.216Z</time>
      </trkpt>
      <trkpt lat="45.84804" lon="4.36192">
        <ele>758</ele>
        <time>2016-05-19T09:19:47.234Z</time>
      </trkpt>
      <trkpt lat="45.84805" lon="4.3619">
        <ele>758</ele>
        <time>2016-05-19T09:19:48.221Z</time>
      </trkpt>
      <trkpt lat="45.84806" lon="4.36177">
        <ele>758</ele>
        <time>2016-05-19T09:19:54.215Z</time>
      </trkpt>
      <trkpt lat="45.84806" lon="4.36175">
        <ele>758</ele>
        <time>2016-05-19T09:19:55.21Z</time>
      </trkpt>
      <trkpt lat="45.84805" lon="4.36163">
        <ele>758</ele>
        <time>2016-05-19T09:20:02.215Z</time>
      </trkpt>
      <trkpt lat="45.84804" lon="4.36162">
        <ele>758</ele>
        <time>2016-05-19T09:20:03.207Z</time>
      </trkpt>
      <trkpt lat="45.84801" lon="4.3615">
        <ele>758</ele>
        <time>2016-05-19T09:20:12.217Z</time>
      </trkpt>
      <trkpt lat="45.84801" lon="4.36149">
        <ele>758</ele>
        <time>2016-05-19T09:20:13.222Z</time>
      </trkpt>
      <trkpt lat="45.84798" lon="4.36139">
        <ele>759</ele>
        <time>2016-05-19T09:20:19.219Z</time>
      </trkpt>
      <trkpt lat="45.84797" lon="4.36137">
        <ele>759</ele>
        <time>2016-05-19T09:20:20.216Z</time>
      </trkpt>
      <trkpt lat="45.84793" lon="4.36129">
        <ele>758</ele>
        <time>2016-05-19T09:20:25.209Z</time>
      </trkpt>
      <trkpt lat="45.84792" lon="4.36126">
        <ele>758</ele>
        <time>2016-05-19T09:20:26.208Z</time>
      </trkpt>
      <trkpt lat="45.84788" lon="4.36117">
        <ele>758</ele>
        <time>2016-05-19T09:20:31.223Z</time>
      </trkpt>
      <trkpt lat="45.84788" lon="4.36115">
        <ele>758</ele>
        <time>2016-05-19T09:20:32.216Z</time>
      </trkpt>
      <trkpt lat="45.84784" lon="4.36104">
        <ele>758</ele>
        <time>2016-05-19T09:20:37.233Z</time>
      </trkpt>
      <trkpt lat="45.84783" lon="4.36103">
        <ele>758</ele>
        <time>2016-05-19T09:20:38.228Z</time>
      </trkpt>
      <trkpt lat="45.84778" lon="4.36094">
        <ele>757</ele>
        <time>2016-05-19T09:20:44.218Z</time>
      </trkpt>
      <trkpt lat="45.84778" lon="4.36092">
        <ele>757</ele>
        <time>2016-05-19T09:20:45.221Z</time>
      </trkpt>
      <trkpt lat="45.84774" lon="4.3608">
        <ele>758</ele>
        <time>2016-05-19T09:20:51.234Z</time>
      </trkpt>
      <trkpt lat="45.84774" lon="4.36078">
        <ele>758</ele>
        <time>2016-05-19T09:20:52.22Z</time>
      </trkpt>
      <trkpt lat="45.84773" lon="4.36067">
        <ele>759</ele>
        <time>2016-05-19T09:20:58.256Z</time>
      </trkpt>
      <trkpt lat="45.84772" lon="4.36065">
        <ele>759</ele>
        <time>2016-05-19T09:20:59.245Z</time>
      </trkpt>
      <trkpt lat="45.8477" lon="4.36053">
        <ele>759</ele>
        <time>2016-05-19T09:21:07.214Z</time>
      </trkpt>
      <trkpt lat="45.8477" lon="4.36052">
        <ele>759</ele>
        <time>2016-05-19T09:21:08.215Z</time>
      </trkpt>
      <trkpt lat="45.84771" lon="4.3604">
        <ele>759</ele>
        <time>2016-05-19T09:21:24.235Z</time>
      </trkpt>
      <trkpt lat="45.84771" lon="4.36039">
        <ele>759</ele>
        <time>2016-05-19T09:21:25.22Z</time>
      </trkpt>
      <trkpt lat="45.84775" lon="4.36028">
        <ele>759</ele>
        <time>2016-05-19T09:21:33.214Z</time>
      </trkpt>
      <trkpt lat="45.84776" lon="4.36027">
        <ele>760</ele>
        <time>2016-05-19T09:21:34.217Z</time>
      </trkpt>
      <trkpt lat="45.84782" lon="4.36018">
        <ele>760</ele>
        <time>2016-05-19T09:21:42.214Z</time>
      </trkpt>
      <trkpt lat="45.84783" lon="4.36017">
        <ele>760</ele>
        <time>2016-05-19T09:21:43.218Z</time>
      </trkpt>
      <trkpt lat="45.84789" lon="4.36008">
        <ele>761</ele>
        <time>2016-05-19T09:21:50.235Z</time>
      </trkpt>
      <trkpt lat="45.84789" lon="4.36007">
        <ele>761</ele>
        <time>2016-05-19T09:21:51.233Z</time>
      </trkpt>
      <trkpt lat="45.84796" lon="4.35999">
        <ele>757</ele>
        <time>2016-05-19T09:21:58.203Z</time>
      </trkpt>
      <trkpt lat="45.84797" lon="4.35998">
        <ele>757</ele>
        <time>2016-05-19T09:21:59.21Z</time>
      </trkpt>
      <trkpt lat="45.84803" lon="4.3599">
        <ele>758</ele>
        <time>2016-05-19T09:22:05.225Z</time>
      </trkpt>
      <trkpt lat="45.84805" lon="4.35989">
        <ele>758</ele>
        <time>2016-05-19T09:22:06.215Z</time>
      </trkpt>
      <trkpt lat="45.84811" lon="4.35982">
        <ele>758</ele>
        <time>2016-05-19T09:22:12.219Z</time>
      </trkpt>
      <trkpt lat="45.84812" lon="4.3598">
        <ele>758</ele>
        <time>2016-05-19T09:22:13.211Z</time>
      </trkpt>
      <trkpt lat="45.84819" lon="4.35972">
        <ele>758</ele>
        <time>2016-05-19T09:22:19.214Z</time>
      </trkpt>
      <trkpt lat="45.84819" lon="4.35971">
        <ele>757</ele>
        <time>2016-05-19T09:22:20.219Z</time>
      </trkpt>
      <trkpt lat="45.84825" lon="4.35961">
        <ele>756</ele>
        <time>2016-05-19T09:22:27.216Z</time>
      </trkpt>
      <trkpt lat="45.84825" lon="4.3596">
        <ele>756</ele>
        <time>2016-05-19T09:22:28.223Z</time>
      </trkpt>
      <trkpt lat="45.84831" lon="4.3595">
        <ele>755</ele>
        <time>2016-05-19T09:22:35.215Z</time>
      </trkpt>
      <trkpt lat="45.84832" lon="4.35949">
        <ele>755</ele>
        <time>2016-05-19T09:22:36.221Z</time>
      </trkpt>
      <trkpt lat="45.84838" lon="4.35943">
        <ele>761</ele>
        <time>2016-05-19T09:22:42.215Z</time>
      </trkpt>
      <trkpt lat="45.84839" lon="4.35942">
        <ele>761</ele>
        <time>2016-05-19T09:22:43.219Z</time>
      </trkpt>
      <trkpt lat="45.84847" lon="4.35936">
        <ele>761</ele>
        <time>2016-05-19T09:22:49.217Z</time>
      </trkpt>
      <trkpt lat="45.84849" lon="4.35936">
        <ele>761</ele>
        <time>2016-05-19T09:22:50.233Z</time>
      </trkpt>
      <trkpt lat="45.84856" lon="4.35931">
        <ele>761</ele>
        <time>2016-05-19T09:22:56.22Z</time>
      </trkpt>
      <trkpt lat="45.84858" lon="4.35931">
        <ele>761</ele>
        <time>2016-05-19T09:22:57.215Z</time>
      </trkpt>
      <trkpt lat="45.84865" lon="4.35926">
        <ele>762</ele>
        <time>2016-05-19T09:23:03.219Z</time>
      </trkpt>
      <trkpt lat="45.84867" lon="4.35925">
        <ele>762</ele>
        <time>2016-05-19T09:23:04.229Z</time>
      </trkpt>
      <trkpt lat="45.84874" lon="4.35921">
        <ele>763</ele>
        <time>2016-05-19T09:23:10.208Z</time>
      </trkpt>
      <trkpt lat="45.84875" lon="4.3592">
        <ele>763</ele>
        <time>2016-05-19T09:23:11.212Z</time>
      </trkpt>
      <trkpt lat="45.84882" lon="4.35914">
        <ele>755</ele>
        <time>2016-05-19T09:23:17.229Z</time>
      </trkpt>
      <trkpt lat="45.84883" lon="4.35914">
        <ele>755</ele>
        <time>2016-05-19T09:23:18.216Z</time>
      </trkpt>
      <trkpt lat="45.84891" lon="4.3591">
        <ele>756</ele>
        <time>2016-05-19T09:23:25.211Z</time>
      </trkpt>
      <trkpt lat="45.84893" lon="4.3591">
        <ele>756</ele>
        <time>2016-05-19T09:23:26.23Z</time>
      </trkpt>
      <trkpt lat="45.849" lon="4.35906">
        <ele>757</ele>
        <time>2016-05-19T09:23:31.229Z</time>
      </trkpt>
      <trkpt lat="45.84901" lon="4.35905">
        <ele>757</ele>
        <time>2016-05-19T09:23:32.221Z</time>
      </trkpt>
      <trkpt lat="45.84909" lon="4.35901">
        <ele>757</ele>
        <time>2016-05-19T09:23:38.204Z</time>
      </trkpt>
      <trkpt lat="45.8491" lon="4.35901">
        <ele>757</ele>
        <time>2016-05-19T09:23:39.22Z</time>
      </trkpt>
      <trkpt lat="45.84918" lon="4.35896">
        <ele>762</ele>
        <time>2016-05-19T09:23:46.215Z</time>
      </trkpt>
      <trkpt lat="45.84919" lon="4.35895">
        <ele>763</ele>
        <time>2016-05-19T09:23:47.214Z</time>
      </trkpt>
      <trkpt lat="45.84928" lon="4.35895">
        <ele>763</ele>
        <time>2016-05-19T09:23:54.22Z</time>
      </trkpt>
      <trkpt lat="45.84929" lon="4.35895">
        <ele>763</ele>
        <time>2016-05-19T09:23:55.219Z</time>
      </trkpt>
      <trkpt lat="45.84938" lon="4.35895">
        <ele>763</ele>
        <time>2016-05-19T09:24:02.216Z</time>
      </trkpt>
      <trkpt lat="45.84939" lon="4.35895">
        <ele>763</ele>
        <time>2016-05-19T09:24:03.228Z</time>
      </trkpt>
      <trkpt lat="45.84948" lon="4.35894">
        <ele>763</ele>
        <time>2016-05-19T09:24:09.22Z</time>
      </trkpt>
      <trkpt lat="45.84949" lon="4.35894">
        <ele>763</ele>
        <time>2016-05-19T09:24:10.226Z</time>
      </trkpt>
      <trkpt lat="45.84957" lon="4.35895">
        <ele>764</ele>
        <time>2016-05-19T09:24:16.22Z</time>
      </trkpt>
      <trkpt lat="45.84958" lon="4.35896">
        <ele>764</ele>
        <time>2016-05-19T09:24:17.219Z</time>
      </trkpt>
      <trkpt lat="45.84966" lon="4.35899">
        <ele>765</ele>
        <time>2016-05-19T09:24:25.206Z</time>
      </trkpt>
      <trkpt lat="45.84968" lon="4.35899">
        <ele>765</ele>
        <time>2016-05-19T09:24:26.211Z</time>
      </trkpt>
      <trkpt lat="45.84976" lon="4.35896">
        <ele>765</ele>
        <time>2016-05-19T09:24:31.223Z</time>
      </trkpt>
      <trkpt lat="45.84977" lon="4.35895">
        <ele>766</ele>
        <time>2016-05-19T09:24:32.21Z</time>
      </trkpt>
      <trkpt lat="45.84984" lon="4.35889">
        <ele>766</ele>
        <time>2016-05-19T09:24:37.214Z</time>
      </trkpt>
      <trkpt lat="45.84985" lon="4.35888">
        <ele>766</ele>
        <time>2016-05-19T09:24:38.213Z</time>
      </trkpt>
      <trkpt lat="45.84991" lon="4.3588">
        <ele>765</ele>
        <time>2016-05-19T09:24:44.209Z</time>
      </trkpt>
      <trkpt lat="45.84992" lon="4.35878">
        <ele>765</ele>
        <time>2016-05-19T09:24:45.221Z</time>
      </trkpt>
      <trkpt lat="45.84996" lon="4.35868">
        <ele>765</ele>
        <time>2016-05-19T09:24:51.21Z</time>
      </trkpt>
      <trkpt lat="45.84997" lon="4.35866">
        <ele>765</ele>
        <time>2016-05-19T09:24:52.211Z</time>
      </trkpt>
      <trkpt lat="45.84999" lon="4.35855">
        <ele>765</ele>
        <time>2016-05-19T09:25:03.216Z</time>
      </trkpt>
      <trkpt lat="45.85" lon="4.35854">
        <ele>765</ele>
        <time>2016-05-19T09:25:04.214Z</time>
      </trkpt>
      <trkpt lat="45.85006" lon="4.35846">
        <ele>771</ele>
        <time>2016-05-19T09:25:13.21Z</time>
      </trkpt>
      <trkpt lat="45.85008" lon="4.35845">
        <ele>771</ele>
        <time>2016-05-19T09:25:14.231Z</time>
      </trkpt>
      <trkpt lat="45.85014" lon="4.35837">
        <ele>771</ele>
        <time>2016-05-19T09:25:22.213Z</time>
      </trkpt>
      <trkpt lat="45.85014" lon="4.35836">
        <ele>771</ele>
        <time>2016-05-19T09:25:23.216Z</time>
      </trkpt>
      <trkpt lat="45.85023" lon="4.35833">
        <ele>772</ele>
        <time>2016-05-19T09:25:34.214Z</time>
      </trkpt>
      <trkpt lat="45.85024" lon="4.35833">
        <ele>773</ele>
        <time>2016-05-19T09:25:35.214Z</time>
      </trkpt>
      <trkpt lat="45.85032" lon="4.35836">
        <ele>774</ele>
        <time>2016-05-19T09:25:56.226Z</time>
      </trkpt>
      <trkpt lat="45.85033" lon="4.35837">
        <ele>775</ele>
        <time>2016-05-19T09:25:57.217Z</time>
      </trkpt>
      <trkpt lat="45.85041" lon="4.35839">
        <ele>776</ele>
        <time>2016-05-19T09:26:10.211Z</time>
      </trkpt>
      <trkpt lat="45.85042" lon="4.35839">
        <ele>776</ele>
        <time>2016-05-19T09:26:11.216Z</time>
      </trkpt>
      <trkpt lat="45.8505" lon="4.35836">
        <ele>777</ele>
        <time>2016-05-19T09:26:25.21Z</time>
      </trkpt>
      <trkpt lat="45.8505" lon="4.35836">
        <ele>777</ele>
        <time>2016-05-19T09:26:26.199Z</time>
      </trkpt>
      <trkpt lat="45.85059" lon="4.35837">
        <ele>779</ele>
        <time>2016-05-19T09:26:40.211Z</time>
      </trkpt>
      <trkpt lat="45.8506" lon="4.35836">
        <ele>779</ele>
        <time>2016-05-19T09:26:41.232Z</time>
      </trkpt>
      <trkpt lat="45.85068" lon="4.35835">
        <ele>781</ele>
        <time>2016-05-19T09:26:50.206Z</time>
      </trkpt>
      <trkpt lat="45.85069" lon="4.35835">
        <ele>781</ele>
        <time>2016-05-19T09:26:51.222Z</time>
      </trkpt>
      <trkpt lat="45.85078" lon="4.35834">
        <ele>783</ele>
        <time>2016-05-19T09:27:01.224Z</time>
      </trkpt>
      <trkpt lat="45.85078" lon="4.35834">
        <ele>783</ele>
        <time>2016-05-19T09:27:02.216Z</time>
      </trkpt>
      <trkpt lat="45.85087" lon="4.35835">
        <ele>786</ele>
        <time>2016-05-19T09:27:22.214Z</time>
      </trkpt>
      <trkpt lat="45.85087" lon="4.35835">
        <ele>786</ele>
        <time>2016-05-19T09:27:23.203Z</time>
      </trkpt>
      <trkpt lat="45.85096" lon="4.35832">
        <ele>788</ele>
        <time>2016-05-19T09:27:33.202Z</time>
      </trkpt>
      <trkpt lat="45.85097" lon="4.35832">
        <ele>788</ele>
        <time>2016-05-19T09:27:34.211Z</time>
      </trkpt>
      <trkpt lat="45.85105" lon="4.35831">
        <ele>790</ele>
        <time>2016-05-19T09:27:43.223Z</time>
      </trkpt>
      <trkpt lat="45.85106" lon="4.3583">
        <ele>790</ele>
        <time>2016-05-19T09:27:44.205Z</time>
      </trkpt>
      <trkpt lat="45.85115" lon="4.3583">
        <ele>791</ele>
        <time>2016-05-19T09:27:55.221Z</time>
      </trkpt>
      <trkpt lat="45.85116" lon="4.35831">
        <ele>791</ele>
        <time>2016-05-19T09:27:56.213Z</time>
      </trkpt>
      <trkpt lat="45.85125" lon="4.3583">
        <ele>792</ele>
        <time>2016-05-19T09:28:04.205Z</time>
      </trkpt>
      <trkpt lat="45.85126" lon="4.3583">
        <ele>793</ele>
        <time>2016-05-19T09:28:05.198Z</time>
      </trkpt>
      <trkpt lat="45.85134" lon="4.35829">
        <ele>794</ele>
        <time>2016-05-19T09:28:13.213Z</time>
      </trkpt>
      <trkpt lat="45.85135" lon="4.35828">
        <ele>794</ele>
        <time>2016-05-19T09:28:14.216Z</time>
      </trkpt>
      <trkpt lat="45.85143" lon="4.35825">
        <ele>795</ele>
        <time>2016-05-19T09:28:32.217Z</time>
      </trkpt>
      <trkpt lat="45.85144" lon="4.35825">
        <ele>795</ele>
        <time>2016-05-19T09:28:33.22Z</time>
      </trkpt>
      <trkpt lat="45.85152" lon="4.3582">
        <ele>796</ele>
        <time>2016-05-19T09:30:21.216Z</time>
      </trkpt>
      <trkpt lat="45.85152" lon="4.3582">
        <ele>796</ele>
        <time>2016-05-19T09:30:22.22Z</time>
      </trkpt>
      <trkpt lat="45.85161" lon="4.35818">
        <ele>797</ele>
        <time>2016-05-19T09:30:33.211Z</time>
      </trkpt>
      <trkpt lat="45.85162" lon="4.35819">
        <ele>797</ele>
        <time>2016-05-19T09:30:34.213Z</time>
      </trkpt>
      <trkpt lat="45.85171" lon="4.35817">
        <ele>805</ele>
        <time>2016-05-19T09:30:50.228Z</time>
      </trkpt>
      <trkpt lat="45.85171" lon="4.35817">
        <ele>805</ele>
        <time>2016-05-19T09:30:51.211Z</time>
      </trkpt>
      <trkpt lat="45.85179" lon="4.35813">
        <ele>807</ele>
        <time>2016-05-19T09:31:01.216Z</time>
      </trkpt>
      <trkpt lat="45.8518" lon="4.35812">
        <ele>807</ele>
        <time>2016-05-19T09:31:02.217Z</time>
      </trkpt>
      <trkpt lat="45.85189" lon="4.35811">
        <ele>808</ele>
        <time>2016-05-19T09:31:14.217Z</time>
      </trkpt>
      <trkpt lat="45.85189" lon="4.3581">
        <ele>808</ele>
        <time>2016-05-19T09:31:15.217Z</time>
      </trkpt>
      <trkpt lat="45.85197" lon="4.35803">
        <ele>810</ele>
        <time>2016-05-19T09:31:29.198Z</time>
      </trkpt>
      <trkpt lat="45.85197" lon="4.35802">
        <ele>810</ele>
        <time>2016-05-19T09:31:30.202Z</time>
      </trkpt>
      <trkpt lat="45.85205" lon="4.35797">
        <ele>811</ele>
        <time>2016-05-19T09:31:41.23Z</time>
      </trkpt>
      <trkpt lat="45.85206" lon="4.35797">
        <ele>811</ele>
        <time>2016-05-19T09:31:42.215Z</time>
      </trkpt>
      <trkpt lat="45.85213" lon="4.35791">
        <ele>812</ele>
        <time>2016-05-19T09:31:58.206Z</time>
      </trkpt>
      <trkpt lat="45.85214" lon="4.35791">
        <ele>812</ele>
        <time>2016-05-19T09:31:59.205Z</time>
      </trkpt>
      <trkpt lat="45.85221" lon="4.35788">
        <ele>813</ele>
        <time>2016-05-19T09:32:06.216Z</time>
      </trkpt>
      <trkpt lat="45.85222" lon="4.35787">
        <ele>813</ele>
        <time>2016-05-19T09:32:07.215Z</time>
      </trkpt>
      <trkpt lat="45.8523" lon="4.35784">
        <ele>814</ele>
        <time>2016-05-19T09:32:13.205Z</time>
      </trkpt>
      <trkpt lat="45.85231" lon="4.35783">
        <ele>814</ele>
        <time>2016-05-19T09:32:14.215Z</time>
      </trkpt>
      <trkpt lat="45.85239" lon="4.35778">
        <ele>816</ele>
        <time>2016-05-19T09:32:39.223Z</time>
      </trkpt>
      <trkpt lat="45.8524" lon="4.35778">
        <ele>816</ele>
        <time>2016-05-19T09:32:40.216Z</time>
      </trkpt>
      <trkpt lat="45.85248" lon="4.35777">
        <ele>816</ele>
        <time>2016-05-19T09:32:53.209Z</time>
      </trkpt>
      <trkpt lat="45.85249" lon="4.35777">
        <ele>817</ele>
        <time>2016-05-19T09:32:54.201Z</time>
      </trkpt>
      <trkpt lat="45.85258" lon="4.35776">
        <ele>825</ele>
        <time>2016-05-19T09:33:01.227Z</time>
      </trkpt>
      <trkpt lat="45.85259" lon="4.35776">
        <ele>825</ele>
        <time>2016-05-19T09:33:02.218Z</time>
      </trkpt>
      <trkpt lat="45.85268" lon="4.35775">
        <ele>826</ele>
        <time>2016-05-19T09:33:20.214Z</time>
      </trkpt>
      <trkpt lat="45.85269" lon="4.35775">
        <ele>826</ele>
        <time>2016-05-19T09:33:21.21Z</time>
      </trkpt>
      <trkpt lat="45.85275" lon="4.35771">
        <ele>826</ele>
        <time>2016-05-19T09:33:29.218Z</time>
      </trkpt>
      <trkpt lat="45.85278" lon="4.35769">
        <ele>826</ele>
        <time>2016-05-19T09:33:30.218Z</time>
      </trkpt>
      <trkpt lat="45.85287" lon="4.35766">
        <ele>827</ele>
        <time>2016-05-19T09:33:45.214Z</time>
      </trkpt>
      <trkpt lat="45.85288" lon="4.35767">
        <ele>827</ele>
        <time>2016-05-19T09:33:46.214Z</time>
      </trkpt>
      <trkpt lat="45.85294" lon="4.35775">
        <ele>827</ele>
        <time>2016-05-19T09:33:52.217Z</time>
      </trkpt>
      <trkpt lat="45.85295" lon="4.35777">
        <ele>827</ele>
        <time>2016-05-19T09:33:53.215Z</time>
      </trkpt>
      <trkpt lat="45.85299" lon="4.35788">
        <ele>828</ele>
        <time>2016-05-19T09:34:00.215Z</time>
      </trkpt>
      <trkpt lat="45.85299" lon="4.35789">
        <ele>828</ele>
        <time>2016-05-19T09:34:01.22Z</time>
      </trkpt>
      <trkpt lat="45.853" lon="4.35801">
        <ele>827</ele>
        <time>2016-05-19T09:34:15.214Z</time>
      </trkpt>
      <trkpt lat="45.85301" lon="4.35802">
        <ele>828</ele>
        <time>2016-05-19T09:34:16.209Z</time>
      </trkpt>
      <trkpt lat="45.85308" lon="4.35811">
        <ele>828</ele>
        <time>2016-05-19T09:34:24.216Z</time>
      </trkpt>
      <trkpt lat="45.85309" lon="4.35811">
        <ele>828</ele>
        <time>2016-05-19T09:34:25.215Z</time>
      </trkpt>
      <trkpt lat="45.85316" lon="4.35818">
        <ele>829</ele>
        <time>2016-05-19T09:34:33.218Z</time>
      </trkpt>
      <trkpt lat="45.85316" lon="4.35818">
        <ele>829</ele>
        <time>2016-05-19T09:34:34.215Z</time>
      </trkpt>
      <trkpt lat="45.85323" lon="4.35827">
        <ele>830</ele>
        <time>2016-05-19T09:34:45.217Z</time>
      </trkpt>
      <trkpt lat="45.85323" lon="4.35828">
        <ele>830</ele>
        <time>2016-05-19T09:34:46.216Z</time>
      </trkpt>
      <trkpt lat="45.85329" lon="4.35837">
        <ele>830</ele>
        <time>2016-05-19T09:34:55.214Z</time>
      </trkpt>
      <trkpt lat="45.8533" lon="4.35837">
        <ele>830</ele>
        <time>2016-05-19T09:34:56.216Z</time>
      </trkpt>
      <trkpt lat="45.85336" lon="4.35845">
        <ele>833</ele>
        <time>2016-05-19T09:35:10.207Z</time>
      </trkpt>
      <trkpt lat="45.85337" lon="4.35846">
        <ele>833</ele>
        <time>2016-05-19T09:35:11.214Z</time>
      </trkpt>
      <trkpt lat="45.85342" lon="4.35856">
        <ele>834</ele>
        <time>2016-05-19T09:35:16.209Z</time>
      </trkpt>
      <trkpt lat="45.85342" lon="4.35858">
        <ele>834</ele>
        <time>2016-05-19T09:35:17.204Z</time>
      </trkpt>
      <trkpt lat="45.85339" lon="4.35869">
        <ele>834</ele>
        <time>2016-05-19T09:35:25.2Z</time>
      </trkpt>
      <trkpt lat="45.85341" lon="4.35872">
        <ele>834</ele>
        <time>2016-05-19T09:35:26.213Z</time>
      </trkpt>
      <trkpt lat="45.85347" lon="4.35879">
        <ele>834</ele>
        <time>2016-05-19T09:35:30.202Z</time>
      </trkpt>
      <trkpt lat="45.85348" lon="4.35882">
        <ele>834</ele>
        <time>2016-05-19T09:35:31.211Z</time>
      </trkpt>
      <trkpt lat="45.8535" lon="4.35893">
        <ele>834</ele>
        <time>2016-05-19T09:35:38.215Z</time>
      </trkpt>
      <trkpt lat="45.8535" lon="4.35894">
        <ele>834</ele>
        <time>2016-05-19T09:35:39.213Z</time>
      </trkpt>
      <trkpt lat="45.85354" lon="4.35905">
        <ele>834</ele>
        <time>2016-05-19T09:35:49.209Z</time>
      </trkpt>
      <trkpt lat="45.85355" lon="4.35906">
        <ele>834</ele>
        <time>2016-05-19T09:35:50.217Z</time>
      </trkpt>
      <trkpt lat="45.85358" lon="4.35917">
        <ele>832</ele>
        <time>2016-05-19T09:35:57.218Z</time>
      </trkpt>
      <trkpt lat="45.85358" lon="4.35919">
        <ele>832</ele>
        <time>2016-05-19T09:35:58.208Z</time>
      </trkpt>
      <trkpt lat="45.85359" lon="4.35931">
        <ele>832</ele>
        <time>2016-05-19T09:36:05.215Z</time>
      </trkpt>
      <trkpt lat="45.8536" lon="4.35934">
        <ele>833</ele>
        <time>2016-05-19T09:36:06.216Z</time>
      </trkpt>
      <trkpt lat="45.85363" lon="4.35946">
        <ele>833</ele>
        <time>2016-05-19T09:36:11.215Z</time>
      </trkpt>
      <trkpt lat="45.85363" lon="4.35948">
        <ele>833</ele>
        <time>2016-05-19T09:36:12.216Z</time>
      </trkpt>
      <trkpt lat="45.85367" lon="4.3596">
        <ele>833</ele>
        <time>2016-05-19T09:36:21.215Z</time>
      </trkpt>
      <trkpt lat="45.85367" lon="4.35961">
        <ele>833</ele>
        <time>2016-05-19T09:36:22.226Z</time>
      </trkpt>
      <trkpt lat="45.85369" lon="4.3597">
        <ele>833</ele>
        <time>2016-05-19T09:36:27.214Z</time>
      </trkpt>
      <trkpt lat="45.8537" lon="4.35973">
        <ele>833</ele>
        <time>2016-05-19T09:36:28.217Z</time>
      </trkpt>
      <trkpt lat="45.85372" lon="4.35985">
        <ele>832</ele>
        <time>2016-05-19T09:36:34.216Z</time>
      </trkpt>
      <trkpt lat="45.85372" lon="4.35987">
        <ele>832</ele>
        <time>2016-05-19T09:36:35.216Z</time>
      </trkpt>
      <trkpt lat="45.85375" lon="4.35998">
        <ele>833</ele>
        <time>2016-05-19T09:36:43.204Z</time>
      </trkpt>
      <trkpt lat="45.85376" lon="4.36">
        <ele>833</ele>
        <time>2016-05-19T09:36:44.207Z</time>
      </trkpt>
      <trkpt lat="45.8538" lon="4.3601">
        <ele>832</ele>
        <time>2016-05-19T09:36:50.208Z</time>
      </trkpt>
      <trkpt lat="45.8538" lon="4.36012">
        <ele>832</ele>
        <time>2016-05-19T09:36:51.22Z</time>
      </trkpt>
      <trkpt lat="45.85384" lon="4.36023">
        <ele>832</ele>
        <time>2016-05-19T09:36:57.211Z</time>
      </trkpt>
      <trkpt lat="45.85384" lon="4.36024">
        <ele>832</ele>
        <time>2016-05-19T09:36:58.281Z</time>
      </trkpt>
      <trkpt lat="45.85389" lon="4.36035">
        <ele>832</ele>
        <time>2016-05-19T09:37:04.22Z</time>
      </trkpt>
      <trkpt lat="45.85389" lon="4.36036">
        <ele>832</ele>
        <time>2016-05-19T09:37:05.229Z</time>
      </trkpt>
      <trkpt lat="45.85395" lon="4.36045">
        <ele>833</ele>
        <time>2016-05-19T09:37:11.213Z</time>
      </trkpt>
      <trkpt lat="45.85396" lon="4.36046">
        <ele>833</ele>
        <time>2016-05-19T09:37:12.215Z</time>
      </trkpt>
      <trkpt lat="45.85403" lon="4.36052">
        <ele>833</ele>
        <time>2016-05-19T09:37:20.205Z</time>
      </trkpt>
      <trkpt lat="45.85404" lon="4.36053">
        <ele>833</ele>
        <time>2016-05-19T09:37:21.22Z</time>
      </trkpt>
      <trkpt lat="45.85409" lon="4.36064">
        <ele>834</ele>
        <time>2016-05-19T09:37:33.203Z</time>
      </trkpt>
      <trkpt lat="45.85409" lon="4.36065">
        <ele>834</ele>
        <time>2016-05-19T09:37:34.218Z</time>
      </trkpt>
      <trkpt lat="45.85413" lon="4.36075">
        <ele>836</ele>
        <time>2016-05-19T09:37:42.204Z</time>
      </trkpt>
      <trkpt lat="45.85413" lon="4.36077">
        <ele>836</ele>
        <time>2016-05-19T09:37:43.211Z</time>
      </trkpt>
      <trkpt lat="45.85418" lon="4.36086">
        <ele>839</ele>
        <time>2016-05-19T09:37:49.217Z</time>
      </trkpt>
      <trkpt lat="45.85419" lon="4.36087">
        <ele>840</ele>
        <time>2016-05-19T09:37:50.219Z</time>
      </trkpt>
      <trkpt lat="45.85422" lon="4.36097">
        <ele>842</ele>
        <time>2016-05-19T09:37:55.214Z</time>
      </trkpt>
      <trkpt lat="45.85422" lon="4.36099">
        <ele>843</ele>
        <time>2016-05-19T09:37:56.216Z</time>
      </trkpt>
      <trkpt lat="45.85426" lon="4.36109">
        <ele>844</ele>
        <time>2016-05-19T09:38:01.207Z</time>
      </trkpt>
      <trkpt lat="45.85427" lon="4.36111">
        <ele>844</ele>
        <time>2016-05-19T09:38:02.199Z</time>
      </trkpt>
      <trkpt lat="45.85428" lon="4.36122">
        <ele>845</ele>
        <time>2016-05-19T09:38:09.211Z</time>
      </trkpt>
      <trkpt lat="45.85428" lon="4.36124">
        <ele>845</ele>
        <time>2016-05-19T09:38:10.207Z</time>
      </trkpt>
      <trkpt lat="45.85429" lon="4.36136">
        <ele>845</ele>
        <time>2016-05-19T09:38:18.22Z</time>
      </trkpt>
      <trkpt lat="45.8543" lon="4.36137">
        <ele>845</ele>
        <time>2016-05-19T09:38:19.211Z</time>
      </trkpt>
      <trkpt lat="45.85431" lon="4.36149">
        <ele>844</ele>
        <time>2016-05-19T09:38:25.2Z</time>
      </trkpt>
      <trkpt lat="45.85431" lon="4.36151">
        <ele>844</ele>
        <time>2016-05-19T09:38:26.205Z</time>
      </trkpt>
      <trkpt lat="45.85431" lon="4.36162">
        <ele>842</ele>
        <time>2016-05-19T09:38:32.215Z</time>
      </trkpt>
      <trkpt lat="45.8543" lon="4.36164">
        <ele>842</ele>
        <time>2016-05-19T09:38:33.21Z</time>
      </trkpt>
      <trkpt lat="45.85428" lon="4.36176">
        <ele>843</ele>
        <time>2016-05-19T09:38:40.207Z</time>
      </trkpt>
      <trkpt lat="45.85428" lon="4.36178">
        <ele>843</ele>
        <time>2016-05-19T09:38:41.218Z</time>
      </trkpt>
      <trkpt lat="45.85427" lon="4.36188">
        <ele>845</ele>
        <time>2016-05-19T09:38:47.218Z</time>
      </trkpt>
      <trkpt lat="45.85428" lon="4.36191">
        <ele>845</ele>
        <time>2016-05-19T09:38:48.222Z</time>
      </trkpt>
      <trkpt lat="45.85428" lon="4.36202">
        <ele>847</ele>
        <time>2016-05-19T09:38:54.22Z</time>
      </trkpt>
      <trkpt lat="45.85428" lon="4.36204">
        <ele>847</ele>
        <time>2016-05-19T09:38:55.227Z</time>
      </trkpt>
      <trkpt lat="45.85425" lon="4.36215">
        <ele>847</ele>
        <time>2016-05-19T09:39:01.205Z</time>
      </trkpt>
      <trkpt lat="45.85425" lon="4.36216">
        <ele>847</ele>
        <time>2016-05-19T09:39:02.21Z</time>
      </trkpt>
      <trkpt lat="45.85419" lon="4.36225">
        <ele>847</ele>
        <time>2016-05-19T09:39:10.205Z</time>
      </trkpt>
      <trkpt lat="45.85418" lon="4.36227">
        <ele>847</ele>
        <time>2016-05-19T09:39:11.212Z</time>
      </trkpt>
      <trkpt lat="45.85412" lon="4.36236">
        <ele>841</ele>
        <time>2016-05-19T09:39:19.213Z</time>
      </trkpt>
      <trkpt lat="45.85411" lon="4.36237">
        <ele>841</ele>
        <time>2016-05-19T09:39:20.215Z</time>
      </trkpt>
      <trkpt lat="45.85405" lon="4.36244">
        <ele>841</ele>
        <time>2016-05-19T09:39:28.205Z</time>
      </trkpt>
      <trkpt lat="45.85404" lon="4.36245">
        <ele>841</ele>
        <time>2016-05-19T09:39:29.21Z</time>
      </trkpt>
      <trkpt lat="45.85399" lon="4.36255">
        <ele>846</ele>
        <time>2016-05-19T09:39:49.194Z</time>
      </trkpt>
      <trkpt lat="45.85398" lon="4.36256">
        <ele>846</ele>
        <time>2016-05-19T09:39:50.209Z</time>
      </trkpt>
      <trkpt lat="45.85391" lon="4.36262">
        <ele>847</ele>
        <time>2016-05-19T09:39:59.211Z</time>
      </trkpt>
      <trkpt lat="45.8539" lon="4.36264">
        <ele>847</ele>
        <time>2016-05-19T09:40:00.218Z</time>
      </trkpt>
      <trkpt lat="45.85383" lon="4.36271">
        <ele>847</ele>
        <time>2016-05-19T09:40:07.198Z</time>
      </trkpt>
      <trkpt lat="45.85382" lon="4.36271">
        <ele>847</ele>
        <time>2016-05-19T09:40:08.196Z</time>
      </trkpt>
      <trkpt lat="45.85374" lon="4.36273">
        <ele>847</ele>
        <time>2016-05-19T09:40:13.215Z</time>
      </trkpt>
      <trkpt lat="45.85373" lon="4.36273">
        <ele>847</ele>
        <time>2016-05-19T09:40:14.216Z</time>
      </trkpt>
      <trkpt lat="45.85365" lon="4.36274">
        <ele>847</ele>
        <time>2016-05-19T09:40:20.213Z</time>
      </trkpt>
      <trkpt lat="45.85363" lon="4.36275">
        <ele>847</ele>
        <time>2016-05-19T09:40:21.203Z</time>
      </trkpt>
      <trkpt lat="45.85355" lon="4.36279">
        <ele>847</ele>
        <time>2016-05-19T09:40:29.229Z</time>
      </trkpt>
      <trkpt lat="45.85354" lon="4.36279">
        <ele>847</ele>
        <time>2016-05-19T09:40:30.219Z</time>
      </trkpt>
      <trkpt lat="45.85346" lon="4.36281">
        <ele>847</ele>
        <time>2016-05-19T09:40:39.21Z</time>
      </trkpt>
      <trkpt lat="45.85345" lon="4.36281">
        <ele>847</ele>
        <time>2016-05-19T09:40:40.211Z</time>
      </trkpt>
      <trkpt lat="45.85337" lon="4.36285">
        <ele>848</ele>
        <time>2016-05-19T09:40:49.216Z</time>
      </trkpt>
      <trkpt lat="45.85336" lon="4.36286">
        <ele>848</ele>
        <time>2016-05-19T09:40:50.209Z</time>
      </trkpt>
      <trkpt lat="45.85332" lon="4.36296">
        <ele>850</ele>
        <time>2016-05-19T09:40:58.216Z</time>
      </trkpt>
      <trkpt lat="45.85332" lon="4.36297">
        <ele>851</ele>
        <time>2016-05-19T09:40:59.211Z</time>
      </trkpt>
      <trkpt lat="45.85334" lon="4.36309">
        <ele>851</ele>
        <time>2016-05-19T09:41:10.214Z</time>
      </trkpt>
      <trkpt lat="45.85335" lon="4.3631">
        <ele>851</ele>
        <time>2016-05-19T09:41:11.215Z</time>
      </trkpt>
      <trkpt lat="45.85342" lon="4.36316">
        <ele>852</ele>
        <time>2016-05-19T09:41:21.193Z</time>
      </trkpt>
      <trkpt lat="45.85343" lon="4.36316">
        <ele>852</ele>
        <time>2016-05-19T09:41:22.196Z</time>
      </trkpt>
      <trkpt lat="45.85351" lon="4.36321">
        <ele>852</ele>
        <time>2016-05-19T09:41:31.203Z</time>
      </trkpt>
      <trkpt lat="45.85352" lon="4.36321">
        <ele>852</ele>
        <time>2016-05-19T09:41:32.219Z</time>
      </trkpt>
      <trkpt lat="45.8536" lon="4.36323">
        <ele>851</ele>
        <time>2016-05-19T09:41:40.193Z</time>
      </trkpt>
      <trkpt lat="45.85361" lon="4.36324">
        <ele>851</ele>
        <time>2016-05-19T09:41:41.2Z</time>
      </trkpt>
      <trkpt lat="45.85369" lon="4.36327">
        <ele>851</ele>
        <time>2016-05-19T09:41:49.215Z</time>
      </trkpt>
      <trkpt lat="45.8537" lon="4.36327">
        <ele>851</ele>
        <time>2016-05-19T09:41:50.206Z</time>
      </trkpt>
      <trkpt lat="45.85379" lon="4.36331">
        <ele>851</ele>
        <time>2016-05-19T09:41:58.216Z</time>
      </trkpt>
      <trkpt lat="45.8538" lon="4.36332">
        <ele>851</ele>
        <time>2016-05-19T09:41:59.22Z</time>
      </trkpt>
      <trkpt lat="45.85388" lon="4.36332">
        <ele>851</ele>
        <time>2016-05-19T09:42:07.199Z</time>
      </trkpt>
      <trkpt lat="45.85389" lon="4.36332">
        <ele>852</ele>
        <time>2016-05-19T09:42:08.197Z</time>
      </trkpt>
      <trkpt lat="45.85397" lon="4.36335">
        <ele>858</ele>
        <time>2016-05-19T09:42:15.23Z</time>
      </trkpt>
      <trkpt lat="45.85398" lon="4.36336">
        <ele>858</ele>
        <time>2016-05-19T09:42:16.216Z</time>
      </trkpt>
      <trkpt lat="45.85406" lon="4.36341">
        <ele>858</ele>
        <time>2016-05-19T09:42:22.21Z</time>
      </trkpt>
      <trkpt lat="45.85407" lon="4.36342">
        <ele>858</ele>
        <time>2016-05-19T09:42:23.218Z</time>
      </trkpt>
      <trkpt lat="45.85414" lon="4.36347">
        <ele>858</ele>
        <time>2016-05-19T09:42:30.203Z</time>
      </trkpt>
      <trkpt lat="45.85415" lon="4.36348">
        <ele>858</ele>
        <time>2016-05-19T09:42:31.217Z</time>
      </trkpt>
      <trkpt lat="45.85423" lon="4.36353">
        <ele>859</ele>
        <time>2016-05-19T09:42:39.216Z</time>
      </trkpt>
      <trkpt lat="45.85424" lon="4.36354">
        <ele>859</ele>
        <time>2016-05-19T09:42:40.209Z</time>
      </trkpt>
      <trkpt lat="45.85432" lon="4.36359">
        <ele>860</ele>
        <time>2016-05-19T09:42:47.214Z</time>
      </trkpt>
      <trkpt lat="45.85433" lon="4.36359">
        <ele>860</ele>
        <time>2016-05-19T09:42:48.212Z</time>
      </trkpt>
      <trkpt lat="45.85441" lon="4.36364">
        <ele>860</ele>
        <time>2016-05-19T09:42:57.213Z</time>
      </trkpt>
      <trkpt lat="45.85442" lon="4.36364">
        <ele>860</ele>
        <time>2016-05-19T09:42:58.212Z</time>
      </trkpt>
      <trkpt lat="45.8545" lon="4.36362">
        <ele>861</ele>
        <time>2016-05-19T09:43:05.194Z</time>
      </trkpt>
      <trkpt lat="45.85451" lon="4.36363">
        <ele>861</ele>
        <time>2016-05-19T09:43:06.199Z</time>
      </trkpt>
      <trkpt lat="45.85459" lon="4.36367">
        <ele>861</ele>
        <time>2016-05-19T09:43:15.21Z</time>
      </trkpt>
      <trkpt lat="45.8546" lon="4.36367">
        <ele>861</ele>
        <time>2016-05-19T09:43:16.207Z</time>
      </trkpt>
      <trkpt lat="45.85468" lon="4.36373">
        <ele>861</ele>
        <time>2016-05-19T09:43:22.21Z</time>
      </trkpt>
      <trkpt lat="45.85469" lon="4.36375">
        <ele>861</ele>
        <time>2016-05-19T09:43:23.214Z</time>
      </trkpt>
      <trkpt lat="45.85476" lon="4.36383">
        <ele>862</ele>
        <time>2016-05-19T09:43:29.205Z</time>
      </trkpt>
      <trkpt lat="45.85477" lon="4.36384">
        <ele>862</ele>
        <time>2016-05-19T09:43:30.197Z</time>
      </trkpt>
      <trkpt lat="45.85482" lon="4.36393">
        <ele>862</ele>
        <time>2016-05-19T09:43:37.228Z</time>
      </trkpt>
      <trkpt lat="45.85482" lon="4.36394">
        <ele>862</ele>
        <time>2016-05-19T09:43:38.215Z</time>
      </trkpt>
      <trkpt lat="45.85481" lon="4.36406">
        <ele>862</ele>
        <time>2016-05-19T09:43:46.216Z</time>
      </trkpt>
      <trkpt lat="45.85481" lon="4.36407">
        <ele>862</ele>
        <time>2016-05-19T09:43:47.207Z</time>
      </trkpt>
      <trkpt lat="45.85478" lon="4.36418">
        <ele>865</ele>
        <time>2016-05-19T09:43:55.214Z</time>
      </trkpt>
      <trkpt lat="45.85477" lon="4.36419">
        <ele>865</ele>
        <time>2016-05-19T09:43:56.218Z</time>
      </trkpt>
      <trkpt lat="45.85475" lon="4.3643">
        <ele>865</ele>
        <time>2016-05-19T09:44:04.215Z</time>
      </trkpt>
      <trkpt lat="45.85474" lon="4.36432">
        <ele>866</ele>
        <time>2016-05-19T09:44:05.219Z</time>
      </trkpt>
      <trkpt lat="45.85473" lon="4.36443">
        <ele>866</ele>
        <time>2016-05-19T09:44:14.214Z</time>
      </trkpt>
      <trkpt lat="45.85472" lon="4.36445">
        <ele>866</ele>
        <time>2016-05-19T09:44:15.217Z</time>
      </trkpt>
      <trkpt lat="45.85469" lon="4.36456">
        <ele>867</ele>
        <time>2016-05-19T09:44:22.216Z</time>
      </trkpt>
      <trkpt lat="45.85469" lon="4.36458">
        <ele>867</ele>
        <time>2016-05-19T09:44:23.227Z</time>
      </trkpt>
      <trkpt lat="45.85467" lon="4.3647">
        <ele>867</ele>
        <time>2016-05-19T09:44:31.215Z</time>
      </trkpt>
      <trkpt lat="45.85467" lon="4.36472">
        <ele>867</ele>
        <time>2016-05-19T09:44:32.216Z</time>
      </trkpt>
      <trkpt lat="45.85465" lon="4.36484">
        <ele>868</ele>
        <time>2016-05-19T09:44:40.207Z</time>
      </trkpt>
      <trkpt lat="45.85464" lon="4.36485">
        <ele>868</ele>
        <time>2016-05-19T09:44:41.216Z</time>
      </trkpt>
      <trkpt lat="45.85462" lon="4.36497">
        <ele>868</ele>
        <time>2016-05-19T09:44:49.197Z</time>
      </trkpt>
      <trkpt lat="45.85462" lon="4.36498">
        <ele>868</ele>
        <time>2016-05-19T09:44:50.212Z</time>
      </trkpt>
      <trkpt lat="45.85458" lon="4.36509">
        <ele>873</ele>
        <time>2016-05-19T09:44:58.204Z</time>
      </trkpt>
      <trkpt lat="45.85458" lon="4.36511">
        <ele>873</ele>
        <time>2016-05-19T09:44:59.224Z</time>
      </trkpt>
      <trkpt lat="45.85455" lon="4.36523">
        <ele>873</ele>
        <time>2016-05-19T09:45:08.219Z</time>
      </trkpt>
      <trkpt lat="45.85455" lon="4.36524">
        <ele>874</ele>
        <time>2016-05-19T09:45:09.206Z</time>
      </trkpt>
      <trkpt lat="45.85453" lon="4.36535">
        <ele>874</ele>
        <time>2016-05-19T09:45:18.215Z</time>
      </trkpt>
      <trkpt lat="45.85452" lon="4.36536">
        <ele>874</ele>
        <time>2016-05-19T09:45:19.215Z</time>
      </trkpt>
      <trkpt lat="45.85449" lon="4.36547">
        <ele>875</ele>
        <time>2016-05-19T09:45:28.218Z</time>
      </trkpt>
      <trkpt lat="45.85449" lon="4.36549">
        <ele>875</ele>
        <time>2016-05-19T09:45:29.218Z</time>
      </trkpt>
      <trkpt lat="45.85446" lon="4.3656">
        <ele>876</ele>
        <time>2016-05-19T09:45:38.21Z</time>
      </trkpt>
      <trkpt lat="45.85445" lon="4.36562">
        <ele>876</ele>
        <time>2016-05-19T09:45:39.22Z</time>
      </trkpt>
      <trkpt lat="45.85442" lon="4.36574">
        <ele>877</ele>
        <time>2016-05-19T09:45:47.217Z</time>
      </trkpt>
      <trkpt lat="45.85441" lon="4.36575">
        <ele>878</ele>
        <time>2016-05-19T09:45:48.214Z</time>
      </trkpt>
      <trkpt lat="45.85436" lon="4.36585">
        <ele>879</ele>
        <time>2016-05-19T09:45:57.225Z</time>
      </trkpt>
      <trkpt lat="45.85436" lon="4.36586">
        <ele>879</ele>
        <time>2016-05-19T09:45:58.31Z</time>
      </trkpt>
      <trkpt lat="45.8543" lon="4.36596">
        <ele>880</ele>
        <time>2016-05-19T09:46:06.214Z</time>
      </trkpt>
      <trkpt lat="45.85429" lon="4.36597">
        <ele>880</ele>
        <time>2016-05-19T09:46:07.214Z</time>
      </trkpt>
      <trkpt lat="45.85423" lon="4.36605">
        <ele>879</ele>
        <time>2016-05-19T09:46:14.213Z</time>
      </trkpt>
      <trkpt lat="45.85423" lon="4.36606">
        <ele>879</ele>
        <time>2016-05-19T09:46:15.207Z</time>
      </trkpt>
      <trkpt lat="45.85417" lon="4.36615">
        <ele>878</ele>
        <time>2016-05-19T09:46:22.21Z</time>
      </trkpt>
      <trkpt lat="45.85416" lon="4.36616">
        <ele>887</ele>
        <time>2016-05-19T09:46:23.216Z</time>
      </trkpt>
      <trkpt lat="45.8541" lon="4.36624">
        <ele>887</ele>
        <time>2016-05-19T09:46:30.216Z</time>
      </trkpt>
      <trkpt lat="45.85409" lon="4.36626">
        <ele>887</ele>
        <time>2016-05-19T09:46:31.214Z</time>
      </trkpt>
      <trkpt lat="45.85404" lon="4.36635">
        <ele>887</ele>
        <time>2016-05-19T09:46:38.214Z</time>
      </trkpt>
      <trkpt lat="45.85404" lon="4.36637">
        <ele>887</ele>
        <time>2016-05-19T09:46:39.22Z</time>
      </trkpt>
      <trkpt lat="45.85398" lon="4.36646">
        <ele>887</ele>
        <time>2016-05-19T09:46:47.215Z</time>
      </trkpt>
      <trkpt lat="45.85398" lon="4.36647">
        <ele>887</ele>
        <time>2016-05-19T09:46:48.215Z</time>
      </trkpt>
      <trkpt lat="45.85391" lon="4.36655">
        <ele>887</ele>
        <time>2016-05-19T09:46:56.218Z</time>
      </trkpt>
      <trkpt lat="45.85389" lon="4.36656">
        <ele>887</ele>
        <time>2016-05-19T09:46:57.208Z</time>
      </trkpt>
      <trkpt lat="45.85382" lon="4.36662">
        <ele>888</ele>
        <time>2016-05-19T09:47:04.215Z</time>
      </trkpt>
      <trkpt lat="45.85381" lon="4.36663">
        <ele>888</ele>
        <time>2016-05-19T09:47:05.21Z</time>
      </trkpt>
      <trkpt lat="45.85374" lon="4.36671">
        <ele>887</ele>
        <time>2016-05-19T09:47:12.207Z</time>
      </trkpt>
      <trkpt lat="45.85373" lon="4.36672">
        <ele>887</ele>
        <time>2016-05-19T09:47:13.204Z</time>
      </trkpt>
      <trkpt lat="45.85368" lon="4.36682">
        <ele>888</ele>
        <time>2016-05-19T09:47:20.213Z</time>
      </trkpt>
      <trkpt lat="45.85367" lon="4.36683">
        <ele>888</ele>
        <time>2016-05-19T09:47:21.215Z</time>
      </trkpt>
      <trkpt lat="45.85361" lon="4.36692">
        <ele>888</ele>
        <time>2016-05-19T09:47:28.213Z</time>
      </trkpt>
      <trkpt lat="45.8536" lon="4.36693">
        <ele>888</ele>
        <time>2016-05-19T09:47:29.22Z</time>
      </trkpt>
      <trkpt lat="45.85354" lon="4.36702">
        <ele>889</ele>
        <time>2016-05-19T09:47:37.21Z</time>
      </trkpt>
      <trkpt lat="45.85353" lon="4.36703">
        <ele>889</ele>
        <time>2016-05-19T09:47:38.206Z</time>
      </trkpt>
      <trkpt lat="45.85347" lon="4.3671">
        <ele>889</ele>
        <time>2016-05-19T09:47:45.207Z</time>
      </trkpt>
      <trkpt lat="45.85346" lon="4.36711">
        <ele>889</ele>
        <time>2016-05-19T09:47:46.204Z</time>
      </trkpt>
      <trkpt lat="45.85338" lon="4.36717">
        <ele>890</ele>
        <time>2016-05-19T09:47:54.212Z</time>
      </trkpt>
      <trkpt lat="45.85337" lon="4.36718">
        <ele>890</ele>
        <time>2016-05-19T09:47:55.204Z</time>
      </trkpt>
      <trkpt lat="45.85331" lon="4.36727">
        <ele>896</ele>
        <time>2016-05-19T09:48:02.208Z</time>
      </trkpt>
      <trkpt lat="45.8533" lon="4.36728">
        <ele>896</ele>
        <time>2016-05-19T09:48:03.216Z</time>
      </trkpt>
      <trkpt lat="45.85326" lon="4.36739">
        <ele>895</ele>
        <time>2016-05-19T09:48:10.21Z</time>
      </trkpt>
      <trkpt lat="45.85325" lon="4.3674">
        <ele>895</ele>
        <time>2016-05-19T09:48:11.217Z</time>
      </trkpt>
      <trkpt lat="45.85319" lon="4.36748">
        <ele>896</ele>
        <time>2016-05-19T09:48:18.206Z</time>
      </trkpt>
      <trkpt lat="45.85318" lon="4.36749">
        <ele>896</ele>
        <time>2016-05-19T09:48:19.207Z</time>
      </trkpt>
      <trkpt lat="45.85313" lon="4.36758">
        <ele>898</ele>
        <time>2016-05-19T09:48:25.21Z</time>
      </trkpt>
      <trkpt lat="45.85312" lon="4.3676">
        <ele>898</ele>
        <time>2016-05-19T09:48:26.209Z</time>
      </trkpt>
      <trkpt lat="45.85304" lon="4.36765">
        <ele>899</ele>
        <time>2016-05-19T09:48:32.211Z</time>
      </trkpt>
      <trkpt lat="45.85303" lon="4.36766">
        <ele>899</ele>
        <time>2016-05-19T09:48:33.206Z</time>
      </trkpt>
      <trkpt lat="45.85296" lon="4.36773">
        <ele>900</ele>
        <time>2016-05-19T09:48:39.21Z</time>
      </trkpt>
      <trkpt lat="45.85296" lon="4.36774">
        <ele>900</ele>
        <time>2016-05-19T09:48:40.216Z</time>
      </trkpt>
      <trkpt lat="45.85291" lon="4.36784">
        <ele>900</ele>
        <time>2016-05-19T09:48:48.213Z</time>
      </trkpt>
      <trkpt lat="45.8529" lon="4.36784">
        <ele>900</ele>
        <time>2016-05-19T09:48:49.218Z</time>
      </trkpt>
      <trkpt lat="45.85285" lon="4.36796">
        <ele>901</ele>
        <time>2016-05-19T09:48:58.209Z</time>
      </trkpt>
      <trkpt lat="45.85285" lon="4.36797">
        <ele>901</ele>
        <time>2016-05-19T09:48:59.215Z</time>
      </trkpt>
      <trkpt lat="45.85279" lon="4.36807">
        <ele>902</ele>
        <time>2016-05-19T09:49:08.21Z</time>
      </trkpt>
      <trkpt lat="45.85278" lon="4.36807">
        <ele>902</ele>
        <time>2016-05-19T09:49:09.205Z</time>
      </trkpt>
      <trkpt lat="45.85273" lon="4.36817">
        <ele>903</ele>
        <time>2016-05-19T09:49:18.204Z</time>
      </trkpt>
      <trkpt lat="45.85272" lon="4.36819">
        <ele>903</ele>
        <time>2016-05-19T09:49:19.208Z</time>
      </trkpt>
      <trkpt lat="45.85268" lon="4.36828">
        <ele>904</ele>
        <time>2016-05-19T09:49:25.207Z</time>
      </trkpt>
      <trkpt lat="45.85267" lon="4.3683">
        <ele>904</ele>
        <time>2016-05-19T09:49:26.21Z</time>
      </trkpt>
      <trkpt lat="45.85263" lon="4.3684">
        <ele>907</ele>
        <time>2016-05-19T09:49:32.204Z</time>
      </trkpt>
      <trkpt lat="45.85262" lon="4.36841">
        <ele>907</ele>
        <time>2016-05-19T09:49:33.215Z</time>
      </trkpt>
      <trkpt lat="45.85257" lon="4.3685">
        <ele>907</ele>
        <time>2016-05-19T09:49:39.21Z</time>
      </trkpt>
      <trkpt lat="45.85256" lon="4.36851">
        <ele>908</ele>
        <time>2016-05-19T09:49:40.211Z</time>
      </trkpt>
      <trkpt lat="45.8525" lon="4.36861">
        <ele>908</ele>
        <time>2016-05-19T09:49:58.216Z</time>
      </trkpt>
      <trkpt lat="45.8525" lon="4.36861">
        <ele>908</ele>
        <time>2016-05-19T09:49:59.214Z</time>
      </trkpt>
      <trkpt lat="45.85247" lon="4.36872">
        <ele>910</ele>
        <time>2016-05-19T09:50:10.226Z</time>
      </trkpt>
      <trkpt lat="45.85247" lon="4.36873">
        <ele>911</ele>
        <time>2016-05-19T09:50:11.219Z</time>
      </trkpt>
      <trkpt lat="45.85246" lon="4.36885">
        <ele>911</ele>
        <time>2016-05-19T09:50:20.21Z</time>
      </trkpt>
      <trkpt lat="45.85245" lon="4.36886">
        <ele>911</ele>
        <time>2016-05-19T09:50:21.217Z</time>
      </trkpt>
      <trkpt lat="45.85238" lon="4.36892">
        <ele>912</ele>
        <time>2016-05-19T09:50:27.211Z</time>
      </trkpt>
      <trkpt lat="45.85237" lon="4.36893">
        <ele>912</ele>
        <time>2016-05-19T09:50:28.208Z</time>
      </trkpt>
      <trkpt lat="45.85232" lon="4.36902">
        <ele>912</ele>
        <time>2016-05-19T09:50:34.215Z</time>
      </trkpt>
      <trkpt lat="45.85231" lon="4.36904">
        <ele>912</ele>
        <time>2016-05-19T09:50:35.203Z</time>
      </trkpt>
      <trkpt lat="45.85225" lon="4.3691">
        <ele>912</ele>
        <time>2016-05-19T09:50:42.211Z</time>
      </trkpt>
      <trkpt lat="45.85224" lon="4.36912">
        <ele>912</ele>
        <time>2016-05-19T09:50:43.209Z</time>
      </trkpt>
      <trkpt lat="45.85218" lon="4.3692">
        <ele>917</ele>
        <time>2016-05-19T09:50:51.218Z</time>
      </trkpt>
      <trkpt lat="45.85217" lon="4.36921">
        <ele>917</ele>
        <time>2016-05-19T09:50:52.21Z</time>
      </trkpt>
      <trkpt lat="45.85212" lon="4.3693">
        <ele>918</ele>
        <time>2016-05-19T09:50:59.211Z</time>
      </trkpt>
      <trkpt lat="45.85211" lon="4.36931">
        <ele>918</ele>
        <time>2016-05-19T09:51:00.204Z</time>
      </trkpt>
      <trkpt lat="45.85205" lon="4.3694">
        <ele>918</ele>
        <time>2016-05-19T09:51:09.225Z</time>
      </trkpt>
      <trkpt lat="45.85205" lon="4.36941">
        <ele>918</ele>
        <time>2016-05-19T09:51:10.217Z</time>
      </trkpt>
      <trkpt lat="45.85199" lon="4.3695">
        <ele>918</ele>
        <time>2016-05-19T09:51:18.201Z</time>
      </trkpt>
      <trkpt lat="45.85199" lon="4.36951">
        <ele>918</ele>
        <time>2016-05-19T09:51:19.208Z</time>
      </trkpt>
      <trkpt lat="45.85192" lon="4.36959">
        <ele>919</ele>
        <time>2016-05-19T09:51:28.209Z</time>
      </trkpt>
      <trkpt lat="45.85191" lon="4.3696">
        <ele>919</ele>
        <time>2016-05-19T09:51:29.216Z</time>
      </trkpt>
      <trkpt lat="45.85186" lon="4.3697">
        <ele>920</ele>
        <time>2016-05-19T09:51:37.206Z</time>
      </trkpt>
      <trkpt lat="45.85185" lon="4.36972">
        <ele>920</ele>
        <time>2016-05-19T09:51:38.213Z</time>
      </trkpt>
      <trkpt lat="45.8518" lon="4.36981">
        <ele>920</ele>
        <time>2016-05-19T09:51:44.22Z</time>
      </trkpt>
      <trkpt lat="45.85179" lon="4.36982">
        <ele>921</ele>
        <time>2016-05-19T09:51:45.212Z</time>
      </trkpt>
      <trkpt lat="45.85175" lon="4.36993">
        <ele>922</ele>
        <time>2016-05-19T09:51:52.206Z</time>
      </trkpt>
      <trkpt lat="45.85174" lon="4.36994">
        <ele>922</ele>
        <time>2016-05-19T09:51:53.205Z</time>
      </trkpt>
      <trkpt lat="45.85171" lon="4.37006">
        <ele>924</ele>
        <time>2016-05-19T09:52:01.216Z</time>
      </trkpt>
      <trkpt lat="45.8517" lon="4.37007">
        <ele>924</ele>
        <time>2016-05-19T09:52:02.209Z</time>
      </trkpt>
      <trkpt lat="45.85167" lon="4.37017">
        <ele>925</ele>
        <time>2016-05-19T09:52:09.216Z</time>
      </trkpt>
      <trkpt lat="45.85166" lon="4.37019">
        <ele>923</ele>
        <time>2016-05-19T09:52:10.212Z</time>
      </trkpt>
      <trkpt lat="45.85163" lon="4.3703">
        <ele>923</ele>
        <time>2016-05-19T09:52:16.212Z</time>
      </trkpt>
      <trkpt lat="45.85163" lon="4.37031">
        <ele>924</ele>
        <time>2016-05-19T09:52:17.212Z</time>
      </trkpt>
      <trkpt lat="45.85158" lon="4.37042">
        <ele>924</ele>
        <time>2016-05-19T09:52:25.206Z</time>
      </trkpt>
      <trkpt lat="45.85158" lon="4.37044">
        <ele>924</ele>
        <time>2016-05-19T09:52:26.199Z</time>
      </trkpt>
      <trkpt lat="45.85153" lon="4.37053">
        <ele>925</ele>
        <time>2016-05-19T09:52:34.197Z</time>
      </trkpt>
      <trkpt lat="45.85152" lon="4.37054">
        <ele>925</ele>
        <time>2016-05-19T09:52:35.206Z</time>
      </trkpt>
      <trkpt lat="45.85149" lon="4.37064">
        <ele>925</ele>
        <time>2016-05-19T09:52:47.207Z</time>
      </trkpt>
      <trkpt lat="45.85149" lon="4.37066">
        <ele>925</ele>
        <time>2016-05-19T09:52:48.219Z</time>
      </trkpt>
      <trkpt lat="45.85147" lon="4.37078">
        <ele>926</ele>
        <time>2016-05-19T09:52:54.209Z</time>
      </trkpt>
      <trkpt lat="45.85146" lon="4.3708">
        <ele>926</ele>
        <time>2016-05-19T09:52:55.226Z</time>
      </trkpt>
      <trkpt lat="45.85144" lon="4.3709">
        <ele>928</ele>
        <time>2016-05-19T09:53:01.21Z</time>
      </trkpt>
      <trkpt lat="45.85143" lon="4.37092">
        <ele>928</ele>
        <time>2016-05-19T09:53:02.217Z</time>
      </trkpt>
      <trkpt lat="45.85138" lon="4.37101">
        <ele>927</ele>
        <time>2016-05-19T09:53:09.206Z</time>
      </trkpt>
      <trkpt lat="45.85137" lon="4.37102">
        <ele>927</ele>
        <time>2016-05-19T09:53:10.205Z</time>
      </trkpt>
      <trkpt lat="45.85134" lon="4.37114">
        <ele>927</ele>
        <time>2016-05-19T09:53:18.204Z</time>
      </trkpt>
      <trkpt lat="45.85133" lon="4.37114">
        <ele>927</ele>
        <time>2016-05-19T09:53:19.197Z</time>
      </trkpt>
      <trkpt lat="45.85129" lon="4.37125">
        <ele>926</ele>
        <time>2016-05-19T09:53:28.213Z</time>
      </trkpt>
      <trkpt lat="45.85128" lon="4.37126">
        <ele>926</ele>
        <time>2016-05-19T09:53:29.208Z</time>
      </trkpt>
      <trkpt lat="45.8512" lon="4.37131">
        <ele>926</ele>
        <time>2016-05-19T09:53:41.211Z</time>
      </trkpt>
      <trkpt lat="45.8512" lon="4.37131">
        <ele>926</ele>
        <time>2016-05-19T09:53:42.204Z</time>
      </trkpt>
      <trkpt lat="45.85115" lon="4.37142">
        <ele>925</ele>
        <time>2016-05-19T09:53:57.214Z</time>
      </trkpt>
      <trkpt lat="45.85115" lon="4.37143">
        <ele>925</ele>
        <time>2016-05-19T09:53:58.215Z</time>
      </trkpt>
      <trkpt lat="45.85114" lon="4.37153">
        <ele>925</ele>
        <time>2016-05-19T09:54:06.211Z</time>
      </trkpt>
      <trkpt lat="45.85114" lon="4.37156">
        <ele>925</ele>
        <time>2016-05-19T09:54:07.217Z</time>
      </trkpt>
      <trkpt lat="45.85111" lon="4.37168">
        <ele>925</ele>
        <time>2016-05-19T09:54:19.216Z</time>
      </trkpt>
      <trkpt lat="45.85111" lon="4.37168">
        <ele>925</ele>
        <time>2016-05-19T09:54:20.209Z</time>
      </trkpt>
      <trkpt lat="45.85108" lon="4.3718">
        <ele>925</ele>
        <time>2016-05-19T09:54:29.247Z</time>
      </trkpt>
      <trkpt lat="45.85108" lon="4.37183">
        <ele>925</ele>
        <time>2016-05-19T09:54:30.205Z</time>
      </trkpt>
      <trkpt lat="45.85107" lon="4.37194">
        <ele>926</ele>
        <time>2016-05-19T09:54:39.219Z</time>
      </trkpt>
      <trkpt lat="45.85106" lon="4.37195">
        <ele>926</ele>
        <time>2016-05-19T09:54:40.197Z</time>
      </trkpt>
      <trkpt lat="45.85102" lon="4.37206">
        <ele>926</ele>
        <time>2016-05-19T09:54:53.215Z</time>
      </trkpt>
      <trkpt lat="45.85102" lon="4.37207">
        <ele>926</ele>
        <time>2016-05-19T09:54:54.22Z</time>
      </trkpt>
      <trkpt lat="45.85098" lon="4.37218">
        <ele>926</ele>
        <time>2016-05-19T09:55:09.207Z</time>
      </trkpt>
      <trkpt lat="45.85098" lon="4.3722">
        <ele>926</ele>
        <time>2016-05-19T09:55:10.216Z</time>
      </trkpt>
      <trkpt lat="45.85095" lon="4.37231">
        <ele>926</ele>
        <time>2016-05-19T09:55:23.216Z</time>
      </trkpt>
      <trkpt lat="45.85094" lon="4.37233">
        <ele>926</ele>
        <time>2016-05-19T09:55:24.214Z</time>
      </trkpt>
      <trkpt lat="45.8509" lon="4.37244">
        <ele>925</ele>
        <time>2016-05-19T09:55:31.209Z</time>
      </trkpt>
      <trkpt lat="45.8509" lon="4.37245">
        <ele>925</ele>
        <time>2016-05-19T09:55:32.203Z</time>
      </trkpt>
      <trkpt lat="45.85089" lon="4.37257">
        <ele>926</ele>
        <time>2016-05-19T09:55:39.216Z</time>
      </trkpt>
      <trkpt lat="45.85088" lon="4.37258">
        <ele>926</ele>
        <time>2016-05-19T09:55:40.214Z</time>
      </trkpt>
      <trkpt lat="45.85084" lon="4.37269">
        <ele>927</ele>
        <time>2016-05-19T09:55:49.219Z</time>
      </trkpt>
      <trkpt lat="45.85084" lon="4.3727">
        <ele>928</ele>
        <time>2016-05-19T09:55:50.214Z</time>
      </trkpt>
      <trkpt lat="45.8508" lon="4.37282">
        <ele>926</ele>
        <time>2016-05-19T09:56:01.204Z</time>
      </trkpt>
      <trkpt lat="45.8508" lon="4.37282">
        <ele>926</ele>
        <time>2016-05-19T09:56:02.21Z</time>
      </trkpt>
      <trkpt lat="45.85074" lon="4.37292">
        <ele>926</ele>
        <time>2016-05-19T09:56:12.215Z</time>
      </trkpt>
      <trkpt lat="45.85074" lon="4.37293">
        <ele>926</ele>
        <time>2016-05-19T09:56:13.211Z</time>
      </trkpt>
      <trkpt lat="45.85071" lon="4.37303">
        <ele>927</ele>
        <time>2016-05-19T09:56:22.212Z</time>
      </trkpt>
      <trkpt lat="45.8507" lon="4.37305">
        <ele>928</ele>
        <time>2016-05-19T09:56:23.214Z</time>
      </trkpt>
      <trkpt lat="45.85066" lon="4.37315">
        <ele>928</ele>
        <time>2016-05-19T09:56:32.208Z</time>
      </trkpt>
      <trkpt lat="45.85066" lon="4.37317">
        <ele>929</ele>
        <time>2016-05-19T09:56:33.21Z</time>
      </trkpt>
      <trkpt lat="45.85065" lon="4.37328">
        <ele>930</ele>
        <time>2016-05-19T09:56:42.217Z</time>
      </trkpt>
      <trkpt lat="45.85064" lon="4.37329">
        <ele>930</ele>
        <time>2016-05-19T09:56:43.209Z</time>
      </trkpt>
      <trkpt lat="45.85061" lon="4.37341">
        <ele>936</ele>
        <time>2016-05-19T09:56:54.215Z</time>
      </trkpt>
      <trkpt lat="45.85061" lon="4.37341">
        <ele>936</ele>
        <time>2016-05-19T09:56:55.22Z</time>
      </trkpt>
      <trkpt lat="45.85055" lon="4.37351">
        <ele>937</ele>
        <time>2016-05-19T09:57:10.213Z</time>
      </trkpt>
      <trkpt lat="45.85055" lon="4.37351">
        <ele>937</ele>
        <time>2016-05-19T09:57:11.214Z</time>
      </trkpt>
      <trkpt lat="45.8505" lon="4.37358">
        <ele>937</ele>
        <time>2016-05-19T09:57:19.23Z</time>
      </trkpt>
      <trkpt lat="45.85048" lon="4.3736">
        <ele>937</ele>
        <time>2016-05-19T09:57:20.218Z</time>
      </trkpt>
      <trkpt lat="45.85044" lon="4.3737">
        <ele>938</ele>
        <time>2016-05-19T09:57:24.218Z</time>
      </trkpt>
      <trkpt lat="45.85043" lon="4.37373">
        <ele>938</ele>
        <time>2016-05-19T09:57:25.213Z</time>
      </trkpt>
      <trkpt lat="45.85037" lon="4.37381">
        <ele>939</ele>
        <time>2016-05-19T09:57:33.216Z</time>
      </trkpt>
      <trkpt lat="45.85036" lon="4.37382">
        <ele>939</ele>
        <time>2016-05-19T09:57:34.201Z</time>
      </trkpt>
      <trkpt lat="45.8503" lon="4.37392">
        <ele>940</ele>
        <time>2016-05-19T09:57:41.217Z</time>
      </trkpt>
      <trkpt lat="45.85029" lon="4.37394">
        <ele>940</ele>
        <time>2016-05-19T09:57:42.216Z</time>
      </trkpt>
      <trkpt lat="45.85024" lon="4.37404">
        <ele>941</ele>
        <time>2016-05-19T09:57:54.208Z</time>
      </trkpt>
      <trkpt lat="45.85023" lon="4.37404">
        <ele>941</ele>
        <time>2016-05-19T09:57:55.213Z</time>
      </trkpt>
      <trkpt lat="45.85019" lon="4.37414">
        <ele>943</ele>
        <time>2016-05-19T09:58:03.216Z</time>
      </trkpt>
      <trkpt lat="45.85018" lon="4.37416">
        <ele>943</ele>
        <time>2016-05-19T09:58:04.213Z</time>
      </trkpt>
      <trkpt lat="45.85014" lon="4.37427">
        <ele>949</ele>
        <time>2016-05-19T09:58:16.228Z</time>
      </trkpt>
      <trkpt lat="45.85013" lon="4.37428">
        <ele>949</ele>
        <time>2016-05-19T09:58:17.216Z</time>
      </trkpt>
      <trkpt lat="45.85007" lon="4.37437">
        <ele>949</ele>
        <time>2016-05-19T09:58:28.204Z</time>
      </trkpt>
      <trkpt lat="45.85006" lon="4.37438">
        <ele>949</ele>
        <time>2016-05-19T09:58:29.209Z</time>
      </trkpt>
      <trkpt lat="45.85" lon="4.37447">
        <ele>950</ele>
        <time>2016-05-19T09:58:38.202Z</time>
      </trkpt>
      <trkpt lat="45.84999" lon="4.37448">
        <ele>954</ele>
        <time>2016-05-19T09:58:39.211Z</time>
      </trkpt>
      <trkpt lat="45.84994" lon="4.37456">
        <ele>955</ele>
        <time>2016-05-19T09:58:52.216Z</time>
      </trkpt>
      <trkpt lat="45.84993" lon="4.37457">
        <ele>955</ele>
        <time>2016-05-19T09:58:53.219Z</time>
      </trkpt>
      <trkpt lat="45.8499" lon="4.37467">
        <ele>956</ele>
        <time>2016-05-19T09:59:00.215Z</time>
      </trkpt>
      <trkpt lat="45.84989" lon="4.37469">
        <ele>956</ele>
        <time>2016-05-19T09:59:01.204Z</time>
      </trkpt>
      <trkpt lat="45.84984" lon="4.37479">
        <ele>957</ele>
        <time>2016-05-19T09:59:07.218Z</time>
      </trkpt>
      <trkpt lat="45.84984" lon="4.37481">
        <ele>957</ele>
        <time>2016-05-19T09:59:08.206Z</time>
      </trkpt>
      <trkpt lat="45.84978" lon="4.3749">
        <ele>958</ele>
        <time>2016-05-19T09:59:15.215Z</time>
      </trkpt>
      <trkpt lat="45.84978" lon="4.37491">
        <ele>958</ele>
        <time>2016-05-19T09:59:16.215Z</time>
      </trkpt>
      <trkpt lat="45.84972" lon="4.37501">
        <ele>964</ele>
        <time>2016-05-19T09:59:26.212Z</time>
      </trkpt>
      <trkpt lat="45.84971" lon="4.37502">
        <ele>964</ele>
        <time>2016-05-19T09:59:27.21Z</time>
      </trkpt>
      <trkpt lat="45.84965" lon="4.3751">
        <ele>965</ele>
        <time>2016-05-19T09:59:33.216Z</time>
      </trkpt>
      <trkpt lat="45.84964" lon="4.37511">
        <ele>965</ele>
        <time>2016-05-19T09:59:34.217Z</time>
      </trkpt>
      <trkpt lat="45.84957" lon="4.37519">
        <ele>965</ele>
        <time>2016-05-19T09:59:42.208Z</time>
      </trkpt>
      <trkpt lat="45.84957" lon="4.3752">
        <ele>965</ele>
        <time>2016-05-19T09:59:43.224Z</time>
      </trkpt>
      <trkpt lat="45.84952" lon="4.37531">
        <ele>966</ele>
        <time>2016-05-19T09:59:52.209Z</time>
      </trkpt>
      <trkpt lat="45.84952" lon="4.37532">
        <ele>966</ele>
        <time>2016-05-19T09:59:53.216Z</time>
      </trkpt>
      <trkpt lat="45.84947" lon="4.37541">
        <ele>966</ele>
        <time>2016-05-19T10:00:00.215Z</time>
      </trkpt>
      <trkpt lat="45.84946" lon="4.37543">
        <ele>966</ele>
        <time>2016-05-19T10:00:01.215Z</time>
      </trkpt>
      <trkpt lat="45.84941" lon="4.37552">
        <ele>967</ele>
        <time>2016-05-19T10:00:07.194Z</time>
      </trkpt>
      <trkpt lat="45.84941" lon="4.37554">
        <ele>967</ele>
        <time>2016-05-19T10:00:08.192Z</time>
      </trkpt>
      <trkpt lat="45.84936" lon="4.37564">
        <ele>967</ele>
        <time>2016-05-19T10:00:14.219Z</time>
      </trkpt>
      <trkpt lat="45.84936" lon="4.37565">
        <ele>968</ele>
        <time>2016-05-19T10:00:15.207Z</time>
      </trkpt>
      <trkpt lat="45.84931" lon="4.37577">
        <ele>969</ele>
        <time>2016-05-19T10:00:21.217Z</time>
      </trkpt>
      <trkpt lat="45.84931" lon="4.37578">
        <ele>969</ele>
        <time>2016-05-19T10:00:22.197Z</time>
      </trkpt>
      <trkpt lat="45.84926" lon="4.37589">
        <ele>971</ele>
        <time>2016-05-19T10:00:32.21Z</time>
      </trkpt>
      <trkpt lat="45.84926" lon="4.37589">
        <ele>971</ele>
        <time>2016-05-19T10:00:33.216Z</time>
      </trkpt>
      <trkpt lat="45.84919" lon="4.37597">
        <ele>971</ele>
        <time>2016-05-19T10:00:56.216Z</time>
      </trkpt>
      <trkpt lat="45.84919" lon="4.37598">
        <ele>971</ele>
        <time>2016-05-19T10:00:57.22Z</time>
      </trkpt>
      <trkpt lat="45.84918" lon="4.3761">
        <ele>972</ele>
        <time>2016-05-19T10:01:52.215Z</time>
      </trkpt>
      <trkpt lat="45.84918" lon="4.3761">
        <ele>972</ele>
        <time>2016-05-19T10:01:53.212Z</time>
      </trkpt>
      <trkpt lat="45.84923" lon="4.3762">
        <ele>972</ele>
        <time>2016-05-19T10:02:02.215Z</time>
      </trkpt>
      <trkpt lat="45.84923" lon="4.37622">
        <ele>972</ele>
        <time>2016-05-19T10:02:03.217Z</time>
      </trkpt>
      <trkpt lat="45.84931" lon="4.37627">
        <ele>972</ele>
        <time>2016-05-19T10:02:30.212Z</time>
      </trkpt>
      <trkpt lat="45.84932" lon="4.37627">
        <ele>972</ele>
        <time>2016-05-19T10:02:31.213Z</time>
      </trkpt>
      <trkpt lat="45.84938" lon="4.37635">
        <ele>972</ele>
        <time>2016-05-19T10:04:11.213Z</time>
      </trkpt>
      <trkpt lat="45.84939" lon="4.37636">
        <ele>972</ele>
        <time>2016-05-19T10:04:12.205Z</time>
      </trkpt>
      <trkpt lat="45.84946" lon="4.37644">
        <ele>972</ele>
        <time>2016-05-19T10:04:18.204Z</time>
      </trkpt>
      <trkpt lat="45.84947" lon="4.37645">
        <ele>973</ele>
        <time>2016-05-19T10:04:19.218Z</time>
      </trkpt>
      <trkpt lat="45.84948" lon="4.37658">
        <ele>973</ele>
        <time>2016-05-19T10:04:34.216Z</time>
      </trkpt>
      <trkpt lat="45.84949" lon="4.37658">
        <ele>973</ele>
        <time>2016-05-19T10:04:35.214Z</time>
      </trkpt>
      <trkpt lat="45.84957" lon="4.37661">
        <ele>973</ele>
        <time>2016-05-19T10:04:45.217Z</time>
      </trkpt>
      <trkpt lat="45.84957" lon="4.37661">
        <ele>973</ele>
        <time>2016-05-19T10:04:46.205Z</time>
      </trkpt>
      <trkpt lat="45.84965" lon="4.37666">
        <ele>972</ele>
        <time>2016-05-19T10:05:02.202Z</time>
      </trkpt>
      <trkpt lat="45.84966" lon="4.37666">
        <ele>972</ele>
        <time>2016-05-19T10:05:03.225Z</time>
      </trkpt>
      <trkpt lat="45.84973" lon="4.37675">
        <ele>976</ele>
        <time>2016-05-19T10:05:12.209Z</time>
      </trkpt>
      <trkpt lat="45.84974" lon="4.37676">
        <ele>976</ele>
        <time>2016-05-19T10:05:13.207Z</time>
      </trkpt>
      <trkpt lat="45.84979" lon="4.37684">
        <ele>976</ele>
        <time>2016-05-19T10:05:19.227Z</time>
      </trkpt>
      <trkpt lat="45.84982" lon="4.37685">
        <ele>976</ele>
        <time>2016-05-19T10:05:20.216Z</time>
      </trkpt>
      <trkpt lat="45.84986" lon="4.37687">
        <ele>976</ele>
        <time>2016-05-19T10:05:22.202Z</time>
      </trkpt>
      <trkpt lat="45.8499" lon="4.37689">
        <ele>976</ele>
        <time>2016-05-19T10:05:23.208Z</time>
      </trkpt>
      <trkpt lat="45.84998" lon="4.3769">
        <ele>976</ele>
        <time>2016-05-19T10:05:28.225Z</time>
      </trkpt>
      <trkpt lat="45.85" lon="4.3769">
        <ele>976</ele>
        <time>2016-05-19T10:05:29.225Z</time>
      </trkpt>
      <trkpt lat="45.85006" lon="4.37698">
        <ele>976</ele>
        <time>2016-05-19T10:05:38.205Z</time>
      </trkpt>
      <trkpt lat="45.85007" lon="4.37698">
        <ele>976</ele>
        <time>2016-05-19T10:05:39.214Z</time>
      </trkpt>
      <trkpt lat="45.85012" lon="4.37709">
        <ele>977</ele>
        <time>2016-05-19T10:05:52.204Z</time>
      </trkpt>
      <trkpt lat="45.85012" lon="4.3771">
        <ele>977</ele>
        <time>2016-05-19T10:05:53.209Z</time>
      </trkpt>
      <trkpt lat="45.85018" lon="4.3772">
        <ele>978</ele>
        <time>2016-05-19T10:05:59.223Z</time>
      </trkpt>
      <trkpt lat="45.85019" lon="4.37721">
        <ele>978</ele>
        <time>2016-05-19T10:06:00.228Z</time>
      </trkpt>
      <trkpt lat="45.85025" lon="4.37731">
        <ele>979</ele>
        <time>2016-05-19T10:06:06.215Z</time>
      </trkpt>
      <trkpt lat="45.85025" lon="4.37732">
        <ele>979</ele>
        <time>2016-05-19T10:06:07.198Z</time>
      </trkpt>
      <trkpt lat="45.85028" lon="4.37743">
        <ele>979</ele>
        <time>2016-05-19T10:06:15.212Z</time>
      </trkpt>
      <trkpt lat="45.85029" lon="4.37745">
        <ele>979</ele>
        <time>2016-05-19T10:06:16.201Z</time>
      </trkpt>
      <trkpt lat="45.85031" lon="4.37757">
        <ele>986</ele>
        <time>2016-05-19T10:06:23.227Z</time>
      </trkpt>
      <trkpt lat="45.85031" lon="4.37758">
        <ele>986</ele>
        <time>2016-05-19T10:06:24.215Z</time>
      </trkpt>
      <trkpt lat="45.85034" lon="4.37769">
        <ele>986</ele>
        <time>2016-05-19T10:06:33.21Z</time>
      </trkpt>
      <trkpt lat="45.85034" lon="4.37771">
        <ele>986</ele>
        <time>2016-05-19T10:06:34.21Z</time>
      </trkpt>
      <trkpt lat="45.85035" lon="4.37783">
        <ele>987</ele>
        <time>2016-05-19T10:06:43.228Z</time>
      </trkpt>
      <trkpt lat="45.85034" lon="4.37785">
        <ele>987</ele>
        <time>2016-05-19T10:06:44.212Z</time>
      </trkpt>
      <trkpt lat="45.85034" lon="4.37796">
        <ele>988</ele>
        <time>2016-05-19T10:06:57.205Z</time>
      </trkpt>
      <trkpt lat="45.85034" lon="4.37798">
        <ele>988</ele>
        <time>2016-05-19T10:06:58.195Z</time>
      </trkpt>
      <trkpt lat="45.85034" lon="4.3781">
        <ele>989</ele>
        <time>2016-05-19T10:07:06.212Z</time>
      </trkpt>
      <trkpt lat="45.85034" lon="4.37812">
        <ele>989</ele>
        <time>2016-05-19T10:07:07.211Z</time>
      </trkpt>
      <trkpt lat="45.85037" lon="4.37824">
        <ele>989</ele>
        <time>2016-05-19T10:07:17.226Z</time>
      </trkpt>
      <trkpt lat="45.85037" lon="4.37825">
        <ele>989</ele>
        <time>2016-05-19T10:07:18.219Z</time>
      </trkpt>
      <trkpt lat="45.85042" lon="4.37835">
        <ele>995</ele>
        <time>2016-05-19T10:07:26.224Z</time>
      </trkpt>
      <trkpt lat="45.85042" lon="4.37836">
        <ele>995</ele>
        <time>2016-05-19T10:07:27.217Z</time>
      </trkpt>
      <trkpt lat="45.85044" lon="4.37848">
        <ele>995</ele>
        <time>2016-05-19T10:07:35.213Z</time>
      </trkpt>
      <trkpt lat="45.85044" lon="4.37849">
        <ele>995</ele>
        <time>2016-05-19T10:07:36.215Z</time>
      </trkpt>
      <trkpt lat="45.85045" lon="4.37862">
        <ele>995</ele>
        <time>2016-05-19T10:07:44.225Z</time>
      </trkpt>
      <trkpt lat="45.85045" lon="4.37862">
        <ele>995</ele>
        <time>2016-05-19T10:07:45.217Z</time>
      </trkpt>
      <trkpt lat="45.85047" lon="4.37875">
        <ele>996</ele>
        <time>2016-05-19T10:08:00.218Z</time>
      </trkpt>
      <trkpt lat="45.85047" lon="4.37876">
        <ele>996</ele>
        <time>2016-05-19T10:08:01.213Z</time>
      </trkpt>
      <trkpt lat="45.85048" lon="4.37886">
        <ele>996</ele>
        <time>2016-05-19T10:08:08.228Z</time>
      </trkpt>
      <trkpt lat="45.85049" lon="4.37889">
        <ele>996</ele>
        <time>2016-05-19T10:08:09.211Z</time>
      </trkpt>
      <trkpt lat="45.85051" lon="4.37901">
        <ele>996</ele>
        <time>2016-05-19T10:08:14.202Z</time>
      </trkpt>
      <trkpt lat="45.85052" lon="4.37904">
        <ele>996</ele>
        <time>2016-05-19T10:08:15.2Z</time>
      </trkpt>
      <trkpt lat="45.85055" lon="4.37915">
        <ele>997</ele>
        <time>2016-05-19T10:08:21.213Z</time>
      </trkpt>
      <trkpt lat="45.85055" lon="4.37916">
        <ele>997</ele>
        <time>2016-05-19T10:08:22.219Z</time>
      </trkpt>
      <trkpt lat="45.85055" lon="4.37927">
        <ele>998</ele>
        <time>2016-05-19T10:08:33.206Z</time>
      </trkpt>
      <trkpt lat="45.85055" lon="4.37929">
        <ele>998</ele>
        <time>2016-05-19T10:08:34.199Z</time>
      </trkpt>
      <trkpt lat="45.85058" lon="4.37941">
        <ele>998</ele>
        <time>2016-05-19T10:08:45.217Z</time>
      </trkpt>
      <trkpt lat="45.85058" lon="4.37942">
        <ele>998</ele>
        <time>2016-05-19T10:08:46.208Z</time>
      </trkpt>
      <trkpt lat="45.85059" lon="4.37955">
        <ele>998</ele>
        <time>2016-05-19T10:08:54.218Z</time>
      </trkpt>
      <trkpt lat="45.8506" lon="4.37959">
        <ele>998</ele>
        <time>2016-05-19T10:08:55.205Z</time>
      </trkpt>
      <trkpt lat="45.85063" lon="4.3797">
        <ele>998</ele>
        <time>2016-05-19T10:09:04.207Z</time>
      </trkpt>
      <trkpt lat="45.85064" lon="4.37973">
        <ele>998</ele>
        <time>2016-05-19T10:09:05.217Z</time>
      </trkpt>
      <trkpt lat="45.85065" lon="4.37985">
        <ele>998</ele>
        <time>2016-05-19T10:09:10.215Z</time>
      </trkpt>
      <trkpt lat="45.85065" lon="4.37988">
        <ele>998</ele>
        <time>2016-05-19T10:09:11.217Z</time>
      </trkpt>
      <trkpt lat="45.85065" lon="4.38">
        <ele>999</ele>
        <time>2016-05-19T10:09:27.209Z</time>
      </trkpt>
      <trkpt lat="45.85065" lon="4.38001">
        <ele>999</ele>
        <time>2016-05-19T10:09:28.216Z</time>
      </trkpt>
      <trkpt lat="45.8507" lon="4.38009">
        <ele>999</ele>
        <time>2016-05-19T10:09:34.221Z</time>
      </trkpt>
      <trkpt lat="45.85072" lon="4.38012">
        <ele>999</ele>
        <time>2016-05-19T10:09:35.227Z</time>
      </trkpt>
      <trkpt lat="45.85076" lon="4.38022">
        <ele>999</ele>
        <time>2016-05-19T10:09:39.204Z</time>
      </trkpt>
      <trkpt lat="45.85079" lon="4.38025">
        <ele>999</ele>
        <time>2016-05-19T10:09:40.215Z</time>
      </trkpt>
      <trkpt lat="45.85077" lon="4.38038">
        <ele>1000</ele>
        <time>2016-05-19T10:09:53.213Z</time>
      </trkpt>
      <trkpt lat="45.85077" lon="4.38039">
        <ele>1000</ele>
        <time>2016-05-19T10:09:54.211Z</time>
      </trkpt>
      <trkpt lat="45.85075" lon="4.38052">
        <ele>1000</ele>
        <time>2016-05-19T10:10:07.215Z</time>
      </trkpt>
      <trkpt lat="45.85075" lon="4.38052">
        <ele>1000</ele>
        <time>2016-05-19T10:10:08.224Z</time>
      </trkpt>
      <trkpt lat="45.85068" lon="4.3806">
        <ele>1000</ele>
        <time>2016-05-19T10:10:19.217Z</time>
      </trkpt>
      <trkpt lat="45.85067" lon="4.3806">
        <ele>1000</ele>
        <time>2016-05-19T10:10:20.215Z</time>
      </trkpt>
      <trkpt lat="45.85059" lon="4.38064">
        <ele>1000</ele>
        <time>2016-05-19T10:10:30.211Z</time>
      </trkpt>
      <trkpt lat="45.85058" lon="4.38064">
        <ele>1000</ele>
        <time>2016-05-19T10:10:31.211Z</time>
      </trkpt>
      <trkpt lat="45.85051" lon="4.38071">
        <ele>1000</ele>
        <time>2016-05-19T10:11:48.207Z</time>
      </trkpt>
      <trkpt lat="45.8505" lon="4.38071">
        <ele>1000</ele>
        <time>2016-05-19T10:11:49.211Z</time>
      </trkpt>
      <trkpt lat="45.85059" lon="4.38069">
        <ele>1000</ele>
        <time>2016-05-19T10:42:17.198Z</time>
      </trkpt>
      <trkpt lat="45.8506" lon="4.38069">
        <ele>1001</ele>
        <time>2016-05-19T10:42:18.205Z</time>
      </trkpt>
      <trkpt lat="45.85067" lon="4.38063">
        <ele>1000</ele>
        <time>2016-05-19T10:42:35.215Z</time>
      </trkpt>
      <trkpt lat="45.85068" lon="4.38063">
        <ele>1000</ele>
        <time>2016-05-19T10:42:36.207Z</time>
      </trkpt>
      <trkpt lat="45.85076" lon="4.38062">
        <ele>1001</ele>
        <time>2016-05-19T10:42:44.21Z</time>
      </trkpt>
      <trkpt lat="45.85077" lon="4.38063">
        <ele>1001</ele>
        <time>2016-05-19T10:42:45.205Z</time>
      </trkpt>
      <trkpt lat="45.85086" lon="4.38065">
        <ele>997</ele>
        <time>2016-05-19T10:42:55.212Z</time>
      </trkpt>
      <trkpt lat="45.85086" lon="4.38065">
        <ele>997</ele>
        <time>2016-05-19T10:42:56.203Z</time>
      </trkpt>
      <trkpt lat="45.85095" lon="4.38066">
        <ele>997</ele>
        <time>2016-05-19T10:43:06.197Z</time>
      </trkpt>
      <trkpt lat="45.85096" lon="4.38067">
        <ele>997</ele>
        <time>2016-05-19T10:43:07.207Z</time>
      </trkpt>
      <trkpt lat="45.85102" lon="4.38075">
        <ele>997</ele>
        <time>2016-05-19T10:43:17.196Z</time>
      </trkpt>
      <trkpt lat="45.85103" lon="4.38076">
        <ele>997</ele>
        <time>2016-05-19T10:43:18.196Z</time>
      </trkpt>
      <trkpt lat="45.8511" lon="4.38082">
        <ele>996</ele>
        <time>2016-05-19T10:45:00.208Z</time>
      </trkpt>
      <trkpt lat="45.85111" lon="4.38082">
        <ele>995</ele>
        <time>2016-05-19T10:45:01.214Z</time>
      </trkpt>
      <trkpt lat="45.85103" lon="4.38075">
        <ele>996</ele>
        <time>2016-05-19T10:59:13.206Z</time>
      </trkpt>
      <trkpt lat="45.85103" lon="4.38075">
        <ele>996</ele>
        <time>2016-05-19T10:59:14.214Z</time>
      </trkpt>
      <trkpt lat="45.85098" lon="4.38065">
        <ele>996</ele>
        <time>2016-05-19T10:59:37.209Z</time>
      </trkpt>
      <trkpt lat="45.85097" lon="4.38065">
        <ele>997</ele>
        <time>2016-05-19T10:59:38.207Z</time>
      </trkpt>
      <trkpt lat="45.85089" lon="4.38062">
        <ele>997</ele>
        <time>2016-05-19T10:59:57.206Z</time>
      </trkpt>
      <trkpt lat="45.85088" lon="4.38061">
        <ele>997</ele>
        <time>2016-05-19T10:59:58.207Z</time>
      </trkpt>
      <trkpt lat="45.8508" lon="4.38061">
        <ele>1001</ele>
        <time>2016-05-19T11:00:10.197Z</time>
      </trkpt>
      <trkpt lat="45.85079" lon="4.38061">
        <ele>1001</ele>
        <time>2016-05-19T11:00:11.196Z</time>
      </trkpt>
      <trkpt lat="45.85071" lon="4.38057">
        <ele>1000</ele>
        <time>2016-05-19T11:00:21.213Z</time>
      </trkpt>
      <trkpt lat="45.8507" lon="4.38056">
        <ele>1000</ele>
        <time>2016-05-19T11:00:22.2Z</time>
      </trkpt>
      <trkpt lat="45.85067" lon="4.38046">
        <ele>1000</ele>
        <time>2016-05-19T11:00:30.203Z</time>
      </trkpt>
      <trkpt lat="45.85066" lon="4.38044">
        <ele>1000</ele>
        <time>2016-05-19T11:00:31.203Z</time>
      </trkpt>
      <trkpt lat="45.85065" lon="4.38033">
        <ele>1000</ele>
        <time>2016-05-19T11:00:39.202Z</time>
      </trkpt>
      <trkpt lat="45.85064" lon="4.38032">
        <ele>1000</ele>
        <time>2016-05-19T11:00:40.205Z</time>
      </trkpt>
      <trkpt lat="45.85058" lon="4.38023">
        <ele>999</ele>
        <time>2016-05-19T11:00:57.205Z</time>
      </trkpt>
      <trkpt lat="45.85057" lon="4.38023">
        <ele>999</ele>
        <time>2016-05-19T11:00:58.255Z</time>
      </trkpt>
      <trkpt lat="45.85049" lon="4.38018">
        <ele>999</ele>
        <time>2016-05-19T11:01:08.199Z</time>
      </trkpt>
      <trkpt lat="45.85049" lon="4.38017">
        <ele>999</ele>
        <time>2016-05-19T11:01:09.209Z</time>
      </trkpt>
      <trkpt lat="45.85041" lon="4.3801">
        <ele>999</ele>
        <time>2016-05-19T11:01:21.211Z</time>
      </trkpt>
      <trkpt lat="45.8504" lon="4.3801">
        <ele>999</ele>
        <time>2016-05-19T11:01:22.209Z</time>
      </trkpt>
      <trkpt lat="45.85032" lon="4.38009">
        <ele>999</ele>
        <time>2016-05-19T11:01:29.208Z</time>
      </trkpt>
      <trkpt lat="45.8503" lon="4.3801">
        <ele>999</ele>
        <time>2016-05-19T11:01:30.206Z</time>
      </trkpt>
      <trkpt lat="45.85024" lon="4.38002">
        <ele>999</ele>
        <time>2016-05-19T11:01:39.208Z</time>
      </trkpt>
      <trkpt lat="45.85023" lon="4.38">
        <ele>999</ele>
        <time>2016-05-19T11:01:40.214Z</time>
      </trkpt>
      <trkpt lat="45.85015" lon="4.37995">
        <ele>998</ele>
        <time>2016-05-19T11:01:45.215Z</time>
      </trkpt>
      <trkpt lat="45.85014" lon="4.37994">
        <ele>998</ele>
        <time>2016-05-19T11:01:46.216Z</time>
      </trkpt>
      <trkpt lat="45.85009" lon="4.37985">
        <ele>998</ele>
        <time>2016-05-19T11:01:52.202Z</time>
      </trkpt>
      <trkpt lat="45.85008" lon="4.37983">
        <ele>998</ele>
        <time>2016-05-19T11:01:53.198Z</time>
      </trkpt>
      <trkpt lat="45.85002" lon="4.37975">
        <ele>998</ele>
        <time>2016-05-19T11:02:01.212Z</time>
      </trkpt>
      <trkpt lat="45.85001" lon="4.37974">
        <ele>998</ele>
        <time>2016-05-19T11:02:02.21Z</time>
      </trkpt>
      <trkpt lat="45.84995" lon="4.37967">
        <ele>994</ele>
        <time>2016-05-19T11:02:10.221Z</time>
      </trkpt>
      <trkpt lat="45.84994" lon="4.37966">
        <ele>994</ele>
        <time>2016-05-19T11:02:11.208Z</time>
      </trkpt>
      <trkpt lat="45.84986" lon="4.37961">
        <ele>993</ele>
        <time>2016-05-19T11:02:18.221Z</time>
      </trkpt>
      <trkpt lat="45.84984" lon="4.3796">
        <ele>993</ele>
        <time>2016-05-19T11:02:19.22Z</time>
      </trkpt>
      <trkpt lat="45.84976" lon="4.37956">
        <ele>993</ele>
        <time>2016-05-19T11:02:25.244Z</time>
      </trkpt>
      <trkpt lat="45.84975" lon="4.37955">
        <ele>993</ele>
        <time>2016-05-19T11:02:26.223Z</time>
      </trkpt>
      <trkpt lat="45.84968" lon="4.37949">
        <ele>992</ele>
        <time>2016-05-19T11:02:32.208Z</time>
      </trkpt>
      <trkpt lat="45.84967" lon="4.37947">
        <ele>992</ele>
        <time>2016-05-19T11:02:33.199Z</time>
      </trkpt>
      <trkpt lat="45.84961" lon="4.3794">
        <ele>992</ele>
        <time>2016-05-19T11:02:40.209Z</time>
      </trkpt>
      <trkpt lat="45.84961" lon="4.37938">
        <ele>991</ele>
        <time>2016-05-19T11:02:41.213Z</time>
      </trkpt>
      <trkpt lat="45.84957" lon="4.37927">
        <ele>991</ele>
        <time>2016-05-19T11:02:48.225Z</time>
      </trkpt>
      <trkpt lat="45.84957" lon="4.37926">
        <ele>991</ele>
        <time>2016-05-19T11:02:49.221Z</time>
      </trkpt>
      <trkpt lat="45.84953" lon="4.37915">
        <ele>989</ele>
        <time>2016-05-19T11:02:56.218Z</time>
      </trkpt>
      <trkpt lat="45.84953" lon="4.37913">
        <ele>989</ele>
        <time>2016-05-19T11:02:57.208Z</time>
      </trkpt>
      <trkpt lat="45.84949" lon="4.37903">
        <ele>989</ele>
        <time>2016-05-19T11:03:04.207Z</time>
      </trkpt>
      <trkpt lat="45.84948" lon="4.37901">
        <ele>989</ele>
        <time>2016-05-19T11:03:05.212Z</time>
      </trkpt>
      <trkpt lat="45.84946" lon="4.3789">
        <ele>988</ele>
        <time>2016-05-19T11:03:12.208Z</time>
      </trkpt>
      <trkpt lat="45.84946" lon="4.37889">
        <ele>988</ele>
        <time>2016-05-19T11:03:13.222Z</time>
      </trkpt>
      <trkpt lat="45.84941" lon="4.37879">
        <ele>988</ele>
        <time>2016-05-19T11:03:20.197Z</time>
      </trkpt>
      <trkpt lat="45.8494" lon="4.37878">
        <ele>988</ele>
        <time>2016-05-19T11:03:21.196Z</time>
      </trkpt>
      <trkpt lat="45.84933" lon="4.37872">
        <ele>988</ele>
        <time>2016-05-19T11:03:28.226Z</time>
      </trkpt>
      <trkpt lat="45.84932" lon="4.3787">
        <ele>988</ele>
        <time>2016-05-19T11:03:29.224Z</time>
      </trkpt>
      <trkpt lat="45.84926" lon="4.37862">
        <ele>987</ele>
        <time>2016-05-19T11:03:36.205Z</time>
      </trkpt>
      <trkpt lat="45.84926" lon="4.3786">
        <ele>987</ele>
        <time>2016-05-19T11:03:37.221Z</time>
      </trkpt>
      <trkpt lat="45.84919" lon="4.37853">
        <ele>986</ele>
        <time>2016-05-19T11:03:44.224Z</time>
      </trkpt>
      <trkpt lat="45.84919" lon="4.37851">
        <ele>986</ele>
        <time>2016-05-19T11:03:45.219Z</time>
      </trkpt>
      <trkpt lat="45.84916" lon="4.3784">
        <ele>981</ele>
        <time>2016-05-19T11:03:52.214Z</time>
      </trkpt>
      <trkpt lat="45.84915" lon="4.37839">
        <ele>981</ele>
        <time>2016-05-19T11:03:53.223Z</time>
      </trkpt>
      <trkpt lat="45.84912" lon="4.37828">
        <ele>981</ele>
        <time>2016-05-19T11:04:00.215Z</time>
      </trkpt>
      <trkpt lat="45.84911" lon="4.37827">
        <ele>980</ele>
        <time>2016-05-19T11:04:01.22Z</time>
      </trkpt>
      <trkpt lat="45.84908" lon="4.37815">
        <ele>978</ele>
        <time>2016-05-19T11:04:08.224Z</time>
      </trkpt>
      <trkpt lat="45.84908" lon="4.37814">
        <ele>977</ele>
        <time>2016-05-19T11:04:09.219Z</time>
      </trkpt>
      <trkpt lat="45.84904" lon="4.37803">
        <ele>976</ele>
        <time>2016-05-19T11:04:16.197Z</time>
      </trkpt>
      <trkpt lat="45.84903" lon="4.37801">
        <ele>976</ele>
        <time>2016-05-19T11:04:17.195Z</time>
      </trkpt>
      <trkpt lat="45.84898" lon="4.37792">
        <ele>975</ele>
        <time>2016-05-19T11:04:24.221Z</time>
      </trkpt>
      <trkpt lat="45.84898" lon="4.37791">
        <ele>975</ele>
        <time>2016-05-19T11:04:25.21Z</time>
      </trkpt>
      <trkpt lat="45.84893" lon="4.37779">
        <ele>975</ele>
        <time>2016-05-19T11:04:33.219Z</time>
      </trkpt>
      <trkpt lat="45.84893" lon="4.37778">
        <ele>975</ele>
        <time>2016-05-19T11:04:34.22Z</time>
      </trkpt>
      <trkpt lat="45.84885" lon="4.37772">
        <ele>974</ele>
        <time>2016-05-19T11:04:44.209Z</time>
      </trkpt>
      <trkpt lat="45.84883" lon="4.37773">
        <ele>974</ele>
        <time>2016-05-19T11:04:45.214Z</time>
      </trkpt>
      <trkpt lat="45.84875" lon="4.37775">
        <ele>973</ele>
        <time>2016-05-19T11:05:23.196Z</time>
      </trkpt>
      <trkpt lat="45.84874" lon="4.37775">
        <ele>973</ele>
        <time>2016-05-19T11:05:24.206Z</time>
      </trkpt>
      <trkpt lat="45.84866" lon="4.37781">
        <ele>972</ele>
        <time>2016-05-19T11:05:34.202Z</time>
      </trkpt>
      <trkpt lat="45.84866" lon="4.37782">
        <ele>972</ele>
        <time>2016-05-19T11:05:35.221Z</time>
      </trkpt>
      <trkpt lat="45.84861" lon="4.37793">
        <ele>972</ele>
        <time>2016-05-19T11:05:47.212Z</time>
      </trkpt>
      <trkpt lat="45.84861" lon="4.37793">
        <ele>972</ele>
        <time>2016-05-19T11:05:48.198Z</time>
      </trkpt>
      <trkpt lat="45.84855" lon="4.37803">
        <ele>971</ele>
        <time>2016-05-19T11:05:54.201Z</time>
      </trkpt>
      <trkpt lat="45.84854" lon="4.37804">
        <ele>971</ele>
        <time>2016-05-19T11:05:55.205Z</time>
      </trkpt>
      <trkpt lat="45.84849" lon="4.37813">
        <ele>970</ele>
        <time>2016-05-19T11:06:01.221Z</time>
      </trkpt>
      <trkpt lat="45.84849" lon="4.37814">
        <ele>970</ele>
        <time>2016-05-19T11:06:02.205Z</time>
      </trkpt>
      <trkpt lat="45.84845" lon="4.37826">
        <ele>969</ele>
        <time>2016-05-19T11:06:11.205Z</time>
      </trkpt>
      <trkpt lat="45.84844" lon="4.37827">
        <ele>968</ele>
        <time>2016-05-19T11:06:12.204Z</time>
      </trkpt>
      <trkpt lat="45.8484" lon="4.37837">
        <ele>968</ele>
        <time>2016-05-19T11:06:19.191Z</time>
      </trkpt>
      <trkpt lat="45.84839" lon="4.37839">
        <ele>968</ele>
        <time>2016-05-19T11:06:20.195Z</time>
      </trkpt>
      <trkpt lat="45.84834" lon="4.37848">
        <ele>969</ele>
        <time>2016-05-19T11:06:28.19Z</time>
      </trkpt>
      <trkpt lat="45.84833" lon="4.37849">
        <ele>963</ele>
        <time>2016-05-19T11:06:29.213Z</time>
      </trkpt>
      <trkpt lat="45.84827" lon="4.37858">
        <ele>963</ele>
        <time>2016-05-19T11:06:35.218Z</time>
      </trkpt>
      <trkpt lat="45.84826" lon="4.37859">
        <ele>963</ele>
        <time>2016-05-19T11:06:36.215Z</time>
      </trkpt>
      <trkpt lat="45.84821" lon="4.37869">
        <ele>963</ele>
        <time>2016-05-19T11:06:42.208Z</time>
      </trkpt>
      <trkpt lat="45.8482" lon="4.37871">
        <ele>963</ele>
        <time>2016-05-19T11:06:43.209Z</time>
      </trkpt>
      <trkpt lat="45.84818" lon="4.37883">
        <ele>963</ele>
        <time>2016-05-19T11:06:51.199Z</time>
      </trkpt>
      <trkpt lat="45.84817" lon="4.37885">
        <ele>963</ele>
        <time>2016-05-19T11:06:52.207Z</time>
      </trkpt>
      <trkpt lat="45.84813" lon="4.37895">
        <ele>964</ele>
        <time>2016-05-19T11:07:00.205Z</time>
      </trkpt>
      <trkpt lat="45.84813" lon="4.37896">
        <ele>964</ele>
        <time>2016-05-19T11:07:01.209Z</time>
      </trkpt>
      <trkpt lat="45.8481" lon="4.37908">
        <ele>964</ele>
        <time>2016-05-19T11:07:08.21Z</time>
      </trkpt>
      <trkpt lat="45.8481" lon="4.3791">
        <ele>964</ele>
        <time>2016-05-19T11:07:09.225Z</time>
      </trkpt>
      <trkpt lat="45.84807" lon="4.37921">
        <ele>966</ele>
        <time>2016-05-19T11:07:17.21Z</time>
      </trkpt>
      <trkpt lat="45.84806" lon="4.37922">
        <ele>966</ele>
        <time>2016-05-19T11:07:18.198Z</time>
      </trkpt>
      <trkpt lat="45.84804" lon="4.37934">
        <ele>966</ele>
        <time>2016-05-19T11:07:26.209Z</time>
      </trkpt>
      <trkpt lat="45.84804" lon="4.37935">
        <ele>966</ele>
        <time>2016-05-19T11:07:27.229Z</time>
      </trkpt>
      <trkpt lat="45.848" lon="4.37947">
        <ele>966</ele>
        <time>2016-05-19T11:07:33.216Z</time>
      </trkpt>
      <trkpt lat="45.848" lon="4.37949">
        <ele>966</ele>
        <time>2016-05-19T11:07:34.224Z</time>
      </trkpt>
      <trkpt lat="45.84801" lon="4.37959">
        <ele>966</ele>
        <time>2016-05-19T11:07:39.21Z</time>
      </trkpt>
      <trkpt lat="45.84801" lon="4.37961">
        <ele>966</ele>
        <time>2016-05-19T11:07:40.215Z</time>
      </trkpt>
      <trkpt lat="45.848" lon="4.37973">
        <ele>966</ele>
        <time>2016-05-19T11:07:46.212Z</time>
      </trkpt>
      <trkpt lat="45.84799" lon="4.37975">
        <ele>966</ele>
        <time>2016-05-19T11:07:47.207Z</time>
      </trkpt>
      <trkpt lat="45.84794" lon="4.37984">
        <ele>966</ele>
        <time>2016-05-19T11:07:53.21Z</time>
      </trkpt>
      <trkpt lat="45.84793" lon="4.37986">
        <ele>965</ele>
        <time>2016-05-19T11:07:54.22Z</time>
      </trkpt>
      <trkpt lat="45.84792" lon="4.37997">
        <ele>965</ele>
        <time>2016-05-19T11:07:59.196Z</time>
      </trkpt>
      <trkpt lat="45.84791" lon="4.37999">
        <ele>965</ele>
        <time>2016-05-19T11:08:00.187Z</time>
      </trkpt>
      <trkpt lat="45.8479" lon="4.38011">
        <ele>964</ele>
        <time>2016-05-19T11:08:07.211Z</time>
      </trkpt>
      <trkpt lat="45.8479" lon="4.38012">
        <ele>964</ele>
        <time>2016-05-19T11:08:08.21Z</time>
      </trkpt>
      <trkpt lat="45.84788" lon="4.38023">
        <ele>963</ele>
        <time>2016-05-19T11:08:14.215Z</time>
      </trkpt>
      <trkpt lat="45.84788" lon="4.38025">
        <ele>963</ele>
        <time>2016-05-19T11:08:15.207Z</time>
      </trkpt>
      <trkpt lat="45.84786" lon="4.38037">
        <ele>962</ele>
        <time>2016-05-19T11:08:20.217Z</time>
      </trkpt>
      <trkpt lat="45.84786" lon="4.38039">
        <ele>962</ele>
        <time>2016-05-19T11:08:21.221Z</time>
      </trkpt>
      <trkpt lat="45.84784" lon="4.38052">
        <ele>962</ele>
        <time>2016-05-19T11:08:27.195Z</time>
      </trkpt>
      <trkpt lat="45.84784" lon="4.38053">
        <ele>962</ele>
        <time>2016-05-19T11:08:28.201Z</time>
      </trkpt>
      <trkpt lat="45.84783" lon="4.38066">
        <ele>961</ele>
        <time>2016-05-19T11:08:35.202Z</time>
      </trkpt>
      <trkpt lat="45.84783" lon="4.38068">
        <ele>961</ele>
        <time>2016-05-19T11:08:36.209Z</time>
      </trkpt>
      <trkpt lat="45.84781" lon="4.38079">
        <ele>960</ele>
        <time>2016-05-19T11:08:41.208Z</time>
      </trkpt>
      <trkpt lat="45.84781" lon="4.38081">
        <ele>960</ele>
        <time>2016-05-19T11:08:42.202Z</time>
      </trkpt>
      <trkpt lat="45.84778" lon="4.38093">
        <ele>958</ele>
        <time>2016-05-19T11:08:48.212Z</time>
      </trkpt>
      <trkpt lat="45.84778" lon="4.38095">
        <ele>958</ele>
        <time>2016-05-19T11:08:49.213Z</time>
      </trkpt>
      <trkpt lat="45.84777" lon="4.38106">
        <ele>958</ele>
        <time>2016-05-19T11:08:55.211Z</time>
      </trkpt>
      <trkpt lat="45.84777" lon="4.38108">
        <ele>958</ele>
        <time>2016-05-19T11:08:56.211Z</time>
      </trkpt>
      <trkpt lat="45.84776" lon="4.38119">
        <ele>958</ele>
        <time>2016-05-19T11:09:03.202Z</time>
      </trkpt>
      <trkpt lat="45.84776" lon="4.38121">
        <ele>958</ele>
        <time>2016-05-19T11:09:04.206Z</time>
      </trkpt>
      <trkpt lat="45.84776" lon="4.38133">
        <ele>958</ele>
        <time>2016-05-19T11:09:11.213Z</time>
      </trkpt>
      <trkpt lat="45.84776" lon="4.38134">
        <ele>958</ele>
        <time>2016-05-19T11:09:12.195Z</time>
      </trkpt>
      <trkpt lat="45.84778" lon="4.38146">
        <ele>958</ele>
        <time>2016-05-19T11:09:19.212Z</time>
      </trkpt>
      <trkpt lat="45.84778" lon="4.38148">
        <ele>958</ele>
        <time>2016-05-19T11:09:20.215Z</time>
      </trkpt>
      <trkpt lat="45.84779" lon="4.3816">
        <ele>958</ele>
        <time>2016-05-19T11:09:26.206Z</time>
      </trkpt>
      <trkpt lat="45.84779" lon="4.38162">
        <ele>958</ele>
        <time>2016-05-19T11:09:27.21Z</time>
      </trkpt>
      <trkpt lat="45.84781" lon="4.38174">
        <ele>956</ele>
        <time>2016-05-19T11:09:32.196Z</time>
      </trkpt>
      <trkpt lat="45.84782" lon="4.38176">
        <ele>956</ele>
        <time>2016-05-19T11:09:33.2Z</time>
      </trkpt>
      <trkpt lat="45.84784" lon="4.38187">
        <ele>957</ele>
        <time>2016-05-19T11:09:39.198Z</time>
      </trkpt>
      <trkpt lat="45.84784" lon="4.38189">
        <ele>957</ele>
        <time>2016-05-19T11:09:40.201Z</time>
      </trkpt>
      <trkpt lat="45.84787" lon="4.382">
        <ele>957</ele>
        <time>2016-05-19T11:09:46.211Z</time>
      </trkpt>
      <trkpt lat="45.84788" lon="4.38202">
        <ele>957</ele>
        <time>2016-05-19T11:09:47.201Z</time>
      </trkpt>
      <trkpt lat="45.84792" lon="4.38213">
        <ele>957</ele>
        <time>2016-05-19T11:09:53.2Z</time>
      </trkpt>
      <trkpt lat="45.84791" lon="4.38215">
        <ele>957</ele>
        <time>2016-05-19T11:09:54.198Z</time>
      </trkpt>
      <trkpt lat="45.84792" lon="4.38226">
        <ele>957</ele>
        <time>2016-05-19T11:10:00.207Z</time>
      </trkpt>
      <trkpt lat="45.84793" lon="4.38229">
        <ele>957</ele>
        <time>2016-05-19T11:10:01.204Z</time>
      </trkpt>
      <trkpt lat="45.84794" lon="4.38239">
        <ele>957</ele>
        <time>2016-05-19T11:10:06.206Z</time>
      </trkpt>
      <trkpt lat="45.84795" lon="4.38241">
        <ele>957</ele>
        <time>2016-05-19T11:10:07.209Z</time>
      </trkpt>
      <trkpt lat="45.84796" lon="4.38253">
        <ele>955</ele>
        <time>2016-05-19T11:10:13.208Z</time>
      </trkpt>
      <trkpt lat="45.84797" lon="4.38255">
        <ele>955</ele>
        <time>2016-05-19T11:10:14.217Z</time>
      </trkpt>
      <trkpt lat="45.84798" lon="4.38267">
        <ele>955</ele>
        <time>2016-05-19T11:10:23.2Z</time>
      </trkpt>
      <trkpt lat="45.84798" lon="4.38269">
        <ele>955</ele>
        <time>2016-05-19T11:10:24.2Z</time>
      </trkpt>
      <trkpt lat="45.848" lon="4.3828">
        <ele>955</ele>
        <time>2016-05-19T11:10:31.212Z</time>
      </trkpt>
      <trkpt lat="45.848" lon="4.38282">
        <ele>955</ele>
        <time>2016-05-19T11:10:32.204Z</time>
      </trkpt>
      <trkpt lat="45.848" lon="4.38295">
        <ele>955</ele>
        <time>2016-05-19T11:10:39.213Z</time>
      </trkpt>
      <trkpt lat="45.848" lon="4.38297">
        <ele>955</ele>
        <time>2016-05-19T11:10:40.2Z</time>
      </trkpt>
      <trkpt lat="45.848" lon="4.3831">
        <ele>955</ele>
        <time>2016-05-19T11:10:48.19Z</time>
      </trkpt>
      <trkpt lat="45.84801" lon="4.38311">
        <ele>955</ele>
        <time>2016-05-19T11:10:49.201Z</time>
      </trkpt>
      <trkpt lat="45.848" lon="4.38322">
        <ele>955</ele>
        <time>2016-05-19T11:10:56.205Z</time>
      </trkpt>
      <trkpt lat="45.848" lon="4.38324">
        <ele>955</ele>
        <time>2016-05-19T11:10:57.212Z</time>
      </trkpt>
      <trkpt lat="45.84799" lon="4.38336">
        <ele>955</ele>
        <time>2016-05-19T11:11:03.214Z</time>
      </trkpt>
      <trkpt lat="45.84799" lon="4.38337">
        <ele>955</ele>
        <time>2016-05-19T11:11:04.203Z</time>
      </trkpt>
      <trkpt lat="45.84796" lon="4.38349">
        <ele>955</ele>
        <time>2016-05-19T11:11:12.213Z</time>
      </trkpt>
      <trkpt lat="45.84796" lon="4.38351">
        <ele>955</ele>
        <time>2016-05-19T11:11:13.211Z</time>
      </trkpt>
      <trkpt lat="45.84798" lon="4.38363">
        <ele>955</ele>
        <time>2016-05-19T11:11:23.209Z</time>
      </trkpt>
      <trkpt lat="45.84798" lon="4.38364">
        <ele>955</ele>
        <time>2016-05-19T11:11:24.208Z</time>
      </trkpt>
      <trkpt lat="45.84798" lon="4.38376">
        <ele>955</ele>
        <time>2016-05-19T11:11:47.189Z</time>
      </trkpt>
      <trkpt lat="45.84797" lon="4.38377">
        <ele>955</ele>
        <time>2016-05-19T11:11:48.195Z</time>
      </trkpt>
      <trkpt lat="45.84795" lon="4.38388">
        <ele>955</ele>
        <time>2016-05-19T11:11:55.206Z</time>
      </trkpt>
      <trkpt lat="45.84794" lon="4.38389">
        <ele>955</ele>
        <time>2016-05-19T11:11:56.211Z</time>
      </trkpt>
      <trkpt lat="45.84791" lon="4.38401">
        <ele>955</ele>
        <time>2016-05-19T11:12:05.206Z</time>
      </trkpt>
      <trkpt lat="45.84791" lon="4.38402">
        <ele>955</ele>
        <time>2016-05-19T11:12:06.21Z</time>
      </trkpt>
      <trkpt lat="45.84786" lon="4.38412">
        <ele>955</ele>
        <time>2016-05-19T11:12:14.211Z</time>
      </trkpt>
      <trkpt lat="45.84785" lon="4.38413">
        <ele>954</ele>
        <time>2016-05-19T11:12:15.207Z</time>
      </trkpt>
      <trkpt lat="45.84785" lon="4.38425">
        <ele>955</ele>
        <time>2016-05-19T11:12:22.202Z</time>
      </trkpt>
      <trkpt lat="45.84786" lon="4.38426">
        <ele>955</ele>
        <time>2016-05-19T11:12:23.196Z</time>
      </trkpt>
      <trkpt lat="45.84787" lon="4.38437">
        <ele>955</ele>
        <time>2016-05-19T11:12:32.21Z</time>
      </trkpt>
      <trkpt lat="45.84787" lon="4.38439">
        <ele>955</ele>
        <time>2016-05-19T11:12:33.211Z</time>
      </trkpt>
      <trkpt lat="45.84781" lon="4.38447">
        <ele>955</ele>
        <time>2016-05-19T11:12:39.209Z</time>
      </trkpt>
      <trkpt lat="45.84781" lon="4.38449">
        <ele>955</ele>
        <time>2016-05-19T11:12:40.203Z</time>
      </trkpt>
      <trkpt lat="45.84777" lon="4.38458">
        <ele>955</ele>
        <time>2016-05-19T11:12:46.211Z</time>
      </trkpt>
      <trkpt lat="45.84776" lon="4.3846">
        <ele>955</ele>
        <time>2016-05-19T11:12:47.193Z</time>
      </trkpt>
      <trkpt lat="45.84773" lon="4.38471">
        <ele>955</ele>
        <time>2016-05-19T11:12:53.207Z</time>
      </trkpt>
      <trkpt lat="45.84772" lon="4.38473">
        <ele>955</ele>
        <time>2016-05-19T11:12:54.214Z</time>
      </trkpt>
      <trkpt lat="45.84768" lon="4.38484">
        <ele>955</ele>
        <time>2016-05-19T11:12:59.195Z</time>
      </trkpt>
      <trkpt lat="45.84767" lon="4.38486">
        <ele>955</ele>
        <time>2016-05-19T11:13:00.209Z</time>
      </trkpt>
      <trkpt lat="45.84764" lon="4.38497">
        <ele>954</ele>
        <time>2016-05-19T11:13:06.2Z</time>
      </trkpt>
      <trkpt lat="45.84764" lon="4.38499">
        <ele>954</ele>
        <time>2016-05-19T11:13:07.205Z</time>
      </trkpt>
      <trkpt lat="45.84758" lon="4.38509">
        <ele>954</ele>
        <time>2016-05-19T11:13:18.208Z</time>
      </trkpt>
      <trkpt lat="45.84758" lon="4.38511">
        <ele>954</ele>
        <time>2016-05-19T11:13:19.207Z</time>
      </trkpt>
      <trkpt lat="45.84754" lon="4.38521">
        <ele>954</ele>
        <time>2016-05-19T11:13:25.196Z</time>
      </trkpt>
      <trkpt lat="45.84754" lon="4.38523">
        <ele>954</ele>
        <time>2016-05-19T11:13:26.195Z</time>
      </trkpt>
      <trkpt lat="45.84754" lon="4.38536">
        <ele>954</ele>
        <time>2016-05-19T11:13:37.203Z</time>
      </trkpt>
      <trkpt lat="45.84754" lon="4.38538">
        <ele>954</ele>
        <time>2016-05-19T11:13:38.204Z</time>
      </trkpt>
      <trkpt lat="45.84757" lon="4.38549">
        <ele>953</ele>
        <time>2016-05-19T11:13:44.202Z</time>
      </trkpt>
      <trkpt lat="45.84757" lon="4.38552">
        <ele>953</ele>
        <time>2016-05-19T11:13:45.205Z</time>
      </trkpt>
      <trkpt lat="45.84757" lon="4.38562">
        <ele>953</ele>
        <time>2016-05-19T11:13:49.218Z</time>
      </trkpt>
      <trkpt lat="45.84757" lon="4.38565">
        <ele>952</ele>
        <time>2016-05-19T11:13:50.215Z</time>
      </trkpt>
      <trkpt lat="45.84757" lon="4.38577">
        <ele>951</ele>
        <time>2016-05-19T11:13:55.198Z</time>
      </trkpt>
      <trkpt lat="45.84757" lon="4.38579">
        <ele>951</ele>
        <time>2016-05-19T11:13:56.205Z</time>
      </trkpt>
      <trkpt lat="45.84757" lon="4.3859">
        <ele>951</ele>
        <time>2016-05-19T11:14:01.201Z</time>
      </trkpt>
      <trkpt lat="45.84757" lon="4.38592">
        <ele>951</ele>
        <time>2016-05-19T11:14:02.205Z</time>
      </trkpt>
      <trkpt lat="45.84757" lon="4.38603">
        <ele>952</ele>
        <time>2016-05-19T11:14:08.196Z</time>
      </trkpt>
      <trkpt lat="45.84757" lon="4.38605">
        <ele>952</ele>
        <time>2016-05-19T11:14:09.196Z</time>
      </trkpt>
      <trkpt lat="45.84756" lon="4.38618">
        <ele>953</ele>
        <time>2016-05-19T11:15:13.204Z</time>
      </trkpt>
      <trkpt lat="45.84755" lon="4.38618">
        <ele>953</ele>
        <time>2016-05-19T11:15:14.195Z</time>
      </trkpt>
      <trkpt lat="45.84752" lon="4.3863">
        <ele>953</ele>
        <time>2016-05-19T11:15:23.202Z</time>
      </trkpt>
      <trkpt lat="45.84752" lon="4.38631">
        <ele>952</ele>
        <time>2016-05-19T11:15:24.199Z</time>
      </trkpt>
      <trkpt lat="45.84749" lon="4.38643">
        <ele>947</ele>
        <time>2016-05-19T11:15:33.199Z</time>
      </trkpt>
      <trkpt lat="45.84748" lon="4.38644">
        <ele>947</ele>
        <time>2016-05-19T11:15:34.206Z</time>
      </trkpt>
      <trkpt lat="45.84746" lon="4.38655">
        <ele>947</ele>
        <time>2016-05-19T11:15:41.2Z</time>
      </trkpt>
      <trkpt lat="45.84746" lon="4.38657">
        <ele>947</ele>
        <time>2016-05-19T11:15:42.189Z</time>
      </trkpt>
      <trkpt lat="45.84744" lon="4.38668">
        <ele>947</ele>
        <time>2016-05-19T11:15:48.201Z</time>
      </trkpt>
      <trkpt lat="45.84743" lon="4.3867">
        <ele>947</ele>
        <time>2016-05-19T11:15:49.199Z</time>
      </trkpt>
      <trkpt lat="45.84742" lon="4.38682">
        <ele>946</ele>
        <time>2016-05-19T11:15:55.201Z</time>
      </trkpt>
      <trkpt lat="45.84742" lon="4.38685">
        <ele>946</ele>
        <time>2016-05-19T11:15:56.201Z</time>
      </trkpt>
      <trkpt lat="45.84746" lon="4.38696">
        <ele>945</ele>
        <time>2016-05-19T11:16:02.196Z</time>
      </trkpt>
      <trkpt lat="45.84747" lon="4.38697">
        <ele>945</ele>
        <time>2016-05-19T11:16:03.205Z</time>
      </trkpt>
      <trkpt lat="45.84749" lon="4.38707">
        <ele>945</ele>
        <time>2016-05-19T11:16:10.202Z</time>
      </trkpt>
      <trkpt lat="45.8475" lon="4.38709">
        <ele>950</ele>
        <time>2016-05-19T11:16:11.205Z</time>
      </trkpt>
      <trkpt lat="45.8475" lon="4.38721">
        <ele>949</ele>
        <time>2016-05-19T11:16:17.198Z</time>
      </trkpt>
      <trkpt lat="45.8475" lon="4.38722">
        <ele>949</ele>
        <time>2016-05-19T11:16:18.202Z</time>
      </trkpt>
      <trkpt lat="45.8475" lon="4.38734">
        <ele>945</ele>
        <time>2016-05-19T11:16:24.212Z</time>
      </trkpt>
      <trkpt lat="45.8475" lon="4.38736">
        <ele>945</ele>
        <time>2016-05-19T11:16:25.198Z</time>
      </trkpt>
      <trkpt lat="45.84747" lon="4.38746">
        <ele>945</ele>
        <time>2016-05-19T11:16:31.202Z</time>
      </trkpt>
      <trkpt lat="45.84747" lon="4.38748">
        <ele>945</ele>
        <time>2016-05-19T11:16:32.202Z</time>
      </trkpt>
      <trkpt lat="45.84744" lon="4.38759">
        <ele>943</ele>
        <time>2016-05-19T11:16:38.218Z</time>
      </trkpt>
      <trkpt lat="45.84743" lon="4.38761">
        <ele>943</ele>
        <time>2016-05-19T11:16:39.204Z</time>
      </trkpt>
      <trkpt lat="45.84743" lon="4.38772">
        <ele>942</ele>
        <time>2016-05-19T11:16:46.204Z</time>
      </trkpt>
      <trkpt lat="45.84743" lon="4.38774">
        <ele>942</ele>
        <time>2016-05-19T11:16:47.202Z</time>
      </trkpt>
      <trkpt lat="45.84744" lon="4.38785">
        <ele>941</ele>
        <time>2016-05-19T11:16:53.21Z</time>
      </trkpt>
      <trkpt lat="45.84743" lon="4.38787">
        <ele>941</ele>
        <time>2016-05-19T11:16:54.205Z</time>
      </trkpt>
      <trkpt lat="45.84741" lon="4.388">
        <ele>940</ele>
        <time>2016-05-19T11:17:01.205Z</time>
      </trkpt>
      <trkpt lat="45.84741" lon="4.38801">
        <ele>940</ele>
        <time>2016-05-19T11:17:02.197Z</time>
      </trkpt>
      <trkpt lat="45.8474" lon="4.38813">
        <ele>940</ele>
        <time>2016-05-19T11:17:08.206Z</time>
      </trkpt>
      <trkpt lat="45.8474" lon="4.38814">
        <ele>940</ele>
        <time>2016-05-19T11:17:09.21Z</time>
      </trkpt>
      <trkpt lat="45.84739" lon="4.38825">
        <ele>939</ele>
        <time>2016-05-19T11:17:14.191Z</time>
      </trkpt>
      <trkpt lat="45.84739" lon="4.38828">
        <ele>939</ele>
        <time>2016-05-19T11:17:15.195Z</time>
      </trkpt>
      <trkpt lat="45.84739" lon="4.38839">
        <ele>938</ele>
        <time>2016-05-19T11:17:20.201Z</time>
      </trkpt>
      <trkpt lat="45.84739" lon="4.38841">
        <ele>938</ele>
        <time>2016-05-19T11:17:21.202Z</time>
      </trkpt>
      <trkpt lat="45.8474" lon="4.38853">
        <ele>937</ele>
        <time>2016-05-19T11:17:27.204Z</time>
      </trkpt>
      <trkpt lat="45.8474" lon="4.38854">
        <ele>937</ele>
        <time>2016-05-19T11:17:28.2Z</time>
      </trkpt>
      <trkpt lat="45.84738" lon="4.38867">
        <ele>936</ele>
        <time>2016-05-19T11:17:35.205Z</time>
      </trkpt>
      <trkpt lat="45.84738" lon="4.38869">
        <ele>936</ele>
        <time>2016-05-19T11:17:36.203Z</time>
      </trkpt>
      <trkpt lat="45.84737" lon="4.3888">
        <ele>936</ele>
        <time>2016-05-19T11:17:42.195Z</time>
      </trkpt>
      <trkpt lat="45.84737" lon="4.38882">
        <ele>936</ele>
        <time>2016-05-19T11:17:43.214Z</time>
      </trkpt>
      <trkpt lat="45.84736" lon="4.38895">
        <ele>935</ele>
        <time>2016-05-19T11:17:49.205Z</time>
      </trkpt>
      <trkpt lat="45.84735" lon="4.38897">
        <ele>935</ele>
        <time>2016-05-19T11:17:50.201Z</time>
      </trkpt>
      <trkpt lat="45.84734" lon="4.38909">
        <ele>934</ele>
        <time>2016-05-19T11:17:56.22Z</time>
      </trkpt>
      <trkpt lat="45.84734" lon="4.38911">
        <ele>934</ele>
        <time>2016-05-19T11:17:57.22Z</time>
      </trkpt>
      <trkpt lat="45.84734" lon="4.38922">
        <ele>932</ele>
        <time>2016-05-19T11:18:02.202Z</time>
      </trkpt>
      <trkpt lat="45.84733" lon="4.38924">
        <ele>932</ele>
        <time>2016-05-19T11:18:03.201Z</time>
      </trkpt>
      <trkpt lat="45.84731" lon="4.38935">
        <ele>932</ele>
        <time>2016-05-19T11:18:08.204Z</time>
      </trkpt>
      <trkpt lat="45.84731" lon="4.38937">
        <ele>932</ele>
        <time>2016-05-19T11:18:09.202Z</time>
      </trkpt>
      <trkpt lat="45.84729" lon="4.38948">
        <ele>931</ele>
        <time>2016-05-19T11:18:15.196Z</time>
      </trkpt>
      <trkpt lat="45.84729" lon="4.3895">
        <ele>931</ele>
        <time>2016-05-19T11:18:16.203Z</time>
      </trkpt>
      <trkpt lat="45.84731" lon="4.38962">
        <ele>930</ele>
        <time>2016-05-19T11:18:24.201Z</time>
      </trkpt>
      <trkpt lat="45.84731" lon="4.38963">
        <ele>930</ele>
        <time>2016-05-19T11:18:25.199Z</time>
      </trkpt>
      <trkpt lat="45.84734" lon="4.38974">
        <ele>929</ele>
        <time>2016-05-19T11:18:35.201Z</time>
      </trkpt>
      <trkpt lat="45.84734" lon="4.38976">
        <ele>929</ele>
        <time>2016-05-19T11:18:36.204Z</time>
      </trkpt>
      <trkpt lat="45.84733" lon="4.38987">
        <ele>929</ele>
        <time>2016-05-19T11:18:42.2Z</time>
      </trkpt>
      <trkpt lat="45.84732" lon="4.3899">
        <ele>928</ele>
        <time>2016-05-19T11:18:43.204Z</time>
      </trkpt>
      <trkpt lat="45.84737" lon="4.38998">
        <ele>927</ele>
        <time>2016-05-19T11:18:47.196Z</time>
      </trkpt>
      <trkpt lat="45.84738" lon="4.39001">
        <ele>925</ele>
        <time>2016-05-19T11:18:48.2Z</time>
      </trkpt>
      <trkpt lat="45.8474" lon="4.39011">
        <ele>925</ele>
        <time>2016-05-19T11:18:52.205Z</time>
      </trkpt>
      <trkpt lat="45.84741" lon="4.39013">
        <ele>925</ele>
        <time>2016-05-19T11:18:53.215Z</time>
      </trkpt>
      <trkpt lat="45.84747" lon="4.39022">
        <ele>925</ele>
        <time>2016-05-19T11:18:57.202Z</time>
      </trkpt>
      <trkpt lat="45.84748" lon="4.39024">
        <ele>925</ele>
        <time>2016-05-19T11:18:58.205Z</time>
      </trkpt>
      <trkpt lat="45.84749" lon="4.39035">
        <ele>925</ele>
        <time>2016-05-19T11:19:04.203Z</time>
      </trkpt>
      <trkpt lat="45.84749" lon="4.39037">
        <ele>925</ele>
        <time>2016-05-19T11:19:05.205Z</time>
      </trkpt>
      <trkpt lat="45.84747" lon="4.39047">
        <ele>924</ele>
        <time>2016-05-19T11:19:11.204Z</time>
      </trkpt>
      <trkpt lat="45.84747" lon="4.39049">
        <ele>924</ele>
        <time>2016-05-19T11:19:12.205Z</time>
      </trkpt>
      <trkpt lat="45.84747" lon="4.39061">
        <ele>923</ele>
        <time>2016-05-19T11:19:18.199Z</time>
      </trkpt>
      <trkpt lat="45.84747" lon="4.39063">
        <ele>923</ele>
        <time>2016-05-19T11:19:19.216Z</time>
      </trkpt>
      <trkpt lat="45.8475" lon="4.39074">
        <ele>917</ele>
        <time>2016-05-19T11:19:24.209Z</time>
      </trkpt>
      <trkpt lat="45.84751" lon="4.39076">
        <ele>917</ele>
        <time>2016-05-19T11:19:25.204Z</time>
      </trkpt>
      <trkpt lat="45.84756" lon="4.39086">
        <ele>916</ele>
        <time>2016-05-19T11:19:30.21Z</time>
      </trkpt>
      <trkpt lat="45.84756" lon="4.39088">
        <ele>916</ele>
        <time>2016-05-19T11:19:31.209Z</time>
      </trkpt>
      <trkpt lat="45.84758" lon="4.391">
        <ele>913</ele>
        <time>2016-05-19T11:19:36.211Z</time>
      </trkpt>
      <trkpt lat="45.84759" lon="4.39102">
        <ele>912</ele>
        <time>2016-05-19T11:19:37.21Z</time>
      </trkpt>
      <trkpt lat="45.84764" lon="4.39111">
        <ele>911</ele>
        <time>2016-05-19T11:19:42.201Z</time>
      </trkpt>
      <trkpt lat="45.84766" lon="4.39112">
        <ele>910</ele>
        <time>2016-05-19T11:19:43.2Z</time>
      </trkpt>
      <trkpt lat="45.84769" lon="4.39123">
        <ele>910</ele>
        <time>2016-05-19T11:19:49.195Z</time>
      </trkpt>
      <trkpt lat="45.8477" lon="4.39125">
        <ele>909</ele>
        <time>2016-05-19T11:19:50.216Z</time>
      </trkpt>
      <trkpt lat="45.84776" lon="4.39133">
        <ele>909</ele>
        <time>2016-05-19T11:19:55.197Z</time>
      </trkpt>
      <trkpt lat="45.84777" lon="4.39135">
        <ele>909</ele>
        <time>2016-05-19T11:19:56.206Z</time>
      </trkpt>
      <trkpt lat="45.84782" lon="4.39144">
        <ele>908</ele>
        <time>2016-05-19T11:20:01.194Z</time>
      </trkpt>
      <trkpt lat="45.84783" lon="4.39147">
        <ele>908</ele>
        <time>2016-05-19T11:20:02.203Z</time>
      </trkpt>
      <trkpt lat="45.84782" lon="4.39157">
        <ele>908</ele>
        <time>2016-05-19T11:20:06.206Z</time>
      </trkpt>
      <trkpt lat="45.84781" lon="4.3916">
        <ele>908</ele>
        <time>2016-05-19T11:20:07.209Z</time>
      </trkpt>
      <trkpt lat="45.84781" lon="4.39171">
        <ele>907</ele>
        <time>2016-05-19T11:20:12.205Z</time>
      </trkpt>
      <trkpt lat="45.84782" lon="4.39173">
        <ele>907</ele>
        <time>2016-05-19T11:20:13.207Z</time>
      </trkpt>
      <trkpt lat="45.84786" lon="4.39184">
        <ele>906</ele>
        <time>2016-05-19T11:20:20.186Z</time>
      </trkpt>
      <trkpt lat="45.84786" lon="4.39185">
        <ele>906</ele>
        <time>2016-05-19T11:20:21.193Z</time>
      </trkpt>
      <trkpt lat="45.84788" lon="4.39197">
        <ele>905</ele>
        <time>2016-05-19T11:20:27.198Z</time>
      </trkpt>
      <trkpt lat="45.84788" lon="4.39199">
        <ele>905</ele>
        <time>2016-05-19T11:20:28.205Z</time>
      </trkpt>
      <trkpt lat="45.84787" lon="4.39211">
        <ele>905</ele>
        <time>2016-05-19T11:20:42.205Z</time>
      </trkpt>
      <trkpt lat="45.84788" lon="4.39212">
        <ele>905</ele>
        <time>2016-05-19T11:20:43.197Z</time>
      </trkpt>
      <trkpt lat="45.84792" lon="4.39223">
        <ele>904</ele>
        <time>2016-05-19T11:20:52.205Z</time>
      </trkpt>
      <trkpt lat="45.84793" lon="4.39224">
        <ele>904</ele>
        <time>2016-05-19T11:20:53.217Z</time>
      </trkpt>
      <trkpt lat="45.84797" lon="4.39234">
        <ele>904</ele>
        <time>2016-05-19T11:21:00.202Z</time>
      </trkpt>
      <trkpt lat="45.84797" lon="4.39236">
        <ele>903</ele>
        <time>2016-05-19T11:21:01.189Z</time>
      </trkpt>
      <trkpt lat="45.84799" lon="4.39248">
        <ele>903</ele>
        <time>2016-05-19T11:21:08.211Z</time>
      </trkpt>
      <trkpt lat="45.84799" lon="4.3925">
        <ele>903</ele>
        <time>2016-05-19T11:21:09.208Z</time>
      </trkpt>
      <trkpt lat="45.848" lon="4.39262">
        <ele>900</ele>
        <time>2016-05-19T11:21:17.198Z</time>
      </trkpt>
      <trkpt lat="45.84801" lon="4.39264">
        <ele>900</ele>
        <time>2016-05-19T11:21:18.207Z</time>
      </trkpt>
      <trkpt lat="45.84803" lon="4.39276">
        <ele>900</ele>
        <time>2016-05-19T11:21:26.208Z</time>
      </trkpt>
      <trkpt lat="45.84803" lon="4.39277">
        <ele>900</ele>
        <time>2016-05-19T11:21:27.2Z</time>
      </trkpt>
      <trkpt lat="45.84806" lon="4.39289">
        <ele>899</ele>
        <time>2016-05-19T11:21:34.198Z</time>
      </trkpt>
      <trkpt lat="45.84806" lon="4.3929">
        <ele>899</ele>
        <time>2016-05-19T11:21:35.212Z</time>
      </trkpt>
      <trkpt lat="45.84812" lon="4.393">
        <ele>898</ele>
        <time>2016-05-19T11:21:42.206Z</time>
      </trkpt>
      <trkpt lat="45.84813" lon="4.39301">
        <ele>898</ele>
        <time>2016-05-19T11:21:43.207Z</time>
      </trkpt>
      <trkpt lat="45.84815" lon="4.39312">
        <ele>897</ele>
        <time>2016-05-19T11:21:49.211Z</time>
      </trkpt>
      <trkpt lat="45.84816" lon="4.39314">
        <ele>897</ele>
        <time>2016-05-19T11:21:50.21Z</time>
      </trkpt>
      <trkpt lat="45.84819" lon="4.39325">
        <ele>895</ele>
        <time>2016-05-19T11:21:57.186Z</time>
      </trkpt>
      <trkpt lat="45.84819" lon="4.39326">
        <ele>895</ele>
        <time>2016-05-19T11:21:58.192Z</time>
      </trkpt>
      <trkpt lat="45.84814" lon="4.39333">
        <ele>896</ele>
        <time>2016-05-19T11:22:05.205Z</time>
      </trkpt>
      <trkpt lat="45.84812" lon="4.39334">
        <ele>892</ele>
        <time>2016-05-19T11:22:06.206Z</time>
      </trkpt>
      <trkpt lat="45.84808" lon="4.39345">
        <ele>892</ele>
        <time>2016-05-19T11:22:13.208Z</time>
      </trkpt>
      <trkpt lat="45.84808" lon="4.39347">
        <ele>892</ele>
        <time>2016-05-19T11:22:14.204Z</time>
      </trkpt>
      <trkpt lat="45.84809" lon="4.39358">
        <ele>891</ele>
        <time>2016-05-19T11:22:21.2Z</time>
      </trkpt>
      <trkpt lat="45.84809" lon="4.3936">
        <ele>891</ele>
        <time>2016-05-19T11:22:22.199Z</time>
      </trkpt>
      <trkpt lat="45.84812" lon="4.39371">
        <ele>890</ele>
        <time>2016-05-19T11:22:29.205Z</time>
      </trkpt>
      <trkpt lat="45.84813" lon="4.39373">
        <ele>890</ele>
        <time>2016-05-19T11:22:30.212Z</time>
      </trkpt>
      <trkpt lat="45.84816" lon="4.39383">
        <ele>889</ele>
        <time>2016-05-19T11:22:36.2Z</time>
      </trkpt>
      <trkpt lat="45.84817" lon="4.39384">
        <ele>889</ele>
        <time>2016-05-19T11:22:37.217Z</time>
      </trkpt>
      <trkpt lat="45.8482" lon="4.39396">
        <ele>887</ele>
        <time>2016-05-19T11:22:44.206Z</time>
      </trkpt>
      <trkpt lat="45.8482" lon="4.39399">
        <ele>887</ele>
        <time>2016-05-19T11:22:45.202Z</time>
      </trkpt>
      <trkpt lat="45.84819" lon="4.39409">
        <ele>886</ele>
        <time>2016-05-19T11:22:51.196Z</time>
      </trkpt>
      <trkpt lat="45.84819" lon="4.39412">
        <ele>885</ele>
        <time>2016-05-19T11:22:52.21Z</time>
      </trkpt>
      <trkpt lat="45.84818" lon="4.39423">
        <ele>880</ele>
        <time>2016-05-19T11:22:57.198Z</time>
      </trkpt>
      <trkpt lat="45.84818" lon="4.39425">
        <ele>880</ele>
        <time>2016-05-19T11:22:58.196Z</time>
      </trkpt>
      <trkpt lat="45.8482" lon="4.39436">
        <ele>880</ele>
        <time>2016-05-19T11:23:03.197Z</time>
      </trkpt>
      <trkpt lat="45.84821" lon="4.39439">
        <ele>880</ele>
        <time>2016-05-19T11:23:04.208Z</time>
      </trkpt>
      <trkpt lat="45.84825" lon="4.39449">
        <ele>879</ele>
        <time>2016-05-19T11:23:09.202Z</time>
      </trkpt>
      <trkpt lat="45.84825" lon="4.39452">
        <ele>879</ele>
        <time>2016-05-19T11:23:10.202Z</time>
      </trkpt>
      <trkpt lat="45.84826" lon="4.39463">
        <ele>878</ele>
        <time>2016-05-19T11:23:15.205Z</time>
      </trkpt>
      <trkpt lat="45.84826" lon="4.39465">
        <ele>877</ele>
        <time>2016-05-19T11:23:16.199Z</time>
      </trkpt>
      <trkpt lat="45.84827" lon="4.39477">
        <ele>876</ele>
        <time>2016-05-19T11:23:25.186Z</time>
      </trkpt>
      <trkpt lat="45.84827" lon="4.39478">
        <ele>875</ele>
        <time>2016-05-19T11:23:26.208Z</time>
      </trkpt>
      <trkpt lat="45.84825" lon="4.39491">
        <ele>873</ele>
        <time>2016-05-19T11:23:33.209Z</time>
      </trkpt>
      <trkpt lat="45.84825" lon="4.39493">
        <ele>873</ele>
        <time>2016-05-19T11:23:34.204Z</time>
      </trkpt>
      <trkpt lat="45.84825" lon="4.39504">
        <ele>869</ele>
        <time>2016-05-19T11:23:41.194Z</time>
      </trkpt>
      <trkpt lat="45.84824" lon="4.39506">
        <ele>869</ele>
        <time>2016-05-19T11:23:42.206Z</time>
      </trkpt>
      <trkpt lat="45.84821" lon="4.39517">
        <ele>869</ele>
        <time>2016-05-19T11:23:49.207Z</time>
      </trkpt>
      <trkpt lat="45.84821" lon="4.39519">
        <ele>869</ele>
        <time>2016-05-19T11:23:50.204Z</time>
      </trkpt>
      <trkpt lat="45.8482" lon="4.39532">
        <ele>868</ele>
        <time>2016-05-19T11:23:59.204Z</time>
      </trkpt>
      <trkpt lat="45.84819" lon="4.39533">
        <ele>868</ele>
        <time>2016-05-19T11:24:00.206Z</time>
      </trkpt>
      <trkpt lat="45.84819" lon="4.39545">
        <ele>867</ele>
        <time>2016-05-19T11:24:08.203Z</time>
      </trkpt>
      <trkpt lat="45.84819" lon="4.39546">
        <ele>867</ele>
        <time>2016-05-19T11:24:09.216Z</time>
      </trkpt>
      <trkpt lat="45.84814" lon="4.39556">
        <ele>866</ele>
        <time>2016-05-19T11:24:16.203Z</time>
      </trkpt>
      <trkpt lat="45.84813" lon="4.39557">
        <ele>866</ele>
        <time>2016-05-19T11:24:17.215Z</time>
      </trkpt>
      <trkpt lat="45.84811" lon="4.39569">
        <ele>865</ele>
        <time>2016-05-19T11:24:25.195Z</time>
      </trkpt>
      <trkpt lat="45.84811" lon="4.39571">
        <ele>865</ele>
        <time>2016-05-19T11:24:26.189Z</time>
      </trkpt>
      <trkpt lat="45.84807" lon="4.39582">
        <ele>865</ele>
        <time>2016-05-19T11:24:35.204Z</time>
      </trkpt>
      <trkpt lat="45.84806" lon="4.39583">
        <ele>865</ele>
        <time>2016-05-19T11:24:36.206Z</time>
      </trkpt>
      <trkpt lat="45.84802" lon="4.39594">
        <ele>858</ele>
        <time>2016-05-19T11:24:43.208Z</time>
      </trkpt>
      <trkpt lat="45.84801" lon="4.39596">
        <ele>859</ele>
        <time>2016-05-19T11:24:44.19Z</time>
      </trkpt>
      <trkpt lat="45.84795" lon="4.39605">
        <ele>858</ele>
        <time>2016-05-19T11:24:51.206Z</time>
      </trkpt>
      <trkpt lat="45.84794" lon="4.39607">
        <ele>859</ele>
        <time>2016-05-19T11:24:52.191Z</time>
      </trkpt>
      <trkpt lat="45.84788" lon="4.39614">
        <ele>859</ele>
        <time>2016-05-19T11:24:59.198Z</time>
      </trkpt>
      <trkpt lat="45.84787" lon="4.39615">
        <ele>859</ele>
        <time>2016-05-19T11:25:00.198Z</time>
      </trkpt>
      <trkpt lat="45.8478" lon="4.39621">
        <ele>859</ele>
        <time>2016-05-19T11:25:07.197Z</time>
      </trkpt>
      <trkpt lat="45.84779" lon="4.39622">
        <ele>859</ele>
        <time>2016-05-19T11:25:08.193Z</time>
      </trkpt>
      <trkpt lat="45.84772" lon="4.39629">
        <ele>858</ele>
        <time>2016-05-19T11:25:15.213Z</time>
      </trkpt>
      <trkpt lat="45.84771" lon="4.3963">
        <ele>858</ele>
        <time>2016-05-19T11:25:16.209Z</time>
      </trkpt>
      <trkpt lat="45.84765" lon="4.3964">
        <ele>858</ele>
        <time>2016-05-19T11:25:24.197Z</time>
      </trkpt>
      <trkpt lat="45.84765" lon="4.39641">
        <ele>858</ele>
        <time>2016-05-19T11:25:25.207Z</time>
      </trkpt>
      <trkpt lat="45.84758" lon="4.39648">
        <ele>858</ele>
        <time>2016-05-19T11:25:32.191Z</time>
      </trkpt>
      <trkpt lat="45.84757" lon="4.39649">
        <ele>858</ele>
        <time>2016-05-19T11:25:33.196Z</time>
      </trkpt>
      <trkpt lat="45.84751" lon="4.39658">
        <ele>857</ele>
        <time>2016-05-19T11:25:42.208Z</time>
      </trkpt>
      <trkpt lat="45.84751" lon="4.39659">
        <ele>857</ele>
        <time>2016-05-19T11:25:43.199Z</time>
      </trkpt>
      <trkpt lat="45.8475" lon="4.39672">
        <ele>855</ele>
        <time>2016-05-19T11:25:51.206Z</time>
      </trkpt>
      <trkpt lat="45.8475" lon="4.39674">
        <ele>854</ele>
        <time>2016-05-19T11:25:52.216Z</time>
      </trkpt>
      <trkpt lat="45.84747" lon="4.39685">
        <ele>851</ele>
        <time>2016-05-19T11:26:00.221Z</time>
      </trkpt>
      <trkpt lat="45.84747" lon="4.39686">
        <ele>851</ele>
        <time>2016-05-19T11:26:01.208Z</time>
      </trkpt>
      <trkpt lat="45.84742" lon="4.39696">
        <ele>849</ele>
        <time>2016-05-19T11:26:08.206Z</time>
      </trkpt>
      <trkpt lat="45.84741" lon="4.39697">
        <ele>848</ele>
        <time>2016-05-19T11:26:09.209Z</time>
      </trkpt>
      <trkpt lat="45.84737" lon="4.39708">
        <ele>846</ele>
        <time>2016-05-19T11:26:16.205Z</time>
      </trkpt>
      <trkpt lat="45.84736" lon="4.39709">
        <ele>846</ele>
        <time>2016-05-19T11:26:17.197Z</time>
      </trkpt>
      <trkpt lat="45.84732" lon="4.3972">
        <ele>845</ele>
        <time>2016-05-19T11:26:24.217Z</time>
      </trkpt>
      <trkpt lat="45.84732" lon="4.39722">
        <ele>845</ele>
        <time>2016-05-19T11:26:25.209Z</time>
      </trkpt>
      <trkpt lat="45.84727" lon="4.39732">
        <ele>843</ele>
        <time>2016-05-19T11:26:33.208Z</time>
      </trkpt>
      <trkpt lat="45.84727" lon="4.39733">
        <ele>843</ele>
        <time>2016-05-19T11:26:34.227Z</time>
      </trkpt>
      <trkpt lat="45.84722" lon="4.39744">
        <ele>842</ele>
        <time>2016-05-19T11:26:41.225Z</time>
      </trkpt>
      <trkpt lat="45.84722" lon="4.39746">
        <ele>842</ele>
        <time>2016-05-19T11:26:42.2Z</time>
      </trkpt>
      <trkpt lat="45.84719" lon="4.39757">
        <ele>829</ele>
        <time>2016-05-19T11:26:49.212Z</time>
      </trkpt>
      <trkpt lat="45.84718" lon="4.39758">
        <ele>829</ele>
        <time>2016-05-19T11:26:50.208Z</time>
      </trkpt>
      <trkpt lat="45.84712" lon="4.39768">
        <ele>828</ele>
        <time>2016-05-19T11:26:58.205Z</time>
      </trkpt>
      <trkpt lat="45.84712" lon="4.39769">
        <ele>827</ele>
        <time>2016-05-19T11:26:59.21Z</time>
      </trkpt>
      <trkpt lat="45.84709" lon="4.3978">
        <ele>826</ele>
        <time>2016-05-19T11:27:06.204Z</time>
      </trkpt>
      <trkpt lat="45.84709" lon="4.39782">
        <ele>826</ele>
        <time>2016-05-19T11:27:07.202Z</time>
      </trkpt>
      <trkpt lat="45.84705" lon="4.39793">
        <ele>824</ele>
        <time>2016-05-19T11:27:15.206Z</time>
      </trkpt>
      <trkpt lat="45.84705" lon="4.39795">
        <ele>824</ele>
        <time>2016-05-19T11:27:16.204Z</time>
      </trkpt>
      <trkpt lat="45.84706" lon="4.39808">
        <ele>822</ele>
        <time>2016-05-19T11:27:22.197Z</time>
      </trkpt>
      <trkpt lat="45.84706" lon="4.3981">
        <ele>822</ele>
        <time>2016-05-19T11:27:23.194Z</time>
      </trkpt>
      <trkpt lat="45.84704" lon="4.39822">
        <ele>821</ele>
        <time>2016-05-19T11:27:30.197Z</time>
      </trkpt>
      <trkpt lat="45.84704" lon="4.39823">
        <ele>821</ele>
        <time>2016-05-19T11:27:31.201Z</time>
      </trkpt>
      <trkpt lat="45.84703" lon="4.39835">
        <ele>813</ele>
        <time>2016-05-19T11:27:38.204Z</time>
      </trkpt>
      <trkpt lat="45.84703" lon="4.39837">
        <ele>813</ele>
        <time>2016-05-19T11:27:39.197Z</time>
      </trkpt>
      <trkpt lat="45.84707" lon="4.39848">
        <ele>813</ele>
        <time>2016-05-19T11:27:46.206Z</time>
      </trkpt>
      <trkpt lat="45.84708" lon="4.39849">
        <ele>813</ele>
        <time>2016-05-19T11:27:47.206Z</time>
      </trkpt>
      <trkpt lat="45.84715" lon="4.39857">
        <ele>814</ele>
        <time>2016-05-19T11:27:54.198Z</time>
      </trkpt>
      <trkpt lat="45.84716" lon="4.39858">
        <ele>814</ele>
        <time>2016-05-19T11:27:55.206Z</time>
      </trkpt>
      <trkpt lat="45.8472" lon="4.39869">
        <ele>814</ele>
        <time>2016-05-19T11:28:02.186Z</time>
      </trkpt>
      <trkpt lat="45.8472" lon="4.39871">
        <ele>814</ele>
        <time>2016-05-19T11:28:03.189Z</time>
      </trkpt>
      <trkpt lat="45.8472" lon="4.39883">
        <ele>813</ele>
        <time>2016-05-19T11:28:09.183Z</time>
      </trkpt>
      <trkpt lat="45.8472" lon="4.39885">
        <ele>813</ele>
        <time>2016-05-19T11:28:10.181Z</time>
      </trkpt>
      <trkpt lat="45.84719" lon="4.39897">
        <ele>813</ele>
        <time>2016-05-19T11:28:17.209Z</time>
      </trkpt>
      <trkpt lat="45.84719" lon="4.39899">
        <ele>813</ele>
        <time>2016-05-19T11:28:18.222Z</time>
      </trkpt>
      <trkpt lat="45.84714" lon="4.39909">
        <ele>813</ele>
        <time>2016-05-19T11:28:25.207Z</time>
      </trkpt>
      <trkpt lat="45.84713" lon="4.3991">
        <ele>813</ele>
        <time>2016-05-19T11:28:26.205Z</time>
      </trkpt>
      <trkpt lat="45.84707" lon="4.3992">
        <ele>813</ele>
        <time>2016-05-19T11:28:32.213Z</time>
      </trkpt>
      <trkpt lat="45.84706" lon="4.39921">
        <ele>813</ele>
        <time>2016-05-19T11:28:33.22Z</time>
      </trkpt>
      <trkpt lat="45.84701" lon="4.3993">
        <ele>813</ele>
        <time>2016-05-19T11:28:39.202Z</time>
      </trkpt>
      <trkpt lat="45.847" lon="4.39932">
        <ele>813</ele>
        <time>2016-05-19T11:28:40.2Z</time>
      </trkpt>
      <trkpt lat="45.84694" lon="4.39941">
        <ele>813</ele>
        <time>2016-05-19T11:28:47.2Z</time>
      </trkpt>
      <trkpt lat="45.84693" lon="4.39943">
        <ele>813</ele>
        <time>2016-05-19T11:28:48.198Z</time>
      </trkpt>
      <trkpt lat="45.84687" lon="4.39951">
        <ele>814</ele>
        <time>2016-05-19T11:28:54.202Z</time>
      </trkpt>
      <trkpt lat="45.84686" lon="4.39952">
        <ele>814</ele>
        <time>2016-05-19T11:28:55.197Z</time>
      </trkpt>
      <trkpt lat="45.84678" lon="4.39955">
        <ele>814</ele>
        <time>2016-05-19T11:29:02.191Z</time>
      </trkpt>
      <trkpt lat="45.84676" lon="4.39956">
        <ele>814</ele>
        <time>2016-05-19T11:29:03.196Z</time>
      </trkpt>
      <trkpt lat="45.84669" lon="4.39963">
        <ele>814</ele>
        <time>2016-05-19T11:29:10.2Z</time>
      </trkpt>
      <trkpt lat="45.84669" lon="4.39964">
        <ele>814</ele>
        <time>2016-05-19T11:29:11.208Z</time>
      </trkpt>
      <trkpt lat="45.84662" lon="4.39972">
        <ele>810</ele>
        <time>2016-05-19T11:29:19.206Z</time>
      </trkpt>
      <trkpt lat="45.84661" lon="4.39973">
        <ele>810</ele>
        <time>2016-05-19T11:29:20.219Z</time>
      </trkpt>
      <trkpt lat="45.84655" lon="4.39981">
        <ele>811</ele>
        <time>2016-05-19T11:29:26.2Z</time>
      </trkpt>
      <trkpt lat="45.84654" lon="4.39982">
        <ele>811</ele>
        <time>2016-05-19T11:29:27.197Z</time>
      </trkpt>
      <trkpt lat="45.84648" lon="4.39991">
        <ele>811</ele>
        <time>2016-05-19T11:29:34.197Z</time>
      </trkpt>
      <trkpt lat="45.84648" lon="4.39993">
        <ele>811</ele>
        <time>2016-05-19T11:29:35.196Z</time>
      </trkpt>
      <trkpt lat="45.84644" lon="4.40004">
        <ele>814</ele>
        <time>2016-05-19T11:29:43.217Z</time>
      </trkpt>
      <trkpt lat="45.84644" lon="4.40006">
        <ele>814</ele>
        <time>2016-05-19T11:29:44.206Z</time>
      </trkpt>
      <trkpt lat="45.84642" lon="4.40017">
        <ele>814</ele>
        <time>2016-05-19T11:29:51.205Z</time>
      </trkpt>
      <trkpt lat="45.84642" lon="4.40019">
        <ele>814</ele>
        <time>2016-05-19T11:29:52.208Z</time>
      </trkpt>
      <trkpt lat="45.84641" lon="4.40031">
        <ele>814</ele>
        <time>2016-05-19T11:29:59.197Z</time>
      </trkpt>
      <trkpt lat="45.84641" lon="4.40032">
        <ele>814</ele>
        <time>2016-05-19T11:30:00.2Z</time>
      </trkpt>
      <trkpt lat="45.84641" lon="4.40044">
        <ele>814</ele>
        <time>2016-05-19T11:30:07.206Z</time>
      </trkpt>
      <trkpt lat="45.84641" lon="4.40045">
        <ele>815</ele>
        <time>2016-05-19T11:30:08.191Z</time>
      </trkpt>
      <trkpt lat="45.84641" lon="4.40058">
        <ele>815</ele>
        <time>2016-05-19T11:30:16.201Z</time>
      </trkpt>
      <trkpt lat="45.84641" lon="4.4006">
        <ele>815</ele>
        <time>2016-05-19T11:30:17.199Z</time>
      </trkpt>
      <trkpt lat="45.84644" lon="4.40072">
        <ele>817</ele>
        <time>2016-05-19T11:30:25.198Z</time>
      </trkpt>
      <trkpt lat="45.84644" lon="4.40073">
        <ele>817</ele>
        <time>2016-05-19T11:30:26.201Z</time>
      </trkpt>
      <trkpt lat="45.84649" lon="4.40082">
        <ele>818</ele>
        <time>2016-05-19T11:30:33.189Z</time>
      </trkpt>
      <trkpt lat="45.84649" lon="4.40084">
        <ele>821</ele>
        <time>2016-05-19T11:30:34.2Z</time>
      </trkpt>
      <trkpt lat="45.84652" lon="4.40095">
        <ele>821</ele>
        <time>2016-05-19T11:30:42.202Z</time>
      </trkpt>
      <trkpt lat="45.84652" lon="4.40097">
        <ele>821</ele>
        <time>2016-05-19T11:30:43.2Z</time>
      </trkpt>
      <trkpt lat="45.84655" lon="4.40108">
        <ele>821</ele>
        <time>2016-05-19T11:30:50.205Z</time>
      </trkpt>
      <trkpt lat="45.84655" lon="4.4011">
        <ele>821</ele>
        <time>2016-05-19T11:30:51.206Z</time>
      </trkpt>
      <trkpt lat="45.84658" lon="4.40121">
        <ele>821</ele>
        <time>2016-05-19T11:30:58.2Z</time>
      </trkpt>
      <trkpt lat="45.84658" lon="4.40122">
        <ele>821</ele>
        <time>2016-05-19T11:30:59.195Z</time>
      </trkpt>
      <trkpt lat="45.8466" lon="4.40134">
        <ele>822</ele>
        <time>2016-05-19T11:31:06.191Z</time>
      </trkpt>
      <trkpt lat="45.8466" lon="4.40135">
        <ele>822</ele>
        <time>2016-05-19T11:31:07.185Z</time>
      </trkpt>
      <trkpt lat="45.84664" lon="4.40145">
        <ele>823</ele>
        <time>2016-05-19T11:31:15.199Z</time>
      </trkpt>
      <trkpt lat="45.84665" lon="4.40147">
        <ele>823</ele>
        <time>2016-05-19T11:31:16.199Z</time>
      </trkpt>
      <trkpt lat="45.84669" lon="4.40157">
        <ele>827</ele>
        <time>2016-05-19T11:31:24.198Z</time>
      </trkpt>
      <trkpt lat="45.8467" lon="4.40159">
        <ele>827</ele>
        <time>2016-05-19T11:31:25.201Z</time>
      </trkpt>
      <trkpt lat="45.84672" lon="4.4017">
        <ele>828</ele>
        <time>2016-05-19T11:31:32.194Z</time>
      </trkpt>
      <trkpt lat="45.84672" lon="4.40171">
        <ele>828</ele>
        <time>2016-05-19T11:31:33.193Z</time>
      </trkpt>
      <trkpt lat="45.84677" lon="4.40182">
        <ele>828</ele>
        <time>2016-05-19T11:31:41.202Z</time>
      </trkpt>
      <trkpt lat="45.84677" lon="4.40184">
        <ele>829</ele>
        <time>2016-05-19T11:31:42.201Z</time>
      </trkpt>
      <trkpt lat="45.8468" lon="4.40194">
        <ele>829</ele>
        <time>2016-05-19T11:31:48.203Z</time>
      </trkpt>
      <trkpt lat="45.84681" lon="4.40196">
        <ele>829</ele>
        <time>2016-05-19T11:31:49.196Z</time>
      </trkpt>
      <trkpt lat="45.84684" lon="4.40207">
        <ele>829</ele>
        <time>2016-05-19T11:31:56.206Z</time>
      </trkpt>
      <trkpt lat="45.84684" lon="4.40208">
        <ele>829</ele>
        <time>2016-05-19T11:31:57.2Z</time>
      </trkpt>
      <trkpt lat="45.84685" lon="4.4022">
        <ele>830</ele>
        <time>2016-05-19T11:32:04.195Z</time>
      </trkpt>
      <trkpt lat="45.84686" lon="4.40221">
        <ele>830</ele>
        <time>2016-05-19T11:32:05.2Z</time>
      </trkpt>
      <trkpt lat="45.84688" lon="4.40233">
        <ele>830</ele>
        <time>2016-05-19T11:32:13.202Z</time>
      </trkpt>
      <trkpt lat="45.84688" lon="4.40235">
        <ele>830</ele>
        <time>2016-05-19T11:32:14.22Z</time>
      </trkpt>
      <trkpt lat="45.84691" lon="4.40246">
        <ele>830</ele>
        <time>2016-05-19T11:32:21.196Z</time>
      </trkpt>
      <trkpt lat="45.84691" lon="4.40248">
        <ele>830</ele>
        <time>2016-05-19T11:32:22.194Z</time>
      </trkpt>
      <trkpt lat="45.84693" lon="4.40259">
        <ele>833</ele>
        <time>2016-05-19T11:32:28.197Z</time>
      </trkpt>
      <trkpt lat="45.84693" lon="4.40261">
        <ele>833</ele>
        <time>2016-05-19T11:32:29.2Z</time>
      </trkpt>
      <trkpt lat="45.84694" lon="4.40274">
        <ele>834</ele>
        <time>2016-05-19T11:32:36.188Z</time>
      </trkpt>
      <trkpt lat="45.84695" lon="4.40275">
        <ele>834</ele>
        <time>2016-05-19T11:32:37.199Z</time>
      </trkpt>
      <trkpt lat="45.84697" lon="4.40287">
        <ele>834</ele>
        <time>2016-05-19T11:32:44.207Z</time>
      </trkpt>
      <trkpt lat="45.84697" lon="4.40289">
        <ele>834</ele>
        <time>2016-05-19T11:32:45.21Z</time>
      </trkpt>
      <trkpt lat="45.84699" lon="4.403">
        <ele>834</ele>
        <time>2016-05-19T11:32:52.195Z</time>
      </trkpt>
      <trkpt lat="45.847" lon="4.40302">
        <ele>834</ele>
        <time>2016-05-19T11:32:53.196Z</time>
      </trkpt>
      <trkpt lat="45.84703" lon="4.40313">
        <ele>835</ele>
        <time>2016-05-19T11:33:00.201Z</time>
      </trkpt>
      <trkpt lat="45.84703" lon="4.40315">
        <ele>835</ele>
        <time>2016-05-19T11:33:01.206Z</time>
      </trkpt>
      <trkpt lat="45.84707" lon="4.40326">
        <ele>835</ele>
        <time>2016-05-19T11:33:08.195Z</time>
      </trkpt>
      <trkpt lat="45.84707" lon="4.40327">
        <ele>835</ele>
        <time>2016-05-19T11:33:09.199Z</time>
      </trkpt>
      <trkpt lat="45.8471" lon="4.40338">
        <ele>837</ele>
        <time>2016-05-19T11:33:15.209Z</time>
      </trkpt>
      <trkpt lat="45.8471" lon="4.4034">
        <ele>837</ele>
        <time>2016-05-19T11:33:16.207Z</time>
      </trkpt>
      <trkpt lat="45.84712" lon="4.40351">
        <ele>837</ele>
        <time>2016-05-19T11:33:22.194Z</time>
      </trkpt>
      <trkpt lat="45.84712" lon="4.40353">
        <ele>837</ele>
        <time>2016-05-19T11:33:23.2Z</time>
      </trkpt>
      <trkpt lat="45.84713" lon="4.40365">
        <ele>838</ele>
        <time>2016-05-19T11:33:29.194Z</time>
      </trkpt>
      <trkpt lat="45.84713" lon="4.40367">
        <ele>838</ele>
        <time>2016-05-19T11:33:30.198Z</time>
      </trkpt>
      <trkpt lat="45.84713" lon="4.40379">
        <ele>838</ele>
        <time>2016-05-19T11:33:36.197Z</time>
      </trkpt>
      <trkpt lat="45.84713" lon="4.40381">
        <ele>838</ele>
        <time>2016-05-19T11:33:37.198Z</time>
      </trkpt>
      <trkpt lat="45.84712" lon="4.40394">
        <ele>838</ele>
        <time>2016-05-19T11:33:44.199Z</time>
      </trkpt>
      <trkpt lat="45.84713" lon="4.40395">
        <ele>838</ele>
        <time>2016-05-19T11:33:45.199Z</time>
      </trkpt>
      <trkpt lat="45.84714" lon="4.40408">
        <ele>838</ele>
        <time>2016-05-19T11:33:53.201Z</time>
      </trkpt>
      <trkpt lat="45.84714" lon="4.4041">
        <ele>838</ele>
        <time>2016-05-19T11:33:54.205Z</time>
      </trkpt>
      <trkpt lat="45.84716" lon="4.40421">
        <ele>840</ele>
        <time>2016-05-19T11:34:01.2Z</time>
      </trkpt>
      <trkpt lat="45.84716" lon="4.40423">
        <ele>840</ele>
        <time>2016-05-19T11:34:02.196Z</time>
      </trkpt>
      <trkpt lat="45.84719" lon="4.40434">
        <ele>840</ele>
        <time>2016-05-19T11:34:08.202Z</time>
      </trkpt>
      <trkpt lat="45.8472" lon="4.40435">
        <ele>840</ele>
        <time>2016-05-19T11:34:09.197Z</time>
      </trkpt>
      <trkpt lat="45.84726" lon="4.40445">
        <ele>840</ele>
        <time>2016-05-19T11:34:15.193Z</time>
      </trkpt>
      <trkpt lat="45.84727" lon="4.40446">
        <ele>840</ele>
        <time>2016-05-19T11:34:16.193Z</time>
      </trkpt>
      <trkpt lat="45.84733" lon="4.40455">
        <ele>841</ele>
        <time>2016-05-19T11:34:22.194Z</time>
      </trkpt>
      <trkpt lat="45.84734" lon="4.40456">
        <ele>841</ele>
        <time>2016-05-19T11:34:23.196Z</time>
      </trkpt>
      <trkpt lat="45.84739" lon="4.40464">
        <ele>841</ele>
        <time>2016-05-19T11:34:29.201Z</time>
      </trkpt>
      <trkpt lat="45.8474" lon="4.40466">
        <ele>841</ele>
        <time>2016-05-19T11:34:30.203Z</time>
      </trkpt>
      <trkpt lat="45.84743" lon="4.40476">
        <ele>842</ele>
        <time>2016-05-19T11:34:36.196Z</time>
      </trkpt>
      <trkpt lat="45.84744" lon="4.40478">
        <ele>842</ele>
        <time>2016-05-19T11:34:37.196Z</time>
      </trkpt>
      <trkpt lat="45.84745" lon="4.4049">
        <ele>844</ele>
        <time>2016-05-19T11:34:43.19Z</time>
      </trkpt>
      <trkpt lat="45.84745" lon="4.40492">
        <ele>844</ele>
        <time>2016-05-19T11:34:44.193Z</time>
      </trkpt>
      <trkpt lat="45.84747" lon="4.40503">
        <ele>845</ele>
        <time>2016-05-19T11:34:50.205Z</time>
      </trkpt>
      <trkpt lat="45.84748" lon="4.40504">
        <ele>845</ele>
        <time>2016-05-19T11:34:51.198Z</time>
      </trkpt>
      <trkpt lat="45.8475" lon="4.40516">
        <ele>844</ele>
        <time>2016-05-19T11:35:15.195Z</time>
      </trkpt>
      <trkpt lat="45.8475" lon="4.40518">
        <ele>844</ele>
        <time>2016-05-19T11:35:16.197Z</time>
      </trkpt>
      <trkpt lat="45.84752" lon="4.40529">
        <ele>846</ele>
        <time>2016-05-19T11:36:28.2Z</time>
      </trkpt>
      <trkpt lat="45.84752" lon="4.40531">
        <ele>846</ele>
        <time>2016-05-19T11:36:29.201Z</time>
      </trkpt>
      <trkpt lat="45.84756" lon="4.40542">
        <ele>847</ele>
        <time>2016-05-19T11:36:38.198Z</time>
      </trkpt>
      <trkpt lat="45.84757" lon="4.40543">
        <ele>847</ele>
        <time>2016-05-19T11:36:39.198Z</time>
      </trkpt>
      <trkpt lat="45.8476" lon="4.40555">
        <ele>847</ele>
        <time>2016-05-19T11:36:47.191Z</time>
      </trkpt>
      <trkpt lat="45.8476" lon="4.40556">
        <ele>847</ele>
        <time>2016-05-19T11:36:48.189Z</time>
      </trkpt>
      <trkpt lat="45.84762" lon="4.40567">
        <ele>848</ele>
        <time>2016-05-19T11:36:55.189Z</time>
      </trkpt>
      <trkpt lat="45.84762" lon="4.40569">
        <ele>848</ele>
        <time>2016-05-19T11:36:56.197Z</time>
      </trkpt>
      <trkpt lat="45.84763" lon="4.40581">
        <ele>848</ele>
        <time>2016-05-19T11:37:04.195Z</time>
      </trkpt>
      <trkpt lat="45.84763" lon="4.40583">
        <ele>848</ele>
        <time>2016-05-19T11:37:05.2Z</time>
      </trkpt>
      <trkpt lat="45.84766" lon="4.40594">
        <ele>852</ele>
        <time>2016-05-19T11:37:12.193Z</time>
      </trkpt>
      <trkpt lat="45.84766" lon="4.40596">
        <ele>852</ele>
        <time>2016-05-19T11:37:13.194Z</time>
      </trkpt>
      <trkpt lat="45.84767" lon="4.40607">
        <ele>853</ele>
        <time>2016-05-19T11:37:20.201Z</time>
      </trkpt>
      <trkpt lat="45.84767" lon="4.40609">
        <ele>853</ele>
        <time>2016-05-19T11:37:21.201Z</time>
      </trkpt>
      <trkpt lat="45.84767" lon="4.4062">
        <ele>853</ele>
        <time>2016-05-19T11:37:29.205Z</time>
      </trkpt>
      <trkpt lat="45.84767" lon="4.40621">
        <ele>854</ele>
        <time>2016-05-19T11:37:30.201Z</time>
      </trkpt>
      <trkpt lat="45.84769" lon="4.40633">
        <ele>854</ele>
        <time>2016-05-19T11:37:39.2Z</time>
      </trkpt>
      <trkpt lat="45.84769" lon="4.40635">
        <ele>854</ele>
        <time>2016-05-19T11:37:40.197Z</time>
      </trkpt>
      <trkpt lat="45.8477" lon="4.40647">
        <ele>855</ele>
        <time>2016-05-19T11:37:49.201Z</time>
      </trkpt>
      <trkpt lat="45.8477" lon="4.40648">
        <ele>855</ele>
        <time>2016-05-19T11:37:50.201Z</time>
      </trkpt>
      <trkpt lat="45.84773" lon="4.4066">
        <ele>855</ele>
        <time>2016-05-19T11:38:00.192Z</time>
      </trkpt>
      <trkpt lat="45.84773" lon="4.40661">
        <ele>855</ele>
        <time>2016-05-19T11:38:01.196Z</time>
      </trkpt>
      <trkpt lat="45.84775" lon="4.40672">
        <ele>860</ele>
        <time>2016-05-19T11:38:10.197Z</time>
      </trkpt>
      <trkpt lat="45.84775" lon="4.40673">
        <ele>860</ele>
        <time>2016-05-19T11:38:11.2Z</time>
      </trkpt>
      <trkpt lat="45.84777" lon="4.40685">
        <ele>861</ele>
        <time>2016-05-19T11:38:22.197Z</time>
      </trkpt>
      <trkpt lat="45.84777" lon="4.40687">
        <ele>861</ele>
        <time>2016-05-19T11:38:23.191Z</time>
      </trkpt>
      <trkpt lat="45.84779" lon="4.40698">
        <ele>861</ele>
        <time>2016-05-19T11:38:32.217Z</time>
      </trkpt>
      <trkpt lat="45.8478" lon="4.40699">
        <ele>861</ele>
        <time>2016-05-19T11:38:33.206Z</time>
      </trkpt>
      <trkpt lat="45.84783" lon="4.4071">
        <ele>862</ele>
        <time>2016-05-19T11:38:42.209Z</time>
      </trkpt>
      <trkpt lat="45.84783" lon="4.40711">
        <ele>862</ele>
        <time>2016-05-19T11:38:43.208Z</time>
      </trkpt>
      <trkpt lat="45.84788" lon="4.40721">
        <ele>862</ele>
        <time>2016-05-19T11:38:51.189Z</time>
      </trkpt>
      <trkpt lat="45.84788" lon="4.40723">
        <ele>863</ele>
        <time>2016-05-19T11:38:52.194Z</time>
      </trkpt>
      <trkpt lat="45.84791" lon="4.40734">
        <ele>863</ele>
        <time>2016-05-19T11:39:00.199Z</time>
      </trkpt>
      <trkpt lat="45.84791" lon="4.40735">
        <ele>863</ele>
        <time>2016-05-19T11:39:01.195Z</time>
      </trkpt>
      <trkpt lat="45.84796" lon="4.40747">
        <ele>864</ele>
        <time>2016-05-19T11:39:10.205Z</time>
      </trkpt>
      <trkpt lat="45.84796" lon="4.40748">
        <ele>864</ele>
        <time>2016-05-19T11:39:11.201Z</time>
      </trkpt>
      <trkpt lat="45.848" lon="4.40759">
        <ele>869</ele>
        <time>2016-05-19T11:39:18.206Z</time>
      </trkpt>
      <trkpt lat="45.848" lon="4.4076">
        <ele>869</ele>
        <time>2016-05-19T11:39:19.209Z</time>
      </trkpt>
      <trkpt lat="45.84801" lon="4.40773">
        <ele>869</ele>
        <time>2016-05-19T11:39:27.206Z</time>
      </trkpt>
      <trkpt lat="45.848" lon="4.40774">
        <ele>869</ele>
        <time>2016-05-19T11:39:28.197Z</time>
      </trkpt>
      <trkpt lat="45.84802" lon="4.40786">
        <ele>870</ele>
        <time>2016-05-19T11:39:37.197Z</time>
      </trkpt>
      <trkpt lat="45.84802" lon="4.40788">
        <ele>870</ele>
        <time>2016-05-19T11:39:38.189Z</time>
      </trkpt>
      <trkpt lat="45.84805" lon="4.40798">
        <ele>871</ele>
        <time>2016-05-19T11:39:46.198Z</time>
      </trkpt>
      <trkpt lat="45.84805" lon="4.408">
        <ele>871</ele>
        <time>2016-05-19T11:39:47.2Z</time>
      </trkpt>
      <trkpt lat="45.84803" lon="4.40812">
        <ele>871</ele>
        <time>2016-05-19T11:39:55.203Z</time>
      </trkpt>
      <trkpt lat="45.84802" lon="4.40813">
        <ele>871</ele>
        <time>2016-05-19T11:39:56.203Z</time>
      </trkpt>
      <trkpt lat="45.84799" lon="4.40824">
        <ele>871</ele>
        <time>2016-05-19T11:40:03.199Z</time>
      </trkpt>
      <trkpt lat="45.84799" lon="4.40825">
        <ele>871</ele>
        <time>2016-05-19T11:40:04.195Z</time>
      </trkpt>
      <trkpt lat="45.84797" lon="4.40838">
        <ele>877</ele>
        <time>2016-05-19T11:40:12.198Z</time>
      </trkpt>
      <trkpt lat="45.84797" lon="4.40839">
        <ele>877</ele>
        <time>2016-05-19T11:40:13.199Z</time>
      </trkpt>
      <trkpt lat="45.84796" lon="4.4085">
        <ele>877</ele>
        <time>2016-05-19T11:40:21.19Z</time>
      </trkpt>
      <trkpt lat="45.84795" lon="4.40852">
        <ele>877</ele>
        <time>2016-05-19T11:40:22.186Z</time>
      </trkpt>
      <trkpt lat="45.84792" lon="4.40862">
        <ele>877</ele>
        <time>2016-05-19T11:40:31.201Z</time>
      </trkpt>
      <trkpt lat="45.84792" lon="4.40864">
        <ele>877</ele>
        <time>2016-05-19T11:40:32.197Z</time>
      </trkpt>
      <trkpt lat="45.8479" lon="4.40876">
        <ele>878</ele>
        <time>2016-05-19T11:40:41.192Z</time>
      </trkpt>
      <trkpt lat="45.84791" lon="4.40877">
        <ele>878</ele>
        <time>2016-05-19T11:40:42.183Z</time>
      </trkpt>
      <trkpt lat="45.8479" lon="4.40889">
        <ele>878</ele>
        <time>2016-05-19T11:40:50.197Z</time>
      </trkpt>
      <trkpt lat="45.84789" lon="4.40891">
        <ele>878</ele>
        <time>2016-05-19T11:40:51.205Z</time>
      </trkpt>
      <trkpt lat="45.84787" lon="4.40903">
        <ele>879</ele>
        <time>2016-05-19T11:41:01.2Z</time>
      </trkpt>
      <trkpt lat="45.84787" lon="4.40904">
        <ele>879</ele>
        <time>2016-05-19T11:41:02.205Z</time>
      </trkpt>
      <trkpt lat="45.84788" lon="4.40916">
        <ele>879</ele>
        <time>2016-05-19T11:41:10.202Z</time>
      </trkpt>
      <trkpt lat="45.84788" lon="4.40917">
        <ele>884</ele>
        <time>2016-05-19T11:41:11.203Z</time>
      </trkpt>
      <trkpt lat="45.84789" lon="4.4093">
        <ele>885</ele>
        <time>2016-05-19T11:41:19.205Z</time>
      </trkpt>
      <trkpt lat="45.84789" lon="4.40931">
        <ele>885</ele>
        <time>2016-05-19T11:41:20.205Z</time>
      </trkpt>
      <trkpt lat="45.84788" lon="4.40943">
        <ele>885</ele>
        <time>2016-05-19T11:41:29.196Z</time>
      </trkpt>
      <trkpt lat="45.84788" lon="4.40944">
        <ele>885</ele>
        <time>2016-05-19T11:41:30.198Z</time>
      </trkpt>
      <trkpt lat="45.8479" lon="4.40955">
        <ele>886</ele>
        <time>2016-05-19T11:41:38.198Z</time>
      </trkpt>
      <trkpt lat="45.84791" lon="4.40957">
        <ele>886</ele>
        <time>2016-05-19T11:41:39.203Z</time>
      </trkpt>
      <trkpt lat="45.84793" lon="4.40969">
        <ele>887</ele>
        <time>2016-05-19T11:41:48.201Z</time>
      </trkpt>
      <trkpt lat="45.84793" lon="4.40971">
        <ele>887</ele>
        <time>2016-05-19T11:41:49.205Z</time>
      </trkpt>
      <trkpt lat="45.84794" lon="4.40983">
        <ele>887</ele>
        <time>2016-05-19T11:41:58.199Z</time>
      </trkpt>
      <trkpt lat="45.84795" lon="4.40984">
        <ele>887</ele>
        <time>2016-05-19T11:41:59.199Z</time>
      </trkpt>
      <trkpt lat="45.84797" lon="4.40996">
        <ele>888</ele>
        <time>2016-05-19T11:42:08.205Z</time>
      </trkpt>
      <trkpt lat="45.84797" lon="4.40998">
        <ele>888</ele>
        <time>2016-05-19T11:42:09.224Z</time>
      </trkpt>
      <trkpt lat="45.84797" lon="4.4101">
        <ele>893</ele>
        <time>2016-05-19T11:42:18.225Z</time>
      </trkpt>
      <trkpt lat="45.84797" lon="4.41012">
        <ele>893</ele>
        <time>2016-05-19T11:42:19.219Z</time>
      </trkpt>
      <trkpt lat="45.84798" lon="4.41024">
        <ele>894</ele>
        <time>2016-05-19T11:42:28.201Z</time>
      </trkpt>
      <trkpt lat="45.84798" lon="4.41025">
        <ele>894</ele>
        <time>2016-05-19T11:42:29.2Z</time>
      </trkpt>
      <trkpt lat="45.84801" lon="4.41037">
        <ele>894</ele>
        <time>2016-05-19T11:42:37.204Z</time>
      </trkpt>
      <trkpt lat="45.84801" lon="4.41038">
        <ele>895</ele>
        <time>2016-05-19T11:42:38.199Z</time>
      </trkpt>
      <trkpt lat="45.84801" lon="4.41051">
        <ele>895</ele>
        <time>2016-05-19T11:42:47.199Z</time>
      </trkpt>
      <trkpt lat="45.84801" lon="4.41052">
        <ele>895</ele>
        <time>2016-05-19T11:42:48.197Z</time>
      </trkpt>
      <trkpt lat="45.848" lon="4.41064">
        <ele>896</ele>
        <time>2016-05-19T11:42:57.205Z</time>
      </trkpt>
      <trkpt lat="45.848" lon="4.41066">
        <ele>896</ele>
        <time>2016-05-19T11:42:58.206Z</time>
      </trkpt>
      <trkpt lat="45.84801" lon="4.41078">
        <ele>896</ele>
        <time>2016-05-19T11:43:07.218Z</time>
      </trkpt>
      <trkpt lat="45.848" lon="4.41079">
        <ele>896</ele>
        <time>2016-05-19T11:43:08.199Z</time>
      </trkpt>
      <trkpt lat="45.84798" lon="4.41091">
        <ele>902</ele>
        <time>2016-05-19T11:43:15.215Z</time>
      </trkpt>
      <trkpt lat="45.84798" lon="4.41092">
        <ele>902</ele>
        <time>2016-05-19T11:43:16.201Z</time>
      </trkpt>
      <trkpt lat="45.84795" lon="4.41103">
        <ele>902</ele>
        <time>2016-05-19T11:43:23.204Z</time>
      </trkpt>
      <trkpt lat="45.84795" lon="4.41105">
        <ele>902</ele>
        <time>2016-05-19T11:43:24.22Z</time>
      </trkpt>
      <trkpt lat="45.84792" lon="4.41116">
        <ele>903</ele>
        <time>2016-05-19T11:43:31.221Z</time>
      </trkpt>
      <trkpt lat="45.84792" lon="4.41117">
        <ele>903</ele>
        <time>2016-05-19T11:43:32.22Z</time>
      </trkpt>
      <trkpt lat="45.84789" lon="4.41129">
        <ele>903</ele>
        <time>2016-05-19T11:43:40.197Z</time>
      </trkpt>
      <trkpt lat="45.84788" lon="4.4113">
        <ele>903</ele>
        <time>2016-05-19T11:43:41.2Z</time>
      </trkpt>
      <trkpt lat="45.84785" lon="4.41142">
        <ele>904</ele>
        <time>2016-05-19T11:43:49.198Z</time>
      </trkpt>
      <trkpt lat="45.84785" lon="4.41143">
        <ele>904</ele>
        <time>2016-05-19T11:43:50.196Z</time>
      </trkpt>
      <trkpt lat="45.84783" lon="4.41155">
        <ele>904</ele>
        <time>2016-05-19T11:43:58.202Z</time>
      </trkpt>
      <trkpt lat="45.84783" lon="4.41156">
        <ele>904</ele>
        <time>2016-05-19T11:43:59.201Z</time>
      </trkpt>
      <trkpt lat="45.84779" lon="4.41167">
        <ele>909</ele>
        <time>2016-05-19T11:44:08.201Z</time>
      </trkpt>
      <trkpt lat="45.84778" lon="4.41169">
        <ele>909</ele>
        <time>2016-05-19T11:44:09.204Z</time>
      </trkpt>
      <trkpt lat="45.84774" lon="4.41179">
        <ele>909</ele>
        <time>2016-05-19T11:44:16.199Z</time>
      </trkpt>
      <trkpt lat="45.84773" lon="4.41181">
        <ele>909</ele>
        <time>2016-05-19T11:44:17.203Z</time>
      </trkpt>
      <trkpt lat="45.84768" lon="4.4119">
        <ele>909</ele>
        <time>2016-05-19T11:44:23.195Z</time>
      </trkpt>
      <trkpt lat="45.84767" lon="4.41191">
        <ele>909</ele>
        <time>2016-05-19T11:44:24.216Z</time>
      </trkpt>
      <trkpt lat="45.84763" lon="4.41202">
        <ele>910</ele>
        <time>2016-05-19T11:44:31.226Z</time>
      </trkpt>
      <trkpt lat="45.84762" lon="4.41204">
        <ele>910</ele>
        <time>2016-05-19T11:44:32.22Z</time>
      </trkpt>
      <trkpt lat="45.8476" lon="4.41215">
        <ele>911</ele>
        <time>2016-05-19T11:44:38.204Z</time>
      </trkpt>
      <trkpt lat="45.84759" lon="4.41216">
        <ele>911</ele>
        <time>2016-05-19T11:44:39.202Z</time>
      </trkpt>
      <trkpt lat="45.84759" lon="4.41227">
        <ele>912</ele>
        <time>2016-05-19T11:44:45.208Z</time>
      </trkpt>
      <trkpt lat="45.84758" lon="4.41229">
        <ele>912</ele>
        <time>2016-05-19T11:44:46.192Z</time>
      </trkpt>
      <trkpt lat="45.84756" lon="4.41241">
        <ele>913</ele>
        <time>2016-05-19T11:44:53.216Z</time>
      </trkpt>
      <trkpt lat="45.84755" lon="4.41242">
        <ele>913</ele>
        <time>2016-05-19T11:44:54.222Z</time>
      </trkpt>
      <trkpt lat="45.84753" lon="4.41254">
        <ele>915</ele>
        <time>2016-05-19T11:45:02.208Z</time>
      </trkpt>
      <trkpt lat="45.84753" lon="4.41256">
        <ele>915</ele>
        <time>2016-05-19T11:45:03.2Z</time>
      </trkpt>
      <trkpt lat="45.84753" lon="4.41268">
        <ele>916</ele>
        <time>2016-05-19T11:45:12.214Z</time>
      </trkpt>
      <trkpt lat="45.84753" lon="4.41269">
        <ele>916</ele>
        <time>2016-05-19T11:45:13.239Z</time>
      </trkpt>
      <trkpt lat="45.84754" lon="4.41281">
        <ele>917</ele>
        <time>2016-05-19T11:50:15.204Z</time>
      </trkpt>
      <trkpt lat="45.84754" lon="4.41283">
        <ele>917</ele>
        <time>2016-05-19T11:50:16.199Z</time>
      </trkpt>
      <trkpt lat="45.84754" lon="4.41294">
        <ele>917</ele>
        <time>2016-05-19T11:50:24.191Z</time>
      </trkpt>
      <trkpt lat="45.84754" lon="4.41296">
        <ele>917</ele>
        <time>2016-05-19T11:50:25.191Z</time>
      </trkpt>
      <trkpt lat="45.84753" lon="4.41308">
        <ele>918</ele>
        <time>2016-05-19T11:50:33.197Z</time>
      </trkpt>
      <trkpt lat="45.84752" lon="4.4131">
        <ele>919</ele>
        <time>2016-05-19T11:50:34.203Z</time>
      </trkpt>
      <trkpt lat="45.84749" lon="4.41321">
        <ele>918</ele>
        <time>2016-05-19T11:50:41.202Z</time>
      </trkpt>
      <trkpt lat="45.84748" lon="4.41323">
        <ele>918</ele>
        <time>2016-05-19T11:50:42.205Z</time>
      </trkpt>
      <trkpt lat="45.84746" lon="4.41334">
        <ele>921</ele>
        <time>2016-05-19T11:50:48.216Z</time>
      </trkpt>
      <trkpt lat="45.84745" lon="4.41336">
        <ele>921</ele>
        <time>2016-05-19T11:50:49.202Z</time>
      </trkpt>
      <trkpt lat="45.84742" lon="4.41347">
        <ele>919</ele>
        <time>2016-05-19T11:50:55.207Z</time>
      </trkpt>
      <trkpt lat="45.84742" lon="4.41349">
        <ele>919</ele>
        <time>2016-05-19T11:50:56.205Z</time>
      </trkpt>
      <trkpt lat="45.84738" lon="4.4136">
        <ele>918</ele>
        <time>2016-05-19T11:51:03.201Z</time>
      </trkpt>
      <trkpt lat="45.84737" lon="4.41361">
        <ele>917</ele>
        <time>2016-05-19T11:51:04.217Z</time>
      </trkpt>
      <trkpt lat="45.84732" lon="4.41372">
        <ele>917</ele>
        <time>2016-05-19T11:51:11.201Z</time>
      </trkpt>
      <trkpt lat="45.84732" lon="4.41373">
        <ele>917</ele>
        <time>2016-05-19T11:51:12.203Z</time>
      </trkpt>
      <trkpt lat="45.84727" lon="4.41383">
        <ele>917</ele>
        <time>2016-05-19T11:51:19.202Z</time>
      </trkpt>
      <trkpt lat="45.84726" lon="4.41385">
        <ele>917</ele>
        <time>2016-05-19T11:51:20.206Z</time>
      </trkpt>
      <trkpt lat="45.84722" lon="4.41396">
        <ele>917</ele>
        <time>2016-05-19T11:51:27.2Z</time>
      </trkpt>
      <trkpt lat="45.84721" lon="4.41398">
        <ele>917</ele>
        <time>2016-05-19T11:51:28.214Z</time>
      </trkpt>
      <trkpt lat="45.84717" lon="4.41409">
        <ele>917</ele>
        <time>2016-05-19T11:51:36.197Z</time>
      </trkpt>
      <trkpt lat="45.84717" lon="4.4141">
        <ele>917</ele>
        <time>2016-05-19T11:51:37.214Z</time>
      </trkpt>
      <trkpt lat="45.84714" lon="4.41421">
        <ele>918</ele>
        <time>2016-05-19T11:51:45.202Z</time>
      </trkpt>
      <trkpt lat="45.84713" lon="4.41422">
        <ele>918</ele>
        <time>2016-05-19T11:51:46.216Z</time>
      </trkpt>
      <trkpt lat="45.84709" lon="4.41433">
        <ele>917</ele>
        <time>2016-05-19T11:51:55.199Z</time>
      </trkpt>
      <trkpt lat="45.84708" lon="4.41435">
        <ele>917</ele>
        <time>2016-05-19T11:51:56.2Z</time>
      </trkpt>
      <trkpt lat="45.84702" lon="4.41445">
        <ele>917</ele>
        <time>2016-05-19T11:52:03.205Z</time>
      </trkpt>
      <trkpt lat="45.84702" lon="4.41447">
        <ele>917</ele>
        <time>2016-05-19T11:52:04.203Z</time>
      </trkpt>
      <trkpt lat="45.84698" lon="4.41457">
        <ele>916</ele>
        <time>2016-05-19T11:52:10.216Z</time>
      </trkpt>
      <trkpt lat="45.84698" lon="4.41459">
        <ele>916</ele>
        <time>2016-05-19T11:52:11.205Z</time>
      </trkpt>
      <trkpt lat="45.84695" lon="4.4147">
        <ele>916</ele>
        <time>2016-05-19T11:52:18.2Z</time>
      </trkpt>
      <trkpt lat="45.84695" lon="4.41472">
        <ele>916</ele>
        <time>2016-05-19T11:52:19.199Z</time>
      </trkpt>
      <trkpt lat="45.84691" lon="4.41482">
        <ele>916</ele>
        <time>2016-05-19T11:52:25.2Z</time>
      </trkpt>
      <trkpt lat="45.8469" lon="4.41484">
        <ele>916</ele>
        <time>2016-05-19T11:52:26.204Z</time>
      </trkpt>
      <trkpt lat="45.84686" lon="4.41494">
        <ele>915</ele>
        <time>2016-05-19T11:52:32.199Z</time>
      </trkpt>
      <trkpt lat="45.84686" lon="4.41495">
        <ele>915</ele>
        <time>2016-05-19T11:52:33.199Z</time>
      </trkpt>
      <trkpt lat="45.84682" lon="4.41506">
        <ele>915</ele>
        <time>2016-05-19T11:52:40.198Z</time>
      </trkpt>
      <trkpt lat="45.84681" lon="4.41508">
        <ele>916</ele>
        <time>2016-05-19T11:52:41.195Z</time>
      </trkpt>
      <trkpt lat="45.84676" lon="4.41519">
        <ele>916</ele>
        <time>2016-05-19T11:52:48.215Z</time>
      </trkpt>
      <trkpt lat="45.84676" lon="4.4152">
        <ele>916</ele>
        <time>2016-05-19T11:52:49.207Z</time>
      </trkpt>
      <trkpt lat="45.84674" lon="4.41532">
        <ele>917</ele>
        <time>2016-05-19T11:52:55.198Z</time>
      </trkpt>
      <trkpt lat="45.84674" lon="4.41534">
        <ele>917</ele>
        <time>2016-05-19T11:52:56.205Z</time>
      </trkpt>
      <trkpt lat="45.84673" lon="4.41546">
        <ele>917</ele>
        <time>2016-05-19T11:53:02.2Z</time>
      </trkpt>
      <trkpt lat="45.84673" lon="4.41548">
        <ele>917</ele>
        <time>2016-05-19T11:53:03.205Z</time>
      </trkpt>
      <trkpt lat="45.8467" lon="4.41558">
        <ele>916</ele>
        <time>2016-05-19T11:53:08.215Z</time>
      </trkpt>
      <trkpt lat="45.84669" lon="4.4156">
        <ele>916</ele>
        <time>2016-05-19T11:53:09.216Z</time>
      </trkpt>
      <trkpt lat="45.84666" lon="4.4157">
        <ele>910</ele>
        <time>2016-05-19T11:53:14.204Z</time>
      </trkpt>
      <trkpt lat="45.84665" lon="4.41572">
        <ele>910</ele>
        <time>2016-05-19T11:53:15.2Z</time>
      </trkpt>
      <trkpt lat="45.84662" lon="4.41583">
        <ele>912</ele>
        <time>2016-05-19T11:53:21.196Z</time>
      </trkpt>
      <trkpt lat="45.84662" lon="4.41585">
        <ele>912</ele>
        <time>2016-05-19T11:53:22.195Z</time>
      </trkpt>
      <trkpt lat="45.8466" lon="4.41597">
        <ele>911</ele>
        <time>2016-05-19T11:53:28.203Z</time>
      </trkpt>
      <trkpt lat="45.84659" lon="4.41599">
        <ele>911</ele>
        <time>2016-05-19T11:53:29.2Z</time>
      </trkpt>
      <trkpt lat="45.84657" lon="4.4161">
        <ele>910</ele>
        <time>2016-05-19T11:53:35.206Z</time>
      </trkpt>
      <trkpt lat="45.84656" lon="4.41612">
        <ele>910</ele>
        <time>2016-05-19T11:53:36.203Z</time>
      </trkpt>
      <trkpt lat="45.84655" lon="4.41623">
        <ele>910</ele>
        <time>2016-05-19T11:53:42.213Z</time>
      </trkpt>
      <trkpt lat="45.84654" lon="4.41625">
        <ele>910</ele>
        <time>2016-05-19T11:53:43.199Z</time>
      </trkpt>
      <trkpt lat="45.84653" lon="4.41637">
        <ele>910</ele>
        <time>2016-05-19T11:53:50.204Z</time>
      </trkpt>
      <trkpt lat="45.84653" lon="4.41638">
        <ele>910</ele>
        <time>2016-05-19T11:53:51.201Z</time>
      </trkpt>
      <trkpt lat="45.84657" lon="4.4165">
        <ele>911</ele>
        <time>2016-05-19T11:54:15.19Z</time>
      </trkpt>
      <trkpt lat="45.84658" lon="4.4165">
        <ele>911</ele>
        <time>2016-05-19T11:54:16.195Z</time>
      </trkpt>
      <trkpt lat="45.84662" lon="4.41661">
        <ele>913</ele>
        <time>2016-05-19T11:54:27.204Z</time>
      </trkpt>
      <trkpt lat="45.84663" lon="4.41662">
        <ele>913</ele>
        <time>2016-05-19T11:54:28.193Z</time>
      </trkpt>
      <trkpt lat="45.84666" lon="4.41674">
        <ele>913</ele>
        <time>2016-05-19T11:54:37.202Z</time>
      </trkpt>
      <trkpt lat="45.84667" lon="4.41675">
        <ele>915</ele>
        <time>2016-05-19T11:54:38.199Z</time>
      </trkpt>
      <trkpt lat="45.84671" lon="4.41686">
        <ele>916</ele>
        <time>2016-05-19T11:54:47.194Z</time>
      </trkpt>
      <trkpt lat="45.84671" lon="4.41688">
        <ele>916</ele>
        <time>2016-05-19T11:54:48.212Z</time>
      </trkpt>
      <trkpt lat="45.84678" lon="4.41694">
        <ele>916</ele>
        <time>2016-05-19T11:54:56.214Z</time>
      </trkpt>
      <trkpt lat="45.84679" lon="4.41695">
        <ele>916</ele>
        <time>2016-05-19T11:54:57.201Z</time>
      </trkpt>
      <trkpt lat="45.84686" lon="4.41702">
        <ele>916</ele>
        <time>2016-05-19T11:55:09.201Z</time>
      </trkpt>
      <trkpt lat="45.84686" lon="4.41702">
        <ele>916</ele>
        <time>2016-05-19T11:55:10.201Z</time>
      </trkpt>
      <trkpt lat="45.84691" lon="4.4171">
        <ele>916</ele>
        <time>2016-05-19T11:55:17.205Z</time>
      </trkpt>
      <trkpt lat="45.84693" lon="4.41712">
        <ele>916</ele>
        <time>2016-05-19T11:55:18.199Z</time>
      </trkpt>
      <trkpt lat="45.847" lon="4.41715">
        <ele>916</ele>
        <time>2016-05-19T11:55:21.196Z</time>
      </trkpt>
      <trkpt lat="45.84703" lon="4.41716">
        <ele>916</ele>
        <time>2016-05-19T11:55:22.202Z</time>
      </trkpt>
      <trkpt lat="45.8471" lon="4.41719">
        <ele>916</ele>
        <time>2016-05-19T11:55:25.205Z</time>
      </trkpt>
      <trkpt lat="45.84711" lon="4.4172">
        <ele>916</ele>
        <time>2016-05-19T11:55:26.201Z</time>
      </trkpt>
      <trkpt lat="45.84718" lon="4.41727">
        <ele>916</ele>
        <time>2016-05-19T11:55:35.203Z</time>
      </trkpt>
      <trkpt lat="45.8472" lon="4.41728">
        <ele>916</ele>
        <time>2016-05-19T11:55:36.198Z</time>
      </trkpt>
      <trkpt lat="45.84726" lon="4.41736">
        <ele>917</ele>
        <time>2016-05-19T11:55:44.203Z</time>
      </trkpt>
      <trkpt lat="45.84727" lon="4.41737">
        <ele>917</ele>
        <time>2016-05-19T11:55:45.197Z</time>
      </trkpt>
      <trkpt lat="45.84734" lon="4.41741">
        <ele>917</ele>
        <time>2016-05-19T11:55:50.206Z</time>
      </trkpt>
      <trkpt lat="45.84736" lon="4.41741">
        <ele>917</ele>
        <time>2016-05-19T11:55:51.197Z</time>
      </trkpt>
      <trkpt lat="45.84744" lon="4.41744">
        <ele>917</ele>
        <time>2016-05-19T11:55:56.203Z</time>
      </trkpt>
      <trkpt lat="45.84745" lon="4.41744">
        <ele>917</ele>
        <time>2016-05-19T11:55:57.198Z</time>
      </trkpt>
      <trkpt lat="45.84753" lon="4.41748">
        <ele>918</ele>
        <time>2016-05-19T11:56:03.196Z</time>
      </trkpt>
      <trkpt lat="45.84754" lon="4.41748">
        <ele>918</ele>
        <time>2016-05-19T11:56:04.2Z</time>
      </trkpt>
      <trkpt lat="45.84761" lon="4.41756">
        <ele>913</ele>
        <time>2016-05-19T11:56:14.206Z</time>
      </trkpt>
      <trkpt lat="45.84762" lon="4.41757">
        <ele>913</ele>
        <time>2016-05-19T11:56:15.195Z</time>
      </trkpt>
      <trkpt lat="45.84768" lon="4.41765">
        <ele>912</ele>
        <time>2016-05-19T11:56:23.191Z</time>
      </trkpt>
      <trkpt lat="45.8477" lon="4.41766">
        <ele>911</ele>
        <time>2016-05-19T11:56:24.205Z</time>
      </trkpt>
      <trkpt lat="45.84775" lon="4.41772">
        <ele>910</ele>
        <time>2016-05-19T11:56:28.196Z</time>
      </trkpt>
      <trkpt lat="45.84777" lon="4.41774">
        <ele>910</ele>
        <time>2016-05-19T11:56:29.202Z</time>
      </trkpt>
      <trkpt lat="45.84783" lon="4.41779">
        <ele>909</ele>
        <time>2016-05-19T11:56:32.194Z</time>
      </trkpt>
      <trkpt lat="45.84785" lon="4.41781">
        <ele>909</ele>
        <time>2016-05-19T11:56:33.205Z</time>
      </trkpt>
      <trkpt lat="45.84792" lon="4.41785">
        <ele>909</ele>
        <time>2016-05-19T11:56:37.194Z</time>
      </trkpt>
      <trkpt lat="45.84793" lon="4.41787">
        <ele>909</ele>
        <time>2016-05-19T11:56:38.206Z</time>
      </trkpt>
      <trkpt lat="45.84801" lon="4.41793">
        <ele>908</ele>
        <time>2016-05-19T11:56:44.197Z</time>
      </trkpt>
      <trkpt lat="45.84804" lon="4.41794">
        <ele>908</ele>
        <time>2016-05-19T11:56:45.197Z</time>
      </trkpt>
      <trkpt lat="45.8481" lon="4.418">
        <ele>908</ele>
        <time>2016-05-19T11:56:49.196Z</time>
      </trkpt>
      <trkpt lat="45.84812" lon="4.41802">
        <ele>908</ele>
        <time>2016-05-19T11:56:50.197Z</time>
      </trkpt>
      <trkpt lat="45.84818" lon="4.41809">
        <ele>907</ele>
        <time>2016-05-19T11:56:56.197Z</time>
      </trkpt>
      <trkpt lat="45.8482" lon="4.4181">
        <ele>907</ele>
        <time>2016-05-19T11:56:57.203Z</time>
      </trkpt>
      <trkpt lat="45.84827" lon="4.41814">
        <ele>907</ele>
        <time>2016-05-19T11:57:03.192Z</time>
      </trkpt>
      <trkpt lat="45.84828" lon="4.41815">
        <ele>907</ele>
        <time>2016-05-19T11:57:04.202Z</time>
      </trkpt>
      <trkpt lat="45.84836" lon="4.41819">
        <ele>907</ele>
        <time>2016-05-19T11:57:10.199Z</time>
      </trkpt>
      <trkpt lat="45.84837" lon="4.41819">
        <ele>907</ele>
        <time>2016-05-19T11:57:11.198Z</time>
      </trkpt>
      <trkpt lat="45.84845" lon="4.41823">
        <ele>907</ele>
        <time>2016-05-19T11:57:17.199Z</time>
      </trkpt>
      <trkpt lat="45.84846" lon="4.41823">
        <ele>907</ele>
        <time>2016-05-19T11:57:18.197Z</time>
      </trkpt>
      <trkpt lat="45.84854" lon="4.41827">
        <ele>907</ele>
        <time>2016-05-19T11:57:24.202Z</time>
      </trkpt>
      <trkpt lat="45.84855" lon="4.41828">
        <ele>907</ele>
        <time>2016-05-19T11:57:25.196Z</time>
      </trkpt>
      <trkpt lat="45.84862" lon="4.4183">
        <ele>908</ele>
        <time>2016-05-19T11:57:30.198Z</time>
      </trkpt>
      <trkpt lat="45.84864" lon="4.4183">
        <ele>908</ele>
        <time>2016-05-19T11:57:31.187Z</time>
      </trkpt>
      <trkpt lat="45.84871" lon="4.41834">
        <ele>903</ele>
        <time>2016-05-19T11:57:38.199Z</time>
      </trkpt>
      <trkpt lat="45.84873" lon="4.41835">
        <ele>903</ele>
        <time>2016-05-19T11:57:39.198Z</time>
      </trkpt>
      <trkpt lat="45.8488" lon="4.41842">
        <ele>903</ele>
        <time>2016-05-19T11:57:46.19Z</time>
      </trkpt>
      <trkpt lat="45.84881" lon="4.41843">
        <ele>903</ele>
        <time>2016-05-19T11:57:47.205Z</time>
      </trkpt>
      <trkpt lat="45.84888" lon="4.41848">
        <ele>903</ele>
        <time>2016-05-19T11:57:52.194Z</time>
      </trkpt>
      <trkpt lat="45.84889" lon="4.4185">
        <ele>903</ele>
        <time>2016-05-19T11:57:53.195Z</time>
      </trkpt>
      <trkpt lat="45.84895" lon="4.41858">
        <ele>903</ele>
        <time>2016-05-19T11:57:58.19Z</time>
      </trkpt>
      <trkpt lat="45.84896" lon="4.41859">
        <ele>903</ele>
        <time>2016-05-19T11:57:59.205Z</time>
      </trkpt>
      <trkpt lat="45.84903" lon="4.41865">
        <ele>903</ele>
        <time>2016-05-19T11:58:05.18Z</time>
      </trkpt>
      <trkpt lat="45.84904" lon="4.41866">
        <ele>903</ele>
        <time>2016-05-19T11:58:06.18Z</time>
      </trkpt>
      <trkpt lat="45.84912" lon="4.41871">
        <ele>903</ele>
        <time>2016-05-19T11:58:12.199Z</time>
      </trkpt>
      <trkpt lat="45.84913" lon="4.41872">
        <ele>903</ele>
        <time>2016-05-19T11:58:13.19Z</time>
      </trkpt>
      <trkpt lat="45.84921" lon="4.41877">
        <ele>901</ele>
        <time>2016-05-19T11:58:19.198Z</time>
      </trkpt>
      <trkpt lat="45.84922" lon="4.41879">
        <ele>901</ele>
        <time>2016-05-19T11:58:20.207Z</time>
      </trkpt>
      <trkpt lat="45.84927" lon="4.41889">
        <ele>901</ele>
        <time>2016-05-19T11:58:28.2Z</time>
      </trkpt>
      <trkpt lat="45.84927" lon="4.4189">
        <ele>901</ele>
        <time>2016-05-19T11:58:29.201Z</time>
      </trkpt>
      <trkpt lat="45.84933" lon="4.41898">
        <ele>901</ele>
        <time>2016-05-19T11:58:37.209Z</time>
      </trkpt>
      <trkpt lat="45.84934" lon="4.41899">
        <ele>901</ele>
        <time>2016-05-19T11:58:38.214Z</time>
      </trkpt>
      <trkpt lat="45.8494" lon="4.41905">
        <ele>901</ele>
        <time>2016-05-19T11:58:43.199Z</time>
      </trkpt>
      <trkpt lat="45.84941" lon="4.41907">
        <ele>901</ele>
        <time>2016-05-19T11:58:44.19Z</time>
      </trkpt>
      <trkpt lat="45.84947" lon="4.41916">
        <ele>901</ele>
        <time>2016-05-19T11:58:49.207Z</time>
      </trkpt>
      <trkpt lat="45.84948" lon="4.41917">
        <ele>898</ele>
        <time>2016-05-19T11:58:50.202Z</time>
      </trkpt>
      <trkpt lat="45.84954" lon="4.41925">
        <ele>898</ele>
        <time>2016-05-19T11:58:56.21Z</time>
      </trkpt>
      <trkpt lat="45.84956" lon="4.41926">
        <ele>898</ele>
        <time>2016-05-19T11:58:57.206Z</time>
      </trkpt>
      <trkpt lat="45.84962" lon="4.41931">
        <ele>897</ele>
        <time>2016-05-19T11:59:02.205Z</time>
      </trkpt>
      <trkpt lat="45.84964" lon="4.41932">
        <ele>897</ele>
        <time>2016-05-19T11:59:03.199Z</time>
      </trkpt>
      <trkpt lat="45.84969" lon="4.41943">
        <ele>897</ele>
        <time>2016-05-19T11:59:10.205Z</time>
      </trkpt>
      <trkpt lat="45.8497" lon="4.41944">
        <ele>897</ele>
        <time>2016-05-19T11:59:11.204Z</time>
      </trkpt>
      <trkpt lat="45.84977" lon="4.41952">
        <ele>897</ele>
        <time>2016-05-19T11:59:17.198Z</time>
      </trkpt>
      <trkpt lat="45.84978" lon="4.41953">
        <ele>896</ele>
        <time>2016-05-19T11:59:18.204Z</time>
      </trkpt>
      <trkpt lat="45.84985" lon="4.41959">
        <ele>896</ele>
        <time>2016-05-19T11:59:25.186Z</time>
      </trkpt>
      <trkpt lat="45.84986" lon="4.4196">
        <ele>896</ele>
        <time>2016-05-19T11:59:26.191Z</time>
      </trkpt>
      <trkpt lat="45.84992" lon="4.41967">
        <ele>896</ele>
        <time>2016-05-19T11:59:32.206Z</time>
      </trkpt>
      <trkpt lat="45.84993" lon="4.41969">
        <ele>896</ele>
        <time>2016-05-19T11:59:33.205Z</time>
      </trkpt>
      <trkpt lat="45.84998" lon="4.41978">
        <ele>896</ele>
        <time>2016-05-19T11:59:39.209Z</time>
      </trkpt>
      <trkpt lat="45.84998" lon="4.4198">
        <ele>896</ele>
        <time>2016-05-19T11:59:40.209Z</time>
      </trkpt>
      <trkpt lat="45.85005" lon="4.41988">
        <ele>893</ele>
        <time>2016-05-19T11:59:46.196Z</time>
      </trkpt>
      <trkpt lat="45.85006" lon="4.41989">
        <ele>893</ele>
        <time>2016-05-19T11:59:47.207Z</time>
      </trkpt>
      <trkpt lat="45.85013" lon="4.41994">
        <ele>892</ele>
        <time>2016-05-19T11:59:53.2Z</time>
      </trkpt>
      <trkpt lat="45.85014" lon="4.41995">
        <ele>892</ele>
        <time>2016-05-19T11:59:54.203Z</time>
      </trkpt>
      <trkpt lat="45.85022" lon="4.41996">
        <ele>891</ele>
        <time>2016-05-19T12:00:01.206Z</time>
      </trkpt>
      <trkpt lat="45.85023" lon="4.41996">
        <ele>890</ele>
        <time>2016-05-19T12:00:02.208Z</time>
      </trkpt>
      <trkpt lat="45.85031" lon="4.41997">
        <ele>889</ele>
        <time>2016-05-19T12:00:11.203Z</time>
      </trkpt>
      <trkpt lat="45.85032" lon="4.41997">
        <ele>889</ele>
        <time>2016-05-19T12:00:12.208Z</time>
      </trkpt>
      <trkpt lat="45.85041" lon="4.41994">
        <ele>887</ele>
        <time>2016-05-19T12:00:27.199Z</time>
      </trkpt>
      <trkpt lat="45.85042" lon="4.41994">
        <ele>887</ele>
        <time>2016-05-19T12:00:28.206Z</time>
      </trkpt>
      <trkpt lat="45.8505" lon="4.41994">
        <ele>886</ele>
        <time>2016-05-19T12:00:36.209Z</time>
      </trkpt>
      <trkpt lat="45.85051" lon="4.41994">
        <ele>886</ele>
        <time>2016-05-19T12:00:37.205Z</time>
      </trkpt>
      <trkpt lat="45.85059" lon="4.41992">
        <ele>885</ele>
        <time>2016-05-19T12:00:46.206Z</time>
      </trkpt>
      <trkpt lat="45.8506" lon="4.41991">
        <ele>885</ele>
        <time>2016-05-19T12:00:47.198Z</time>
      </trkpt>
      <trkpt lat="45.85068" lon="4.4199">
        <ele>884</ele>
        <time>2016-05-19T12:00:54.203Z</time>
      </trkpt>
      <trkpt lat="45.85069" lon="4.4199">
        <ele>884</ele>
        <time>2016-05-19T12:00:55.206Z</time>
      </trkpt>
      <trkpt lat="45.85078" lon="4.4199">
        <ele>882</ele>
        <time>2016-05-19T12:01:04.205Z</time>
      </trkpt>
      <trkpt lat="45.85078" lon="4.4199">
        <ele>882</ele>
        <time>2016-05-19T12:01:05.207Z</time>
      </trkpt>
      <trkpt lat="45.85087" lon="4.41989">
        <ele>876</ele>
        <time>2016-05-19T12:01:18.202Z</time>
      </trkpt>
      <trkpt lat="45.85088" lon="4.4199">
        <ele>876</ele>
        <time>2016-05-19T12:01:19.205Z</time>
      </trkpt>
      <trkpt lat="45.85093" lon="4.4198">
        <ele>873</ele>
        <time>2016-05-19T12:01:42.201Z</time>
      </trkpt>
      <trkpt lat="45.85093" lon="4.41979">
        <ele>873</ele>
        <time>2016-05-19T12:01:43.204Z</time>
      </trkpt>
      <trkpt lat="45.85092" lon="4.41967">
        <ele>872</ele>
        <time>2016-05-19T12:01:52.197Z</time>
      </trkpt>
      <trkpt lat="45.85092" lon="4.41966">
        <ele>871</ele>
        <time>2016-05-19T12:01:53.199Z</time>
      </trkpt>
      <trkpt lat="45.8509" lon="4.41955">
        <ele>871</ele>
        <time>2016-05-19T12:02:00.209Z</time>
      </trkpt>
      <trkpt lat="45.8509" lon="4.41953">
        <ele>871</ele>
        <time>2016-05-19T12:02:01.207Z</time>
      </trkpt>
      <trkpt lat="45.85087" lon="4.41941">
        <ele>871</ele>
        <time>2016-05-19T12:02:08.211Z</time>
      </trkpt>
      <trkpt lat="45.85087" lon="4.41939">
        <ele>872</ele>
        <time>2016-05-19T12:02:09.209Z</time>
      </trkpt>
      <trkpt lat="45.85083" lon="4.41929">
        <ele>873</ele>
        <time>2016-05-19T12:02:16.203Z</time>
      </trkpt>
      <trkpt lat="45.85083" lon="4.41928">
        <ele>880</ele>
        <time>2016-05-19T12:02:17.202Z</time>
      </trkpt>
      <trkpt lat="45.85079" lon="4.41918">
        <ele>878</ele>
        <time>2016-05-19T12:02:24.205Z</time>
      </trkpt>
      <trkpt lat="45.85078" lon="4.41917">
        <ele>878</ele>
        <time>2016-05-19T12:02:25.206Z</time>
      </trkpt>
      <trkpt lat="45.85075" lon="4.41906">
        <ele>880</ele>
        <time>2016-05-19T12:02:31.197Z</time>
      </trkpt>
      <trkpt lat="45.85074" lon="4.41904">
        <ele>880</ele>
        <time>2016-05-19T12:02:32.193Z</time>
      </trkpt>
      <trkpt lat="45.85071" lon="4.41894">
        <ele>881</ele>
        <time>2016-05-19T12:02:39.203Z</time>
      </trkpt>
      <trkpt lat="45.8507" lon="4.41892">
        <ele>881</ele>
        <time>2016-05-19T12:02:40.205Z</time>
      </trkpt>
      <trkpt lat="45.85067" lon="4.41881">
        <ele>882</ele>
        <time>2016-05-19T12:02:48.2Z</time>
      </trkpt>
      <trkpt lat="45.85066" lon="4.41879">
        <ele>882</ele>
        <time>2016-05-19T12:02:49.206Z</time>
      </trkpt>
      <trkpt lat="45.85064" lon="4.41867">
        <ele>882</ele>
        <time>2016-05-19T12:02:57.202Z</time>
      </trkpt>
      <trkpt lat="45.85064" lon="4.41865">
        <ele>881</ele>
        <time>2016-05-19T12:02:58.204Z</time>
      </trkpt>
      <trkpt lat="45.85061" lon="4.41853">
        <ele>881</ele>
        <time>2016-05-19T12:03:05.192Z</time>
      </trkpt>
      <trkpt lat="45.8506" lon="4.41851">
        <ele>881</ele>
        <time>2016-05-19T12:03:06.199Z</time>
      </trkpt>
      <trkpt lat="45.85058" lon="4.4184">
        <ele>881</ele>
        <time>2016-05-19T12:03:13.188Z</time>
      </trkpt>
      <trkpt lat="45.85058" lon="4.41838">
        <ele>881</ele>
        <time>2016-05-19T12:03:14.193Z</time>
      </trkpt>
      <trkpt lat="45.85056" lon="4.41826">
        <ele>880</ele>
        <time>2016-05-19T12:03:21.196Z</time>
      </trkpt>
      <trkpt lat="45.85056" lon="4.41825">
        <ele>880</ele>
        <time>2016-05-19T12:03:22.189Z</time>
      </trkpt>
      <trkpt lat="45.85057" lon="4.41813">
        <ele>880</ele>
        <time>2016-05-19T12:03:29.183Z</time>
      </trkpt>
      <trkpt lat="45.85057" lon="4.41811">
        <ele>880</ele>
        <time>2016-05-19T12:03:30.181Z</time>
      </trkpt>
      <trkpt lat="45.85058" lon="4.418">
        <ele>880</ele>
        <time>2016-05-19T12:03:37.191Z</time>
      </trkpt>
      <trkpt lat="45.85058" lon="4.41798">
        <ele>880</ele>
        <time>2016-05-19T12:03:38.207Z</time>
      </trkpt>
      <trkpt lat="45.85058" lon="4.41785">
        <ele>880</ele>
        <time>2016-05-19T12:03:44.204Z</time>
      </trkpt>
      <trkpt lat="45.85057" lon="4.41783">
        <ele>880</ele>
        <time>2016-05-19T12:03:45.206Z</time>
      </trkpt>
      <trkpt lat="45.85056" lon="4.41771">
        <ele>880</ele>
        <time>2016-05-19T12:03:50.205Z</time>
      </trkpt>
      <trkpt lat="45.85056" lon="4.41768">
        <ele>880</ele>
        <time>2016-05-19T12:03:51.202Z</time>
      </trkpt>
      <trkpt lat="45.85055" lon="4.41756">
        <ele>879</ele>
        <time>2016-05-19T12:03:58.207Z</time>
      </trkpt>
      <trkpt lat="45.85055" lon="4.41754">
        <ele>879</ele>
        <time>2016-05-19T12:03:59.206Z</time>
      </trkpt>
      <trkpt lat="45.85058" lon="4.41742">
        <ele>879</ele>
        <time>2016-05-19T12:04:06.204Z</time>
      </trkpt>
      <trkpt lat="45.85058" lon="4.4174">
        <ele>879</ele>
        <time>2016-05-19T12:04:07.209Z</time>
      </trkpt>
      <trkpt lat="45.85058" lon="4.41728">
        <ele>880</ele>
        <time>2016-05-19T12:04:14.199Z</time>
      </trkpt>
      <trkpt lat="45.85058" lon="4.41726">
        <ele>880</ele>
        <time>2016-05-19T12:04:15.205Z</time>
      </trkpt>
      <trkpt lat="45.8506" lon="4.41715">
        <ele>880</ele>
        <time>2016-05-19T12:04:22.206Z</time>
      </trkpt>
      <trkpt lat="45.8506" lon="4.41713">
        <ele>880</ele>
        <time>2016-05-19T12:04:23.205Z</time>
      </trkpt>
      <trkpt lat="45.85061" lon="4.41702">
        <ele>880</ele>
        <time>2016-05-19T12:04:29.202Z</time>
      </trkpt>
      <trkpt lat="45.85061" lon="4.417">
        <ele>880</ele>
        <time>2016-05-19T12:04:30.203Z</time>
      </trkpt>
      <trkpt lat="45.85062" lon="4.41688">
        <ele>879</ele>
        <time>2016-05-19T12:04:36.198Z</time>
      </trkpt>
      <trkpt lat="45.85063" lon="4.41686">
        <ele>879</ele>
        <time>2016-05-19T12:04:37.202Z</time>
      </trkpt>
      <trkpt lat="45.85065" lon="4.41674">
        <ele>877</ele>
        <time>2016-05-19T12:04:42.206Z</time>
      </trkpt>
      <trkpt lat="45.85065" lon="4.41672">
        <ele>877</ele>
        <time>2016-05-19T12:04:43.202Z</time>
      </trkpt>
      <trkpt lat="45.8507" lon="4.41662">
        <ele>876</ele>
        <time>2016-05-19T12:04:49.203Z</time>
      </trkpt>
      <trkpt lat="45.85071" lon="4.4166">
        <ele>876</ele>
        <time>2016-05-19T12:04:50.205Z</time>
      </trkpt>
      <trkpt lat="45.85074" lon="4.4165">
        <ele>877</ele>
        <time>2016-05-19T12:04:57.207Z</time>
      </trkpt>
      <trkpt lat="45.85075" lon="4.41648">
        <ele>877</ele>
        <time>2016-05-19T12:04:58.206Z</time>
      </trkpt>
      <trkpt lat="45.85077" lon="4.41637">
        <ele>879</ele>
        <time>2016-05-19T12:05:05.201Z</time>
      </trkpt>
      <trkpt lat="45.85077" lon="4.41635">
        <ele>879</ele>
        <time>2016-05-19T12:05:06.204Z</time>
      </trkpt>
      <trkpt lat="45.85078" lon="4.41623">
        <ele>879</ele>
        <time>2016-05-19T12:05:12.206Z</time>
      </trkpt>
      <trkpt lat="45.85079" lon="4.41621">
        <ele>879</ele>
        <time>2016-05-19T12:05:13.205Z</time>
      </trkpt>
      <trkpt lat="45.8508" lon="4.41609">
        <ele>878</ele>
        <time>2016-05-19T12:05:19.201Z</time>
      </trkpt>
      <trkpt lat="45.8508" lon="4.41607">
        <ele>878</ele>
        <time>2016-05-19T12:05:20.198Z</time>
      </trkpt>
      <trkpt lat="45.85083" lon="4.41595">
        <ele>875</ele>
        <time>2016-05-19T12:05:27.205Z</time>
      </trkpt>
      <trkpt lat="45.85083" lon="4.41593">
        <ele>874</ele>
        <time>2016-05-19T12:05:28.203Z</time>
      </trkpt>
      <trkpt lat="45.85083" lon="4.41581">
        <ele>871</ele>
        <time>2016-05-19T12:05:35.203Z</time>
      </trkpt>
      <trkpt lat="45.85083" lon="4.4158">
        <ele>871</ele>
        <time>2016-05-19T12:05:36.202Z</time>
      </trkpt>
      <trkpt lat="45.85086" lon="4.41569">
        <ele>862</ele>
        <time>2016-05-19T12:05:44.202Z</time>
      </trkpt>
      <trkpt lat="45.85086" lon="4.41567">
        <ele>862</ele>
        <time>2016-05-19T12:05:45.201Z</time>
      </trkpt>
      <trkpt lat="45.85084" lon="4.41555">
        <ele>859</ele>
        <time>2016-05-19T12:05:52.202Z</time>
      </trkpt>
      <trkpt lat="45.85084" lon="4.41554">
        <ele>859</ele>
        <time>2016-05-19T12:05:53.2Z</time>
      </trkpt>
      <trkpt lat="45.85082" lon="4.41542">
        <ele>876</ele>
        <time>2016-05-19T12:06:01.202Z</time>
      </trkpt>
      <trkpt lat="45.85081" lon="4.41541">
        <ele>876</ele>
        <time>2016-05-19T12:06:02.206Z</time>
      </trkpt>
      <trkpt lat="45.85076" lon="4.41533">
        <ele>875</ele>
        <time>2016-05-19T12:06:09.206Z</time>
      </trkpt>
      <trkpt lat="45.85075" lon="4.41531">
        <ele>875</ele>
        <time>2016-05-19T12:06:10.206Z</time>
      </trkpt>
      <trkpt lat="45.8507" lon="4.41522">
        <ele>875</ele>
        <time>2016-05-19T12:06:17.207Z</time>
      </trkpt>
      <trkpt lat="45.85069" lon="4.41521">
        <ele>875</ele>
        <time>2016-05-19T12:06:18.209Z</time>
      </trkpt>
      <trkpt lat="45.85063" lon="4.41513">
        <ele>875</ele>
        <time>2016-05-19T12:06:25.208Z</time>
      </trkpt>
      <trkpt lat="45.85062" lon="4.41512">
        <ele>875</ele>
        <time>2016-05-19T12:06:26.205Z</time>
      </trkpt>
      <trkpt lat="45.85055" lon="4.41504">
        <ele>876</ele>
        <time>2016-05-19T12:06:34.187Z</time>
      </trkpt>
      <trkpt lat="45.85054" lon="4.41503">
        <ele>876</ele>
        <time>2016-05-19T12:06:35.185Z</time>
      </trkpt>
      <trkpt lat="45.85049" lon="4.41494">
        <ele>870</ele>
        <time>2016-05-19T12:06:45.198Z</time>
      </trkpt>
      <trkpt lat="45.85048" lon="4.41493">
        <ele>870</ele>
        <time>2016-05-19T12:06:46.207Z</time>
      </trkpt>
      <trkpt lat="45.85042" lon="4.41485">
        <ele>871</ele>
        <time>2016-05-19T12:06:53.2Z</time>
      </trkpt>
      <trkpt lat="45.85041" lon="4.41483">
        <ele>871</ele>
        <time>2016-05-19T12:06:54.201Z</time>
      </trkpt>
      <trkpt lat="45.85036" lon="4.41475">
        <ele>871</ele>
        <time>2016-05-19T12:07:01.201Z</time>
      </trkpt>
      <trkpt lat="45.85035" lon="4.41474">
        <ele>871</ele>
        <time>2016-05-19T12:07:02.202Z</time>
      </trkpt>
      <trkpt lat="45.8503" lon="4.41465">
        <ele>871</ele>
        <time>2016-05-19T12:07:10.204Z</time>
      </trkpt>
      <trkpt lat="45.85029" lon="4.41463">
        <ele>871</ele>
        <time>2016-05-19T12:07:11.206Z</time>
      </trkpt>
      <trkpt lat="45.85025" lon="4.41454">
        <ele>870</ele>
        <time>2016-05-19T12:07:19.208Z</time>
      </trkpt>
      <trkpt lat="45.85024" lon="4.41452">
        <ele>870</ele>
        <time>2016-05-19T12:07:20.2Z</time>
      </trkpt>
      <trkpt lat="45.8502" lon="4.41442">
        <ele>870</ele>
        <time>2016-05-19T12:07:28.203Z</time>
      </trkpt>
      <trkpt lat="45.8502" lon="4.4144">
        <ele>870</ele>
        <time>2016-05-19T12:07:29.198Z</time>
      </trkpt>
      <trkpt lat="45.85015" lon="4.4143">
        <ele>869</ele>
        <time>2016-05-19T12:07:38.196Z</time>
      </trkpt>
      <trkpt lat="45.85015" lon="4.41428">
        <ele>869</ele>
        <time>2016-05-19T12:07:39.196Z</time>
      </trkpt>
      <trkpt lat="45.85011" lon="4.41417">
        <ele>869</ele>
        <time>2016-05-19T12:07:47.205Z</time>
      </trkpt>
      <trkpt lat="45.85011" lon="4.41415">
        <ele>866</ele>
        <time>2016-05-19T12:07:48.199Z</time>
      </trkpt>
      <trkpt lat="45.85009" lon="4.41404">
        <ele>865</ele>
        <time>2016-05-19T12:07:55.201Z</time>
      </trkpt>
      <trkpt lat="45.85008" lon="4.41403">
        <ele>864</ele>
        <time>2016-05-19T12:07:56.196Z</time>
      </trkpt>
      <trkpt lat="45.85006" lon="4.41391">
        <ele>863</ele>
        <time>2016-05-19T12:08:04.203Z</time>
      </trkpt>
      <trkpt lat="45.85006" lon="4.4139">
        <ele>862</ele>
        <time>2016-05-19T12:08:05.205Z</time>
      </trkpt>
      <trkpt lat="45.85001" lon="4.4138">
        <ele>862</ele>
        <time>2016-05-19T12:08:39.195Z</time>
      </trkpt>
      <trkpt lat="45.85" lon="4.4138">
        <ele>862</ele>
        <time>2016-05-19T12:08:40.199Z</time>
      </trkpt>
      <trkpt lat="45.84994" lon="4.4137">
        <ele>876</ele>
        <time>2016-05-19T12:10:14.205Z</time>
      </trkpt>
      <trkpt lat="45.84994" lon="4.41369">
        <ele>876</ele>
        <time>2016-05-19T12:10:15.204Z</time>
      </trkpt>
      <trkpt lat="45.84991" lon="4.41357">
        <ele>874</ele>
        <time>2016-05-19T12:10:27.203Z</time>
      </trkpt>
      <trkpt lat="45.84991" lon="4.41356">
        <ele>874</ele>
        <time>2016-05-19T12:10:28.199Z</time>
      </trkpt>
      <trkpt lat="45.84991" lon="4.41345">
        <ele>871</ele>
        <time>2016-05-19T12:10:38.204Z</time>
      </trkpt>
      <trkpt lat="45.84991" lon="4.41343">
        <ele>871</ele>
        <time>2016-05-19T12:10:39.2Z</time>
      </trkpt>
      <trkpt lat="45.84989" lon="4.41332">
        <ele>869</ele>
        <time>2016-05-19T12:10:47.191Z</time>
      </trkpt>
      <trkpt lat="45.84989" lon="4.4133">
        <ele>869</ele>
        <time>2016-05-19T12:10:48.196Z</time>
      </trkpt>
      <trkpt lat="45.84986" lon="4.41318">
        <ele>871</ele>
        <time>2016-05-19T12:10:56.196Z</time>
      </trkpt>
      <trkpt lat="45.84985" lon="4.41317">
        <ele>872</ele>
        <time>2016-05-19T12:10:57.196Z</time>
      </trkpt>
      <trkpt lat="45.8498" lon="4.41307">
        <ele>873</ele>
        <time>2016-05-19T12:11:04.197Z</time>
      </trkpt>
      <trkpt lat="45.8498" lon="4.41306">
        <ele>873</ele>
        <time>2016-05-19T12:11:05.197Z</time>
      </trkpt>
      <trkpt lat="45.84977" lon="4.41294">
        <ele>874</ele>
        <time>2016-05-19T12:11:12.189Z</time>
      </trkpt>
      <trkpt lat="45.84977" lon="4.41293">
        <ele>874</ele>
        <time>2016-05-19T12:11:13.182Z</time>
      </trkpt>
      <trkpt lat="45.84974" lon="4.41281">
        <ele>874</ele>
        <time>2016-05-19T12:11:20.198Z</time>
      </trkpt>
      <trkpt lat="45.84974" lon="4.4128">
        <ele>874</ele>
        <time>2016-05-19T12:11:21.201Z</time>
      </trkpt>
      <trkpt lat="45.8497" lon="4.41269">
        <ele>874</ele>
        <time>2016-05-19T12:11:29.19Z</time>
      </trkpt>
      <trkpt lat="45.84969" lon="4.41268">
        <ele>874</ele>
        <time>2016-05-19T12:11:30.196Z</time>
      </trkpt>
      <trkpt lat="45.84966" lon="4.41257">
        <ele>874</ele>
        <time>2016-05-19T12:11:38.196Z</time>
      </trkpt>
      <trkpt lat="45.84966" lon="4.41256">
        <ele>874</ele>
        <time>2016-05-19T12:11:39.193Z</time>
      </trkpt>
      <trkpt lat="45.84964" lon="4.41244">
        <ele>873</ele>
        <time>2016-05-19T12:11:46.196Z</time>
      </trkpt>
      <trkpt lat="45.84964" lon="4.41242">
        <ele>873</ele>
        <time>2016-05-19T12:11:47.197Z</time>
      </trkpt>
      <trkpt lat="45.84961" lon="4.41232">
        <ele>873</ele>
        <time>2016-05-19T12:11:54.193Z</time>
      </trkpt>
      <trkpt lat="45.84961" lon="4.4123">
        <ele>873</ele>
        <time>2016-05-19T12:11:55.194Z</time>
      </trkpt>
      <trkpt lat="45.84959" lon="4.41218">
        <ele>874</ele>
        <time>2016-05-19T12:12:02.193Z</time>
      </trkpt>
      <trkpt lat="45.84959" lon="4.41217">
        <ele>874</ele>
        <time>2016-05-19T12:12:03.192Z</time>
      </trkpt>
      <trkpt lat="45.84957" lon="4.41206">
        <ele>874</ele>
        <time>2016-05-19T12:12:09.19Z</time>
      </trkpt>
      <trkpt lat="45.84956" lon="4.41204">
        <ele>874</ele>
        <time>2016-05-19T12:12:10.193Z</time>
      </trkpt>
      <trkpt lat="45.84955" lon="4.41191">
        <ele>874</ele>
        <time>2016-05-19T12:12:17.195Z</time>
      </trkpt>
      <trkpt lat="45.84955" lon="4.41189">
        <ele>874</ele>
        <time>2016-05-19T12:12:18.198Z</time>
      </trkpt>
      <trkpt lat="45.84955" lon="4.41177">
        <ele>874</ele>
        <time>2016-05-19T12:12:24.198Z</time>
      </trkpt>
      <trkpt lat="45.84956" lon="4.41175">
        <ele>874</ele>
        <time>2016-05-19T12:12:25.196Z</time>
      </trkpt>
      <trkpt lat="45.84957" lon="4.41163">
        <ele>871</ele>
        <time>2016-05-19T12:12:31.198Z</time>
      </trkpt>
      <trkpt lat="45.84957" lon="4.41161">
        <ele>871</ele>
        <time>2016-05-19T12:12:32.194Z</time>
      </trkpt>
      <trkpt lat="45.84957" lon="4.41149">
        <ele>871</ele>
        <time>2016-05-19T12:12:38.193Z</time>
      </trkpt>
      <trkpt lat="45.84957" lon="4.41146">
        <ele>871</ele>
        <time>2016-05-19T12:12:39.193Z</time>
      </trkpt>
      <trkpt lat="45.84958" lon="4.41135">
        <ele>871</ele>
        <time>2016-05-19T12:12:45.18Z</time>
      </trkpt>
      <trkpt lat="45.84959" lon="4.41134">
        <ele>871</ele>
        <time>2016-05-19T12:12:46.181Z</time>
      </trkpt>
      <trkpt lat="45.84966" lon="4.41126">
        <ele>870</ele>
        <time>2016-05-19T12:12:55.214Z</time>
      </trkpt>
      <trkpt lat="45.84966" lon="4.41125">
        <ele>870</ele>
        <time>2016-05-19T12:12:56.208Z</time>
      </trkpt>
      <trkpt lat="45.8497" lon="4.41115">
        <ele>869</ele>
        <time>2016-05-19T12:13:03.194Z</time>
      </trkpt>
      <trkpt lat="45.8497" lon="4.41113">
        <ele>869</ele>
        <time>2016-05-19T12:13:04.208Z</time>
      </trkpt>
      <trkpt lat="45.84975" lon="4.41103">
        <ele>868</ele>
        <time>2016-05-19T12:13:10.205Z</time>
      </trkpt>
      <trkpt lat="45.84976" lon="4.41102">
        <ele>868</ele>
        <time>2016-05-19T12:13:11.195Z</time>
      </trkpt>
      <trkpt lat="45.84983" lon="4.41096">
        <ele>866</ele>
        <time>2016-05-19T12:13:18.214Z</time>
      </trkpt>
      <trkpt lat="45.84984" lon="4.41095">
        <ele>866</ele>
        <time>2016-05-19T12:13:19.218Z</time>
      </trkpt>
      <trkpt lat="45.84991" lon="4.41087">
        <ele>864</ele>
        <time>2016-05-19T12:13:28.201Z</time>
      </trkpt>
      <trkpt lat="45.84991" lon="4.41085">
        <ele>864</ele>
        <time>2016-05-19T12:13:29.2Z</time>
      </trkpt>
      <trkpt lat="45.84998" lon="4.41078">
        <ele>863</ele>
        <time>2016-05-19T12:13:36.206Z</time>
      </trkpt>
      <trkpt lat="45.84999" lon="4.41077">
        <ele>864</ele>
        <time>2016-05-19T12:13:37.21Z</time>
      </trkpt>
      <trkpt lat="45.85006" lon="4.41068">
        <ele>859</ele>
        <time>2016-05-19T12:13:44.178Z</time>
      </trkpt>
      <trkpt lat="45.85007" lon="4.41067">
        <ele>859</ele>
        <time>2016-05-19T12:13:45.179Z</time>
      </trkpt>
      <trkpt lat="45.85014" lon="4.41062">
        <ele>859</ele>
        <time>2016-05-19T12:13:51.192Z</time>
      </trkpt>
      <trkpt lat="45.85015" lon="4.41061">
        <ele>859</ele>
        <time>2016-05-19T12:13:52.204Z</time>
      </trkpt>
      <trkpt lat="45.85021" lon="4.41053">
        <ele>858</ele>
        <time>2016-05-19T12:13:58.214Z</time>
      </trkpt>
      <trkpt lat="45.85022" lon="4.41052">
        <ele>858</ele>
        <time>2016-05-19T12:13:59.208Z</time>
      </trkpt>
      <trkpt lat="45.85028" lon="4.41042">
        <ele>858</ele>
        <time>2016-05-19T12:14:06.207Z</time>
      </trkpt>
      <trkpt lat="45.85029" lon="4.41042">
        <ele>858</ele>
        <time>2016-05-19T12:14:07.189Z</time>
      </trkpt>
      <trkpt lat="45.85036" lon="4.41037">
        <ele>858</ele>
        <time>2016-05-19T12:14:14.216Z</time>
      </trkpt>
      <trkpt lat="45.85037" lon="4.41036">
        <ele>858</ele>
        <time>2016-05-19T12:14:15.198Z</time>
      </trkpt>
      <trkpt lat="45.85045" lon="4.41032">
        <ele>857</ele>
        <time>2016-05-19T12:14:22.202Z</time>
      </trkpt>
      <trkpt lat="45.85046" lon="4.41031">
        <ele>857</ele>
        <time>2016-05-19T12:14:23.217Z</time>
      </trkpt>
      <trkpt lat="45.85053" lon="4.41027">
        <ele>857</ele>
        <time>2016-05-19T12:14:30.206Z</time>
      </trkpt>
      <trkpt lat="45.85054" lon="4.41025">
        <ele>857</ele>
        <time>2016-05-19T12:14:31.195Z</time>
      </trkpt>
      <trkpt lat="45.85061" lon="4.41018">
        <ele>857</ele>
        <time>2016-05-19T12:14:38.21Z</time>
      </trkpt>
      <trkpt lat="45.85062" lon="4.41017">
        <ele>856</ele>
        <time>2016-05-19T12:14:39.206Z</time>
      </trkpt>
      <trkpt lat="45.85068" lon="4.41008">
        <ele>856</ele>
        <time>2016-05-19T12:14:46.191Z</time>
      </trkpt>
      <trkpt lat="45.85069" lon="4.41007">
        <ele>856</ele>
        <time>2016-05-19T12:14:47.187Z</time>
      </trkpt>
      <trkpt lat="45.85074" lon="4.40998">
        <ele>857</ele>
        <time>2016-05-19T12:14:53.207Z</time>
      </trkpt>
      <trkpt lat="45.85075" lon="4.40997">
        <ele>857</ele>
        <time>2016-05-19T12:14:54.205Z</time>
      </trkpt>
      <trkpt lat="45.8508" lon="4.40987">
        <ele>858</ele>
        <time>2016-05-19T12:15:00.206Z</time>
      </trkpt>
      <trkpt lat="45.85081" lon="4.40985">
        <ele>858</ele>
        <time>2016-05-19T12:15:01.196Z</time>
      </trkpt>
      <trkpt lat="45.85087" lon="4.40975">
        <ele>850</ele>
        <time>2016-05-19T12:15:08.204Z</time>
      </trkpt>
      <trkpt lat="45.85088" lon="4.40975">
        <ele>850</ele>
        <time>2016-05-19T12:15:09.192Z</time>
      </trkpt>
      <trkpt lat="45.85094" lon="4.40967">
        <ele>849</ele>
        <time>2016-05-19T12:15:17.201Z</time>
      </trkpt>
      <trkpt lat="45.85094" lon="4.40965">
        <ele>849</ele>
        <time>2016-05-19T12:15:18.201Z</time>
      </trkpt>
      <trkpt lat="45.85097" lon="4.40955">
        <ele>849</ele>
        <time>2016-05-19T12:15:23.204Z</time>
      </trkpt>
      <trkpt lat="45.85098" lon="4.40953">
        <ele>849</ele>
        <time>2016-05-19T12:15:24.199Z</time>
      </trkpt>
      <trkpt lat="45.85104" lon="4.40944">
        <ele>850</ele>
        <time>2016-05-19T12:15:31.202Z</time>
      </trkpt>
      <trkpt lat="45.85104" lon="4.40943">
        <ele>850</ele>
        <time>2016-05-19T12:15:32.205Z</time>
      </trkpt>
      <trkpt lat="45.8511" lon="4.40933">
        <ele>850</ele>
        <time>2016-05-19T12:15:40.206Z</time>
      </trkpt>
      <trkpt lat="45.85111" lon="4.40932">
        <ele>850</ele>
        <time>2016-05-19T12:15:41.213Z</time>
      </trkpt>
      <trkpt lat="45.85117" lon="4.40923">
        <ele>849</ele>
        <time>2016-05-19T12:15:48.191Z</time>
      </trkpt>
      <trkpt lat="45.85117" lon="4.40921">
        <ele>849</ele>
        <time>2016-05-19T12:15:49.196Z</time>
      </trkpt>
      <trkpt lat="45.85123" lon="4.40913">
        <ele>846</ele>
        <time>2016-05-19T12:15:58.201Z</time>
      </trkpt>
      <trkpt lat="45.85125" lon="4.40912">
        <ele>846</ele>
        <time>2016-05-19T12:15:59.206Z</time>
      </trkpt>
      <trkpt lat="45.85133" lon="4.40909">
        <ele>845</ele>
        <time>2016-05-19T12:16:05.207Z</time>
      </trkpt>
      <trkpt lat="45.85134" lon="4.40909">
        <ele>845</ele>
        <time>2016-05-19T12:16:06.208Z</time>
      </trkpt>
      <trkpt lat="45.85142" lon="4.40903">
        <ele>844</ele>
        <time>2016-05-19T12:16:12.205Z</time>
      </trkpt>
      <trkpt lat="45.85143" lon="4.40902">
        <ele>844</ele>
        <time>2016-05-19T12:16:13.208Z</time>
      </trkpt>
      <trkpt lat="45.85151" lon="4.40899">
        <ele>844</ele>
        <time>2016-05-19T12:16:19.215Z</time>
      </trkpt>
      <trkpt lat="45.85152" lon="4.40898">
        <ele>844</ele>
        <time>2016-05-19T12:16:20.202Z</time>
      </trkpt>
      <trkpt lat="45.85159" lon="4.40893">
        <ele>843</ele>
        <time>2016-05-19T12:16:26.205Z</time>
      </trkpt>
      <trkpt lat="45.8516" lon="4.40892">
        <ele>843</ele>
        <time>2016-05-19T12:16:27.196Z</time>
      </trkpt>
      <trkpt lat="45.85166" lon="4.40883">
        <ele>843</ele>
        <time>2016-05-19T12:16:34.204Z</time>
      </trkpt>
      <trkpt lat="45.85166" lon="4.40881">
        <ele>842</ele>
        <time>2016-05-19T12:16:35.201Z</time>
      </trkpt>
      <trkpt lat="45.85173" lon="4.40874">
        <ele>835</ele>
        <time>2016-05-19T12:16:41.201Z</time>
      </trkpt>
      <trkpt lat="45.85174" lon="4.40873">
        <ele>835</ele>
        <time>2016-05-19T12:16:42.201Z</time>
      </trkpt>
      <trkpt lat="45.85181" lon="4.40865">
        <ele>834</ele>
        <time>2016-05-19T12:16:47.202Z</time>
      </trkpt>
      <trkpt lat="45.85182" lon="4.40864">
        <ele>834</ele>
        <time>2016-05-19T12:16:48.205Z</time>
      </trkpt>
      <trkpt lat="45.85187" lon="4.40857">
        <ele>834</ele>
        <time>2016-05-19T12:16:53.188Z</time>
      </trkpt>
      <trkpt lat="45.85188" lon="4.40855">
        <ele>834</ele>
        <time>2016-05-19T12:16:54.203Z</time>
      </trkpt>
      <trkpt lat="45.85194" lon="4.40849">
        <ele>833</ele>
        <time>2016-05-19T12:16:58.192Z</time>
      </trkpt>
      <trkpt lat="45.85196" lon="4.40848">
        <ele>833</ele>
        <time>2016-05-19T12:16:59.198Z</time>
      </trkpt>
      <trkpt lat="45.85204" lon="4.40844">
        <ele>833</ele>
        <time>2016-05-19T12:17:04.202Z</time>
      </trkpt>
      <trkpt lat="45.85205" lon="4.40843">
        <ele>833</ele>
        <time>2016-05-19T12:17:05.201Z</time>
      </trkpt>
      <trkpt lat="45.85213" lon="4.40838">
        <ele>832</ele>
        <time>2016-05-19T12:17:12.201Z</time>
      </trkpt>
      <trkpt lat="45.85214" lon="4.40837">
        <ele>832</ele>
        <time>2016-05-19T12:17:13.189Z</time>
      </trkpt>
      <trkpt lat="45.85221" lon="4.40833">
        <ele>827</ele>
        <time>2016-05-19T12:17:20.201Z</time>
      </trkpt>
      <trkpt lat="45.85222" lon="4.40832">
        <ele>827</ele>
        <time>2016-05-19T12:17:21.206Z</time>
      </trkpt>
      <trkpt lat="45.85231" lon="4.40828">
        <ele>828</ele>
        <time>2016-05-19T12:17:29.188Z</time>
      </trkpt>
      <trkpt lat="45.85231" lon="4.40828">
        <ele>828</ele>
        <time>2016-05-19T12:17:30.208Z</time>
      </trkpt>
      <trkpt lat="45.85238" lon="4.40824">
        <ele>828</ele>
        <time>2016-05-19T12:17:36.195Z</time>
      </trkpt>
      <trkpt lat="45.8524" lon="4.40822">
        <ele>828</ele>
        <time>2016-05-19T12:17:37.196Z</time>
      </trkpt>
      <trkpt lat="45.85247" lon="4.40819">
        <ele>828</ele>
        <time>2016-05-19T12:17:42.192Z</time>
      </trkpt>
      <trkpt lat="45.85249" lon="4.40819">
        <ele>828</ele>
        <time>2016-05-19T12:17:43.201Z</time>
      </trkpt>
      <trkpt lat="45.85257" lon="4.40816">
        <ele>829</ele>
        <time>2016-05-19T12:17:49.195Z</time>
      </trkpt>
      <trkpt lat="45.85259" lon="4.40816">
        <ele>829</ele>
        <time>2016-05-19T12:17:50.199Z</time>
      </trkpt>
      <trkpt lat="45.85266" lon="4.4081">
        <ele>828</ele>
        <time>2016-05-19T12:17:57.192Z</time>
      </trkpt>
      <trkpt lat="45.85267" lon="4.40809">
        <ele>828</ele>
        <time>2016-05-19T12:17:58.198Z</time>
      </trkpt>
      <trkpt lat="45.85275" lon="4.40806">
        <ele>828</ele>
        <time>2016-05-19T12:18:04.195Z</time>
      </trkpt>
      <trkpt lat="45.85277" lon="4.40805">
        <ele>828</ele>
        <time>2016-05-19T12:18:05.196Z</time>
      </trkpt>
      <trkpt lat="45.85285" lon="4.40803">
        <ele>828</ele>
        <time>2016-05-19T12:18:11.202Z</time>
      </trkpt>
      <trkpt lat="45.85286" lon="4.40804">
        <ele>828</ele>
        <time>2016-05-19T12:18:12.197Z</time>
      </trkpt>
      <trkpt lat="45.85293" lon="4.40806">
        <ele>828</ele>
        <time>2016-05-19T12:18:17.205Z</time>
      </trkpt>
      <trkpt lat="45.85295" lon="4.40806">
        <ele>828</ele>
        <time>2016-05-19T12:18:18.199Z</time>
      </trkpt>
      <trkpt lat="45.85302" lon="4.40809">
        <ele>828</ele>
        <time>2016-05-19T12:18:22.194Z</time>
      </trkpt>
      <trkpt lat="45.85304" lon="4.4081">
        <ele>829</ele>
        <time>2016-05-19T12:18:23.206Z</time>
      </trkpt>
      <trkpt lat="45.85312" lon="4.40815">
        <ele>829</ele>
        <time>2016-05-19T12:18:29.19Z</time>
      </trkpt>
      <trkpt lat="45.85313" lon="4.40815">
        <ele>829</ele>
        <time>2016-05-19T12:18:30.188Z</time>
      </trkpt>
      <trkpt lat="45.85321" lon="4.40817">
        <ele>830</ele>
        <time>2016-05-19T12:18:35.205Z</time>
      </trkpt>
      <trkpt lat="45.85323" lon="4.40816">
        <ele>830</ele>
        <time>2016-05-19T12:18:36.202Z</time>
      </trkpt>
      <trkpt lat="45.85331" lon="4.40816">
        <ele>831</ele>
        <time>2016-05-19T12:18:42.2Z</time>
      </trkpt>
      <trkpt lat="45.85332" lon="4.40815">
        <ele>830</ele>
        <time>2016-05-19T12:18:43.215Z</time>
      </trkpt>
      <trkpt lat="45.8534" lon="4.40818">
        <ele>829</ele>
        <time>2016-05-19T12:18:51.192Z</time>
      </trkpt>
      <trkpt lat="45.85342" lon="4.40819">
        <ele>829</ele>
        <time>2016-05-19T12:18:52.195Z</time>
      </trkpt>
      <trkpt lat="45.8535" lon="4.40822">
        <ele>829</ele>
        <time>2016-05-19T12:18:58.195Z</time>
      </trkpt>
      <trkpt lat="45.85351" lon="4.40822">
        <ele>829</ele>
        <time>2016-05-19T12:18:59.204Z</time>
      </trkpt>
      <trkpt lat="45.85358" lon="4.40823">
        <ele>828</ele>
        <time>2016-05-19T12:19:09.201Z</time>
      </trkpt>
      <trkpt lat="45.8536" lon="4.40823">
        <ele>827</ele>
        <time>2016-05-19T12:19:10.201Z</time>
      </trkpt>
      <trkpt lat="45.85369" lon="4.40823">
        <ele>826</ele>
        <time>2016-05-19T12:19:17.204Z</time>
      </trkpt>
      <trkpt lat="45.8537" lon="4.40823">
        <ele>826</ele>
        <time>2016-05-19T12:19:18.201Z</time>
      </trkpt>
      <trkpt lat="45.85378" lon="4.40823">
        <ele>825</ele>
        <time>2016-05-19T12:19:25.207Z</time>
      </trkpt>
      <trkpt lat="45.85379" lon="4.40824">
        <ele>825</ele>
        <time>2016-05-19T12:19:26.198Z</time>
      </trkpt>
      <trkpt lat="45.85388" lon="4.40824">
        <ele>825</ele>
        <time>2016-05-19T12:19:33.197Z</time>
      </trkpt>
      <trkpt lat="45.85389" lon="4.40824">
        <ele>824</ele>
        <time>2016-05-19T12:19:34.2Z</time>
      </trkpt>
      <trkpt lat="45.85398" lon="4.40823">
        <ele>824</ele>
        <time>2016-05-19T12:19:40.203Z</time>
      </trkpt>
      <trkpt lat="45.85399" lon="4.40823">
        <ele>824</ele>
        <time>2016-05-19T12:19:41.2Z</time>
      </trkpt>
      <trkpt lat="45.85407" lon="4.40822">
        <ele>823</ele>
        <time>2016-05-19T12:19:48.192Z</time>
      </trkpt>
      <trkpt lat="45.85409" lon="4.40822">
        <ele>823</ele>
        <time>2016-05-19T12:19:49.196Z</time>
      </trkpt>
      <trkpt lat="45.85417" lon="4.40822">
        <ele>823</ele>
        <time>2016-05-19T12:19:54.188Z</time>
      </trkpt>
      <trkpt lat="45.85418" lon="4.40822">
        <ele>819</ele>
        <time>2016-05-19T12:19:55.183Z</time>
      </trkpt>
      <trkpt lat="45.85426" lon="4.40824">
        <ele>819</ele>
        <time>2016-05-19T12:20:00.189Z</time>
      </trkpt>
      <trkpt lat="45.85427" lon="4.40824">
        <ele>819</ele>
        <time>2016-05-19T12:20:01.197Z</time>
      </trkpt>
      <trkpt lat="45.85435" lon="4.40827">
        <ele>818</ele>
        <time>2016-05-19T12:20:06.191Z</time>
      </trkpt>
      <trkpt lat="45.85437" lon="4.40827">
        <ele>817</ele>
        <time>2016-05-19T12:20:07.206Z</time>
      </trkpt>
      <trkpt lat="45.85445" lon="4.40827">
        <ele>816</ele>
        <time>2016-05-19T12:20:13.197Z</time>
      </trkpt>
      <trkpt lat="45.85447" lon="4.40828">
        <ele>816</ele>
        <time>2016-05-19T12:20:14.196Z</time>
      </trkpt>
      <trkpt lat="45.85455" lon="4.40829">
        <ele>815</ele>
        <time>2016-05-19T12:20:20.196Z</time>
      </trkpt>
      <trkpt lat="45.85456" lon="4.40829">
        <ele>815</ele>
        <time>2016-05-19T12:20:21.2Z</time>
      </trkpt>
      <trkpt lat="45.85464" lon="4.40827">
        <ele>814</ele>
        <time>2016-05-19T12:20:27.188Z</time>
      </trkpt>
      <trkpt lat="45.85465" lon="4.40827">
        <ele>814</ele>
        <time>2016-05-19T12:20:28.182Z</time>
      </trkpt>
      <trkpt lat="45.85473" lon="4.40829">
        <ele>813</ele>
        <time>2016-05-19T12:20:34.196Z</time>
      </trkpt>
      <trkpt lat="45.85475" lon="4.40829">
        <ele>813</ele>
        <time>2016-05-19T12:20:35.198Z</time>
      </trkpt>
      <trkpt lat="45.85482" lon="4.40833">
        <ele>812</ele>
        <time>2016-05-19T12:20:40.197Z</time>
      </trkpt>
      <trkpt lat="45.85484" lon="4.40833">
        <ele>810</ele>
        <time>2016-05-19T12:20:41.206Z</time>
      </trkpt>
      <trkpt lat="45.85491" lon="4.40836">
        <ele>809</ele>
        <time>2016-05-19T12:20:47.195Z</time>
      </trkpt>
      <trkpt lat="45.85492" lon="4.40836">
        <ele>809</ele>
        <time>2016-05-19T12:20:48.197Z</time>
      </trkpt>
      <trkpt lat="45.855" lon="4.40841">
        <ele>809</ele>
        <time>2016-05-19T12:20:55.186Z</time>
      </trkpt>
      <trkpt lat="45.85501" lon="4.40842">
        <ele>807</ele>
        <time>2016-05-19T12:20:56.185Z</time>
      </trkpt>
      <trkpt lat="45.85506" lon="4.4085">
        <ele>806</ele>
        <time>2016-05-19T12:21:01.203Z</time>
      </trkpt>
      <trkpt lat="45.85506" lon="4.40852">
        <ele>806</ele>
        <time>2016-05-19T12:21:02.203Z</time>
      </trkpt>
      <trkpt lat="45.85512" lon="4.4086">
        <ele>805</ele>
        <time>2016-05-19T12:21:08.198Z</time>
      </trkpt>
      <trkpt lat="45.85513" lon="4.40861">
        <ele>805</ele>
        <time>2016-05-19T12:21:09.188Z</time>
      </trkpt>
      <trkpt lat="45.8552" lon="4.40867">
        <ele>804</ele>
        <time>2016-05-19T12:21:15.196Z</time>
      </trkpt>
      <trkpt lat="45.85521" lon="4.40868">
        <ele>804</ele>
        <time>2016-05-19T12:21:16.198Z</time>
      </trkpt>
      <trkpt lat="45.85528" lon="4.40876">
        <ele>803</ele>
        <time>2016-05-19T12:21:22.192Z</time>
      </trkpt>
      <trkpt lat="45.85529" lon="4.40877">
        <ele>803</ele>
        <time>2016-05-19T12:21:23.21Z</time>
      </trkpt>
      <trkpt lat="45.85535" lon="4.40884">
        <ele>803</ele>
        <time>2016-05-19T12:21:29.201Z</time>
      </trkpt>
      <trkpt lat="45.85536" lon="4.40885">
        <ele>803</ele>
        <time>2016-05-19T12:21:30.195Z</time>
      </trkpt>
      <trkpt lat="45.85543" lon="4.40891">
        <ele>803</ele>
        <time>2016-05-19T12:21:36.196Z</time>
      </trkpt>
      <trkpt lat="45.85544" lon="4.40893">
        <ele>803</ele>
        <time>2016-05-19T12:21:37.207Z</time>
      </trkpt>
      <trkpt lat="45.8555" lon="4.409">
        <ele>802</ele>
        <time>2016-05-19T12:21:43.189Z</time>
      </trkpt>
      <trkpt lat="45.85551" lon="4.40901">
        <ele>802</ele>
        <time>2016-05-19T12:21:44.199Z</time>
      </trkpt>
      <trkpt lat="45.85556" lon="4.4091">
        <ele>802</ele>
        <time>2016-05-19T12:21:50.199Z</time>
      </trkpt>
      <trkpt lat="45.85557" lon="4.40911">
        <ele>802</ele>
        <time>2016-05-19T12:21:51.2Z</time>
      </trkpt>
      <trkpt lat="45.85562" lon="4.4092">
        <ele>795</ele>
        <time>2016-05-19T12:21:57.185Z</time>
      </trkpt>
      <trkpt lat="45.85563" lon="4.40921">
        <ele>795</ele>
        <time>2016-05-19T12:21:58.196Z</time>
      </trkpt>
      <trkpt lat="45.85571" lon="4.40927">
        <ele>795</ele>
        <time>2016-05-19T12:22:04.199Z</time>
      </trkpt>
      <trkpt lat="45.85572" lon="4.40929">
        <ele>795</ele>
        <time>2016-05-19T12:22:05.191Z</time>
      </trkpt>
      <trkpt lat="45.85578" lon="4.40937">
        <ele>794</ele>
        <time>2016-05-19T12:22:11.196Z</time>
      </trkpt>
      <trkpt lat="45.85579" lon="4.40938">
        <ele>794</ele>
        <time>2016-05-19T12:22:12.189Z</time>
      </trkpt>
      <trkpt lat="45.85585" lon="4.40948">
        <ele>796</ele>
        <time>2016-05-19T12:22:18.197Z</time>
      </trkpt>
      <trkpt lat="45.85586" lon="4.40949">
        <ele>796</ele>
        <time>2016-05-19T12:22:19.196Z</time>
      </trkpt>
      <trkpt lat="45.85593" lon="4.40957">
        <ele>795</ele>
        <time>2016-05-19T12:22:25.193Z</time>
      </trkpt>
      <trkpt lat="45.85594" lon="4.40958">
        <ele>795</ele>
        <time>2016-05-19T12:22:26.197Z</time>
      </trkpt>
      <trkpt lat="45.85601" lon="4.40965">
        <ele>795</ele>
        <time>2016-05-19T12:22:32.195Z</time>
      </trkpt>
      <trkpt lat="45.85602" lon="4.40967">
        <ele>794</ele>
        <time>2016-05-19T12:22:33.196Z</time>
      </trkpt>
      <trkpt lat="45.85608" lon="4.40975">
        <ele>794</ele>
        <time>2016-05-19T12:22:39.187Z</time>
      </trkpt>
      <trkpt lat="45.85609" lon="4.40977">
        <ele>794</ele>
        <time>2016-05-19T12:22:40.195Z</time>
      </trkpt>
      <trkpt lat="45.85615" lon="4.40984">
        <ele>794</ele>
        <time>2016-05-19T12:22:46.2Z</time>
      </trkpt>
      <trkpt lat="45.85617" lon="4.40985">
        <ele>794</ele>
        <time>2016-05-19T12:22:47.197Z</time>
      </trkpt>
      <trkpt lat="45.85624" lon="4.40992">
        <ele>794</ele>
        <time>2016-05-19T12:22:53.191Z</time>
      </trkpt>
      <trkpt lat="45.85625" lon="4.40993">
        <ele>794</ele>
        <time>2016-05-19T12:22:54.195Z</time>
      </trkpt>
      <trkpt lat="45.85631" lon="4.41001">
        <ele>785</ele>
        <time>2016-05-19T12:23:00.202Z</time>
      </trkpt>
      <trkpt lat="45.85632" lon="4.41002">
        <ele>785</ele>
        <time>2016-05-19T12:23:01.2Z</time>
      </trkpt>
      <trkpt lat="45.85639" lon="4.41009">
        <ele>786</ele>
        <time>2016-05-19T12:23:07.196Z</time>
      </trkpt>
      <trkpt lat="45.8564" lon="4.41009">
        <ele>786</ele>
        <time>2016-05-19T12:23:08.191Z</time>
      </trkpt>
      <trkpt lat="45.85647" lon="4.41014">
        <ele>786</ele>
        <time>2016-05-19T12:23:14.2Z</time>
      </trkpt>
      <trkpt lat="45.85649" lon="4.41015">
        <ele>787</ele>
        <time>2016-05-19T12:23:15.191Z</time>
      </trkpt>
      <trkpt lat="45.85656" lon="4.4102">
        <ele>787</ele>
        <time>2016-05-19T12:23:21.197Z</time>
      </trkpt>
      <trkpt lat="45.85658" lon="4.41021">
        <ele>787</ele>
        <time>2016-05-19T12:23:22.195Z</time>
      </trkpt>
      <trkpt lat="45.85666" lon="4.41025">
        <ele>786</ele>
        <time>2016-05-19T12:23:28.196Z</time>
      </trkpt>
      <trkpt lat="45.85667" lon="4.41026">
        <ele>792</ele>
        <time>2016-05-19T12:23:29.199Z</time>
      </trkpt>
      <trkpt lat="45.85675" lon="4.41029">
        <ele>791</ele>
        <time>2016-05-19T12:23:34.183Z</time>
      </trkpt>
      <trkpt lat="45.85676" lon="4.4103">
        <ele>791</ele>
        <time>2016-05-19T12:23:35.182Z</time>
      </trkpt>
      <trkpt lat="45.85684" lon="4.41036">
        <ele>791</ele>
        <time>2016-05-19T12:23:41.198Z</time>
      </trkpt>
      <trkpt lat="45.85685" lon="4.41037">
        <ele>791</ele>
        <time>2016-05-19T12:23:42.192Z</time>
      </trkpt>
      <trkpt lat="45.85694" lon="4.41039">
        <ele>791</ele>
        <time>2016-05-19T12:23:48.194Z</time>
      </trkpt>
      <trkpt lat="45.85695" lon="4.4104">
        <ele>791</ele>
        <time>2016-05-19T12:23:49.197Z</time>
      </trkpt>
      <trkpt lat="45.85702" lon="4.41043">
        <ele>791</ele>
        <time>2016-05-19T12:23:54.203Z</time>
      </trkpt>
      <trkpt lat="45.85704" lon="4.41044">
        <ele>791</ele>
        <time>2016-05-19T12:23:55.199Z</time>
      </trkpt>
      <trkpt lat="45.8571" lon="4.4105">
        <ele>791</ele>
        <time>2016-05-19T12:24:00.195Z</time>
      </trkpt>
      <trkpt lat="45.85712" lon="4.41051">
        <ele>791</ele>
        <time>2016-05-19T12:24:01.192Z</time>
      </trkpt>
      <trkpt lat="45.8572" lon="4.41055">
        <ele>791</ele>
        <time>2016-05-19T12:24:07.197Z</time>
      </trkpt>
      <trkpt lat="45.85721" lon="4.41056">
        <ele>791</ele>
        <time>2016-05-19T12:24:08.194Z</time>
      </trkpt>
      <trkpt lat="45.85728" lon="4.41061">
        <ele>791</ele>
        <time>2016-05-19T12:24:14.195Z</time>
      </trkpt>
      <trkpt lat="45.85729" lon="4.41062">
        <ele>792</ele>
        <time>2016-05-19T12:24:15.192Z</time>
      </trkpt>
      <trkpt lat="45.85737" lon="4.41069">
        <ele>792</ele>
        <time>2016-05-19T12:24:22.189Z</time>
      </trkpt>
      <trkpt lat="45.85738" lon="4.4107">
        <ele>792</ele>
        <time>2016-05-19T12:24:23.189Z</time>
      </trkpt>
      <trkpt lat="45.85745" lon="4.41075">
        <ele>792</ele>
        <time>2016-05-19T12:24:29.188Z</time>
      </trkpt>
      <trkpt lat="45.85746" lon="4.41076">
        <ele>792</ele>
        <time>2016-05-19T12:24:30.193Z</time>
      </trkpt>
      <trkpt lat="45.85752" lon="4.41084">
        <ele>793</ele>
        <time>2016-05-19T12:24:36.193Z</time>
      </trkpt>
      <trkpt lat="45.85753" lon="4.41085">
        <ele>792</ele>
        <time>2016-05-19T12:24:37.187Z</time>
      </trkpt>
      <trkpt lat="45.85759" lon="4.41091">
        <ele>791</ele>
        <time>2016-05-19T12:24:42.193Z</time>
      </trkpt>
      <trkpt lat="45.85761" lon="4.41092">
        <ele>791</ele>
        <time>2016-05-19T12:24:43.193Z</time>
      </trkpt>
      <trkpt lat="45.85769" lon="4.41098">
        <ele>790</ele>
        <time>2016-05-19T12:24:50.196Z</time>
      </trkpt>
      <trkpt lat="45.8577" lon="4.41099">
        <ele>790</ele>
        <time>2016-05-19T12:24:51.199Z</time>
      </trkpt>
      <trkpt lat="45.85777" lon="4.41106">
        <ele>789</ele>
        <time>2016-05-19T12:24:58.184Z</time>
      </trkpt>
      <trkpt lat="45.85778" lon="4.41107">
        <ele>789</ele>
        <time>2016-05-19T12:24:59.184Z</time>
      </trkpt>
      <trkpt lat="45.85786" lon="4.41111">
        <ele>789</ele>
        <time>2016-05-19T12:25:05.183Z</time>
      </trkpt>
      <trkpt lat="45.85787" lon="4.41112">
        <ele>788</ele>
        <time>2016-05-19T12:25:06.182Z</time>
      </trkpt>
      <trkpt lat="45.85794" lon="4.4112">
        <ele>788</ele>
        <time>2016-05-19T12:25:13.195Z</time>
      </trkpt>
      <trkpt lat="45.85794" lon="4.41121">
        <ele>788</ele>
        <time>2016-05-19T12:25:14.196Z</time>
      </trkpt>
      <trkpt lat="45.85801" lon="4.4113">
        <ele>788</ele>
        <time>2016-05-19T12:25:21.196Z</time>
      </trkpt>
      <trkpt lat="45.85802" lon="4.41131">
        <ele>788</ele>
        <time>2016-05-19T12:25:22.198Z</time>
      </trkpt>
      <trkpt lat="45.85809" lon="4.41136">
        <ele>788</ele>
        <time>2016-05-19T12:25:28.196Z</time>
      </trkpt>
      <trkpt lat="45.8581" lon="4.41137">
        <ele>788</ele>
        <time>2016-05-19T12:25:29.188Z</time>
      </trkpt>
      <trkpt lat="45.85817" lon="4.41145">
        <ele>788</ele>
        <time>2016-05-19T12:25:36.196Z</time>
      </trkpt>
      <trkpt lat="45.85818" lon="4.41146">
        <ele>788</ele>
        <time>2016-05-19T12:25:37.187Z</time>
      </trkpt>
      <trkpt lat="45.85823" lon="4.41156">
        <ele>789</ele>
        <time>2016-05-19T12:25:43.191Z</time>
      </trkpt>
      <trkpt lat="45.85824" lon="4.41157">
        <ele>789</ele>
        <time>2016-05-19T12:25:44.195Z</time>
      </trkpt>
      <trkpt lat="45.85832" lon="4.41162">
        <ele>790</ele>
        <time>2016-05-19T12:25:50.196Z</time>
      </trkpt>
      <trkpt lat="45.85834" lon="4.41162">
        <ele>789</ele>
        <time>2016-05-19T12:25:51.198Z</time>
      </trkpt>
      <trkpt lat="45.8584" lon="4.41169">
        <ele>788</ele>
        <time>2016-05-19T12:25:57.191Z</time>
      </trkpt>
      <trkpt lat="45.85841" lon="4.4117">
        <ele>788</ele>
        <time>2016-05-19T12:25:58.187Z</time>
      </trkpt>
      <trkpt lat="45.85847" lon="4.41178">
        <ele>787</ele>
        <time>2016-05-19T12:26:04.205Z</time>
      </trkpt>
      <trkpt lat="45.85848" lon="4.4118">
        <ele>787</ele>
        <time>2016-05-19T12:26:05.196Z</time>
      </trkpt>
      <trkpt lat="45.85853" lon="4.41188">
        <ele>786</ele>
        <time>2016-05-19T12:26:11.197Z</time>
      </trkpt>
      <trkpt lat="45.85854" lon="4.41189">
        <ele>785</ele>
        <time>2016-05-19T12:26:12.192Z</time>
      </trkpt>
      <trkpt lat="45.85861" lon="4.41196">
        <ele>785</ele>
        <time>2016-05-19T12:26:18.197Z</time>
      </trkpt>
      <trkpt lat="45.85862" lon="4.41198">
        <ele>785</ele>
        <time>2016-05-19T12:26:19.188Z</time>
      </trkpt>
      <trkpt lat="45.85867" lon="4.41206">
        <ele>784</ele>
        <time>2016-05-19T12:26:25.193Z</time>
      </trkpt>
      <trkpt lat="45.85868" lon="4.41207">
        <ele>784</ele>
        <time>2016-05-19T12:26:26.192Z</time>
      </trkpt>
      <trkpt lat="45.85873" lon="4.41217">
        <ele>784</ele>
        <time>2016-05-19T12:26:32.195Z</time>
      </trkpt>
      <trkpt lat="45.85873" lon="4.41219">
        <ele>784</ele>
        <time>2016-05-19T12:26:33.197Z</time>
      </trkpt>
      <trkpt lat="45.85878" lon="4.41229">
        <ele>784</ele>
        <time>2016-05-19T12:26:39.179Z</time>
      </trkpt>
      <trkpt lat="45.85879" lon="4.41231">
        <ele>784</ele>
        <time>2016-05-19T12:26:40.192Z</time>
      </trkpt>
      <trkpt lat="45.85884" lon="4.41239">
        <ele>784</ele>
        <time>2016-05-19T12:26:46.191Z</time>
      </trkpt>
      <trkpt lat="45.85885" lon="4.41241">
        <ele>784</ele>
        <time>2016-05-19T12:26:47.196Z</time>
      </trkpt>
      <trkpt lat="45.85891" lon="4.4125">
        <ele>782</ele>
        <time>2016-05-19T12:26:53.184Z</time>
      </trkpt>
      <trkpt lat="45.85892" lon="4.41251">
        <ele>782</ele>
        <time>2016-05-19T12:26:54.185Z</time>
      </trkpt>
      <trkpt lat="45.85897" lon="4.41261">
        <ele>782</ele>
        <time>2016-05-19T12:27:01.185Z</time>
      </trkpt>
      <trkpt lat="45.85898" lon="4.41262">
        <ele>782</ele>
        <time>2016-05-19T12:27:02.186Z</time>
      </trkpt>
      <trkpt lat="45.85901" lon="4.41273">
        <ele>782</ele>
        <time>2016-05-19T12:27:08.2Z</time>
      </trkpt>
      <trkpt lat="45.85901" lon="4.41275">
        <ele>782</ele>
        <time>2016-05-19T12:27:09.196Z</time>
      </trkpt>
      <trkpt lat="45.85901" lon="4.41287">
        <ele>782</ele>
        <time>2016-05-19T12:27:15.194Z</time>
      </trkpt>
      <trkpt lat="45.85901" lon="4.41289">
        <ele>782</ele>
        <time>2016-05-19T12:27:16.193Z</time>
      </trkpt>
      <trkpt lat="45.85905" lon="4.41301">
        <ele>782</ele>
        <time>2016-05-19T12:27:23.188Z</time>
      </trkpt>
      <trkpt lat="45.85905" lon="4.41302">
        <ele>782</ele>
        <time>2016-05-19T12:27:24.194Z</time>
      </trkpt>
      <trkpt lat="45.85909" lon="4.41312">
        <ele>782</ele>
        <time>2016-05-19T12:27:31.197Z</time>
      </trkpt>
      <trkpt lat="45.8591" lon="4.41314">
        <ele>782</ele>
        <time>2016-05-19T12:27:32.191Z</time>
      </trkpt>
      <trkpt lat="45.85915" lon="4.41323">
        <ele>782</ele>
        <time>2016-05-19T12:27:40.184Z</time>
      </trkpt>
      <trkpt lat="45.85916" lon="4.41324">
        <ele>782</ele>
        <time>2016-05-19T12:27:41.183Z</time>
      </trkpt>
      <trkpt lat="45.85923" lon="4.4133">
        <ele>783</ele>
        <time>2016-05-19T12:27:49.193Z</time>
      </trkpt>
      <trkpt lat="45.85924" lon="4.41331">
        <ele>783</ele>
        <time>2016-05-19T12:27:50.201Z</time>
      </trkpt>
      <trkpt lat="45.85927" lon="4.41342">
        <ele>782</ele>
        <time>2016-05-19T12:30:40.189Z</time>
      </trkpt>
      <trkpt lat="45.85927" lon="4.41344">
        <ele>782</ele>
        <time>2016-05-19T12:30:41.189Z</time>
      </trkpt>
      <trkpt lat="45.85923" lon="4.41355">
        <ele>781</ele>
        <time>2016-05-19T12:30:48.192Z</time>
      </trkpt>
      <trkpt lat="45.85923" lon="4.41356">
        <ele>781</ele>
        <time>2016-05-19T12:30:49.192Z</time>
      </trkpt>
      <trkpt lat="45.85918" lon="4.41367">
        <ele>780</ele>
        <time>2016-05-19T12:30:57.197Z</time>
      </trkpt>
      <trkpt lat="45.85918" lon="4.41368">
        <ele>780</ele>
        <time>2016-05-19T12:30:58.2Z</time>
      </trkpt>
      <trkpt lat="45.85912" lon="4.41378">
        <ele>775</ele>
        <time>2016-05-19T12:31:06.193Z</time>
      </trkpt>
      <trkpt lat="45.85912" lon="4.41379">
        <ele>775</ele>
        <time>2016-05-19T12:31:07.196Z</time>
      </trkpt>
      <trkpt lat="45.85908" lon="4.4139">
        <ele>774</ele>
        <time>2016-05-19T12:31:14.198Z</time>
      </trkpt>
      <trkpt lat="45.85908" lon="4.41391">
        <ele>774</ele>
        <time>2016-05-19T12:31:15.187Z</time>
      </trkpt>
      <trkpt lat="45.85903" lon="4.41402">
        <ele>773</ele>
        <time>2016-05-19T12:31:22.194Z</time>
      </trkpt>
      <trkpt lat="45.85902" lon="4.41403">
        <ele>773</ele>
        <time>2016-05-19T12:31:23.19Z</time>
      </trkpt>
      <trkpt lat="45.85896" lon="4.41411">
        <ele>773</ele>
        <time>2016-05-19T12:31:30.204Z</time>
      </trkpt>
      <trkpt lat="45.85895" lon="4.41412">
        <ele>773</ele>
        <time>2016-05-19T12:31:31.201Z</time>
      </trkpt>
      <trkpt lat="45.85888" lon="4.41419">
        <ele>766</ele>
        <time>2016-05-19T12:31:39.186Z</time>
      </trkpt>
      <trkpt lat="45.85887" lon="4.41419">
        <ele>765</ele>
        <time>2016-05-19T12:31:40.194Z</time>
      </trkpt>
      <trkpt lat="45.8588" lon="4.41426">
        <ele>764</ele>
        <time>2016-05-19T12:31:47.181Z</time>
      </trkpt>
      <trkpt lat="45.85879" lon="4.41426">
        <ele>764</ele>
        <time>2016-05-19T12:31:48.195Z</time>
      </trkpt>
      <trkpt lat="45.85871" lon="4.4143">
        <ele>763</ele>
        <time>2016-05-19T12:31:56.197Z</time>
      </trkpt>
      <trkpt lat="45.8587" lon="4.4143">
        <ele>763</ele>
        <time>2016-05-19T12:31:57.197Z</time>
      </trkpt>
      <trkpt lat="45.85862" lon="4.4143">
        <ele>762</ele>
        <time>2016-05-19T12:32:05.195Z</time>
      </trkpt>
      <trkpt lat="45.85861" lon="4.4143">
        <ele>762</ele>
        <time>2016-05-19T12:32:06.202Z</time>
      </trkpt>
      <trkpt lat="45.85853" lon="4.41431">
        <ele>762</ele>
        <time>2016-05-19T12:32:13.203Z</time>
      </trkpt>
      <trkpt lat="45.85852" lon="4.4143">
        <ele>762</ele>
        <time>2016-05-19T12:32:14.201Z</time>
      </trkpt>
      <trkpt lat="45.85844" lon="4.41426">
        <ele>762</ele>
        <time>2016-05-19T12:32:21.208Z</time>
      </trkpt>
      <trkpt lat="45.85843" lon="4.41426">
        <ele>762</ele>
        <time>2016-05-19T12:32:22.203Z</time>
      </trkpt>
      <trkpt lat="45.85835" lon="4.41422">
        <ele>762</ele>
        <time>2016-05-19T12:32:28.197Z</time>
      </trkpt>
      <trkpt lat="45.85834" lon="4.41421">
        <ele>762</ele>
        <time>2016-05-19T12:32:29.191Z</time>
      </trkpt>
      <trkpt lat="45.85826" lon="4.41416">
        <ele>761</ele>
        <time>2016-05-19T12:32:36.185Z</time>
      </trkpt>
      <trkpt lat="45.85825" lon="4.41415">
        <ele>761</ele>
        <time>2016-05-19T12:32:37.193Z</time>
      </trkpt>
      <trkpt lat="45.85818" lon="4.4141">
        <ele>760</ele>
        <time>2016-05-19T12:32:44.205Z</time>
      </trkpt>
      <trkpt lat="45.85817" lon="4.41409">
        <ele>760</ele>
        <time>2016-05-19T12:32:45.195Z</time>
      </trkpt>
      <trkpt lat="45.85811" lon="4.414">
        <ele>760</ele>
        <time>2016-05-19T12:32:52.191Z</time>
      </trkpt>
      <trkpt lat="45.8581" lon="4.41398">
        <ele>759</ele>
        <time>2016-05-19T12:32:53.202Z</time>
      </trkpt>
      <trkpt lat="45.85803" lon="4.41391">
        <ele>759</ele>
        <time>2016-05-19T12:32:59.198Z</time>
      </trkpt>
      <trkpt lat="45.85802" lon="4.4139">
        <ele>759</ele>
        <time>2016-05-19T12:33:00.191Z</time>
      </trkpt>
      <trkpt lat="45.85795" lon="4.41383">
        <ele>759</ele>
        <time>2016-05-19T12:33:07.185Z</time>
      </trkpt>
      <trkpt lat="45.85795" lon="4.41381">
        <ele>759</ele>
        <time>2016-05-19T12:33:08.196Z</time>
      </trkpt>
      <trkpt lat="45.85788" lon="4.41374">
        <ele>758</ele>
        <time>2016-05-19T12:33:14.195Z</time>
      </trkpt>
      <trkpt lat="45.85787" lon="4.41373">
        <ele>758</ele>
        <time>2016-05-19T12:33:15.198Z</time>
      </trkpt>
      <trkpt lat="45.8578" lon="4.41365">
        <ele>758</ele>
        <time>2016-05-19T12:33:21.198Z</time>
      </trkpt>
      <trkpt lat="45.85779" lon="4.41363">
        <ele>758</ele>
        <time>2016-05-19T12:33:22.194Z</time>
      </trkpt>
      <trkpt lat="45.85773" lon="4.41353">
        <ele>758</ele>
        <time>2016-05-19T12:33:29.2Z</time>
      </trkpt>
      <trkpt lat="45.85772" lon="4.41352">
        <ele>758</ele>
        <time>2016-05-19T12:33:30.196Z</time>
      </trkpt>
      <trkpt lat="45.85769" lon="4.41342">
        <ele>757</ele>
        <time>2016-05-19T12:33:36.211Z</time>
      </trkpt>
      <trkpt lat="45.85768" lon="4.4134">
        <ele>757</ele>
        <time>2016-05-19T12:33:37.198Z</time>
      </trkpt>
      <trkpt lat="45.85764" lon="4.41329">
        <ele>761</ele>
        <time>2016-05-19T12:33:43.199Z</time>
      </trkpt>
      <trkpt lat="45.85764" lon="4.41327">
        <ele>761</ele>
        <time>2016-05-19T12:33:44.194Z</time>
      </trkpt>
      <trkpt lat="45.85758" lon="4.41317">
        <ele>762</ele>
        <time>2016-05-19T12:33:51.184Z</time>
      </trkpt>
      <trkpt lat="45.85757" lon="4.41316">
        <ele>763</ele>
        <time>2016-05-19T12:33:52.185Z</time>
      </trkpt>
      <trkpt lat="45.85751" lon="4.41306">
        <ele>764</ele>
        <time>2016-05-19T12:33:59.196Z</time>
      </trkpt>
      <trkpt lat="45.85751" lon="4.41305">
        <ele>765</ele>
        <time>2016-05-19T12:34:00.188Z</time>
      </trkpt>
      <trkpt lat="45.85743" lon="4.41298">
        <ele>753</ele>
        <time>2016-05-19T12:34:06.196Z</time>
      </trkpt>
      <trkpt lat="45.85742" lon="4.41297">
        <ele>753</ele>
        <time>2016-05-19T12:34:07.196Z</time>
      </trkpt>
      <trkpt lat="45.85735" lon="4.4129">
        <ele>753</ele>
        <time>2016-05-19T12:34:12.191Z</time>
      </trkpt>
      <trkpt lat="45.85734" lon="4.41289">
        <ele>753</ele>
        <time>2016-05-19T12:34:13.19Z</time>
      </trkpt>
      <trkpt lat="45.85728" lon="4.4128">
        <ele>754</ele>
        <time>2016-05-19T12:34:19.197Z</time>
      </trkpt>
      <trkpt lat="45.85727" lon="4.41279">
        <ele>754</ele>
        <time>2016-05-19T12:34:20.187Z</time>
      </trkpt>
      <trkpt lat="45.85721" lon="4.41271">
        <ele>754</ele>
        <time>2016-05-19T12:34:26.198Z</time>
      </trkpt>
      <trkpt lat="45.8572" lon="4.41269">
        <ele>754</ele>
        <time>2016-05-19T12:34:27.195Z</time>
      </trkpt>
      <trkpt lat="45.85714" lon="4.4126">
        <ele>753</ele>
        <time>2016-05-19T12:34:33.201Z</time>
      </trkpt>
      <trkpt lat="45.85713" lon="4.41259">
        <ele>753</ele>
        <time>2016-05-19T12:34:34.196Z</time>
      </trkpt>
      <trkpt lat="45.85707" lon="4.41251">
        <ele>752</ele>
        <time>2016-05-19T12:34:40.197Z</time>
      </trkpt>
      <trkpt lat="45.85706" lon="4.4125">
        <ele>761</ele>
        <time>2016-05-19T12:34:41.199Z</time>
      </trkpt>
      <trkpt lat="45.857" lon="4.41243">
        <ele>760</ele>
        <time>2016-05-19T12:34:47.199Z</time>
      </trkpt>
      <trkpt lat="45.85699" lon="4.41242">
        <ele>760</ele>
        <time>2016-05-19T12:34:48.194Z</time>
      </trkpt>
      <trkpt lat="45.85692" lon="4.41235">
        <ele>759</ele>
        <time>2016-05-19T12:34:54.198Z</time>
      </trkpt>
      <trkpt lat="45.85691" lon="4.41234">
        <ele>759</ele>
        <time>2016-05-19T12:34:55.198Z</time>
      </trkpt>
      <trkpt lat="45.85684" lon="4.41227">
        <ele>758</ele>
        <time>2016-05-19T12:35:01.198Z</time>
      </trkpt>
      <trkpt lat="45.85683" lon="4.41226">
        <ele>759</ele>
        <time>2016-05-19T12:35:02.196Z</time>
      </trkpt>
      <trkpt lat="45.85676" lon="4.41219">
        <ele>759</ele>
        <time>2016-05-19T12:35:09.191Z</time>
      </trkpt>
      <trkpt lat="45.85675" lon="4.41218">
        <ele>759</ele>
        <time>2016-05-19T12:35:10.196Z</time>
      </trkpt>
      <trkpt lat="45.85667" lon="4.41214">
        <ele>759</ele>
        <time>2016-05-19T12:35:16.199Z</time>
      </trkpt>
      <trkpt lat="45.85666" lon="4.41213">
        <ele>747</ele>
        <time>2016-05-19T12:35:17.198Z</time>
      </trkpt>
      <trkpt lat="45.85659" lon="4.41207">
        <ele>747</ele>
        <time>2016-05-19T12:35:23.201Z</time>
      </trkpt>
      <trkpt lat="45.85658" lon="4.41206">
        <ele>747</ele>
        <time>2016-05-19T12:35:24.2Z</time>
      </trkpt>
      <trkpt lat="45.85651" lon="4.41201">
        <ele>747</ele>
        <time>2016-05-19T12:35:30.19Z</time>
      </trkpt>
      <trkpt lat="45.85649" lon="4.41201">
        <ele>747</ele>
        <time>2016-05-19T12:35:31.192Z</time>
      </trkpt>
      <trkpt lat="45.85642" lon="4.41193">
        <ele>748</ele>
        <time>2016-05-19T12:35:37.196Z</time>
      </trkpt>
      <trkpt lat="45.85641" lon="4.41191">
        <ele>748</ele>
        <time>2016-05-19T12:35:38.202Z</time>
      </trkpt>
      <trkpt lat="45.85635" lon="4.41183">
        <ele>748</ele>
        <time>2016-05-19T12:35:44.199Z</time>
      </trkpt>
      <trkpt lat="45.85634" lon="4.41182">
        <ele>748</ele>
        <time>2016-05-19T12:35:45.195Z</time>
      </trkpt>
      <trkpt lat="45.85628" lon="4.41174">
        <ele>747</ele>
        <time>2016-05-19T12:35:52.188Z</time>
      </trkpt>
      <trkpt lat="45.85627" lon="4.41173">
        <ele>747</ele>
        <time>2016-05-19T12:35:53.18Z</time>
      </trkpt>
      <trkpt lat="45.85619" lon="4.41169">
        <ele>746</ele>
        <time>2016-05-19T12:35:59.196Z</time>
      </trkpt>
      <trkpt lat="45.85617" lon="4.41168">
        <ele>745</ele>
        <time>2016-05-19T12:36:00.186Z</time>
      </trkpt>
      <trkpt lat="45.8561" lon="4.41162">
        <ele>755</ele>
        <time>2016-05-19T12:36:07.197Z</time>
      </trkpt>
      <trkpt lat="45.85609" lon="4.41161">
        <ele>755</ele>
        <time>2016-05-19T12:36:08.196Z</time>
      </trkpt>
      <trkpt lat="45.85602" lon="4.41154">
        <ele>754</ele>
        <time>2016-05-19T12:36:14.195Z</time>
      </trkpt>
      <trkpt lat="45.85601" lon="4.41152">
        <ele>754</ele>
        <time>2016-05-19T12:36:15.196Z</time>
      </trkpt>
      <trkpt lat="45.85596" lon="4.41144">
        <ele>755</ele>
        <time>2016-05-19T12:36:21.195Z</time>
      </trkpt>
      <trkpt lat="45.85595" lon="4.41143">
        <ele>755</ele>
        <time>2016-05-19T12:36:22.195Z</time>
      </trkpt>
      <trkpt lat="45.8559" lon="4.41135">
        <ele>756</ele>
        <time>2016-05-19T12:36:28.193Z</time>
      </trkpt>
      <trkpt lat="45.85589" lon="4.41134">
        <ele>756</ele>
        <time>2016-05-19T12:36:29.195Z</time>
      </trkpt>
      <trkpt lat="45.85582" lon="4.41127">
        <ele>748</ele>
        <time>2016-05-19T12:36:35.205Z</time>
      </trkpt>
      <trkpt lat="45.85581" lon="4.41126">
        <ele>748</ele>
        <time>2016-05-19T12:36:36.195Z</time>
      </trkpt>
      <trkpt lat="45.85573" lon="4.41122">
        <ele>749</ele>
        <time>2016-05-19T12:36:44.197Z</time>
      </trkpt>
      <trkpt lat="45.85572" lon="4.41123">
        <ele>748</ele>
        <time>2016-05-19T12:36:45.19Z</time>
      </trkpt>
      <trkpt lat="45.85564" lon="4.41119">
        <ele>749</ele>
        <time>2016-05-19T12:37:05.201Z</time>
      </trkpt>
      <trkpt lat="45.85563" lon="4.41119">
        <ele>749</ele>
        <time>2016-05-19T12:37:06.197Z</time>
      </trkpt>
      <trkpt lat="45.85555" lon="4.41113">
        <ele>749</ele>
        <time>2016-05-19T12:37:17.192Z</time>
      </trkpt>
      <trkpt lat="45.85554" lon="4.41113">
        <ele>749</ele>
        <time>2016-05-19T12:37:18.19Z</time>
      </trkpt>
      <trkpt lat="45.85547" lon="4.41107">
        <ele>749</ele>
        <time>2016-05-19T12:37:29.195Z</time>
      </trkpt>
      <trkpt lat="45.85546" lon="4.41106">
        <ele>749</ele>
        <time>2016-05-19T12:37:30.189Z</time>
      </trkpt>
      <trkpt lat="45.85541" lon="4.41097">
        <ele>749</ele>
        <time>2016-05-19T12:37:41.189Z</time>
      </trkpt>
      <trkpt lat="45.8554" lon="4.41096">
        <ele>749</ele>
        <time>2016-05-19T12:37:42.186Z</time>
      </trkpt>
      <trkpt lat="45.85532" lon="4.41091">
        <ele>749</ele>
        <time>2016-05-19T12:37:52.188Z</time>
      </trkpt>
      <trkpt lat="45.85531" lon="4.41091">
        <ele>748</ele>
        <time>2016-05-19T12:37:53.186Z</time>
      </trkpt>
      <trkpt lat="45.85524" lon="4.41086">
        <ele>748</ele>
        <time>2016-05-19T12:38:01.196Z</time>
      </trkpt>
      <trkpt lat="45.85523" lon="4.41085">
        <ele>748</ele>
        <time>2016-05-19T12:38:02.191Z</time>
      </trkpt>
      <trkpt lat="45.85515" lon="4.41083">
        <ele>757</ele>
        <time>2016-05-19T12:38:11.202Z</time>
      </trkpt>
      <trkpt lat="45.85514" lon="4.41084">
        <ele>748</ele>
        <time>2016-05-19T12:38:12.197Z</time>
      </trkpt>
      <trkpt lat="45.85506" lon="4.41077">
        <ele>754</ele>
        <time>2016-05-19T12:38:22.184Z</time>
      </trkpt>
      <trkpt lat="45.85505" lon="4.41076">
        <ele>755</ele>
        <time>2016-05-19T12:38:23.189Z</time>
      </trkpt>
      <trkpt lat="45.85496" lon="4.41073">
        <ele>756</ele>
        <time>2016-05-19T12:38:31.189Z</time>
      </trkpt>
      <trkpt lat="45.85495" lon="4.41073">
        <ele>756</ele>
        <time>2016-05-19T12:38:32.187Z</time>
      </trkpt>
      <trkpt lat="45.85488" lon="4.41079">
        <ele>757</ele>
        <time>2016-05-19T12:38:40.201Z</time>
      </trkpt>
      <trkpt lat="45.85487" lon="4.4108">
        <ele>757</ele>
        <time>2016-05-19T12:38:41.187Z</time>
      </trkpt>
      <trkpt lat="45.8548" lon="4.41086">
        <ele>748</ele>
        <time>2016-05-19T12:38:49.203Z</time>
      </trkpt>
      <trkpt lat="45.85479" lon="4.41086">
        <ele>748</ele>
        <time>2016-05-19T12:38:50.192Z</time>
      </trkpt>
      <trkpt lat="45.8547" lon="4.4109">
        <ele>748</ele>
        <time>2016-05-19T12:38:59.177Z</time>
      </trkpt>
      <trkpt lat="45.8547" lon="4.41091">
        <ele>748</ele>
        <time>2016-05-19T12:39:00.186Z</time>
      </trkpt>
      <trkpt lat="45.85462" lon="4.41096">
        <ele>749</ele>
        <time>2016-05-19T12:39:09.19Z</time>
      </trkpt>
      <trkpt lat="45.85461" lon="4.41096">
        <ele>749</ele>
        <time>2016-05-19T12:39:10.202Z</time>
      </trkpt>
      <trkpt lat="45.85454" lon="4.41102">
        <ele>749</ele>
        <time>2016-05-19T12:39:19.2Z</time>
      </trkpt>
      <trkpt lat="45.85453" lon="4.41102">
        <ele>749</ele>
        <time>2016-05-19T12:39:20.196Z</time>
      </trkpt>
      <trkpt lat="45.85444" lon="4.41104">
        <ele>750</ele>
        <time>2016-05-19T12:39:30.198Z</time>
      </trkpt>
      <trkpt lat="45.85443" lon="4.41105">
        <ele>750</ele>
        <time>2016-05-19T12:39:31.204Z</time>
      </trkpt>
      <trkpt lat="45.85435" lon="4.41108">
        <ele>751</ele>
        <time>2016-05-19T12:39:42.183Z</time>
      </trkpt>
      <trkpt lat="45.85434" lon="4.41109">
        <ele>751</ele>
        <time>2016-05-19T12:39:43.195Z</time>
      </trkpt>
      <trkpt lat="45.85426" lon="4.41113">
        <ele>750</ele>
        <time>2016-05-19T12:39:49.203Z</time>
      </trkpt>
      <trkpt lat="45.85425" lon="4.41114">
        <ele>750</ele>
        <time>2016-05-19T12:39:50.196Z</time>
      </trkpt>
      <trkpt lat="45.85416" lon="4.41116">
        <ele>757</ele>
        <time>2016-05-19T12:39:57.193Z</time>
      </trkpt>
      <trkpt lat="45.85416" lon="4.41117">
        <ele>757</ele>
        <time>2016-05-19T12:39:58.192Z</time>
      </trkpt>
      <trkpt lat="45.85407" lon="4.41119">
        <ele>757</ele>
        <time>2016-05-19T12:40:08.204Z</time>
      </trkpt>
      <trkpt lat="45.85406" lon="4.41119">
        <ele>757</ele>
        <time>2016-05-19T12:40:09.189Z</time>
      </trkpt>
      <trkpt lat="45.85397" lon="4.41121">
        <ele>757</ele>
        <time>2016-05-19T12:40:19.201Z</time>
      </trkpt>
      <trkpt lat="45.85397" lon="4.41121">
        <ele>757</ele>
        <time>2016-05-19T12:40:20.2Z</time>
      </trkpt>
      <trkpt lat="45.85388" lon="4.41123">
        <ele>758</ele>
        <time>2016-05-19T12:40:32.184Z</time>
      </trkpt>
      <trkpt lat="45.85387" lon="4.41124">
        <ele>758</ele>
        <time>2016-05-19T12:40:33.186Z</time>
      </trkpt>
      <trkpt lat="45.8538" lon="4.41128">
        <ele>758</ele>
        <time>2016-05-19T12:40:41.196Z</time>
      </trkpt>
      <trkpt lat="45.85378" lon="4.41128">
        <ele>758</ele>
        <time>2016-05-19T12:40:42.185Z</time>
      </trkpt>
      <trkpt lat="45.8537" lon="4.41132">
        <ele>758</ele>
        <time>2016-05-19T12:41:11.201Z</time>
      </trkpt>
      <trkpt lat="45.8537" lon="4.41133">
        <ele>758</ele>
        <time>2016-05-19T12:41:12.197Z</time>
      </trkpt>
      <trkpt lat="45.85368" lon="4.41145">
        <ele>757</ele>
        <time>2016-05-19T12:41:34.193Z</time>
      </trkpt>
      <trkpt lat="45.85368" lon="4.41146">
        <ele>757</ele>
        <time>2016-05-19T12:41:35.196Z</time>
      </trkpt>
      <trkpt lat="45.85362" lon="4.41155">
        <ele>757</ele>
        <time>2016-05-19T12:41:44.204Z</time>
      </trkpt>
      <trkpt lat="45.85361" lon="4.41156">
        <ele>757</ele>
        <time>2016-05-19T12:41:45.187Z</time>
      </trkpt>
      <trkpt lat="45.85358" lon="4.41167">
        <ele>754</ele>
        <time>2016-05-19T12:41:55.193Z</time>
      </trkpt>
      <trkpt lat="45.85357" lon="4.41168">
        <ele>754</ele>
        <time>2016-05-19T12:41:56.18Z</time>
      </trkpt>
      <trkpt lat="45.85359" lon="4.4118">
        <ele>753</ele>
        <time>2016-05-19T12:42:10.184Z</time>
      </trkpt>
      <trkpt lat="45.85359" lon="4.41181">
        <ele>753</ele>
        <time>2016-05-19T12:42:11.206Z</time>
      </trkpt>
      <trkpt lat="45.85358" lon="4.41193">
        <ele>753</ele>
        <time>2016-05-19T12:42:18.182Z</time>
      </trkpt>
      <trkpt lat="45.85358" lon="4.41194">
        <ele>753</ele>
        <time>2016-05-19T12:42:19.189Z</time>
      </trkpt>
      <trkpt lat="45.85358" lon="4.41206">
        <ele>754</ele>
        <time>2016-05-19T12:42:27.182Z</time>
      </trkpt>
      <trkpt lat="45.85358" lon="4.41207">
        <ele>754</ele>
        <time>2016-05-19T12:42:28.194Z</time>
      </trkpt>
      <trkpt lat="45.85362" lon="4.41218">
        <ele>754</ele>
        <time>2016-05-19T12:42:49.197Z</time>
      </trkpt>
      <trkpt lat="45.85363" lon="4.41219">
        <ele>754</ele>
        <time>2016-05-19T12:42:50.194Z</time>
      </trkpt>
      <trkpt lat="45.85369" lon="4.41228">
        <ele>753</ele>
        <time>2016-05-19T12:43:04.188Z</time>
      </trkpt>
      <trkpt lat="45.8537" lon="4.41229">
        <ele>753</ele>
        <time>2016-05-19T12:43:05.199Z</time>
      </trkpt>
      <trkpt lat="45.85376" lon="4.41238">
        <ele>752</ele>
        <time>2016-05-19T12:43:14.201Z</time>
      </trkpt>
      <trkpt lat="45.85376" lon="4.41239">
        <ele>752</ele>
        <time>2016-05-19T12:43:15.206Z</time>
      </trkpt>
      <trkpt lat="45.85383" lon="4.41248">
        <ele>751</ele>
        <time>2016-05-19T12:43:33.198Z</time>
      </trkpt>
      <trkpt lat="45.85383" lon="4.41248">
        <ele>751</ele>
        <time>2016-05-19T12:43:34.2Z</time>
      </trkpt>
      <trkpt lat="45.85389" lon="4.41257">
        <ele>755</ele>
        <time>2016-05-19T12:43:54.198Z</time>
      </trkpt>
      <trkpt lat="45.8539" lon="4.41258">
        <ele>755</ele>
        <time>2016-05-19T12:43:55.2Z</time>
      </trkpt>
      <trkpt lat="45.85396" lon="4.41267">
        <ele>754</ele>
        <time>2016-05-19T12:44:03.201Z</time>
      </trkpt>
      <trkpt lat="45.85396" lon="4.41268">
        <ele>754</ele>
        <time>2016-05-19T12:44:04.199Z</time>
      </trkpt>
      <trkpt lat="45.85402" lon="4.41276">
        <ele>755</ele>
        <time>2016-05-19T12:44:15.206Z</time>
      </trkpt>
      <trkpt lat="45.85403" lon="4.41277">
        <ele>755</ele>
        <time>2016-05-19T12:44:16.2Z</time>
      </trkpt>
      <trkpt lat="45.85408" lon="4.41288">
        <ele>756</ele>
        <time>2016-05-19T12:44:26.204Z</time>
      </trkpt>
      <trkpt lat="45.85408" lon="4.41289">
        <ele>756</ele>
        <time>2016-05-19T12:44:27.204Z</time>
      </trkpt>
      <trkpt lat="45.85413" lon="4.41299">
        <ele>757</ele>
        <time>2016-05-19T12:44:45.204Z</time>
      </trkpt>
      <trkpt lat="45.85414" lon="4.413">
        <ele>757</ele>
        <time>2016-05-19T12:44:46.199Z</time>
      </trkpt>
      <trkpt lat="45.85421" lon="4.41308">
        <ele>745</ele>
        <time>2016-05-19T12:44:58.196Z</time>
      </trkpt>
      <trkpt lat="45.85421" lon="4.41309">
        <ele>745</ele>
        <time>2016-05-19T12:44:59.185Z</time>
      </trkpt>
      <trkpt lat="45.85426" lon="4.41319">
        <ele>748</ele>
        <time>2016-05-19T12:45:08.181Z</time>
      </trkpt>
      <trkpt lat="45.85427" lon="4.4132">
        <ele>748</ele>
        <time>2016-05-19T12:45:09.177Z</time>
      </trkpt>
      <trkpt lat="45.85433" lon="4.4133">
        <ele>748</ele>
        <time>2016-05-19T12:45:15.202Z</time>
      </trkpt>
      <trkpt lat="45.85434" lon="4.41331">
        <ele>747</ele>
        <time>2016-05-19T12:45:16.21Z</time>
      </trkpt>
      <trkpt lat="45.8544" lon="4.4134">
        <ele>748</ele>
        <time>2016-05-19T12:45:23.196Z</time>
      </trkpt>
      <trkpt lat="45.85441" lon="4.41342">
        <ele>748</ele>
        <time>2016-05-19T12:45:24.184Z</time>
      </trkpt>
      <trkpt lat="45.85444" lon="4.41353">
        <ele>747</ele>
        <time>2016-05-19T12:45:34.207Z</time>
      </trkpt>
      <trkpt lat="45.85445" lon="4.41354">
        <ele>747</ele>
        <time>2016-05-19T12:45:35.203Z</time>
      </trkpt>
      <trkpt lat="45.8545" lon="4.41364">
        <ele>746</ele>
        <time>2016-05-19T12:45:41.191Z</time>
      </trkpt>
      <trkpt lat="45.8545" lon="4.41366">
        <ele>746</ele>
        <time>2016-05-19T12:45:42.21Z</time>
      </trkpt>
      <trkpt lat="45.85453" lon="4.41377">
        <ele>745</ele>
        <time>2016-05-19T12:45:49.185Z</time>
      </trkpt>
      <trkpt lat="45.85453" lon="4.41379">
        <ele>745</ele>
        <time>2016-05-19T12:45:50.198Z</time>
      </trkpt>
      <trkpt lat="45.85456" lon="4.41389">
        <ele>745</ele>
        <time>2016-05-19T12:45:56.201Z</time>
      </trkpt>
      <trkpt lat="45.85457" lon="4.41391">
        <ele>745</ele>
        <time>2016-05-19T12:45:57.189Z</time>
      </trkpt>
      <trkpt lat="45.85459" lon="4.41402">
        <ele>744</ele>
        <time>2016-05-19T12:46:03.188Z</time>
      </trkpt>
      <trkpt lat="45.8546" lon="4.41404">
        <ele>744</ele>
        <time>2016-05-19T12:46:04.198Z</time>
      </trkpt>
      <trkpt lat="45.85463" lon="4.41416">
        <ele>743</ele>
        <time>2016-05-19T12:46:12.199Z</time>
      </trkpt>
      <trkpt lat="45.85463" lon="4.41417">
        <ele>743</ele>
        <time>2016-05-19T12:46:13.187Z</time>
      </trkpt>
      <trkpt lat="45.85465" lon="4.41429">
        <ele>742</ele>
        <time>2016-05-19T12:46:21.191Z</time>
      </trkpt>
      <trkpt lat="45.85466" lon="4.4143">
        <ele>742</ele>
        <time>2016-05-19T12:46:22.189Z</time>
      </trkpt>
      <trkpt lat="45.85468" lon="4.41441">
        <ele>742</ele>
        <time>2016-05-19T12:46:30.204Z</time>
      </trkpt>
      <trkpt lat="45.85469" lon="4.41443">
        <ele>742</ele>
        <time>2016-05-19T12:46:31.201Z</time>
      </trkpt>
      <trkpt lat="45.8547" lon="4.41454">
        <ele>741</ele>
        <time>2016-05-19T12:46:38.197Z</time>
      </trkpt>
      <trkpt lat="45.85471" lon="4.41456">
        <ele>741</ele>
        <time>2016-05-19T12:46:39.204Z</time>
      </trkpt>
      <trkpt lat="45.85473" lon="4.41467">
        <ele>741</ele>
        <time>2016-05-19T12:46:46.198Z</time>
      </trkpt>
      <trkpt lat="45.85473" lon="4.41469">
        <ele>741</ele>
        <time>2016-05-19T12:46:47.193Z</time>
      </trkpt>
      <trkpt lat="45.85468" lon="4.41479">
        <ele>741</ele>
        <time>2016-05-19T12:46:56.185Z</time>
      </trkpt>
      <trkpt lat="45.85468" lon="4.41481">
        <ele>741</ele>
        <time>2016-05-19T12:46:57.201Z</time>
      </trkpt>
      <trkpt lat="45.85468" lon="4.41493">
        <ele>741</ele>
        <time>2016-05-19T12:47:05.211Z</time>
      </trkpt>
      <trkpt lat="45.85468" lon="4.41495">
        <ele>740</ele>
        <time>2016-05-19T12:47:06.204Z</time>
      </trkpt>
      <trkpt lat="45.85474" lon="4.41504">
        <ele>736</ele>
        <time>2016-05-19T12:47:12.187Z</time>
      </trkpt>
      <trkpt lat="45.85475" lon="4.41505">
        <ele>736</ele>
        <time>2016-05-19T12:47:13.205Z</time>
      </trkpt>
      <trkpt lat="45.85472" lon="4.41516">
        <ele>737</ele>
        <time>2016-05-19T12:47:22.19Z</time>
      </trkpt>
      <trkpt lat="45.85471" lon="4.41517">
        <ele>737</ele>
        <time>2016-05-19T12:47:23.183Z</time>
      </trkpt>
      <trkpt lat="45.85474" lon="4.41528">
        <ele>737</ele>
        <time>2016-05-19T12:48:21.198Z</time>
      </trkpt>
      <trkpt lat="45.85474" lon="4.41529">
        <ele>737</ele>
        <time>2016-05-19T12:48:22.194Z</time>
      </trkpt>
      <trkpt lat="45.85467" lon="4.41536">
        <ele>738</ele>
        <time>2016-05-19T12:48:29.198Z</time>
      </trkpt>
      <trkpt lat="45.85466" lon="4.41536">
        <ele>738</ele>
        <time>2016-05-19T12:48:30.198Z</time>
      </trkpt>
      <trkpt lat="45.8547" lon="4.41525">
        <ele>738</ele>
        <time>2016-05-19T12:48:59.197Z</time>
      </trkpt>
      <trkpt lat="45.8547" lon="4.41524">
        <ele>738</ele>
        <time>2016-05-19T12:49:00.197Z</time>
      </trkpt>
      <trkpt lat="45.8547" lon="4.41511">
        <ele>738</ele>
        <time>2016-05-19T12:49:16.214Z</time>
      </trkpt>
      <trkpt lat="45.8547" lon="4.4151">
        <ele>738</ele>
        <time>2016-05-19T12:49:17.2Z</time>
      </trkpt>
      <trkpt lat="45.85472" lon="4.41498">
        <ele>739</ele>
        <time>2016-05-19T12:49:27.208Z</time>
      </trkpt>
      <trkpt lat="45.85472" lon="4.41497">
        <ele>739</ele>
        <time>2016-05-19T12:49:28.205Z</time>
      </trkpt>
      <trkpt lat="45.85473" lon="4.41485">
        <ele>740</ele>
        <time>2016-05-19T12:49:38.203Z</time>
      </trkpt>
      <trkpt lat="45.85473" lon="4.41484">
        <ele>740</ele>
        <time>2016-05-19T12:49:39.194Z</time>
      </trkpt>
      <trkpt lat="45.85472" lon="4.41471">
        <ele>741</ele>
        <time>2016-05-19T12:49:53.185Z</time>
      </trkpt>
      <trkpt lat="45.85471" lon="4.4147">
        <ele>741</ele>
        <time>2016-05-19T12:49:54.182Z</time>
      </trkpt>
      <trkpt lat="45.85471" lon="4.41458">
        <ele>741</ele>
        <time>2016-05-19T12:50:07.185Z</time>
      </trkpt>
      <trkpt lat="45.85471" lon="4.41457">
        <ele>741</ele>
        <time>2016-05-19T12:50:08.189Z</time>
      </trkpt>
      <trkpt lat="45.85473" lon="4.41445">
        <ele>741</ele>
        <time>2016-05-19T12:50:20.199Z</time>
      </trkpt>
      <trkpt lat="45.85473" lon="4.41444">
        <ele>741</ele>
        <time>2016-05-19T12:50:21.194Z</time>
      </trkpt>
      <trkpt lat="45.8547" lon="4.41432">
        <ele>741</ele>
        <time>2016-05-19T12:50:30.205Z</time>
      </trkpt>
      <trkpt lat="45.8547" lon="4.41431">
        <ele>741</ele>
        <time>2016-05-19T12:50:31.201Z</time>
      </trkpt>
      <trkpt lat="45.85467" lon="4.4142">
        <ele>742</ele>
        <time>2016-05-19T12:50:42.196Z</time>
      </trkpt>
      <trkpt lat="45.85466" lon="4.41418">
        <ele>742</ele>
        <time>2016-05-19T12:50:43.201Z</time>
      </trkpt>
      <trkpt lat="45.85463" lon="4.41407">
        <ele>743</ele>
        <time>2016-05-19T12:50:50.186Z</time>
      </trkpt>
      <trkpt lat="45.85463" lon="4.41405">
        <ele>743</ele>
        <time>2016-05-19T12:50:51.19Z</time>
      </trkpt>
      <trkpt lat="45.85458" lon="4.41395">
        <ele>744</ele>
        <time>2016-05-19T12:50:59.195Z</time>
      </trkpt>
      <trkpt lat="45.85458" lon="4.41394">
        <ele>744</ele>
        <time>2016-05-19T12:51:00.195Z</time>
      </trkpt>
      <trkpt lat="45.85455" lon="4.41383">
        <ele>745</ele>
        <time>2016-05-19T12:51:07.192Z</time>
      </trkpt>
      <trkpt lat="45.85455" lon="4.41381">
        <ele>745</ele>
        <time>2016-05-19T12:51:08.198Z</time>
      </trkpt>
      <trkpt lat="45.85453" lon="4.41369">
        <ele>745</ele>
        <time>2016-05-19T12:51:17.206Z</time>
      </trkpt>
      <trkpt lat="45.85453" lon="4.41368">
        <ele>745</ele>
        <time>2016-05-19T12:51:18.186Z</time>
      </trkpt>
      <trkpt lat="45.85448" lon="4.41359">
        <ele>746</ele>
        <time>2016-05-19T12:51:32.2Z</time>
      </trkpt>
      <trkpt lat="45.85447" lon="4.41357">
        <ele>746</ele>
        <time>2016-05-19T12:51:33.198Z</time>
      </trkpt>
      <trkpt lat="45.85441" lon="4.41367">
        <ele>747</ele>
        <time>2016-05-19T12:51:50.195Z</time>
      </trkpt>
      <trkpt lat="45.8544" lon="4.41368">
        <ele>747</ele>
        <time>2016-05-19T12:51:51.194Z</time>
      </trkpt>
      <trkpt lat="45.85437" lon="4.41379">
        <ele>747</ele>
        <time>2016-05-19T12:52:00.196Z</time>
      </trkpt>
      <trkpt lat="45.85436" lon="4.4138">
        <ele>747</ele>
        <time>2016-05-19T12:52:01.195Z</time>
      </trkpt>
      <trkpt lat="45.85433" lon="4.41391">
        <ele>748</ele>
        <time>2016-05-19T12:52:11.204Z</time>
      </trkpt>
      <trkpt lat="45.85433" lon="4.41393">
        <ele>748</ele>
        <time>2016-05-19T12:52:12.189Z</time>
      </trkpt>
      <trkpt lat="45.85431" lon="4.41404">
        <ele>750</ele>
        <time>2016-05-19T12:52:25.203Z</time>
      </trkpt>
      <trkpt lat="45.85431" lon="4.41406">
        <ele>750</ele>
        <time>2016-05-19T12:52:26.205Z</time>
      </trkpt>
      <trkpt lat="45.85427" lon="4.41416">
        <ele>753</ele>
        <time>2016-05-19T12:52:36.206Z</time>
      </trkpt>
      <trkpt lat="45.85427" lon="4.41418">
        <ele>752</ele>
        <time>2016-05-19T12:52:37.209Z</time>
      </trkpt>
      <trkpt lat="45.85423" lon="4.41427">
        <ele>752</ele>
        <time>2016-05-19T12:52:46.192Z</time>
      </trkpt>
      <trkpt lat="45.85422" lon="4.41428">
        <ele>752</ele>
        <time>2016-05-19T12:52:47.209Z</time>
      </trkpt>
      <trkpt lat="45.85419" lon="4.4144">
        <ele>750</ele>
        <time>2016-05-19T12:52:57.199Z</time>
      </trkpt>
      <trkpt lat="45.85419" lon="4.41442">
        <ele>749</ele>
        <time>2016-05-19T12:52:58.192Z</time>
      </trkpt>
      <trkpt lat="45.85416" lon="4.41453">
        <ele>766</ele>
        <time>2016-05-19T12:53:07.214Z</time>
      </trkpt>
      <trkpt lat="45.85415" lon="4.41455">
        <ele>766</ele>
        <time>2016-05-19T12:53:08.201Z</time>
      </trkpt>
      <trkpt lat="45.8541" lon="4.41464">
        <ele>766</ele>
        <time>2016-05-19T12:53:15.19Z</time>
      </trkpt>
      <trkpt lat="45.85409" lon="4.41465">
        <ele>766</ele>
        <time>2016-05-19T12:53:16.201Z</time>
      </trkpt>
      <trkpt lat="45.85404" lon="4.41475">
        <ele>766</ele>
        <time>2016-05-19T12:53:26.185Z</time>
      </trkpt>
      <trkpt lat="45.85403" lon="4.41476">
        <ele>766</ele>
        <time>2016-05-19T12:53:27.209Z</time>
      </trkpt>
      <trkpt lat="45.85398" lon="4.41485">
        <ele>766</ele>
        <time>2016-05-19T12:53:34.209Z</time>
      </trkpt>
      <trkpt lat="45.85398" lon="4.41487">
        <ele>766</ele>
        <time>2016-05-19T12:53:35.211Z</time>
      </trkpt>
      <trkpt lat="45.85392" lon="4.41495">
        <ele>767</ele>
        <time>2016-05-19T12:53:43.197Z</time>
      </trkpt>
      <trkpt lat="45.85392" lon="4.41496">
        <ele>767</ele>
        <time>2016-05-19T12:53:44.209Z</time>
      </trkpt>
      <trkpt lat="45.85385" lon="4.41505">
        <ele>767</ele>
        <time>2016-05-19T12:53:52.179Z</time>
      </trkpt>
      <trkpt lat="45.85385" lon="4.41506">
        <ele>768</ele>
        <time>2016-05-19T12:53:53.186Z</time>
      </trkpt>
      <trkpt lat="45.85382" lon="4.41517">
        <ele>768</ele>
        <time>2016-05-19T12:54:02.2Z</time>
      </trkpt>
      <trkpt lat="45.85382" lon="4.41519">
        <ele>768</ele>
        <time>2016-05-19T12:54:03.21Z</time>
      </trkpt>
      <trkpt lat="45.85379" lon="4.41531">
        <ele>769</ele>
        <time>2016-05-19T12:54:12.187Z</time>
      </trkpt>
      <trkpt lat="45.85378" lon="4.41532">
        <ele>769</ele>
        <time>2016-05-19T12:54:13.208Z</time>
      </trkpt>
      <trkpt lat="45.85374" lon="4.41543">
        <ele>769</ele>
        <time>2016-05-19T12:54:21.191Z</time>
      </trkpt>
      <trkpt lat="45.85373" lon="4.41545">
        <ele>770</ele>
        <time>2016-05-19T12:54:22.183Z</time>
      </trkpt>
      <trkpt lat="45.85367" lon="4.41552">
        <ele>771</ele>
        <time>2016-05-19T12:54:29.196Z</time>
      </trkpt>
      <trkpt lat="45.85366" lon="4.41552">
        <ele>771</ele>
        <time>2016-05-19T12:54:30.201Z</time>
      </trkpt>
      <trkpt lat="45.85359" lon="4.4156">
        <ele>772</ele>
        <time>2016-05-19T12:54:40.197Z</time>
      </trkpt>
      <trkpt lat="45.85357" lon="4.41561">
        <ele>772</ele>
        <time>2016-05-19T12:54:41.195Z</time>
      </trkpt>
      <trkpt lat="45.85353" lon="4.41573">
        <ele>774</ele>
        <time>2016-05-19T12:54:48.194Z</time>
      </trkpt>
      <trkpt lat="45.85353" lon="4.41574">
        <ele>774</ele>
        <time>2016-05-19T12:54:49.201Z</time>
      </trkpt>
      <trkpt lat="45.85346" lon="4.41582">
        <ele>777</ele>
        <time>2016-05-19T12:54:57.201Z</time>
      </trkpt>
      <trkpt lat="45.85345" lon="4.41584">
        <ele>776</ele>
        <time>2016-05-19T12:54:58.194Z</time>
      </trkpt>
      <trkpt lat="45.85344" lon="4.41595">
        <ele>775</ele>
        <time>2016-05-19T12:55:05.211Z</time>
      </trkpt>
      <trkpt lat="45.85344" lon="4.41597">
        <ele>775</ele>
        <time>2016-05-19T12:55:06.211Z</time>
      </trkpt>
      <trkpt lat="45.85341" lon="4.41608">
        <ele>773</ele>
        <time>2016-05-19T12:55:13.188Z</time>
      </trkpt>
      <trkpt lat="45.85341" lon="4.4161">
        <ele>773</ele>
        <time>2016-05-19T12:55:14.187Z</time>
      </trkpt>
      <trkpt lat="45.85342" lon="4.41622">
        <ele>772</ele>
        <time>2016-05-19T12:55:23.196Z</time>
      </trkpt>
      <trkpt lat="45.85342" lon="4.41624">
        <ele>772</ele>
        <time>2016-05-19T12:55:24.195Z</time>
      </trkpt>
      <trkpt lat="45.85344" lon="4.41635">
        <ele>772</ele>
        <time>2016-05-19T12:55:30.199Z</time>
      </trkpt>
      <trkpt lat="45.85344" lon="4.41637">
        <ele>772</ele>
        <time>2016-05-19T12:55:31.194Z</time>
      </trkpt>
      <trkpt lat="45.85343" lon="4.41648">
        <ele>773</ele>
        <time>2016-05-19T12:55:38.212Z</time>
      </trkpt>
      <trkpt lat="45.85342" lon="4.4165">
        <ele>774</ele>
        <time>2016-05-19T12:55:39.205Z</time>
      </trkpt>
      <trkpt lat="45.85342" lon="4.41663">
        <ele>776</ele>
        <time>2016-05-19T12:55:47.196Z</time>
      </trkpt>
      <trkpt lat="45.85342" lon="4.41665">
        <ele>777</ele>
        <time>2016-05-19T12:55:48.187Z</time>
      </trkpt>
      <trkpt lat="45.85336" lon="4.41673">
        <ele>779</ele>
        <time>2016-05-19T12:55:54.182Z</time>
      </trkpt>
      <trkpt lat="45.85335" lon="4.41674">
        <ele>779</ele>
        <time>2016-05-19T12:55:55.176Z</time>
      </trkpt>
      <trkpt lat="45.85333" lon="4.41686">
        <ele>791</ele>
        <time>2016-05-19T12:56:02.196Z</time>
      </trkpt>
      <trkpt lat="45.85333" lon="4.41688">
        <ele>791</ele>
        <time>2016-05-19T12:56:03.19Z</time>
      </trkpt>
      <trkpt lat="45.85334" lon="4.417">
        <ele>777</ele>
        <time>2016-05-19T12:56:09.195Z</time>
      </trkpt>
      <trkpt lat="45.85335" lon="4.41702">
        <ele>778</ele>
        <time>2016-05-19T12:56:10.188Z</time>
      </trkpt>
      <trkpt lat="45.85338" lon="4.41714">
        <ele>779</ele>
        <time>2016-05-19T12:56:17.183Z</time>
      </trkpt>
      <trkpt lat="45.85338" lon="4.41715">
        <ele>779</ele>
        <time>2016-05-19T12:56:18.198Z</time>
      </trkpt>
      <trkpt lat="45.85339" lon="4.41728">
        <ele>781</ele>
        <time>2016-05-19T12:56:26.188Z</time>
      </trkpt>
      <trkpt lat="45.85339" lon="4.41729">
        <ele>782</ele>
        <time>2016-05-19T12:56:27.193Z</time>
      </trkpt>
      <trkpt lat="45.85343" lon="4.41741">
        <ele>785</ele>
        <time>2016-05-19T12:56:35.182Z</time>
      </trkpt>
      <trkpt lat="45.85343" lon="4.41742">
        <ele>786</ele>
        <time>2016-05-19T12:56:36.187Z</time>
      </trkpt>
      <trkpt lat="45.85345" lon="4.41755">
        <ele>790</ele>
        <time>2016-05-19T12:56:44.183Z</time>
      </trkpt>
      <trkpt lat="45.85346" lon="4.41756">
        <ele>790</ele>
        <time>2016-05-19T12:56:45.185Z</time>
      </trkpt>
      <trkpt lat="45.8535" lon="4.41766">
        <ele>788</ele>
        <time>2016-05-19T12:56:55.179Z</time>
      </trkpt>
      <trkpt lat="45.8535" lon="4.41768">
        <ele>788</ele>
        <time>2016-05-19T12:56:56.197Z</time>
      </trkpt>
      <trkpt lat="45.85353" lon="4.41778">
        <ele>788</ele>
        <time>2016-05-19T12:57:06.188Z</time>
      </trkpt>
      <trkpt lat="45.85354" lon="4.41779">
        <ele>788</ele>
        <time>2016-05-19T12:57:07.19Z</time>
      </trkpt>
      <trkpt lat="45.85359" lon="4.41789">
        <ele>787</ele>
        <time>2016-05-19T12:57:16.178Z</time>
      </trkpt>
      <trkpt lat="45.8536" lon="4.4179">
        <ele>787</ele>
        <time>2016-05-19T12:57:17.179Z</time>
      </trkpt>
      <trkpt lat="45.85362" lon="4.41801">
        <ele>788</ele>
        <time>2016-05-19T12:57:25.191Z</time>
      </trkpt>
      <trkpt lat="45.85362" lon="4.41802">
        <ele>788</ele>
        <time>2016-05-19T12:57:26.184Z</time>
      </trkpt>
      <trkpt lat="45.85367" lon="4.41813">
        <ele>788</ele>
        <time>2016-05-19T12:57:48.197Z</time>
      </trkpt>
      <trkpt lat="45.85367" lon="4.41813">
        <ele>788</ele>
        <time>2016-05-19T12:57:49.187Z</time>
      </trkpt>
      <trkpt lat="45.85375" lon="4.4182">
        <ele>787</ele>
        <time>2016-05-19T12:57:58.181Z</time>
      </trkpt>
      <trkpt lat="45.85375" lon="4.41821">
        <ele>787</ele>
        <time>2016-05-19T12:57:59.181Z</time>
      </trkpt>
      <trkpt lat="45.8538" lon="4.4183">
        <ele>786</ele>
        <time>2016-05-19T12:58:09.2Z</time>
      </trkpt>
      <trkpt lat="45.85381" lon="4.41832">
        <ele>786</ele>
        <time>2016-05-19T12:58:10.2Z</time>
      </trkpt>
      <trkpt lat="45.85386" lon="4.41842">
        <ele>794</ele>
        <time>2016-05-19T12:58:17.177Z</time>
      </trkpt>
      <trkpt lat="45.85387" lon="4.41843">
        <ele>794</ele>
        <time>2016-05-19T12:58:18.176Z</time>
      </trkpt>
      <trkpt lat="45.85392" lon="4.41853">
        <ele>794</ele>
        <time>2016-05-19T12:58:28.2Z</time>
      </trkpt>
      <trkpt lat="45.85392" lon="4.41854">
        <ele>794</ele>
        <time>2016-05-19T12:58:29.201Z</time>
      </trkpt>
      <trkpt lat="45.85398" lon="4.41864">
        <ele>795</ele>
        <time>2016-05-19T12:58:37.189Z</time>
      </trkpt>
      <trkpt lat="45.85398" lon="4.41866">
        <ele>795</ele>
        <time>2016-05-19T12:58:38.201Z</time>
      </trkpt>
      <trkpt lat="45.85403" lon="4.41876">
        <ele>796</ele>
        <time>2016-05-19T12:58:48.19Z</time>
      </trkpt>
      <trkpt lat="45.85404" lon="4.41878">
        <ele>796</ele>
        <time>2016-05-19T12:58:49.202Z</time>
      </trkpt>
      <trkpt lat="45.85408" lon="4.41889">
        <ele>797</ele>
        <time>2016-05-19T12:58:55.206Z</time>
      </trkpt>
      <trkpt lat="45.85409" lon="4.4189">
        <ele>797</ele>
        <time>2016-05-19T12:58:56.204Z</time>
      </trkpt>
      <trkpt lat="45.85414" lon="4.41899">
        <ele>797</ele>
        <time>2016-05-19T12:59:02.176Z</time>
      </trkpt>
      <trkpt lat="45.85414" lon="4.419">
        <ele>796</ele>
        <time>2016-05-19T12:59:03.183Z</time>
      </trkpt>
      <trkpt lat="45.85419" lon="4.41911">
        <ele>789</ele>
        <time>2016-05-19T12:59:10.187Z</time>
      </trkpt>
      <trkpt lat="45.8542" lon="4.41912">
        <ele>789</ele>
        <time>2016-05-19T12:59:11.204Z</time>
      </trkpt>
      <trkpt lat="45.85424" lon="4.41923">
        <ele>790</ele>
        <time>2016-05-19T12:59:19.196Z</time>
      </trkpt>
      <trkpt lat="45.85424" lon="4.41925">
        <ele>790</ele>
        <time>2016-05-19T12:59:20.211Z</time>
      </trkpt>
      <trkpt lat="45.8542" lon="4.41914">
        <ele>791</ele>
        <time>2016-05-19T13:05:37.195Z</time>
      </trkpt>
      <trkpt lat="45.85419" lon="4.41913">
        <ele>791</ele>
        <time>2016-05-19T13:05:38.195Z</time>
      </trkpt>
      <trkpt lat="45.85412" lon="4.41908">
        <ele>796</ele>
        <time>2016-05-19T13:05:47.195Z</time>
      </trkpt>
      <trkpt lat="45.85411" lon="4.41907">
        <ele>796</ele>
        <time>2016-05-19T13:05:48.193Z</time>
      </trkpt>
      <trkpt lat="45.85403" lon="4.419">
        <ele>797</ele>
        <time>2016-05-19T13:05:55.195Z</time>
      </trkpt>
      <trkpt lat="45.85402" lon="4.41899">
        <ele>797</ele>
        <time>2016-05-19T13:05:56.194Z</time>
      </trkpt>
      <trkpt lat="45.85395" lon="4.41892">
        <ele>798</ele>
        <time>2016-05-19T13:06:04.208Z</time>
      </trkpt>
      <trkpt lat="45.85394" lon="4.41891">
        <ele>798</ele>
        <time>2016-05-19T13:06:05.2Z</time>
      </trkpt>
      <trkpt lat="45.85388" lon="4.41883">
        <ele>798</ele>
        <time>2016-05-19T13:06:12.206Z</time>
      </trkpt>
      <trkpt lat="45.85387" lon="4.41882">
        <ele>798</ele>
        <time>2016-05-19T13:06:13.196Z</time>
      </trkpt>
      <trkpt lat="45.8538" lon="4.41875">
        <ele>799</ele>
        <time>2016-05-19T13:06:21.196Z</time>
      </trkpt>
      <trkpt lat="45.85379" lon="4.41875">
        <ele>799</ele>
        <time>2016-05-19T13:06:22.188Z</time>
      </trkpt>
      <trkpt lat="45.85372" lon="4.41866">
        <ele>799</ele>
        <time>2016-05-19T13:06:30.197Z</time>
      </trkpt>
      <trkpt lat="45.85371" lon="4.41865">
        <ele>799</ele>
        <time>2016-05-19T13:06:31.201Z</time>
      </trkpt>
      <trkpt lat="45.85363" lon="4.41861">
        <ele>800</ele>
        <time>2016-05-19T13:06:48.202Z</time>
      </trkpt>
      <trkpt lat="45.85362" lon="4.41861">
        <ele>800</ele>
        <time>2016-05-19T13:06:49.195Z</time>
      </trkpt>
      <trkpt lat="45.85354" lon="4.41857">
        <ele>801</ele>
        <time>2016-05-19T13:07:04.198Z</time>
      </trkpt>
      <trkpt lat="45.85353" lon="4.41856">
        <ele>801</ele>
        <time>2016-05-19T13:07:05.188Z</time>
      </trkpt>
      <trkpt lat="45.85345" lon="4.41855">
        <ele>802</ele>
        <time>2016-05-19T13:07:10.181Z</time>
      </trkpt>
      <trkpt lat="45.85344" lon="4.41854">
        <ele>802</ele>
        <time>2016-05-19T13:07:11.198Z</time>
      </trkpt>
      <trkpt lat="45.85337" lon="4.41848">
        <ele>803</ele>
        <time>2016-05-19T13:07:17.192Z</time>
      </trkpt>
      <trkpt lat="45.85336" lon="4.41846">
        <ele>803</ele>
        <time>2016-05-19T13:07:18.195Z</time>
      </trkpt>
      <trkpt lat="45.85329" lon="4.41843">
        <ele>810</ele>
        <time>2016-05-19T13:07:22.196Z</time>
      </trkpt>
      <trkpt lat="45.85327" lon="4.41842">
        <ele>811</ele>
        <time>2016-05-19T13:07:23.191Z</time>
      </trkpt>
      <trkpt lat="45.8532" lon="4.41836">
        <ele>812</ele>
        <time>2016-05-19T13:07:29.199Z</time>
      </trkpt>
      <trkpt lat="45.85319" lon="4.41835">
        <ele>812</ele>
        <time>2016-05-19T13:07:30.202Z</time>
      </trkpt>
      <trkpt lat="45.85312" lon="4.41827">
        <ele>808</ele>
        <time>2016-05-19T13:07:37.188Z</time>
      </trkpt>
      <trkpt lat="45.85312" lon="4.41825">
        <ele>808</ele>
        <time>2016-05-19T13:07:38.205Z</time>
      </trkpt>
      <trkpt lat="45.85307" lon="4.41816">
        <ele>809</ele>
        <time>2016-05-19T13:07:45.194Z</time>
      </trkpt>
      <trkpt lat="45.85306" lon="4.41814">
        <ele>809</ele>
        <time>2016-05-19T13:07:46.189Z</time>
      </trkpt>
      <trkpt lat="45.85301" lon="4.41806">
        <ele>809</ele>
        <time>2016-05-19T13:07:53.191Z</time>
      </trkpt>
      <trkpt lat="45.853" lon="4.41805">
        <ele>809</ele>
        <time>2016-05-19T13:07:54.196Z</time>
      </trkpt>
      <trkpt lat="45.85293" lon="4.41798">
        <ele>809</ele>
        <time>2016-05-19T13:08:01.196Z</time>
      </trkpt>
      <trkpt lat="45.85292" lon="4.41797">
        <ele>810</ele>
        <time>2016-05-19T13:08:02.191Z</time>
      </trkpt>
      <trkpt lat="45.85284" lon="4.41793">
        <ele>810</ele>
        <time>2016-05-19T13:08:09.182Z</time>
      </trkpt>
      <trkpt lat="45.85283" lon="4.41792">
        <ele>810</ele>
        <time>2016-05-19T13:08:10.188Z</time>
      </trkpt>
      <trkpt lat="45.85275" lon="4.41788">
        <ele>811</ele>
        <time>2016-05-19T13:08:15.198Z</time>
      </trkpt>
      <trkpt lat="45.85274" lon="4.41787">
        <ele>811</ele>
        <time>2016-05-19T13:08:16.18Z</time>
      </trkpt>
      <trkpt lat="45.85268" lon="4.41779">
        <ele>811</ele>
        <time>2016-05-19T13:08:23.192Z</time>
      </trkpt>
      <trkpt lat="45.85267" lon="4.41778">
        <ele>812</ele>
        <time>2016-05-19T13:08:24.199Z</time>
      </trkpt>
      <trkpt lat="45.8526" lon="4.41771">
        <ele>812</ele>
        <time>2016-05-19T13:08:34.192Z</time>
      </trkpt>
      <trkpt lat="45.85259" lon="4.4177">
        <ele>812</ele>
        <time>2016-05-19T13:08:35.199Z</time>
      </trkpt>
      <trkpt lat="45.85255" lon="4.41758">
        <ele>814</ele>
        <time>2016-05-19T13:08:46.205Z</time>
      </trkpt>
      <trkpt lat="45.85255" lon="4.41757">
        <ele>814</ele>
        <time>2016-05-19T13:08:47.188Z</time>
      </trkpt>
      <trkpt lat="45.85253" lon="4.41745">
        <ele>813</ele>
        <time>2016-05-19T13:08:56.191Z</time>
      </trkpt>
      <trkpt lat="45.85253" lon="4.41743">
        <ele>812</ele>
        <time>2016-05-19T13:08:57.202Z</time>
      </trkpt>
      <trkpt lat="45.85251" lon="4.41731">
        <ele>808</ele>
        <time>2016-05-19T13:09:04.206Z</time>
      </trkpt>
      <trkpt lat="45.8525" lon="4.41729">
        <ele>808</ele>
        <time>2016-05-19T13:09:05.191Z</time>
      </trkpt>
      <trkpt lat="45.8525" lon="4.41718">
        <ele>820</ele>
        <time>2016-05-19T13:09:12.184Z</time>
      </trkpt>
      <trkpt lat="45.85249" lon="4.41716">
        <ele>820</ele>
        <time>2016-05-19T13:09:13.184Z</time>
      </trkpt>
      <trkpt lat="45.85244" lon="4.41706">
        <ele>820</ele>
        <time>2016-05-19T13:09:22.187Z</time>
      </trkpt>
      <trkpt lat="45.85244" lon="4.41705">
        <ele>820</ele>
        <time>2016-05-19T13:09:23.183Z</time>
      </trkpt>
      <trkpt lat="45.85241" lon="4.41693">
        <ele>819</ele>
        <time>2016-05-19T13:09:32.19Z</time>
      </trkpt>
      <trkpt lat="45.85241" lon="4.41691">
        <ele>819</ele>
        <time>2016-05-19T13:09:33.183Z</time>
      </trkpt>
      <trkpt lat="45.85242" lon="4.41679">
        <ele>816</ele>
        <time>2016-05-19T13:09:42.195Z</time>
      </trkpt>
      <trkpt lat="45.85242" lon="4.41677">
        <ele>815</ele>
        <time>2016-05-19T13:09:43.196Z</time>
      </trkpt>
      <trkpt lat="45.85242" lon="4.41666">
        <ele>813</ele>
        <time>2016-05-19T13:09:50.174Z</time>
      </trkpt>
      <trkpt lat="45.85242" lon="4.41664">
        <ele>813</ele>
        <time>2016-05-19T13:09:51.18Z</time>
      </trkpt>
      <trkpt lat="45.85242" lon="4.41651">
        <ele>815</ele>
        <time>2016-05-19T13:09:59.189Z</time>
      </trkpt>
      <trkpt lat="45.85242" lon="4.4165">
        <ele>816</ele>
        <time>2016-05-19T13:10:00.199Z</time>
      </trkpt>
      <trkpt lat="45.85243" lon="4.41637">
        <ele>817</ele>
        <time>2016-05-19T13:10:08.195Z</time>
      </trkpt>
      <trkpt lat="45.85243" lon="4.41635">
        <ele>818</ele>
        <time>2016-05-19T13:10:09.19Z</time>
      </trkpt>
      <trkpt lat="45.85243" lon="4.41623">
        <ele>818</ele>
        <time>2016-05-19T13:10:15.211Z</time>
      </trkpt>
      <trkpt lat="45.85243" lon="4.41621">
        <ele>818</ele>
        <time>2016-05-19T13:10:16.2Z</time>
      </trkpt>
      <trkpt lat="45.85242" lon="4.41609">
        <ele>818</ele>
        <time>2016-05-19T13:10:22.196Z</time>
      </trkpt>
      <trkpt lat="45.85242" lon="4.41607">
        <ele>817</ele>
        <time>2016-05-19T13:10:23.212Z</time>
      </trkpt>
      <trkpt lat="45.85243" lon="4.41595">
        <ele>816</ele>
        <time>2016-05-19T13:10:29.189Z</time>
      </trkpt>
      <trkpt lat="45.85243" lon="4.41593">
        <ele>815</ele>
        <time>2016-05-19T13:10:30.185Z</time>
      </trkpt>
      <trkpt lat="45.85248" lon="4.41584">
        <ele>812</ele>
        <time>2016-05-19T13:10:35.195Z</time>
      </trkpt>
      <trkpt lat="45.85249" lon="4.41582">
        <ele>812</ele>
        <time>2016-05-19T13:10:36.188Z</time>
      </trkpt>
      <trkpt lat="45.85253" lon="4.41571">
        <ele>806</ele>
        <time>2016-05-19T13:10:42.202Z</time>
      </trkpt>
      <trkpt lat="45.85253" lon="4.4157">
        <ele>806</ele>
        <time>2016-05-19T13:10:43.188Z</time>
      </trkpt>
      <trkpt lat="45.85258" lon="4.41559">
        <ele>804</ele>
        <time>2016-05-19T13:10:51.192Z</time>
      </trkpt>
      <trkpt lat="45.85258" lon="4.41557">
        <ele>804</ele>
        <time>2016-05-19T13:10:52.196Z</time>
      </trkpt>
      <trkpt lat="45.85263" lon="4.41548">
        <ele>803</ele>
        <time>2016-05-19T13:10:58.206Z</time>
      </trkpt>
      <trkpt lat="45.85264" lon="4.41546">
        <ele>802</ele>
        <time>2016-05-19T13:10:59.196Z</time>
      </trkpt>
      <trkpt lat="45.85271" lon="4.41538">
        <ele>802</ele>
        <time>2016-05-19T13:11:05.208Z</time>
      </trkpt>
      <trkpt lat="45.85271" lon="4.41537">
        <ele>802</ele>
        <time>2016-05-19T13:11:06.194Z</time>
      </trkpt>
      <trkpt lat="45.85275" lon="4.41527">
        <ele>802</ele>
        <time>2016-05-19T13:11:12.195Z</time>
      </trkpt>
      <trkpt lat="45.85275" lon="4.41525">
        <ele>802</ele>
        <time>2016-05-19T13:11:13.183Z</time>
      </trkpt>
      <trkpt lat="45.85282" lon="4.41516">
        <ele>801</ele>
        <time>2016-05-19T13:11:20.196Z</time>
      </trkpt>
      <trkpt lat="45.85283" lon="4.41515">
        <ele>801</ele>
        <time>2016-05-19T13:11:21.179Z</time>
      </trkpt>
      <trkpt lat="45.85287" lon="4.41505">
        <ele>800</ele>
        <time>2016-05-19T13:11:27.206Z</time>
      </trkpt>
      <trkpt lat="45.85288" lon="4.41504">
        <ele>800</ele>
        <time>2016-05-19T13:11:28.195Z</time>
      </trkpt>
      <trkpt lat="45.85292" lon="4.41493">
        <ele>800</ele>
        <time>2016-05-19T13:11:36.192Z</time>
      </trkpt>
      <trkpt lat="45.85292" lon="4.41491">
        <ele>800</ele>
        <time>2016-05-19T13:11:37.196Z</time>
      </trkpt>
      <trkpt lat="45.85295" lon="4.4148">
        <ele>799</ele>
        <time>2016-05-19T13:11:46.193Z</time>
      </trkpt>
      <trkpt lat="45.85295" lon="4.41479">
        <ele>799</ele>
        <time>2016-05-19T13:11:47.195Z</time>
      </trkpt>
      <trkpt lat="45.85298" lon="4.41468">
        <ele>798</ele>
        <time>2016-05-19T13:11:53.193Z</time>
      </trkpt>
      <trkpt lat="45.85299" lon="4.41466">
        <ele>798</ele>
        <time>2016-05-19T13:11:54.196Z</time>
      </trkpt>
      <trkpt lat="45.85299" lon="4.41454">
        <ele>798</ele>
        <time>2016-05-19T13:12:01.201Z</time>
      </trkpt>
      <trkpt lat="45.853" lon="4.41452">
        <ele>798</ele>
        <time>2016-05-19T13:12:02.197Z</time>
      </trkpt>
      <trkpt lat="45.85302" lon="4.41441">
        <ele>797</ele>
        <time>2016-05-19T13:12:07.206Z</time>
      </trkpt>
      <trkpt lat="45.85302" lon="4.41439">
        <ele>797</ele>
        <time>2016-05-19T13:12:08.2Z</time>
      </trkpt>
      <trkpt lat="45.85303" lon="4.41428">
        <ele>796</ele>
        <time>2016-05-19T13:12:12.188Z</time>
      </trkpt>
      <trkpt lat="45.85304" lon="4.41426">
        <ele>796</ele>
        <time>2016-05-19T13:12:13.198Z</time>
      </trkpt>
      <trkpt lat="45.85301" lon="4.41414">
        <ele>794</ele>
        <time>2016-05-19T13:12:19.194Z</time>
      </trkpt>
      <trkpt lat="45.85301" lon="4.41412">
        <ele>794</ele>
        <time>2016-05-19T13:12:20.203Z</time>
      </trkpt>
      <trkpt lat="45.85298" lon="4.41402">
        <ele>794</ele>
        <time>2016-05-19T13:12:26.188Z</time>
      </trkpt>
      <trkpt lat="45.85298" lon="4.414">
        <ele>794</ele>
        <time>2016-05-19T13:12:27.199Z</time>
      </trkpt>
      <trkpt lat="45.85292" lon="4.41391">
        <ele>795</ele>
        <time>2016-05-19T13:12:32.183Z</time>
      </trkpt>
      <trkpt lat="45.85291" lon="4.41389">
        <ele>795</ele>
        <time>2016-05-19T13:12:33.192Z</time>
      </trkpt>
      <trkpt lat="45.85286" lon="4.4138">
        <ele>796</ele>
        <time>2016-05-19T13:12:38.185Z</time>
      </trkpt>
      <trkpt lat="45.85285" lon="4.41379">
        <ele>796</ele>
        <time>2016-05-19T13:12:39.201Z</time>
      </trkpt>
      <trkpt lat="45.85279" lon="4.41368">
        <ele>796</ele>
        <time>2016-05-19T13:12:46.196Z</time>
      </trkpt>
      <trkpt lat="45.85278" lon="4.41367">
        <ele>796</ele>
        <time>2016-05-19T13:12:47.2Z</time>
      </trkpt>
      <trkpt lat="45.85272" lon="4.41359">
        <ele>797</ele>
        <time>2016-05-19T13:12:53.182Z</time>
      </trkpt>
      <trkpt lat="45.85271" lon="4.41358">
        <ele>798</ele>
        <time>2016-05-19T13:12:54.179Z</time>
      </trkpt>
      <trkpt lat="45.85268" lon="4.41369">
        <ele>798</ele>
        <time>2016-05-19T13:13:11.195Z</time>
      </trkpt>
      <trkpt lat="45.85268" lon="4.4137">
        <ele>798</ele>
        <time>2016-05-19T13:13:12.194Z</time>
      </trkpt>
      <trkpt lat="45.85268" lon="4.41382">
        <ele>798</ele>
        <time>2016-05-19T13:13:21.195Z</time>
      </trkpt>
      <trkpt lat="45.85268" lon="4.41383">
        <ele>799</ele>
        <time>2016-05-19T13:13:22.181Z</time>
      </trkpt>
      <trkpt lat="45.85267" lon="4.41395">
        <ele>800</ele>
        <time>2016-05-19T13:13:39.194Z</time>
      </trkpt>
      <trkpt lat="45.85267" lon="4.41396">
        <ele>800</ele>
        <time>2016-05-19T13:13:40.194Z</time>
      </trkpt>
      <trkpt lat="45.85266" lon="4.41408">
        <ele>802</ele>
        <time>2016-05-19T13:13:52.191Z</time>
      </trkpt>
      <trkpt lat="45.85266" lon="4.41409">
        <ele>802</ele>
        <time>2016-05-19T13:13:53.198Z</time>
      </trkpt>
      <trkpt lat="45.85266" lon="4.41421">
        <ele>805</ele>
        <time>2016-05-19T13:14:05.196Z</time>
      </trkpt>
      <trkpt lat="45.85267" lon="4.41423">
        <ele>805</ele>
        <time>2016-05-19T13:14:06.184Z</time>
      </trkpt>
      <trkpt lat="45.85263" lon="4.41434">
        <ele>804</ele>
        <time>2016-05-19T13:14:15.185Z</time>
      </trkpt>
      <trkpt lat="45.85262" lon="4.41435">
        <ele>804</ele>
        <time>2016-05-19T13:14:16.177Z</time>
      </trkpt>
      <trkpt lat="45.85258" lon="4.41445">
        <ele>804</ele>
        <time>2016-05-19T13:14:28.175Z</time>
      </trkpt>
      <trkpt lat="45.85258" lon="4.41446">
        <ele>804</ele>
        <time>2016-05-19T13:14:29.183Z</time>
      </trkpt>
      <trkpt lat="45.85253" lon="4.41456">
        <ele>804</ele>
        <time>2016-05-19T13:14:39.172Z</time>
      </trkpt>
      <trkpt lat="45.85252" lon="4.41458">
        <ele>804</ele>
        <time>2016-05-19T13:14:40.175Z</time>
      </trkpt>
      <trkpt lat="45.85247" lon="4.41468">
        <ele>821</ele>
        <time>2016-05-19T13:14:49.191Z</time>
      </trkpt>
      <trkpt lat="45.85247" lon="4.41469">
        <ele>821</ele>
        <time>2016-05-19T13:14:50.185Z</time>
      </trkpt>
      <trkpt lat="45.85243" lon="4.41481">
        <ele>820</ele>
        <time>2016-05-19T13:15:00.198Z</time>
      </trkpt>
      <trkpt lat="45.85243" lon="4.41482">
        <ele>820</ele>
        <time>2016-05-19T13:15:01.204Z</time>
      </trkpt>
      <trkpt lat="45.85236" lon="4.4149">
        <ele>820</ele>
        <time>2016-05-19T13:15:09.191Z</time>
      </trkpt>
      <trkpt lat="45.85235" lon="4.41491">
        <ele>820</ele>
        <time>2016-05-19T13:15:10.198Z</time>
      </trkpt>
      <trkpt lat="45.8523" lon="4.41501">
        <ele>820</ele>
        <time>2016-05-19T13:15:19.186Z</time>
      </trkpt>
      <trkpt lat="45.85229" lon="4.41502">
        <ele>820</ele>
        <time>2016-05-19T13:15:20.184Z</time>
      </trkpt>
      <trkpt lat="45.85223" lon="4.4151">
        <ele>822</ele>
        <time>2016-05-19T13:15:35.19Z</time>
      </trkpt>
      <trkpt lat="45.85221" lon="4.41512">
        <ele>822</ele>
        <time>2016-05-19T13:15:36.193Z</time>
      </trkpt>
      <trkpt lat="45.85215" lon="4.41521">
        <ele>823</ele>
        <time>2016-05-19T13:15:44.198Z</time>
      </trkpt>
      <trkpt lat="45.85215" lon="4.41522">
        <ele>824</ele>
        <time>2016-05-19T13:15:45.185Z</time>
      </trkpt>
      <trkpt lat="45.85209" lon="4.41532">
        <ele>824</ele>
        <time>2016-05-19T13:15:59.18Z</time>
      </trkpt>
      <trkpt lat="45.85209" lon="4.41532">
        <ele>824</ele>
        <time>2016-05-19T13:16:00.176Z</time>
      </trkpt>
      <trkpt lat="45.85204" lon="4.41542">
        <ele>825</ele>
        <time>2016-05-19T13:16:20.191Z</time>
      </trkpt>
      <trkpt lat="45.85203" lon="4.41543">
        <ele>825</ele>
        <time>2016-05-19T13:16:21.186Z</time>
      </trkpt>
      <trkpt lat="45.85197" lon="4.41552">
        <ele>826</ele>
        <time>2016-05-19T13:16:27.185Z</time>
      </trkpt>
      <trkpt lat="45.85197" lon="4.41553">
        <ele>826</ele>
        <time>2016-05-19T13:16:28.195Z</time>
      </trkpt>
      <trkpt lat="45.85191" lon="4.41562">
        <ele>827</ele>
        <time>2016-05-19T13:16:34.193Z</time>
      </trkpt>
      <trkpt lat="45.8519" lon="4.41563">
        <ele>827</ele>
        <time>2016-05-19T13:16:35.199Z</time>
      </trkpt>
      <trkpt lat="45.85187" lon="4.41575">
        <ele>828</ele>
        <time>2016-05-19T13:16:44.198Z</time>
      </trkpt>
      <trkpt lat="45.85186" lon="4.41576">
        <ele>828</ele>
        <time>2016-05-19T13:16:45.195Z</time>
      </trkpt>
      <trkpt lat="45.85182" lon="4.41586">
        <ele>828</ele>
        <time>2016-05-19T13:16:54.186Z</time>
      </trkpt>
      <trkpt lat="45.85181" lon="4.41587">
        <ele>829</ele>
        <time>2016-05-19T13:16:55.194Z</time>
      </trkpt>
      <trkpt lat="45.85175" lon="4.41597">
        <ele>829</ele>
        <time>2016-05-19T13:17:02.189Z</time>
      </trkpt>
      <trkpt lat="45.85174" lon="4.41598">
        <ele>829</ele>
        <time>2016-05-19T13:17:03.192Z</time>
      </trkpt>
      <trkpt lat="45.85174" lon="4.41611">
        <ele>827</ele>
        <time>2016-05-19T13:17:14.194Z</time>
      </trkpt>
      <trkpt lat="45.85174" lon="4.41612">
        <ele>827</ele>
        <time>2016-05-19T13:17:15.196Z</time>
      </trkpt>
      <trkpt lat="45.85169" lon="4.41623">
        <ele>827</ele>
        <time>2016-05-19T13:17:24.181Z</time>
      </trkpt>
      <trkpt lat="45.85169" lon="4.41624">
        <ele>827</ele>
        <time>2016-05-19T13:17:25.183Z</time>
      </trkpt>
      <trkpt lat="45.85166" lon="4.41636">
        <ele>845</ele>
        <time>2016-05-19T13:17:34.187Z</time>
      </trkpt>
      <trkpt lat="45.85166" lon="4.41636">
        <ele>845</ele>
        <time>2016-05-19T13:17:35.19Z</time>
      </trkpt>
      <trkpt lat="45.85162" lon="4.41647">
        <ele>844</ele>
        <time>2016-05-19T13:17:47.196Z</time>
      </trkpt>
      <trkpt lat="45.85162" lon="4.41648">
        <ele>843</ele>
        <time>2016-05-19T13:17:48.201Z</time>
      </trkpt>
      <trkpt lat="45.8516" lon="4.4166">
        <ele>840</ele>
        <time>2016-05-19T13:17:55.199Z</time>
      </trkpt>
      <trkpt lat="45.8516" lon="4.41661">
        <ele>840</ele>
        <time>2016-05-19T13:17:56.191Z</time>
      </trkpt>
      <trkpt lat="45.85159" lon="4.41672">
        <ele>841</ele>
        <time>2016-05-19T13:18:05.184Z</time>
      </trkpt>
      <trkpt lat="45.85158" lon="4.41674">
        <ele>841</ele>
        <time>2016-05-19T13:18:06.178Z</time>
      </trkpt>
      <trkpt lat="45.85157" lon="4.41685">
        <ele>844</ele>
        <time>2016-05-19T13:18:12.189Z</time>
      </trkpt>
      <trkpt lat="45.85157" lon="4.41687">
        <ele>845</ele>
        <time>2016-05-19T13:18:13.185Z</time>
      </trkpt>
      <trkpt lat="45.85156" lon="4.417">
        <ele>847</ele>
        <time>2016-05-19T13:18:22.191Z</time>
      </trkpt>
      <trkpt lat="45.85156" lon="4.41701">
        <ele>847</ele>
        <time>2016-05-19T13:18:23.191Z</time>
      </trkpt>
      <trkpt lat="45.85153" lon="4.41713">
        <ele>848</ele>
        <time>2016-05-19T13:18:32.193Z</time>
      </trkpt>
      <trkpt lat="45.85153" lon="4.41714">
        <ele>848</ele>
        <time>2016-05-19T13:18:33.188Z</time>
      </trkpt>
      <trkpt lat="45.85151" lon="4.41726">
        <ele>847</ele>
        <time>2016-05-19T13:18:43.197Z</time>
      </trkpt>
      <trkpt lat="45.85151" lon="4.41728">
        <ele>847</ele>
        <time>2016-05-19T13:18:44.197Z</time>
      </trkpt>
      <trkpt lat="45.8515" lon="4.4174">
        <ele>846</ele>
        <time>2016-05-19T13:18:51.185Z</time>
      </trkpt>
      <trkpt lat="45.8515" lon="4.41741">
        <ele>846</ele>
        <time>2016-05-19T13:18:52.186Z</time>
      </trkpt>
      <trkpt lat="45.85152" lon="4.41753">
        <ele>846</ele>
        <time>2016-05-19T13:19:00.199Z</time>
      </trkpt>
      <trkpt lat="45.85152" lon="4.41755">
        <ele>846</ele>
        <time>2016-05-19T13:19:01.184Z</time>
      </trkpt>
      <trkpt lat="45.85153" lon="4.41768">
        <ele>848</ele>
        <time>2016-05-19T13:19:07.2Z</time>
      </trkpt>
      <trkpt lat="45.85153" lon="4.4177">
        <ele>848</ele>
        <time>2016-05-19T13:19:08.187Z</time>
      </trkpt>
      <trkpt lat="45.85156" lon="4.41782">
        <ele>850</ele>
        <time>2016-05-19T13:19:15.195Z</time>
      </trkpt>
      <trkpt lat="45.85156" lon="4.41783">
        <ele>850</ele>
        <time>2016-05-19T13:19:16.198Z</time>
      </trkpt>
      <trkpt lat="45.85156" lon="4.41796">
        <ele>851</ele>
        <time>2016-05-19T13:19:25.175Z</time>
      </trkpt>
      <trkpt lat="45.85157" lon="4.41796">
        <ele>851</ele>
        <time>2016-05-19T13:19:26.174Z</time>
      </trkpt>
      <trkpt lat="45.85158" lon="4.41807">
        <ele>850</ele>
        <time>2016-05-19T13:19:33.189Z</time>
      </trkpt>
      <trkpt lat="45.85158" lon="4.41809">
        <ele>850</ele>
        <time>2016-05-19T13:19:34.185Z</time>
      </trkpt>
      <trkpt lat="45.85158" lon="4.41821">
        <ele>849</ele>
        <time>2016-05-19T13:19:41.183Z</time>
      </trkpt>
      <trkpt lat="45.85158" lon="4.41822">
        <ele>849</ele>
        <time>2016-05-19T13:19:42.185Z</time>
      </trkpt>
      <trkpt lat="45.85159" lon="4.41834">
        <ele>849</ele>
        <time>2016-05-19T13:19:49.196Z</time>
      </trkpt>
      <trkpt lat="45.85159" lon="4.41835">
        <ele>849</ele>
        <time>2016-05-19T13:19:50.197Z</time>
      </trkpt>
      <trkpt lat="45.85164" lon="4.41845">
        <ele>850</ele>
        <time>2016-05-19T13:19:56.187Z</time>
      </trkpt>
      <trkpt lat="45.85165" lon="4.41847">
        <ele>851</ele>
        <time>2016-05-19T13:19:57.191Z</time>
      </trkpt>
      <trkpt lat="45.85168" lon="4.41858">
        <ele>841</ele>
        <time>2016-05-19T13:20:06.196Z</time>
      </trkpt>
      <trkpt lat="45.85169" lon="4.41859">
        <ele>841</ele>
        <time>2016-05-19T13:20:07.195Z</time>
      </trkpt>
      <trkpt lat="45.85175" lon="4.41868">
        <ele>841</ele>
        <time>2016-05-19T13:20:16.188Z</time>
      </trkpt>
      <trkpt lat="45.85175" lon="4.4187">
        <ele>841</ele>
        <time>2016-05-19T13:20:17.2Z</time>
      </trkpt>
      <trkpt lat="45.85175" lon="4.41882">
        <ele>842</ele>
        <time>2016-05-19T13:20:27.181Z</time>
      </trkpt>
      <trkpt lat="45.85175" lon="4.41884">
        <ele>842</ele>
        <time>2016-05-19T13:20:28.199Z</time>
      </trkpt>
      <trkpt lat="45.8518" lon="4.41893">
        <ele>843</ele>
        <time>2016-05-19T13:20:35.185Z</time>
      </trkpt>
      <trkpt lat="45.85181" lon="4.41894">
        <ele>843</ele>
        <time>2016-05-19T13:20:36.177Z</time>
      </trkpt>
      <trkpt lat="45.85187" lon="4.41903">
        <ele>843</ele>
        <time>2016-05-19T13:20:44.194Z</time>
      </trkpt>
      <trkpt lat="45.85188" lon="4.41905">
        <ele>843</ele>
        <time>2016-05-19T13:20:45.2Z</time>
      </trkpt>
      <trkpt lat="45.85192" lon="4.41915">
        <ele>843</ele>
        <time>2016-05-19T13:20:52.194Z</time>
      </trkpt>
      <trkpt lat="45.85192" lon="4.41917">
        <ele>850</ele>
        <time>2016-05-19T13:20:53.197Z</time>
      </trkpt>
      <trkpt lat="45.85198" lon="4.41926">
        <ele>849</ele>
        <time>2016-05-19T13:21:00.187Z</time>
      </trkpt>
      <trkpt lat="45.85199" lon="4.41927">
        <ele>849</ele>
        <time>2016-05-19T13:21:01.183Z</time>
      </trkpt>
      <trkpt lat="45.85206" lon="4.41932">
        <ele>848</ele>
        <time>2016-05-19T13:21:07.189Z</time>
      </trkpt>
      <trkpt lat="45.85207" lon="4.41933">
        <ele>848</ele>
        <time>2016-05-19T13:21:08.197Z</time>
      </trkpt>
      <trkpt lat="45.85216" lon="4.41934">
        <ele>847</ele>
        <time>2016-05-19T13:21:15.195Z</time>
      </trkpt>
      <trkpt lat="45.85217" lon="4.41935">
        <ele>847</ele>
        <time>2016-05-19T13:21:16.205Z</time>
      </trkpt>
      <trkpt lat="45.85221" lon="4.41944">
        <ele>848</ele>
        <time>2016-05-19T13:21:23.185Z</time>
      </trkpt>
      <trkpt lat="45.85222" lon="4.41946">
        <ele>848</ele>
        <time>2016-05-19T13:21:24.183Z</time>
      </trkpt>
      <trkpt lat="45.85228" lon="4.41954">
        <ele>848</ele>
        <time>2016-05-19T13:21:32.184Z</time>
      </trkpt>
      <trkpt lat="45.85229" lon="4.41955">
        <ele>848</ele>
        <time>2016-05-19T13:21:33.18Z</time>
      </trkpt>
      <trkpt lat="45.85235" lon="4.41962">
        <ele>848</ele>
        <time>2016-05-19T13:21:40.196Z</time>
      </trkpt>
      <trkpt lat="45.85236" lon="4.41963">
        <ele>848</ele>
        <time>2016-05-19T13:21:41.19Z</time>
      </trkpt>
      <trkpt lat="45.85242" lon="4.41972">
        <ele>849</ele>
        <time>2016-05-19T13:21:47.194Z</time>
      </trkpt>
      <trkpt lat="45.85243" lon="4.41973">
        <ele>849</ele>
        <time>2016-05-19T13:21:48.201Z</time>
      </trkpt>
      <trkpt lat="45.85249" lon="4.41982">
        <ele>850</ele>
        <time>2016-05-19T13:21:55.189Z</time>
      </trkpt>
      <trkpt lat="45.85249" lon="4.41983">
        <ele>850</ele>
        <time>2016-05-19T13:21:56.188Z</time>
      </trkpt>
      <trkpt lat="45.85255" lon="4.41992">
        <ele>846</ele>
        <time>2016-05-19T13:22:03.197Z</time>
      </trkpt>
      <trkpt lat="45.85256" lon="4.41993">
        <ele>846</ele>
        <time>2016-05-19T13:22:04.196Z</time>
      </trkpt>
      <trkpt lat="45.85262" lon="4.42001">
        <ele>848</ele>
        <time>2016-05-19T13:22:11.194Z</time>
      </trkpt>
      <trkpt lat="45.85262" lon="4.42002">
        <ele>848</ele>
        <time>2016-05-19T13:22:12.208Z</time>
      </trkpt>
      <trkpt lat="45.85268" lon="4.42012">
        <ele>846</ele>
        <time>2016-05-19T13:22:20.183Z</time>
      </trkpt>
      <trkpt lat="45.85269" lon="4.42014">
        <ele>846</ele>
        <time>2016-05-19T13:22:21.187Z</time>
      </trkpt>
      <trkpt lat="45.85271" lon="4.42026">
        <ele>846</ele>
        <time>2016-05-19T13:22:28.181Z</time>
      </trkpt>
      <trkpt lat="45.85271" lon="4.42028">
        <ele>845</ele>
        <time>2016-05-19T13:22:29.178Z</time>
      </trkpt>
      <trkpt lat="45.85265" lon="4.42038">
        <ele>846</ele>
        <time>2016-05-19T13:22:40.195Z</time>
      </trkpt>
      <trkpt lat="45.85265" lon="4.42038">
        <ele>846</ele>
        <time>2016-05-19T13:22:41.184Z</time>
      </trkpt>
      <trkpt lat="45.85256" lon="4.42041">
        <ele>846</ele>
        <time>2016-05-19T13:22:54.183Z</time>
      </trkpt>
      <trkpt lat="45.85256" lon="4.42041">
        <ele>846</ele>
        <time>2016-05-19T13:22:55.184Z</time>
      </trkpt>
      <trkpt lat="45.85248" lon="4.42043">
        <ele>854</ele>
        <time>2016-05-19T13:23:03.195Z</time>
      </trkpt>
      <trkpt lat="45.85246" lon="4.42044">
        <ele>855</ele>
        <time>2016-05-19T13:23:04.196Z</time>
      </trkpt>
      <trkpt lat="45.85238" lon="4.42045">
        <ele>855</ele>
        <time>2016-05-19T13:23:11.196Z</time>
      </trkpt>
      <trkpt lat="45.85237" lon="4.42044">
        <ele>855</ele>
        <time>2016-05-19T13:23:12.189Z</time>
      </trkpt>
      <trkpt lat="45.85229" lon="4.4204">
        <ele>855</ele>
        <time>2016-05-19T13:23:23.185Z</time>
      </trkpt>
      <trkpt lat="45.85228" lon="4.42041">
        <ele>855</ele>
        <time>2016-05-19T13:23:24.184Z</time>
      </trkpt>
      <trkpt lat="45.85219" lon="4.42041">
        <ele>856</ele>
        <time>2016-05-19T13:23:32.195Z</time>
      </trkpt>
      <trkpt lat="45.85218" lon="4.42041">
        <ele>856</ele>
        <time>2016-05-19T13:23:33.19Z</time>
      </trkpt>
      <trkpt lat="45.85211" lon="4.42034">
        <ele>856</ele>
        <time>2016-05-19T13:23:41.184Z</time>
      </trkpt>
      <trkpt lat="45.8521" lon="4.42033">
        <ele>856</ele>
        <time>2016-05-19T13:23:42.177Z</time>
      </trkpt>
      <trkpt lat="45.85202" lon="4.4203">
        <ele>857</ele>
        <time>2016-05-19T13:23:53.194Z</time>
      </trkpt>
      <trkpt lat="45.85201" lon="4.4203">
        <ele>857</ele>
        <time>2016-05-19T13:23:54.193Z</time>
      </trkpt>
      <trkpt lat="45.85193" lon="4.42026">
        <ele>857</ele>
        <time>2016-05-19T13:24:01.186Z</time>
      </trkpt>
      <trkpt lat="45.85192" lon="4.42026">
        <ele>857</ele>
        <time>2016-05-19T13:24:02.185Z</time>
      </trkpt>
      <trkpt lat="45.85184" lon="4.42023">
        <ele>858</ele>
        <time>2016-05-19T13:24:12.192Z</time>
      </trkpt>
      <trkpt lat="45.85183" lon="4.42022">
        <ele>858</ele>
        <time>2016-05-19T13:24:13.185Z</time>
      </trkpt>
      <trkpt lat="45.85174" lon="4.42022">
        <ele>859</ele>
        <time>2016-05-19T13:24:20.201Z</time>
      </trkpt>
      <trkpt lat="45.85173" lon="4.42022">
        <ele>859</ele>
        <time>2016-05-19T13:24:21.188Z</time>
      </trkpt>
      <trkpt lat="45.85165" lon="4.42019">
        <ele>865</ele>
        <time>2016-05-19T13:24:35.19Z</time>
      </trkpt>
      <trkpt lat="45.85164" lon="4.42019">
        <ele>865</ele>
        <time>2016-05-19T13:24:36.194Z</time>
      </trkpt>
      <trkpt lat="45.85157" lon="4.42021">
        <ele>866</ele>
        <time>2016-05-19T13:24:43.184Z</time>
      </trkpt>
      <trkpt lat="45.85155" lon="4.42021">
        <ele>866</ele>
        <time>2016-05-19T13:24:44.181Z</time>
      </trkpt>
      <trkpt lat="45.85147" lon="4.4202">
        <ele>867</ele>
        <time>2016-05-19T13:24:52.18Z</time>
      </trkpt>
      <trkpt lat="45.85145" lon="4.4202">
        <ele>867</ele>
        <time>2016-05-19T13:24:53.185Z</time>
      </trkpt>
      <trkpt lat="45.85137" lon="4.42017">
        <ele>868</ele>
        <time>2016-05-19T13:24:59.19Z</time>
      </trkpt>
      <trkpt lat="45.85135" lon="4.42017">
        <ele>868</ele>
        <time>2016-05-19T13:25:00.198Z</time>
      </trkpt>
      <trkpt lat="45.85128" lon="4.42011">
        <ele>869</ele>
        <time>2016-05-19T13:25:08.179Z</time>
      </trkpt>
      <trkpt lat="45.85127" lon="4.42011">
        <ele>869</ele>
        <time>2016-05-19T13:25:09.182Z</time>
      </trkpt>
      <trkpt lat="45.85119" lon="4.42006">
        <ele>871</ele>
        <time>2016-05-19T13:25:18.181Z</time>
      </trkpt>
      <trkpt lat="45.85118" lon="4.42006">
        <ele>871</ele>
        <time>2016-05-19T13:25:19.183Z</time>
      </trkpt>
      <trkpt lat="45.85109" lon="4.42002">
        <ele>872</ele>
        <time>2016-05-19T13:25:29.184Z</time>
      </trkpt>
      <trkpt lat="45.85109" lon="4.42001">
        <ele>873</ele>
        <time>2016-05-19T13:25:30.183Z</time>
      </trkpt>
      <trkpt lat="45.85101" lon="4.41995">
        <ele>874</ele>
        <time>2016-05-19T13:29:11.197Z</time>
      </trkpt>
      <trkpt lat="45.851" lon="4.41994">
        <ele>874</ele>
        <time>2016-05-19T13:29:12.199Z</time>
      </trkpt>
      <trkpt lat="45.85092" lon="4.41991">
        <ele>875</ele>
        <time>2016-05-19T13:29:23.185Z</time>
      </trkpt>
      <trkpt lat="45.85092" lon="4.41991">
        <ele>875</ele>
        <time>2016-05-19T13:29:24.186Z</time>
      </trkpt>
      <trkpt lat="45.85084" lon="4.41987">
        <ele>875</ele>
        <time>2016-05-19T13:29:32.188Z</time>
      </trkpt>
      <trkpt lat="45.85083" lon="4.41987">
        <ele>883</ele>
        <time>2016-05-19T13:29:33.195Z</time>
      </trkpt>
      <trkpt lat="45.85074" lon="4.41988">
        <ele>883</ele>
        <time>2016-05-19T13:29:45.197Z</time>
      </trkpt>
      <trkpt lat="45.85074" lon="4.41987">
        <ele>883</ele>
        <time>2016-05-19T13:29:46.192Z</time>
      </trkpt>
      <trkpt lat="45.85065" lon="4.4199">
        <ele>884</ele>
        <time>2016-05-19T13:29:54.176Z</time>
      </trkpt>
      <trkpt lat="45.85064" lon="4.41991">
        <ele>884</ele>
        <time>2016-05-19T13:29:55.184Z</time>
      </trkpt>
      <trkpt lat="45.85057" lon="4.41996">
        <ele>885</ele>
        <time>2016-05-19T13:30:06.191Z</time>
      </trkpt>
      <trkpt lat="45.85056" lon="4.41996">
        <ele>885</ele>
        <time>2016-05-19T13:30:07.191Z</time>
      </trkpt>
      <trkpt lat="45.85047" lon="4.41998">
        <ele>887</ele>
        <time>2016-05-19T13:30:20.184Z</time>
      </trkpt>
      <trkpt lat="45.85046" lon="4.41998">
        <ele>887</ele>
        <time>2016-05-19T13:30:21.181Z</time>
      </trkpt>
      <trkpt lat="45.85039" lon="4.42001">
        <ele>887</ele>
        <time>2016-05-19T13:30:30.189Z</time>
      </trkpt>
      <trkpt lat="45.85037" lon="4.42002">
        <ele>887</ele>
        <time>2016-05-19T13:30:31.195Z</time>
      </trkpt>
      <trkpt lat="45.85028" lon="4.42001">
        <ele>889</ele>
        <time>2016-05-19T13:30:43.185Z</time>
      </trkpt>
      <trkpt lat="45.85028" lon="4.42001">
        <ele>889</ele>
        <time>2016-05-19T13:30:44.186Z</time>
      </trkpt>
      <trkpt lat="45.8502" lon="4.41997">
        <ele>891</ele>
        <time>2016-05-19T13:30:53.186Z</time>
      </trkpt>
      <trkpt lat="45.85019" lon="4.41996">
        <ele>891</ele>
        <time>2016-05-19T13:30:54.177Z</time>
      </trkpt>
      <trkpt lat="45.85012" lon="4.41993">
        <ele>892</ele>
        <time>2016-05-19T13:31:01.197Z</time>
      </trkpt>
      <trkpt lat="45.85011" lon="4.41992">
        <ele>892</ele>
        <time>2016-05-19T13:31:02.197Z</time>
      </trkpt>
      <trkpt lat="45.85004" lon="4.41985">
        <ele>892</ele>
        <time>2016-05-19T13:31:09.188Z</time>
      </trkpt>
      <trkpt lat="45.85003" lon="4.41984">
        <ele>892</ele>
        <time>2016-05-19T13:31:10.192Z</time>
      </trkpt>
      <trkpt lat="45.84998" lon="4.41975">
        <ele>896</ele>
        <time>2016-05-19T13:31:17.182Z</time>
      </trkpt>
      <trkpt lat="45.84998" lon="4.41973">
        <ele>896</ele>
        <time>2016-05-19T13:31:18.186Z</time>
      </trkpt>
      <trkpt lat="45.84992" lon="4.41965">
        <ele>896</ele>
        <time>2016-05-19T13:31:25.175Z</time>
      </trkpt>
      <trkpt lat="45.84991" lon="4.41964">
        <ele>896</ele>
        <time>2016-05-19T13:31:26.18Z</time>
      </trkpt>
      <trkpt lat="45.84983" lon="4.41958">
        <ele>896</ele>
        <time>2016-05-19T13:31:34.196Z</time>
      </trkpt>
      <trkpt lat="45.84983" lon="4.41957">
        <ele>896</ele>
        <time>2016-05-19T13:31:35.177Z</time>
      </trkpt>
      <trkpt lat="45.84975" lon="4.4195">
        <ele>897</ele>
        <time>2016-05-19T13:31:43.196Z</time>
      </trkpt>
      <trkpt lat="45.84974" lon="4.4195">
        <ele>897</ele>
        <time>2016-05-19T13:31:44.198Z</time>
      </trkpt>
      <trkpt lat="45.84968" lon="4.41941">
        <ele>897</ele>
        <time>2016-05-19T13:31:56.183Z</time>
      </trkpt>
      <trkpt lat="45.84968" lon="4.4194">
        <ele>897</ele>
        <time>2016-05-19T13:31:57.19Z</time>
      </trkpt>
      <trkpt lat="45.84962" lon="4.41932">
        <ele>897</ele>
        <time>2016-05-19T13:32:04.185Z</time>
      </trkpt>
      <trkpt lat="45.84961" lon="4.41931">
        <ele>897</ele>
        <time>2016-05-19T13:32:05.185Z</time>
      </trkpt>
      <trkpt lat="45.84956" lon="4.41921">
        <ele>898</ele>
        <time>2016-05-19T13:32:15.195Z</time>
      </trkpt>
      <trkpt lat="45.84955" lon="4.41921">
        <ele>898</ele>
        <time>2016-05-19T13:32:16.18Z</time>
      </trkpt>
      <trkpt lat="45.84949" lon="4.41911">
        <ele>900</ele>
        <time>2016-05-19T13:32:29.19Z</time>
      </trkpt>
      <trkpt lat="45.84949" lon="4.4191">
        <ele>900</ele>
        <time>2016-05-19T13:32:30.194Z</time>
      </trkpt>
      <trkpt lat="45.84943" lon="4.419">
        <ele>901</ele>
        <time>2016-05-19T13:32:41.197Z</time>
      </trkpt>
      <trkpt lat="45.84942" lon="4.41899">
        <ele>901</ele>
        <time>2016-05-19T13:32:42.195Z</time>
      </trkpt>
      <trkpt lat="45.84936" lon="4.41891">
        <ele>901</ele>
        <time>2016-05-19T13:32:47.188Z</time>
      </trkpt>
      <trkpt lat="45.84935" lon="4.4189">
        <ele>901</ele>
        <time>2016-05-19T13:32:48.18Z</time>
      </trkpt>
      <trkpt lat="45.84928" lon="4.41884">
        <ele>901</ele>
        <time>2016-05-19T13:32:52.195Z</time>
      </trkpt>
      <trkpt lat="45.84927" lon="4.41882">
        <ele>901</ele>
        <time>2016-05-19T13:32:53.185Z</time>
      </trkpt>
      <trkpt lat="45.84925" lon="4.41871">
        <ele>901</ele>
        <time>2016-05-19T13:33:00.185Z</time>
      </trkpt>
      <trkpt lat="45.84924" lon="4.4187">
        <ele>901</ele>
        <time>2016-05-19T13:33:01.184Z</time>
      </trkpt>
      <trkpt lat="45.84917" lon="4.41864">
        <ele>902</ele>
        <time>2016-05-19T13:33:06.183Z</time>
      </trkpt>
      <trkpt lat="45.84916" lon="4.41863">
        <ele>903</ele>
        <time>2016-05-19T13:33:07.189Z</time>
      </trkpt>
      <trkpt lat="45.8491" lon="4.41856">
        <ele>903</ele>
        <time>2016-05-19T13:33:14.198Z</time>
      </trkpt>
      <trkpt lat="45.84909" lon="4.41855">
        <ele>903</ele>
        <time>2016-05-19T13:33:15.185Z</time>
      </trkpt>
      <trkpt lat="45.84902" lon="4.41849">
        <ele>903</ele>
        <time>2016-05-19T13:33:22.182Z</time>
      </trkpt>
      <trkpt lat="45.84901" lon="4.41848">
        <ele>903</ele>
        <time>2016-05-19T13:33:23.195Z</time>
      </trkpt>
      <trkpt lat="45.84894" lon="4.41844">
        <ele>903</ele>
        <time>2016-05-19T13:33:29.181Z</time>
      </trkpt>
      <trkpt lat="45.84893" lon="4.41843">
        <ele>903</ele>
        <time>2016-05-19T13:33:30.182Z</time>
      </trkpt>
      <trkpt lat="45.84885" lon="4.41839">
        <ele>903</ele>
        <time>2016-05-19T13:33:39.185Z</time>
      </trkpt>
      <trkpt lat="45.84884" lon="4.41838">
        <ele>903</ele>
        <time>2016-05-19T13:33:40.183Z</time>
      </trkpt>
      <trkpt lat="45.84877" lon="4.41833">
        <ele>903</ele>
        <time>2016-05-19T13:33:45.18Z</time>
      </trkpt>
      <trkpt lat="45.84875" lon="4.41833">
        <ele>908</ele>
        <time>2016-05-19T13:33:46.187Z</time>
      </trkpt>
      <trkpt lat="45.84868" lon="4.41829">
        <ele>908</ele>
        <time>2016-05-19T13:33:51.192Z</time>
      </trkpt>
      <trkpt lat="45.84867" lon="4.41828">
        <ele>908</ele>
        <time>2016-05-19T13:33:52.194Z</time>
      </trkpt>
      <trkpt lat="45.84859" lon="4.41827">
        <ele>908</ele>
        <time>2016-05-19T13:33:57.183Z</time>
      </trkpt>
      <trkpt lat="45.84857" lon="4.41826">
        <ele>908</ele>
        <time>2016-05-19T13:33:58.189Z</time>
      </trkpt>
      <trkpt lat="45.8485" lon="4.41824">
        <ele>907</ele>
        <time>2016-05-19T13:34:03.188Z</time>
      </trkpt>
      <trkpt lat="45.84848" lon="4.41824">
        <ele>907</ele>
        <time>2016-05-19T13:34:04.196Z</time>
      </trkpt>
      <trkpt lat="45.8484" lon="4.41822">
        <ele>907</ele>
        <time>2016-05-19T13:34:10.193Z</time>
      </trkpt>
      <trkpt lat="45.84839" lon="4.41821">
        <ele>907</ele>
        <time>2016-05-19T13:34:11.195Z</time>
      </trkpt>
      <trkpt lat="45.84832" lon="4.41815">
        <ele>907</ele>
        <time>2016-05-19T13:34:16.184Z</time>
      </trkpt>
      <trkpt lat="45.84831" lon="4.41814">
        <ele>907</ele>
        <time>2016-05-19T13:34:17.186Z</time>
      </trkpt>
      <trkpt lat="45.84823" lon="4.41808">
        <ele>907</ele>
        <time>2016-05-19T13:34:23.189Z</time>
      </trkpt>
      <trkpt lat="45.84822" lon="4.41808">
        <ele>907</ele>
        <time>2016-05-19T13:34:24.184Z</time>
      </trkpt>
      <trkpt lat="45.84814" lon="4.41802">
        <ele>908</ele>
        <time>2016-05-19T13:34:31.181Z</time>
      </trkpt>
      <trkpt lat="45.84812" lon="4.418">
        <ele>908</ele>
        <time>2016-05-19T13:34:32.187Z</time>
      </trkpt>
      <trkpt lat="45.84807" lon="4.41791">
        <ele>909</ele>
        <time>2016-05-19T13:34:38.193Z</time>
      </trkpt>
      <trkpt lat="45.84806" lon="4.4179">
        <ele>909</ele>
        <time>2016-05-19T13:34:39.186Z</time>
      </trkpt>
      <trkpt lat="45.84799" lon="4.41785">
        <ele>909</ele>
        <time>2016-05-19T13:34:45.186Z</time>
      </trkpt>
      <trkpt lat="45.84797" lon="4.41784">
        <ele>909</ele>
        <time>2016-05-19T13:34:46.195Z</time>
      </trkpt>
      <trkpt lat="45.8479" lon="4.41778">
        <ele>910</ele>
        <time>2016-05-19T13:34:53.188Z</time>
      </trkpt>
      <trkpt lat="45.84789" lon="4.41777">
        <ele>910</ele>
        <time>2016-05-19T13:34:54.183Z</time>
      </trkpt>
      <trkpt lat="45.84781" lon="4.41771">
        <ele>910</ele>
        <time>2016-05-19T13:35:00.189Z</time>
      </trkpt>
      <trkpt lat="45.8478" lon="4.4177">
        <ele>910</ele>
        <time>2016-05-19T13:35:01.192Z</time>
      </trkpt>
      <trkpt lat="45.84772" lon="4.41767">
        <ele>911</ele>
        <time>2016-05-19T13:35:12.186Z</time>
      </trkpt>
      <trkpt lat="45.84771" lon="4.41766">
        <ele>911</ele>
        <time>2016-05-19T13:35:13.191Z</time>
      </trkpt>
      <trkpt lat="45.84763" lon="4.41761">
        <ele>913</ele>
        <time>2016-05-19T13:35:20.192Z</time>
      </trkpt>
      <trkpt lat="45.84762" lon="4.4176">
        <ele>913</ele>
        <time>2016-05-19T13:35:21.19Z</time>
      </trkpt>
      <trkpt lat="45.84757" lon="4.41749">
        <ele>918</ele>
        <time>2016-05-19T13:35:29.194Z</time>
      </trkpt>
      <trkpt lat="45.84756" lon="4.41748">
        <ele>918</ele>
        <time>2016-05-19T13:35:30.182Z</time>
      </trkpt>
      <trkpt lat="45.8475" lon="4.4174">
        <ele>917</ele>
        <time>2016-05-19T13:35:37.191Z</time>
      </trkpt>
      <trkpt lat="45.84749" lon="4.41739">
        <ele>917</ele>
        <time>2016-05-19T13:35:38.182Z</time>
      </trkpt>
      <trkpt lat="45.84741" lon="4.41734">
        <ele>917</ele>
        <time>2016-05-19T13:35:43.195Z</time>
      </trkpt>
      <trkpt lat="45.8474" lon="4.41733">
        <ele>917</ele>
        <time>2016-05-19T13:35:44.186Z</time>
      </trkpt>
      <trkpt lat="45.84732" lon="4.41731">
        <ele>917</ele>
        <time>2016-05-19T13:35:49.191Z</time>
      </trkpt>
      <trkpt lat="45.8473" lon="4.41731">
        <ele>917</ele>
        <time>2016-05-19T13:35:50.196Z</time>
      </trkpt>
      <trkpt lat="45.84723" lon="4.41729">
        <ele>917</ele>
        <time>2016-05-19T13:35:54.184Z</time>
      </trkpt>
      <trkpt lat="45.84721" lon="4.41728">
        <ele>917</ele>
        <time>2016-05-19T13:35:55.19Z</time>
      </trkpt>
      <trkpt lat="45.84714" lon="4.41722">
        <ele>916</ele>
        <time>2016-05-19T13:36:00.185Z</time>
      </trkpt>
      <trkpt lat="45.84713" lon="4.41721">
        <ele>916</ele>
        <time>2016-05-19T13:36:01.177Z</time>
      </trkpt>
      <trkpt lat="45.84706" lon="4.41719">
        <ele>916</ele>
        <time>2016-05-19T13:36:05.186Z</time>
      </trkpt>
      <trkpt lat="45.84704" lon="4.41719">
        <ele>916</ele>
        <time>2016-05-19T13:36:06.18Z</time>
      </trkpt>
      <trkpt lat="45.84696" lon="4.41715">
        <ele>916</ele>
        <time>2016-05-19T13:36:12.185Z</time>
      </trkpt>
      <trkpt lat="45.84695" lon="4.41714">
        <ele>915</ele>
        <time>2016-05-19T13:36:13.188Z</time>
      </trkpt>
      <trkpt lat="45.84692" lon="4.41703">
        <ele>916</ele>
        <time>2016-05-19T13:36:21.182Z</time>
      </trkpt>
      <trkpt lat="45.84692" lon="4.41701">
        <ele>916</ele>
        <time>2016-05-19T13:36:22.184Z</time>
      </trkpt>
      <trkpt lat="45.84685" lon="4.41695">
        <ele>916</ele>
        <time>2016-05-19T13:36:28.183Z</time>
      </trkpt>
      <trkpt lat="45.84684" lon="4.41694">
        <ele>916</ele>
        <time>2016-05-19T13:36:29.184Z</time>
      </trkpt>
      <trkpt lat="45.84678" lon="4.41685">
        <ele>916</ele>
        <time>2016-05-19T13:36:37.19Z</time>
      </trkpt>
      <trkpt lat="45.84677" lon="4.41684">
        <ele>916</ele>
        <time>2016-05-19T13:36:38.189Z</time>
      </trkpt>
      <trkpt lat="45.84672" lon="4.41676">
        <ele>916</ele>
        <time>2016-05-19T13:36:46.186Z</time>
      </trkpt>
      <trkpt lat="45.84671" lon="4.41675">
        <ele>916</ele>
        <time>2016-05-19T13:36:47.182Z</time>
      </trkpt>
      <trkpt lat="45.84665" lon="4.41665">
        <ele>914</ele>
        <time>2016-05-19T13:36:54.181Z</time>
      </trkpt>
      <trkpt lat="45.84665" lon="4.41664">
        <ele>914</ele>
        <time>2016-05-19T13:36:55.187Z</time>
      </trkpt>
      <trkpt lat="45.84658" lon="4.41656">
        <ele>912</ele>
        <time>2016-05-19T13:41:29.182Z</time>
      </trkpt>
      <trkpt lat="45.84658" lon="4.41655">
        <ele>912</ele>
        <time>2016-05-19T13:41:30.193Z</time>
      </trkpt>
      <trkpt lat="45.8466" lon="4.41642">
        <ele>911</ele>
        <time>2016-05-19T13:41:40.192Z</time>
      </trkpt>
      <trkpt lat="45.8466" lon="4.41641">
        <ele>911</ele>
        <time>2016-05-19T13:41:41.192Z</time>
      </trkpt>
      <trkpt lat="45.84655" lon="4.41632">
        <ele>910</ele>
        <time>2016-05-19T13:41:49.183Z</time>
      </trkpt>
      <trkpt lat="45.84654" lon="4.4163">
        <ele>910</ele>
        <time>2016-05-19T13:41:50.191Z</time>
      </trkpt>
      <trkpt lat="45.84649" lon="4.41619">
        <ele>909</ele>
        <time>2016-05-19T13:41:58.18Z</time>
      </trkpt>
      <trkpt lat="45.84649" lon="4.41618">
        <ele>909</ele>
        <time>2016-05-19T13:41:59.182Z</time>
      </trkpt>
      <trkpt lat="45.84644" lon="4.41608">
        <ele>909</ele>
        <time>2016-05-19T13:42:07.175Z</time>
      </trkpt>
      <trkpt lat="45.84643" lon="4.41607">
        <ele>909</ele>
        <time>2016-05-19T13:42:08.177Z</time>
      </trkpt>
      <trkpt lat="45.84638" lon="4.41598">
        <ele>909</ele>
        <time>2016-05-19T13:42:15.191Z</time>
      </trkpt>
      <trkpt lat="45.84637" lon="4.41597">
        <ele>909</ele>
        <time>2016-05-19T13:42:16.178Z</time>
      </trkpt>
      <trkpt lat="45.84631" lon="4.41588">
        <ele>908</ele>
        <time>2016-05-19T13:42:24.19Z</time>
      </trkpt>
      <trkpt lat="45.84631" lon="4.41587">
        <ele>908</ele>
        <time>2016-05-19T13:42:25.184Z</time>
      </trkpt>
      <trkpt lat="45.84626" lon="4.41577">
        <ele>905</ele>
        <time>2016-05-19T13:42:36.193Z</time>
      </trkpt>
      <trkpt lat="45.84625" lon="4.41576">
        <ele>905</ele>
        <time>2016-05-19T13:42:37.19Z</time>
      </trkpt>
      <trkpt lat="45.84621" lon="4.41565">
        <ele>905</ele>
        <time>2016-05-19T13:42:45.18Z</time>
      </trkpt>
      <trkpt lat="45.8462" lon="4.41564">
        <ele>905</ele>
        <time>2016-05-19T13:42:46.186Z</time>
      </trkpt>
      <trkpt lat="45.84614" lon="4.41555">
        <ele>904</ele>
        <time>2016-05-19T13:42:54.185Z</time>
      </trkpt>
      <trkpt lat="45.84613" lon="4.41554">
        <ele>904</ele>
        <time>2016-05-19T13:42:55.189Z</time>
      </trkpt>
      <trkpt lat="45.84608" lon="4.41543">
        <ele>903</ele>
        <time>2016-05-19T13:43:04.183Z</time>
      </trkpt>
      <trkpt lat="45.84608" lon="4.41542">
        <ele>903</ele>
        <time>2016-05-19T13:43:05.186Z</time>
      </trkpt>
      <trkpt lat="45.84604" lon="4.4153">
        <ele>902</ele>
        <time>2016-05-19T13:43:12.181Z</time>
      </trkpt>
      <trkpt lat="45.84603" lon="4.41529">
        <ele>902</ele>
        <time>2016-05-19T13:43:13.181Z</time>
      </trkpt>
      <trkpt lat="45.84597" lon="4.41521">
        <ele>901</ele>
        <time>2016-05-19T13:43:23.189Z</time>
      </trkpt>
      <trkpt lat="45.84596" lon="4.41521">
        <ele>901</ele>
        <time>2016-05-19T13:43:24.184Z</time>
      </trkpt>
      <trkpt lat="45.84591" lon="4.41511">
        <ele>898</ele>
        <time>2016-05-19T13:43:33.204Z</time>
      </trkpt>
      <trkpt lat="45.84591" lon="4.41509">
        <ele>898</ele>
        <time>2016-05-19T13:43:34.195Z</time>
      </trkpt>
      <trkpt lat="45.84589" lon="4.41497">
        <ele>896</ele>
        <time>2016-05-19T13:43:43.189Z</time>
      </trkpt>
      <trkpt lat="45.84588" lon="4.41496">
        <ele>896</ele>
        <time>2016-05-19T13:43:44.184Z</time>
      </trkpt>
      <trkpt lat="45.84583" lon="4.41487">
        <ele>890</ele>
        <time>2016-05-19T13:43:52.19Z</time>
      </trkpt>
      <trkpt lat="45.84583" lon="4.41485">
        <ele>889</ele>
        <time>2016-05-19T13:43:53.176Z</time>
      </trkpt>
      <trkpt lat="45.84582" lon="4.41474">
        <ele>887</ele>
        <time>2016-05-19T13:43:58.181Z</time>
      </trkpt>
      <trkpt lat="45.84582" lon="4.41472">
        <ele>887</ele>
        <time>2016-05-19T13:43:59.199Z</time>
      </trkpt>
      <trkpt lat="45.84578" lon="4.41462">
        <ele>886</ele>
        <time>2016-05-19T13:44:05.183Z</time>
      </trkpt>
      <trkpt lat="45.84577" lon="4.4146">
        <ele>886</ele>
        <time>2016-05-19T13:44:06.181Z</time>
      </trkpt>
      <trkpt lat="45.84574" lon="4.41449">
        <ele>886</ele>
        <time>2016-05-19T13:44:13.185Z</time>
      </trkpt>
      <trkpt lat="45.84574" lon="4.41448">
        <ele>886</ele>
        <time>2016-05-19T13:44:14.184Z</time>
      </trkpt>
      <trkpt lat="45.8457" lon="4.41438">
        <ele>886</ele>
        <time>2016-05-19T13:44:21.189Z</time>
      </trkpt>
      <trkpt lat="45.84569" lon="4.41436">
        <ele>886</ele>
        <time>2016-05-19T13:44:22.193Z</time>
      </trkpt>
      <trkpt lat="45.84565" lon="4.41425">
        <ele>886</ele>
        <time>2016-05-19T13:44:29.184Z</time>
      </trkpt>
      <trkpt lat="45.84565" lon="4.41423">
        <ele>886</ele>
        <time>2016-05-19T13:44:30.182Z</time>
      </trkpt>
      <trkpt lat="45.84563" lon="4.41412">
        <ele>884</ele>
        <time>2016-05-19T13:44:37.184Z</time>
      </trkpt>
      <trkpt lat="45.84562" lon="4.4141">
        <ele>884</ele>
        <time>2016-05-19T13:44:38.181Z</time>
      </trkpt>
      <trkpt lat="45.84558" lon="4.41401">
        <ele>883</ele>
        <time>2016-05-19T13:44:44.185Z</time>
      </trkpt>
      <trkpt lat="45.84557" lon="4.41399">
        <ele>882</ele>
        <time>2016-05-19T13:44:45.182Z</time>
      </trkpt>
      <trkpt lat="45.84555" lon="4.41387">
        <ele>882</ele>
        <time>2016-05-19T13:44:51.18Z</time>
      </trkpt>
      <trkpt lat="45.84554" lon="4.41385">
        <ele>881</ele>
        <time>2016-05-19T13:44:52.18Z</time>
      </trkpt>
      <trkpt lat="45.84553" lon="4.41373">
        <ele>881</ele>
        <time>2016-05-19T13:44:58.181Z</time>
      </trkpt>
      <trkpt lat="45.84553" lon="4.41371">
        <ele>881</ele>
        <time>2016-05-19T13:44:59.183Z</time>
      </trkpt>
      <trkpt lat="45.8455" lon="4.4136">
        <ele>881</ele>
        <time>2016-05-19T13:45:06.185Z</time>
      </trkpt>
      <trkpt lat="45.8455" lon="4.41358">
        <ele>881</ele>
        <time>2016-05-19T13:45:07.185Z</time>
      </trkpt>
      <trkpt lat="45.84547" lon="4.41347">
        <ele>880</ele>
        <time>2016-05-19T13:45:15.194Z</time>
      </trkpt>
      <trkpt lat="45.84547" lon="4.41345">
        <ele>880</ele>
        <time>2016-05-19T13:45:16.183Z</time>
      </trkpt>
      <trkpt lat="45.84542" lon="4.41336">
        <ele>879</ele>
        <time>2016-05-19T13:45:23.192Z</time>
      </trkpt>
      <trkpt lat="45.84541" lon="4.41334">
        <ele>879</ele>
        <time>2016-05-19T13:45:24.187Z</time>
      </trkpt>
      <trkpt lat="45.84538" lon="4.41324">
        <ele>877</ele>
        <time>2016-05-19T13:45:30.185Z</time>
      </trkpt>
      <trkpt lat="45.84537" lon="4.41323">
        <ele>877</ele>
        <time>2016-05-19T13:45:31.184Z</time>
      </trkpt>
      <trkpt lat="45.84532" lon="4.41313">
        <ele>877</ele>
        <time>2016-05-19T13:45:38.183Z</time>
      </trkpt>
      <trkpt lat="45.84531" lon="4.41312">
        <ele>877</ele>
        <time>2016-05-19T13:45:39.183Z</time>
      </trkpt>
      <trkpt lat="45.8453" lon="4.41301">
        <ele>876</ele>
        <time>2016-05-19T13:45:45.188Z</time>
      </trkpt>
      <trkpt lat="45.84529" lon="4.41299">
        <ele>876</ele>
        <time>2016-05-19T13:45:46.184Z</time>
      </trkpt>
      <trkpt lat="45.84527" lon="4.41287">
        <ele>876</ele>
        <time>2016-05-19T13:45:54.176Z</time>
      </trkpt>
      <trkpt lat="45.84528" lon="4.41284">
        <ele>876</ele>
        <time>2016-05-19T13:45:55.174Z</time>
      </trkpt>
      <trkpt lat="45.84527" lon="4.41273">
        <ele>875</ele>
        <time>2016-05-19T13:46:01.204Z</time>
      </trkpt>
      <trkpt lat="45.84527" lon="4.41271">
        <ele>875</ele>
        <time>2016-05-19T13:46:02.194Z</time>
      </trkpt>
      <trkpt lat="45.84525" lon="4.41259">
        <ele>875</ele>
        <time>2016-05-19T13:46:07.184Z</time>
      </trkpt>
      <trkpt lat="45.84525" lon="4.41257">
        <ele>874</ele>
        <time>2016-05-19T13:46:08.185Z</time>
      </trkpt>
      <trkpt lat="45.84523" lon="4.41246">
        <ele>872</ele>
        <time>2016-05-19T13:46:13.183Z</time>
      </trkpt>
      <trkpt lat="45.84522" lon="4.41244">
        <ele>872</ele>
        <time>2016-05-19T13:46:14.179Z</time>
      </trkpt>
      <trkpt lat="45.84517" lon="4.41233">
        <ele>872</ele>
        <time>2016-05-19T13:46:21.196Z</time>
      </trkpt>
      <trkpt lat="45.84516" lon="4.41232">
        <ele>871</ele>
        <time>2016-05-19T13:46:22.185Z</time>
      </trkpt>
      <trkpt lat="45.84513" lon="4.4122">
        <ele>871</ele>
        <time>2016-05-19T13:48:11.184Z</time>
      </trkpt>
      <trkpt lat="45.84513" lon="4.41219">
        <ele>871</ele>
        <time>2016-05-19T13:48:12.185Z</time>
      </trkpt>
      <trkpt lat="45.84511" lon="4.41207">
        <ele>871</ele>
        <time>2016-05-19T13:48:22.171Z</time>
      </trkpt>
      <trkpt lat="45.8451" lon="4.41206">
        <ele>871</ele>
        <time>2016-05-19T13:48:23.172Z</time>
      </trkpt>
      <trkpt lat="45.84507" lon="4.41195">
        <ele>870</ele>
        <time>2016-05-19T13:48:31.185Z</time>
      </trkpt>
      <trkpt lat="45.84506" lon="4.41193">
        <ele>870</ele>
        <time>2016-05-19T13:48:32.18Z</time>
      </trkpt>
      <trkpt lat="45.84503" lon="4.41182">
        <ele>868</ele>
        <time>2016-05-19T13:48:40.186Z</time>
      </trkpt>
      <trkpt lat="45.84503" lon="4.41181">
        <ele>867</ele>
        <time>2016-05-19T13:48:41.191Z</time>
      </trkpt>
      <trkpt lat="45.84496" lon="4.41171">
        <ele>861</ele>
        <time>2016-05-19T13:48:52.193Z</time>
      </trkpt>
      <trkpt lat="45.84496" lon="4.4117">
        <ele>862</ele>
        <time>2016-05-19T13:48:53.183Z</time>
      </trkpt>
      <trkpt lat="45.84492" lon="4.41159">
        <ele>858</ele>
        <time>2016-05-19T13:49:03.191Z</time>
      </trkpt>
      <trkpt lat="45.84493" lon="4.41157">
        <ele>857</ele>
        <time>2016-05-19T13:49:04.19Z</time>
      </trkpt>
      <trkpt lat="45.8449" lon="4.41146">
        <ele>854</ele>
        <time>2016-05-19T13:49:13.185Z</time>
      </trkpt>
      <trkpt lat="45.84489" lon="4.41145">
        <ele>854</ele>
        <time>2016-05-19T13:49:14.194Z</time>
      </trkpt>
      <trkpt lat="45.84488" lon="4.41133">
        <ele>852</ele>
        <time>2016-05-19T13:49:21.177Z</time>
      </trkpt>
      <trkpt lat="45.84488" lon="4.41131">
        <ele>852</ele>
        <time>2016-05-19T13:49:22.18Z</time>
      </trkpt>
      <trkpt lat="45.84482" lon="4.41122">
        <ele>851</ele>
        <time>2016-05-19T13:49:31.183Z</time>
      </trkpt>
      <trkpt lat="45.84482" lon="4.41121">
        <ele>850</ele>
        <time>2016-05-19T13:49:32.191Z</time>
      </trkpt>
      <trkpt lat="45.84482" lon="4.41108">
        <ele>850</ele>
        <time>2016-05-19T13:49:40.194Z</time>
      </trkpt>
      <trkpt lat="45.84482" lon="4.41107">
        <ele>850</ele>
        <time>2016-05-19T13:49:41.181Z</time>
      </trkpt>
      <trkpt lat="45.84481" lon="4.41095">
        <ele>850</ele>
        <time>2016-05-19T13:49:49.191Z</time>
      </trkpt>
      <trkpt lat="45.84482" lon="4.41093">
        <ele>850</ele>
        <time>2016-05-19T13:49:50.18Z</time>
      </trkpt>
      <trkpt lat="45.8448" lon="4.41081">
        <ele>844</ele>
        <time>2016-05-19T13:49:59.19Z</time>
      </trkpt>
      <trkpt lat="45.8448" lon="4.41079">
        <ele>844</ele>
        <time>2016-05-19T13:50:00.182Z</time>
      </trkpt>
      <trkpt lat="45.84479" lon="4.41067">
        <ele>842</ele>
        <time>2016-05-19T13:50:08.184Z</time>
      </trkpt>
      <trkpt lat="45.8448" lon="4.41065">
        <ele>842</ele>
        <time>2016-05-19T13:50:09.185Z</time>
      </trkpt>
      <trkpt lat="45.8448" lon="4.41053">
        <ele>841</ele>
        <time>2016-05-19T13:50:16.185Z</time>
      </trkpt>
      <trkpt lat="45.84481" lon="4.41052">
        <ele>840</ele>
        <time>2016-05-19T13:50:17.183Z</time>
      </trkpt>
      <trkpt lat="45.84479" lon="4.41039">
        <ele>839</ele>
        <time>2016-05-19T13:50:26.188Z</time>
      </trkpt>
      <trkpt lat="45.84479" lon="4.41038">
        <ele>839</ele>
        <time>2016-05-19T13:50:27.194Z</time>
      </trkpt>
      <trkpt lat="45.84479" lon="4.41026">
        <ele>838</ele>
        <time>2016-05-19T13:50:36.185Z</time>
      </trkpt>
      <trkpt lat="45.84478" lon="4.41024">
        <ele>838</ele>
        <time>2016-05-19T13:50:37.19Z</time>
      </trkpt>
      <trkpt lat="45.8448" lon="4.41012">
        <ele>837</ele>
        <time>2016-05-19T13:50:45.183Z</time>
      </trkpt>
      <trkpt lat="45.8448" lon="4.4101">
        <ele>837</ele>
        <time>2016-05-19T13:50:46.178Z</time>
      </trkpt>
      <trkpt lat="45.84482" lon="4.40998">
        <ele>831</ele>
        <time>2016-05-19T13:50:53.183Z</time>
      </trkpt>
      <trkpt lat="45.84483" lon="4.40996">
        <ele>832</ele>
        <time>2016-05-19T13:50:54.182Z</time>
      </trkpt>
      <trkpt lat="45.84486" lon="4.40985">
        <ele>831</ele>
        <time>2016-05-19T13:51:01.184Z</time>
      </trkpt>
      <trkpt lat="45.84486" lon="4.40983">
        <ele>830</ele>
        <time>2016-05-19T13:51:02.188Z</time>
      </trkpt>
      <trkpt lat="45.84486" lon="4.40971">
        <ele>828</ele>
        <time>2016-05-19T13:51:09.181Z</time>
      </trkpt>
      <trkpt lat="45.84486" lon="4.4097">
        <ele>828</ele>
        <time>2016-05-19T13:51:10.185Z</time>
      </trkpt>
      <trkpt lat="45.84488" lon="4.40958">
        <ele>827</ele>
        <time>2016-05-19T13:51:17.176Z</time>
      </trkpt>
      <trkpt lat="45.84488" lon="4.40956">
        <ele>826</ele>
        <time>2016-05-19T13:51:18.181Z</time>
      </trkpt>
      <trkpt lat="45.84488" lon="4.40944">
        <ele>825</ele>
        <time>2016-05-19T13:51:26.173Z</time>
      </trkpt>
      <trkpt lat="45.84488" lon="4.40942">
        <ele>825</ele>
        <time>2016-05-19T13:51:27.172Z</time>
      </trkpt>
      <trkpt lat="45.84491" lon="4.40931">
        <ele>825</ele>
        <time>2016-05-19T13:51:35.176Z</time>
      </trkpt>
      <trkpt lat="45.84492" lon="4.40929">
        <ele>825</ele>
        <time>2016-05-19T13:51:36.181Z</time>
      </trkpt>
      <trkpt lat="45.84495" lon="4.40918">
        <ele>825</ele>
        <time>2016-05-19T13:51:44.179Z</time>
      </trkpt>
      <trkpt lat="45.84495" lon="4.40917">
        <ele>823</ele>
        <time>2016-05-19T13:51:45.186Z</time>
      </trkpt>
      <trkpt lat="45.84494" lon="4.40905">
        <ele>820</ele>
        <time>2016-05-19T13:51:57.193Z</time>
      </trkpt>
      <trkpt lat="45.84494" lon="4.40904">
        <ele>819</ele>
        <time>2016-05-19T13:51:58.195Z</time>
      </trkpt>
      <trkpt lat="45.84493" lon="4.40891">
        <ele>817</ele>
        <time>2016-05-19T13:52:06.183Z</time>
      </trkpt>
      <trkpt lat="45.84493" lon="4.40889">
        <ele>816</ele>
        <time>2016-05-19T13:52:07.18Z</time>
      </trkpt>
      <trkpt lat="45.84495" lon="4.40877">
        <ele>815</ele>
        <time>2016-05-19T13:52:14.177Z</time>
      </trkpt>
      <trkpt lat="45.84495" lon="4.40875">
        <ele>815</ele>
        <time>2016-05-19T13:52:15.178Z</time>
      </trkpt>
      <trkpt lat="45.84499" lon="4.40865">
        <ele>814</ele>
        <time>2016-05-19T13:52:22.183Z</time>
      </trkpt>
      <trkpt lat="45.84499" lon="4.40863">
        <ele>814</ele>
        <time>2016-05-19T13:52:23.183Z</time>
      </trkpt>
      <trkpt lat="45.84497" lon="4.40851">
        <ele>813</ele>
        <time>2016-05-19T13:52:32.195Z</time>
      </trkpt>
      <trkpt lat="45.84497" lon="4.4085">
        <ele>813</ele>
        <time>2016-05-19T13:52:33.191Z</time>
      </trkpt>
      <trkpt lat="45.84498" lon="4.40837">
        <ele>814</ele>
        <time>2016-05-19T13:53:25.194Z</time>
      </trkpt>
      <trkpt lat="45.84498" lon="4.40836">
        <ele>814</ele>
        <time>2016-05-19T13:53:26.186Z</time>
      </trkpt>
      <trkpt lat="45.84496" lon="4.40824">
        <ele>809</ele>
        <time>2016-05-19T13:53:33.192Z</time>
      </trkpt>
      <trkpt lat="45.84497" lon="4.40822">
        <ele>809</ele>
        <time>2016-05-19T13:53:34.195Z</time>
      </trkpt>
      <trkpt lat="45.84496" lon="4.4081">
        <ele>806</ele>
        <time>2016-05-19T13:53:42.178Z</time>
      </trkpt>
      <trkpt lat="45.84496" lon="4.40808">
        <ele>805</ele>
        <time>2016-05-19T13:53:43.177Z</time>
      </trkpt>
      <trkpt lat="45.84495" lon="4.40796">
        <ele>804</ele>
        <time>2016-05-19T13:53:51.184Z</time>
      </trkpt>
      <trkpt lat="45.84495" lon="4.40795">
        <ele>803</ele>
        <time>2016-05-19T13:53:52.182Z</time>
      </trkpt>
      <trkpt lat="45.84492" lon="4.40783">
        <ele>802</ele>
        <time>2016-05-19T13:53:59.192Z</time>
      </trkpt>
      <trkpt lat="45.84492" lon="4.40782">
        <ele>802</ele>
        <time>2016-05-19T13:54:00.185Z</time>
      </trkpt>
      <trkpt lat="45.84488" lon="4.4077">
        <ele>801</ele>
        <time>2016-05-19T13:54:08.185Z</time>
      </trkpt>
      <trkpt lat="45.84488" lon="4.40768">
        <ele>801</ele>
        <time>2016-05-19T13:54:09.187Z</time>
      </trkpt>
      <trkpt lat="45.84488" lon="4.40756">
        <ele>801</ele>
        <time>2016-05-19T13:54:18.194Z</time>
      </trkpt>
      <trkpt lat="45.84488" lon="4.40755">
        <ele>801</ele>
        <time>2016-05-19T13:54:19.185Z</time>
      </trkpt>
      <trkpt lat="45.84485" lon="4.40744">
        <ele>797</ele>
        <time>2016-05-19T13:54:26.182Z</time>
      </trkpt>
      <trkpt lat="45.84485" lon="4.40742">
        <ele>797</ele>
        <time>2016-05-19T13:54:27.199Z</time>
      </trkpt>
      <trkpt lat="45.84484" lon="4.40731">
        <ele>795</ele>
        <time>2016-05-19T13:54:33.171Z</time>
      </trkpt>
      <trkpt lat="45.84484" lon="4.40729">
        <ele>795</ele>
        <time>2016-05-19T13:54:34.177Z</time>
      </trkpt>
      <trkpt lat="45.84482" lon="4.40717">
        <ele>794</ele>
        <time>2016-05-19T13:54:41.174Z</time>
      </trkpt>
      <trkpt lat="45.84482" lon="4.40714">
        <ele>793</ele>
        <time>2016-05-19T13:54:42.179Z</time>
      </trkpt>
      <trkpt lat="45.84482" lon="4.40702">
        <ele>793</ele>
        <time>2016-05-19T13:54:48.185Z</time>
      </trkpt>
      <trkpt lat="45.84481" lon="4.40701">
        <ele>793</ele>
        <time>2016-05-19T13:54:49.195Z</time>
      </trkpt>
      <trkpt lat="45.84478" lon="4.40689">
        <ele>792</ele>
        <time>2016-05-19T13:54:55.183Z</time>
      </trkpt>
      <trkpt lat="45.84478" lon="4.40687">
        <ele>792</ele>
        <time>2016-05-19T13:54:56.181Z</time>
      </trkpt>
      <trkpt lat="45.84478" lon="4.40676">
        <ele>792</ele>
        <time>2016-05-19T13:55:02.177Z</time>
      </trkpt>
      <trkpt lat="45.84478" lon="4.40674">
        <ele>792</ele>
        <time>2016-05-19T13:55:03.181Z</time>
      </trkpt>
      <trkpt lat="45.84482" lon="4.40664">
        <ele>789</ele>
        <time>2016-05-19T13:55:08.181Z</time>
      </trkpt>
      <trkpt lat="45.84483" lon="4.40662">
        <ele>789</ele>
        <time>2016-05-19T13:55:09.187Z</time>
      </trkpt>
      <trkpt lat="45.84482" lon="4.4065">
        <ele>788</ele>
        <time>2016-05-19T13:55:16.189Z</time>
      </trkpt>
      <trkpt lat="45.84482" lon="4.40648">
        <ele>788</ele>
        <time>2016-05-19T13:55:17.196Z</time>
      </trkpt>
      <trkpt lat="45.84484" lon="4.40636">
        <ele>787</ele>
        <time>2016-05-19T13:55:23.178Z</time>
      </trkpt>
      <trkpt lat="45.84485" lon="4.40634">
        <ele>787</ele>
        <time>2016-05-19T13:55:24.176Z</time>
      </trkpt>
      <trkpt lat="45.8449" lon="4.40624">
        <ele>787</ele>
        <time>2016-05-19T13:55:31.184Z</time>
      </trkpt>
      <trkpt lat="45.8449" lon="4.40622">
        <ele>787</ele>
        <time>2016-05-19T13:55:32.18Z</time>
      </trkpt>
      <trkpt lat="45.84495" lon="4.40611">
        <ele>787</ele>
        <time>2016-05-19T13:55:38.195Z</time>
      </trkpt>
      <trkpt lat="45.84496" lon="4.40609">
        <ele>787</ele>
        <time>2016-05-19T13:55:39.195Z</time>
      </trkpt>
      <trkpt lat="45.845" lon="4.40599">
        <ele>795</ele>
        <time>2016-05-19T13:55:44.196Z</time>
      </trkpt>
      <trkpt lat="45.84501" lon="4.40597">
        <ele>794</ele>
        <time>2016-05-19T13:55:45.193Z</time>
      </trkpt>
      <trkpt lat="45.84505" lon="4.40585">
        <ele>792</ele>
        <time>2016-05-19T13:55:51.183Z</time>
      </trkpt>
      <trkpt lat="45.84505" lon="4.40583">
        <ele>792</ele>
        <time>2016-05-19T13:55:52.185Z</time>
      </trkpt>
      <trkpt lat="45.84507" lon="4.40572">
        <ele>795</ele>
        <time>2016-05-19T13:55:58.245Z</time>
      </trkpt>
      <trkpt lat="45.84508" lon="4.40569">
        <ele>795</ele>
        <time>2016-05-19T13:55:59.22Z</time>
      </trkpt>
      <trkpt lat="45.84508" lon="4.40556">
        <ele>797</ele>
        <time>2016-05-19T13:56:05.175Z</time>
      </trkpt>
      <trkpt lat="45.84508" lon="4.40554">
        <ele>797</ele>
        <time>2016-05-19T13:56:06.186Z</time>
      </trkpt>
      <trkpt lat="45.84505" lon="4.40543">
        <ele>798</ele>
        <time>2016-05-19T13:56:12.199Z</time>
      </trkpt>
      <trkpt lat="45.84505" lon="4.40542">
        <ele>798</ele>
        <time>2016-05-19T13:56:13.197Z</time>
      </trkpt>
      <trkpt lat="45.845" lon="4.40531">
        <ele>798</ele>
        <time>2016-05-19T13:56:20.183Z</time>
      </trkpt>
      <trkpt lat="45.845" lon="4.4053">
        <ele>787</ele>
        <time>2016-05-19T13:56:21.194Z</time>
      </trkpt>
      <trkpt lat="45.84495" lon="4.40519">
        <ele>788</ele>
        <time>2016-05-19T13:56:28.176Z</time>
      </trkpt>
      <trkpt lat="45.84495" lon="4.40517">
        <ele>788</ele>
        <time>2016-05-19T13:56:29.181Z</time>
      </trkpt>
      <trkpt lat="45.84491" lon="4.40507">
        <ele>789</ele>
        <time>2016-05-19T13:56:36.195Z</time>
      </trkpt>
      <trkpt lat="45.84491" lon="4.40506">
        <ele>789</ele>
        <time>2016-05-19T13:56:37.197Z</time>
      </trkpt>
      <trkpt lat="45.84486" lon="4.40496">
        <ele>789</ele>
        <time>2016-05-19T13:56:43.185Z</time>
      </trkpt>
      <trkpt lat="45.84485" lon="4.40494">
        <ele>789</ele>
        <time>2016-05-19T13:56:44.175Z</time>
      </trkpt>
      <trkpt lat="45.84482" lon="4.40483">
        <ele>788</ele>
        <time>2016-05-19T13:56:51.186Z</time>
      </trkpt>
      <trkpt lat="45.84482" lon="4.40481">
        <ele>788</ele>
        <time>2016-05-19T13:56:52.195Z</time>
      </trkpt>
      <trkpt lat="45.84483" lon="4.4047">
        <ele>788</ele>
        <time>2016-05-19T13:56:58.181Z</time>
      </trkpt>
      <trkpt lat="45.84483" lon="4.40468">
        <ele>788</ele>
        <time>2016-05-19T13:56:59.195Z</time>
      </trkpt>
      <trkpt lat="45.84482" lon="4.40457">
        <ele>788</ele>
        <time>2016-05-19T13:57:05.184Z</time>
      </trkpt>
      <trkpt lat="45.84482" lon="4.40455">
        <ele>788</ele>
        <time>2016-05-19T13:57:06.197Z</time>
      </trkpt>
      <trkpt lat="45.84481" lon="4.40444">
        <ele>788</ele>
        <time>2016-05-19T13:57:12.181Z</time>
      </trkpt>
      <trkpt lat="45.8448" lon="4.40442">
        <ele>788</ele>
        <time>2016-05-19T13:57:13.18Z</time>
      </trkpt>
      <trkpt lat="45.84478" lon="4.40431">
        <ele>789</ele>
        <time>2016-05-19T13:57:19.185Z</time>
      </trkpt>
      <trkpt lat="45.84477" lon="4.40429">
        <ele>789</ele>
        <time>2016-05-19T13:57:20.182Z</time>
      </trkpt>
      <trkpt lat="45.84475" lon="4.40418">
        <ele>789</ele>
        <time>2016-05-19T13:57:26.179Z</time>
      </trkpt>
      <trkpt lat="45.84475" lon="4.40416">
        <ele>790</ele>
        <time>2016-05-19T13:57:27.184Z</time>
      </trkpt>
      <trkpt lat="45.84467" lon="4.40409">
        <ele>789</ele>
        <time>2016-05-19T13:57:36.193Z</time>
      </trkpt>
      <trkpt lat="45.84467" lon="4.4041">
        <ele>789</ele>
        <time>2016-05-19T13:57:37.174Z</time>
      </trkpt>
      <trkpt lat="45.84458" lon="4.40415">
        <ele>788</ele>
        <time>2016-05-19T13:58:01.182Z</time>
      </trkpt>
      <trkpt lat="45.84458" lon="4.40417">
        <ele>788</ele>
        <time>2016-05-19T13:58:02.19Z</time>
      </trkpt>
      <trkpt lat="45.84457" lon="4.40428">
        <ele>786</ele>
        <time>2016-05-19T13:58:10.183Z</time>
      </trkpt>
      <trkpt lat="45.84457" lon="4.4043">
        <ele>786</ele>
        <time>2016-05-19T13:58:11.186Z</time>
      </trkpt>
      <trkpt lat="45.84463" lon="4.40439">
        <ele>786</ele>
        <time>2016-05-19T13:58:24.19Z</time>
      </trkpt>
      <trkpt lat="45.84463" lon="4.40439">
        <ele>786</ele>
        <time>2016-05-19T13:58:25.185Z</time>
      </trkpt>
      <trkpt lat="45.84458" lon="4.40442">
        <ele>786</ele>
        <time>2016-05-19T13:59:28.339Z</time>
      </trkpt>
    </trkseg>
  </trk>
</gpx>